<<back to data home page
Ready for Spring and Warmer Weather?? Stay in touch!! - DONATE ANY AMOUNT BY CLICKING THIS LINK!!!


    Month/Day/Year       Maximum   Minimum    Rel    Dew       Rainfall  Seasonal  Soil     Soil      Baro       Wind    Wind        Peak    Peak Gust  Evap     Leaf     Net
    and                  Air Temp  Air Temp   Hum    Point     Inches    Rainfall  Temp     Moisture  Pressure   Speed   Direction   Gust    Direction  Pan      Wetness  Radiation
    Local Time           Deg F     Deg F      %      Deg F               Inches    Deg F    dS/m      mbar       MPH     comp  deg   MPH     comp  deg  Inches   mV       W_m2
----------------------------------------------------------------------------------------------------------------------------------------------------------------------------------
   04/24/2018 19:50      72.2      71.3       25     33.9      0.00      6.07      71.0     0.46      1015.4     1.3     WNW   296   3.4     NNW   328   8.97    262      -98.7
   04/24/2018 19:40      72.5      71.8       24     33.7      0.00      6.07      71.0     0.46      1015.4     1.8     WNW   300   4.4      NW   312   8.97    262      -97.6
   04/24/2018 19:30      73.1      72.3       23     33.0      0.00      6.07      71.0     0.46      1015.3     2.5      NW   307   6.1       N   350   8.98    262      -93.9
   04/24/2018 19:20      74.0      72.8       24     34.3      0.00      6.07      70.9     0.46      1015.2     2.7      NW   309   7.8      NW   313   8.98    262      -90.4
   04/24/2018 19:10      75.2      73.7       24     34.9      0.00      6.07      70.9     0.46      1015.1     2.5      NW   308   5.4     WNW   300   8.98    262      -83.0
   04/24/2018 19:00      76.0      74.9       24     36.5      0.00      6.07      70.9     0.46      1015.1     2.4      NW   313   4.6      NW   316   8.99    262      -64.3
   04/24/2018 18:50      76.1      75.5       24     36.5      0.00      6.07      70.8     0.46      1015.0     2.6      NW   315   5.3     NNW   330   8.99    262      -42.2
   04/24/2018 18:40      76.5      75.5       24     36.3      0.00      6.07      70.8     0.46      1015.0     3.4      NW   320   7.9      NW   316   9.00    262      -20.7
   04/24/2018 18:30      77.7      76.3       24     37.4      0.00      6.07      70.8     0.46      1014.9     3.5      NW   316   8.6      NW   318   9.00    262       -0.3
   04/24/2018 18:20      78.7      77.4       24     38.1      0.00      6.07      70.7     0.46      1014.9     4.1      NW   321   7.7       N     1   9.01    262       37.8
   04/24/2018 18:10      79.7      78.4       23     38.2      0.00      6.07      70.7     0.46      1014.8     3.5      NW   317   8.2       N     0   9.01    262       63.4
   04/24/2018 18:00      80.4      79.4       23     38.9      0.00      6.07      70.6     0.46      1014.7     3.4      NW   318   7.5     NNW   343   9.02    262       92.3
   04/24/2018 17:50      81.1      79.8       23     39.6      0.00      6.07      70.6     0.46      1014.7     3.9      NW   307   7.5      NW   305   9.02    262      122.1
   04/24/2018 17:40      81.8      80.8       24     41.1      0.00      6.07      70.5     0.46      1014.7     2.8      NW   323   7.5      NW   317   9.02    262      146.5
   04/24/2018 17:30      81.8      80.9       24     40.7      0.00      6.07      70.5     0.46      1014.7     3.6      NW   317   9.0      NW   305   9.03    262      166.9
   04/24/2018 17:20      82.1      81.4       23     40.9      0.00      6.07      70.5     0.46      1014.7     4.2      NW   317   8.0     WNW   291   9.03    262      168.5
   04/24/2018 17:10      82.8      81.4       22     40.0      0.00      6.07      70.4     0.46      1014.6     4.2      NW   309   7.8      NW   308   9.04    262      219.4
   04/24/2018 17:00      83.7      82.6       21     39.6      0.00      6.07      70.3     0.46      1014.6     4.5     WNW   294   8.3       W   274   9.04    262      246.2
   04/24/2018 16:50      83.7      83.0       20     38.0      0.00      6.07      70.3     0.46      1014.6     3.6     WNW   288   6.9     WNW   286   9.04    262      274.1
   04/24/2018 16:40      83.8      83.3       19     36.6      0.00      6.07      70.2     0.46      1014.5     5.1       W   261  11.1     WSW   245   9.05    261      301.0
   04/24/2018 16:30      84.1      83.1       20     38.0      0.00      6.07      70.1     0.46      1014.5     4.7     WNW   284  10.7      NW   321   9.05    262      316.6
   04/24/2018 16:20      83.4      81.4       25     43.4      0.00      6.07      70.0     0.45      1014.4     3.8     SSW   206  10.6       W   268   9.06    262      343.7
   04/24/2018 16:10      81.8      81.2       28     45.3      0.00      6.07      70.0     0.46      1014.5     4.8       S   177   9.7       S   179   9.07    262      358.2
   04/24/2018 16:00      82.9      81.3       27     45.2      0.00      6.07      70.0     0.45      1014.6     5.2       S   191  10.5      SW   229   9.07    262      380.4
   04/24/2018 15:50      82.0      81.1       28     45.0      0.00      6.07      69.8     0.45      1014.6     4.9       S   178   8.4     SSW   192   9.07    262      405.2
   04/24/2018 15:40      82.1      81.2       27     44.4      0.00      6.07      69.8     0.46      1014.6     5.1     SSE   155   8.1     SSW   203   9.08    262      425.6
   04/24/2018 15:30      83.8      81.3       25     42.3      0.00      6.07      69.7     0.46      1014.6     5.4     SSE   154   9.4     SSE   152   9.08    262      442.0
   04/24/2018 15:20      84.7      83.5       22     41.8      0.00      6.07      69.7     0.46      1014.7     3.9       N   359  14.7      SW   233   9.09    261      453.7
   04/24/2018 15:10      84.3      83.1       24     42.6      0.00      6.07      69.6     0.45      1014.8     3.0      NE    45   6.5     NNE    31   9.09    262      470.3
   04/24/2018 15:00      84.2      83.1       23     42.3      0.00      6.07      69.5     0.45      1014.9     3.0      NE    54   4.9     NNE    19   9.09    262      486.0
   04/24/2018 14:50      83.5      82.3       23     41.4      0.00      6.07      69.4     0.46      1015.0     2.8      NE    51   5.3     ENE    58   9.09    262      498.5
   04/24/2018 14:40      83.4      82.0       24     41.8      0.00      6.07      69.4     0.46      1015.1     3.0     ENE    63   6.6      SE   143   9.10    262      514.0
   04/24/2018 14:30      83.4      82.8       23     41.6      0.00      6.07      69.3     0.45      1015.1     3.4     ENE    59   6.5      NE    36   9.10    262      526.0
   04/24/2018 14:20      82.8      81.3       23     40.4      0.00      6.07      69.2     0.46      1015.2     3.2      NE    44   6.6      NE    46   9.10    261      536.7
   04/24/2018 14:10      82.3      81.0       23     40.8      0.00      6.07      69.2     0.45      1015.3     3.3      NE    36   5.3      NE    45   9.10    262      549.3
   04/24/2018 14:00      81.8      81.2       24     41.3      0.00      6.07      69.1     0.45      1015.4     3.7      NE    55   6.7       E    88   9.11    261      563.1
   04/24/2018 13:50      83.1      81.5       24     42.1      0.00      6.07      69.1     0.45      1015.5     3.1     ENE    60   5.7      NE    45   9.11    262      570.3
   04/24/2018 13:40      82.8      82.1       25     42.8      0.00      6.07      69.0     0.45      1015.5     2.9     ENE    60   5.7      NE    43   9.11    262      571.3
   04/24/2018 13:30      82.6      81.3       25     42.5      0.00      6.07      69.0     0.45      1015.6     3.2     NNE    26   5.9       N   355   9.11    262      586.1
   04/24/2018 13:20      81.4      80.3       26     42.5      0.00      6.07      68.9     0.45      1015.7     2.9     ENE    67   6.7       E    89   9.11    262      591.4
   04/24/2018 13:10      81.6      80.9       25     42.4      0.00      6.07      68.9     0.45      1015.9     3.0      NE    42   5.5       N     5   9.11    262      593.7
   04/24/2018 13:00      81.3      80.5       26     42.7      0.00      6.07      68.9     0.45      1016.0     2.3      NE    51   4.1     ENE    76   9.12    262      597.3
   04/24/2018 12:50      81.4      79.5       27     43.4      0.00      6.07      68.8     0.45      1016.0     2.2      NE    47   5.9      NE    52   9.12    262      604.7
   04/24/2018 12:40      79.7      78.8       28     43.1      0.00      6.07      68.8     0.45      1016.1     2.5     ENE    71   5.6      SE   135   9.12    262      601.6
   04/24/2018 12:30      79.7      78.9       27     42.9      0.00      6.07      68.8     0.45      1016.3     2.3     ENE    64   7.3      NE    39   9.12    262      598.2
   04/24/2018 12:20      78.8      77.9       29     43.3      0.00      6.07      68.8     0.45      1016.3     3.2      NE    34   6.0      NE    40   9.12    263      539.2
   04/24/2018 12:10      78.8      78.2       30     44.8      0.00      6.07      68.8     0.45      1016.4     3.2     NNE    28   6.2      NW   315   9.12    262      590.0
   04/24/2018 12:00      78.7      77.5       31     44.7      0.00      6.07      68.8     0.46      1016.5     2.3     ENE    61   4.3     SSE   150   9.12    262      600.8
   04/24/2018 11:50      77.8      76.5       32     45.0      0.00      6.07      68.8     0.46      1016.5     2.9     ENE    64   5.7     ENE    62   9.12    262      613.2
   04/24/2018 11:40      77.2      75.4       32     44.2      0.00      6.07      68.7     0.46      1016.5     3.1     ENE    58   7.8      NE    43   9.12    263      641.8
   04/24/2018 11:30      77.7      75.1       31     43.2      0.00      6.07      68.8     0.46      1016.5     2.9      NE    37   5.5      NE    37   9.12    263      326.0
   04/24/2018 11:20      77.3      76.8       31     44.0      0.00      6.07      68.8     0.46      1016.5     2.1     ENE    57   4.5     NNE    15   9.12    263      356.4
   04/24/2018 11:10      77.3      76.0       33     45.0      0.00      6.07      68.8     0.46      1016.6     2.3      NE    48   4.8      NE    56   9.12    263      563.3
   04/24/2018 11:00      76.2      75.3       35     45.9      0.00      6.07      68.8     0.46      1016.6     2.7     NNE    18   6.2     NNE    11   9.12    263      538.9
   04/24/2018 10:50      76.1      73.7       34     45.0      0.00      6.07      68.8     0.46      1016.6     2.0      NE    39   5.8     NNE    19   9.12    263      518.6
   04/24/2018 10:40      74.0      73.2       35     44.2      0.00      6.07      68.8     0.46      1016.6     2.4     NNE    20   3.9     NNE    30   9.12    263      503.1
   04/24/2018 10:30      73.7      71.3       36     44.1      0.00      6.07      68.8     0.46      1016.6     1.2      NE    37   3.4     NNE    19   9.12    263      487.4
   04/24/2018 10:20      71.5      70.3       39     44.3      0.00      6.07      68.9     0.46      1016.6     2.2     NNE    23   3.5       N     0   9.13    263      469.8
   04/24/2018 10:10      70.7      69.6       41     45.6      0.00      6.07      68.9     0.46      1016.6     1.8     NNE    25   3.4      NE    40   9.13    263      434.1
   04/24/2018 10:00      70.6      69.3       43     46.4      0.00      6.07      69.0     0.46      1016.6     1.4      NE    39   3.1     NNE    18   9.12    263      391.3
   04/24/2018 09:50      69.3      67.0       47     47.4      0.00      6.07      69.0     0.46      1016.4     1.1     NNE    29   2.7     ENE    72   9.13    263      384.2
   04/24/2018 09:40      66.9      65.3       52     47.8      0.00      6.07      69.0     0.46      1016.4     1.6     NNE    17   3.5     ENE    62   9.13    264      386.6
   04/24/2018 09:30      66.0      64.9       54     48.3      0.00      6.07      69.1     0.46      1016.2     2.1       N     0   4.4     NNW   338   9.13    264      347.7
   04/24/2018 09:20      66.0      63.7       55     48.3      0.00      6.07      69.1     0.46      1016.3     1.0       E    84   3.0      NE    35   9.13    264      324.9
   04/24/2018 09:10      63.8      63.1       58     48.4      0.00      6.07      69.2     0.46      1016.3     1.8       N    10   3.4     NNE    25   9.13    264      305.4
   04/24/2018 09:00      63.1      62.2       60     48.7      0.00      6.07      69.2     0.46      1016.3     1.2       N   357   2.6       N     2   9.13    264      303.3
   04/24/2018 08:50      62.6      61.4       62     48.9      0.00      6.07      69.2     0.46      1016.4     1.2     NNE    33   2.8     NNE    31   9.13    265      291.3
   04/24/2018 08:40      61.5      59.8       65     48.6      0.00      6.07      69.3     0.46      1016.6     1.0       E   101   2.1     ESE   105   9.13    265      256.1
   04/24/2018 08:30      59.7      58.3       69     48.6      0.00      6.07      69.3     0.47      1016.7     0.8      SE   127   2.9       E   100   9.13    266      162.0
   04/24/2018 08:20      58.5      57.7       70     48.5      0.00      6.07      69.4     0.47      1016.7     1.3       E    84   3.1     ESE   111   9.13    266      142.2
   04/24/2018 08:10      58.1      57.2       70     48.0      0.00      6.07      69.4     0.47      1016.6     0.6     NNE    17   1.8      NE    56   9.13    266       74.2
   04/24/2018 08:00      57.5      56.8       70     47.7      0.00      6.07      69.4     0.47      1016.7     0.8     NNE    19   3.1       N     6   9.13    266       65.8
   04/24/2018 07:50      57.0      55.2       74     47.9      0.00      6.07      69.5     0.47      1016.8     0.3       E    97   1.2     ENE    66   9.13    268       32.4
   04/24/2018 07:40      55.4      54.1       78     48.0      0.00      6.07      69.5     0.47      1016.7     0.4     NNW   342   1.6     NNW   328   9.13    268       21.8
   04/24/2018 07:30      54.3      53.3       81     48.2      0.00      6.07      69.5     0.47      1016.7     0.2      NE    45   1.4      NW   322   9.13    282       26.0
   04/24/2018 07:20      53.3      52.5       84     48.2      0.00      6.07      69.6     0.47      1016.7     0.0       W   278   0.3     WNW   288   9.13    294       23.1
   04/24/2018 07:10      52.7      51.4       86     48.0      0.00      6.07      69.6     0.47      1016.6     0.2       E    99   1.4     ENE    68   9.13    298        5.8
   04/24/2018 07:00      51.5      50.1       89     47.5      0.00      6.07      69.7     0.47      1016.6     0.3       S   182   1.1       S   179   9.13    298        2.3
   04/24/2018 06:50      50.3      49.0       89     46.6      0.00      6.07      69.7     0.47      1016.5     0.3       S   178   1.1       S   178   9.13    298       -3.6
   04/24/2018 06:40      49.2      48.6       89     45.6      0.00      6.07      69.7     0.47      1016.5     0.1     SSE   158   0.8     SSE   159   9.13    298      -10.3
   04/24/2018 06:30      49.5      48.8       89     45.9      0.00      6.07      69.8     0.47      1016.3     0.6     SSE   158   1.4     SSE   148   9.13    296      -18.1
   04/24/2018 06:20      49.7      49.2       88     46.1      0.00      6.07      69.8     0.47      1016.1     0.9     SSE   168   1.4     SSE   164   9.13    294      -23.4
   04/24/2018 06:10      50.0      49.2       88     46.0      0.00      6.07      69.8     0.47      1015.9     0.5     SSE   155   1.2     SSE   150   9.13    292      -27.8
   04/24/2018 06:00      50.0      49.5       88     46.3      0.00      6.07      69.9     0.47      1015.8     0.0       S   170   0.7       S   170   9.13    290      -29.5
   04/24/2018 05:50      50.3      49.7       87     46.4      0.00      6.07      69.9     0.47      1015.8     0.7     SSE   148   1.4     SSE   146   9.13    288      -30.6
   04/24/2018 05:40      50.5      49.7       87     46.4      0.00      6.07      70.0     0.47      1015.7     0.6     SSE   167   1.7     SSW   210   9.13    285      -30.6
   04/24/2018 05:30      50.8      50.2       88     47.1      0.00      6.07      70.0     0.47      1015.6     0.0       N     0   0.0     SSE   147   9.13    284      -30.6
   04/24/2018 05:20      50.8      50.3       88     47.2      0.00      6.07      70.0     0.47      1015.5     0.2     SSE   148   0.7     SSE   148   9.13    283      -32.9
   04/24/2018 05:10      50.9      50.2       88     47.0      0.00      6.07      70.1     0.47      1015.4     0.1     SSE   148   0.5     SSE   148   9.13    280      -34.7
   04/24/2018 05:00      50.9      50.3       88     47.0      0.00      6.07      70.1     0.47      1015.4     0.6       S   175   1.4       S   182   9.13    277      -36.1
   04/24/2018 04:50      50.8      50.4       88     47.1      0.00      6.07      70.2     0.47      1015.4     1.3     SSE   168   2.7       S   177   9.13    275      -37.6
   04/24/2018 04:40      50.9      50.5       87     46.9      0.00      6.07      70.2     0.47      1015.3     0.6       S   176   1.2       S   170   9.13    274      -41.2
   04/24/2018 04:30      51.0      50.6       86     46.7      0.00      6.07      70.2     0.47      1015.3     0.6       S   174   1.3       S   180   9.13    271      -44.3
   04/24/2018 04:20      51.5      50.6       85     46.5      0.00      6.07      70.3     0.47      1015.5     0.3     SSE   160   0.9     SSE   165   9.13    271      -47.5
   04/24/2018 04:10      51.8      51.2       84     46.9      0.00      6.07      70.3     0.47      1015.5     0.6       S   181   1.2       S   183   9.13    271      -48.5
   04/24/2018 04:00      52.0      51.3       83     46.6      0.00      6.07      70.3     0.47      1015.5     0.2       S   174   0.9     SSE   164   9.13    270      -52.4
   04/24/2018 03:50      52.5      51.7       82     46.7      0.00      6.07      70.4     0.47      1015.5     0.3     SSW   194   1.6       S   181   9.14    269      -53.0
   04/24/2018 03:40      52.4      52.0       83     47.3      0.00      6.07      70.4     0.47      1015.5     0.0       N     0   0.0     SSE   152   9.14    269      -54.6
   04/24/2018 03:30      52.1      51.7       83     47.0      0.00      6.07      70.4     0.47      1015.5     0.0       N     0   0.0     SSE   151   9.14    268      -56.7
   04/24/2018 03:20      52.1      51.7       83     47.0      0.00      6.07      70.4     0.47      1015.6     0.9     SSE   160   1.9     SSE   168   9.14    269      -58.5
   04/24/2018 03:10      52.7      51.8       83     47.4      0.00      6.07      70.5     0.47      1015.6     0.9     SSE   168   1.6     SSE   156   9.14    268      -57.3
   04/24/2018 03:00      52.7      52.3       84     47.8      0.00      6.07      70.5     0.47      1015.7     1.5     SSE   159   2.5       S   176   9.14    268      -57.1
   04/24/2018 02:50      52.7      52.1       84     47.7      0.00      6.07      70.6     0.47      1015.9     1.3     SSE   151   2.5       S   172   9.14    268      -57.4
   04/24/2018 02:40      53.3      52.2       83     47.6      0.00      6.07      70.6     0.47      1015.9     0.8     SSE   160   1.3     SSE   155   9.14    268      -58.5
   04/24/2018 02:30      53.3      52.6       83     47.8      0.00      6.07      70.6     0.47      1015.9     0.8     SSE   166   1.3     SSE   159   9.14    268      -58.7
   04/24/2018 02:20      53.2      52.7       83     47.8      0.00      6.07      70.7     0.47      1016.0     0.5       S   186   1.8     SSW   192   9.14    268      -60.5
   04/24/2018 02:10      53.3      52.6       83     48.0      0.00      6.07      70.7     0.47      1016.1     1.0       S   172   1.6       S   175   9.14    268      -58.1
   04/24/2018 02:00      53.6      53.0       83     48.2      0.00      6.07      70.7     0.47      1016.2     0.3       S   171   1.1       S   174   9.14    268      -59.0
   04/24/2018 01:50      53.7      53.3       83     48.4      0.00      6.07      70.7     0.47      1016.4     0.4       S   176   1.2       S   172   9.14    268      -61.5
   04/24/2018 01:40      54.1      53.5       83     48.6      0.00      6.07      70.8     0.47      1016.4     0.4       S   174   1.0       S   176   9.14    268      -63.2
   04/24/2018 01:30      54.0      53.2       82     48.3      0.00      6.07      70.8     0.47      1016.5     0.4     SSE   162   1.0     SSE   161   9.15    268      -66.8
   04/24/2018 01:20      54.7      53.5       81     48.2      0.00      6.07      70.8     0.47      1016.6     0.6     SSE   167   1.2       S   173   9.15    268      -69.2
   04/24/2018 01:10      55.1      54.5       79     48.5      0.00      6.07      70.8     0.47      1016.6     0.5       S   180   1.3       S   170   9.15    268      -69.8
   04/24/2018 01:00      55.8      54.9       79     48.7      0.00      6.07      70.9     0.47      1016.6     0.8       S   178   1.9       S   189   9.15    267      -69.8
   04/24/2018 00:50      56.1      55.4       78     49.0      0.00      6.07      70.9     0.47      1016.6     0.3       S   179   1.2     SSW   195   9.15    268      -70.2
   04/24/2018 00:40      56.4      55.9       78     49.1      0.00      6.07      70.9     0.47      1016.6     0.0       N     0   0.0      SW   228   9.15    267      -72.5
   04/24/2018 00:30      56.6      56.0       77     49.3      0.00      6.07      70.9     0.47      1016.6     0.0       N     0   0.0     ESE   113   9.15    267      -73.4
   04/24/2018 00:20      56.9      56.3       76     49.0      0.00      6.07      70.9     0.47      1016.5     0.0     ESE   102   0.4       E    99   9.15    267      -72.3
   04/24/2018 00:10      57.3      56.6       75     49.2      0.00      6.07      70.9     0.47      1016.4     0.0     ESE   109   0.6     ESE   115   9.15    267      -73.4
   04/24/2018 00:00      57.9      57.0       75     49.3      0.00      6.07      71.0     0.47      1016.3     0.0      SE   124   0.5     ENE    70   9.15    267      -72.9
   04/23/2018 23:50      57.6      57.1       75     49.5      0.00      6.07      71.0     0.47      1016.3     0.4     ESE   109   1.6       E    88   9.15    266      -73.5
   04/23/2018 23:40      57.5      56.9       74     49.0      0.00      6.07      71.0     0.47      1016.3     0.1     ESE   109   0.9     ESE   117   9.15    266      -73.0
   04/23/2018 23:30      57.4      57.0       74     48.9      0.00      6.07      71.0     0.47      1016.3     0.0     SSE   156   0.6     SSE   157   9.16    266      -72.8
   04/23/2018 23:20      57.9      57.0       73     48.8      0.00      6.07      71.0     0.47      1016.2     0.2     SSE   160   0.8     SSE   159   9.16    266      -74.2
   04/23/2018 23:10      58.0      57.4       72     48.6      0.00      6.07      71.1     0.47      1016.3     0.5     SSW   201   1.2     SSW   195   9.16    266      -74.3
   04/23/2018 23:00      58.7      57.9       70     48.6      0.00      6.07      71.0     0.47      1016.3     0.9     SSW   195   2.5     SSW   206   9.16    266      -75.4
   04/23/2018 22:50      59.3      58.4       70     48.8      0.00      6.07      71.1     0.47      1016.3     0.6     SSE   165   1.7     SSW   203   9.16    266      -75.7
   04/23/2018 22:40      59.7      58.8       69     49.0      0.00      6.07      71.0     0.47      1016.2     0.2      SW   217   1.1      SW   218   9.16    266      -76.1
   04/23/2018 22:30      60.3      59.4       67     48.9      0.00      6.07      71.0     0.47      1016.2     0.0       N     0   0.0     SSE   148   9.17    266      -78.2
   04/23/2018 22:20      61.0      60.0       66     48.9      0.00      6.07      71.0     0.47      1016.2     0.5     SSE   158   1.9      SE   135   9.17    266      -80.3
   04/23/2018 22:10      61.6      60.8       64     49.1      0.00      6.07      71.1     0.47      1016.2     0.5     ESE   115   1.8      SE   133   9.17    266      -82.6
   04/23/2018 22:00      62.0      61.3       63     48.9      0.00      6.07      71.0     0.47      1016.2     1.1      SE   125   2.2      SE   134   9.17    266      -83.6
   04/23/2018 21:50      62.5      61.7       62     48.9      0.00      6.07      71.0     0.47      1016.2     0.4       E    89   1.6       E    87   9.17    266      -83.9
   04/23/2018 21:40      62.7      62.1       62     49.1      0.00      6.07      71.0     0.47      1016.1     0.3     ENE    72   1.4      NE    55   9.17    265      -83.8
   04/23/2018 21:30      63.0      62.4       61     49.1      0.00      6.07      71.0     0.47      1015.9     0.0      NE    49   0.7      NE    53   9.18    265      -83.8
   04/23/2018 21:20      63.5      62.6       59     48.4      0.00      6.07      71.0     0.47      1015.8     0.0     SSW   197   0.4     SSW   197   9.18    265      -83.6
   04/23/2018 21:10      64.4      63.2       57     48.2      0.00      6.07      71.0     0.47      1015.7     0.0       N     0   0.0       S   175   9.18    264      -83.7
   04/23/2018 21:00      65.7      64.0       54     48.0      0.00      6.07      71.0     0.47      1015.6     0.0      SE   128   1.2       E    96   9.18    264      -84.8
   04/23/2018 20:50      66.5      65.4       53     48.1      0.00      6.07      70.9     0.47      1015.5     0.5       E   100   1.7       E    86   9.18    264      -86.5
   04/23/2018 20:40      66.9      66.2       51     48.0      0.00      6.07      70.9     0.47      1015.3     0.6       E    89   2.8     ESE   107   9.18    264      -88.9
   04/23/2018 20:30      68.3      66.6       48     46.7      0.00      6.07      70.9     0.47      1015.2     0.4       E    99   2.7     ENE    62   9.19    264      -89.1
   04/23/2018 20:20      69.6      68.3       44     46.0      0.00      6.07      70.9     0.47      1015.0     0.3       N     4   1.6      SE   146   9.19    263      -91.9
   04/23/2018 20:10      71.3      69.3       43     46.4      0.00      6.07      70.8     0.47      1014.9     0.3     WSW   241   1.7      NW   317   9.19    263      -94.0
   04/23/2018 20:00      71.8      71.0       42     46.9      0.00      6.07      70.8     0.47      1014.7     1.2      NW   317   3.0      NW   321   9.19    263      -96.2
   04/23/2018 19:50      72.7      71.4       41     47.2      0.00      6.07      70.8     0.47      1014.6     1.9     WNW   284   5.3       W   262   9.20    263      -96.4
   04/23/2018 19:40      73.9      72.3       40     47.4      0.00      6.07      70.7     0.47      1014.5     2.5       W   281   5.1       W   261   9.20    263      -95.4
   04/23/2018 19:30      75.2      73.7       38     46.9      0.00      6.07      70.7     0.47      1014.4     2.7     WNW   297   5.6     WNW   291   9.20    263      -92.7
   04/23/2018 19:20      77.6      75.1       35     46.1      0.00      6.07      70.7     0.47      1014.3     3.0      NW   317   6.0     WNW   295   9.21    263      -87.9
   04/23/2018 19:10      78.5      77.4       30     44.2      0.00      6.07      70.7     0.47      1014.1     3.0      NW   305   5.5     WNW   287   9.21    262      -77.9
   04/23/2018 19:00      80.1      78.4       29     43.8      0.00      6.07      70.6     0.47      1014.0     3.7      SW   235   5.9      SW   234   9.22    262      -57.6
   04/23/2018 18:50      80.8      79.8       27     43.1      0.00      6.07      70.5     0.47      1013.9     3.1       W   261   5.3      SW   231   9.22    262      -41.8
   04/23/2018 18:40      81.4      80.5       24     40.5      0.00      6.07      70.5     0.47      1013.8     3.3     WSW   256   6.0     SSW   210   9.23    262      -26.1
   04/23/2018 18:30      81.8      81.2       24     41.6      0.00      6.07      70.5     0.47      1013.8     4.1     WSW   255   6.9     WSW   246   9.23    262       16.3
   04/23/2018 18:20      81.9      81.3       27     44.7      0.00      6.07      70.5     0.47      1013.8     2.9     WNW   302   5.6      NW   325   9.23    262       40.1
   04/23/2018 18:10      82.2      81.5       27     44.8      0.00      6.07      70.4     0.47      1013.8     3.4       W   273   7.0       W   271   9.24    262       68.9
   04/23/2018 18:00      82.8      81.7       27     45.2      0.00      6.07      70.3     0.47      1013.8     3.6     WNW   295   7.0       N   350   9.24    262       97.6
   04/23/2018 17:50      83.1      82.3       28     46.3      0.00      6.07      70.3     0.47      1013.7     3.3      NW   309   6.2     WNW   289   9.25    262      128.6
   04/23/2018 17:40      83.9      83.0       27     46.1      0.00      6.07      70.2     0.47      1013.6     4.3     WNW   282   8.0       W   269   9.25    262      154.1
   04/23/2018 17:30      83.7      82.6       26     44.9      0.00      6.07      70.2     0.47      1013.7     4.5     WSW   239   7.8     WSW   246   9.25    262      175.6
   04/23/2018 17:20      83.7      82.5       27     45.4      0.00      6.07      70.1     0.47      1013.7     5.7      SW   228   9.9     SSW   208   9.26    262      182.6
   04/23/2018 17:10      84.1      82.8       26     44.8      0.00      6.07      70.0     0.47      1013.7     5.4      SW   220   8.4     WSW   238   9.26    262      155.4
   04/23/2018 17:00      84.4      83.2       25     43.8      0.00      6.07      70.0     0.47      1013.7     5.7      SW   230   9.8       S   191   9.27    262      171.8
   04/23/2018 16:50      84.5      83.9       24     43.0      0.00      6.07      69.9     0.47      1013.6     5.6      SW   230   9.3     WSW   248   9.28    262      237.1
   04/23/2018 16:40      85.5      84.0       24     43.4      0.00      6.07      69.8     0.47      1013.5     6.2     SSW   203  12.1       S   185   9.28    262      293.3
   04/23/2018 16:30      85.4      84.7       23     43.0      0.00      6.07      69.7     0.47      1013.5     5.6      SW   227   9.2     WSW   242   9.28    262      329.8
   04/23/2018 16:20      85.3      84.3       23     43.1      0.00      6.07      69.7     0.47      1013.5     5.6     SSW   204   9.8     SSW   201   9.29    262      342.7
   04/23/2018 16:10      85.7      84.2       23     42.5      0.00      6.07      69.6     0.47      1013.5     6.7     SSW   213  11.2     WSW   238   9.30    262      290.9
   04/23/2018 16:00      85.7      85.0       24     44.0      0.00      6.07      69.5     0.47      1013.5     6.2     SSW   197  10.5      SW   220   9.30    262      322.3
   04/23/2018 15:50      85.6      84.7       25     45.0      0.00      6.07      69.4     0.47      1013.6     5.1     SSW   194  10.1      SW   227   9.31    262      335.3
   04/23/2018 15:40      86.9      84.8       25     45.8      0.00      6.07      69.3     0.47      1013.7     5.8       S   180   8.5     SSE   158   9.31    262      414.7
   04/23/2018 15:30      86.9      85.0       25     46.4      0.00      6.07      69.3     0.47      1013.7     5.9     SSW   212   9.9      SW   216   9.32    262      450.1
   04/23/2018 15:20      87.9      86.6       26     47.7      0.00      6.07      69.2     0.47      1013.9     3.2      SW   215   9.2     WSW   241   9.32    263      455.4
   04/23/2018 15:10      87.6      86.5       26     48.2      0.00      6.07      69.1     0.47      1014.0     1.4      NE    42   3.6     NNE    28   9.32    263      455.9
   04/23/2018 15:00      87.0      85.1       27     48.6      0.00      6.07      69.0     0.47      1014.1     2.7     ENE    77   5.2      NE    56   9.33    262      471.5
   04/23/2018 14:50      86.5      85.3       28     49.2      0.00      6.07      69.0     0.47      1014.2     2.5       E    80   5.9     ENE    60   9.33    262      488.3
   04/23/2018 14:40      86.2      85.3       29     49.8      0.00      6.07      68.9     0.47      1014.2     2.9     NNE    23   6.0      NW   309   9.33    262      504.0
   04/23/2018 14:30      86.2      84.3       29     49.6      0.00      6.07      68.9     0.47      1014.3     2.4      SW   233   6.1       S   182   9.33    262      522.4
   04/23/2018 14:20      86.0      85.2       29     49.6      0.00      6.07      68.8     0.47      1014.3     2.9      NE    46   5.5      NE    47   9.33    262      510.9
   04/23/2018 14:10      85.9      85.0       29     49.6      0.00      6.07      68.7     0.46      1014.5     2.5       N   355   4.5     NNE    25   9.34    262      540.7
   04/23/2018 14:00      85.7      84.8       29     49.6      0.00      6.07      68.6     0.46      1014.6     1.9     ENE    59   5.0       E    99   9.34    262      552.3
   04/23/2018 13:50      85.0      82.9       30     49.4      0.00      6.07      68.6     0.46      1014.7     2.2      NE    53   4.7     NNE    20   9.34    262      564.6
   04/23/2018 13:40      83.5      82.4       30     48.7      0.00      6.07      68.5     0.46      1014.9     2.3      NE    45   4.2     NNE    16   9.34    262      576.8
   04/23/2018 13:30      84.2      83.1       30     49.2      0.00      6.07      68.5     0.46      1015.0     2.5       E    92   5.3     ENE    76   9.34    262      581.4
   04/23/2018 13:20      84.2      82.3       30     49.2      0.00      6.07      68.4     0.46      1015.1     1.7     WNW   285   3.6       N     9   9.34    262      584.3
   04/23/2018 13:10      82.6      80.8       32     49.1      0.00      6.07      68.3     0.46      1015.2     2.5     ESE   102   5.6     NNE    31   9.34    262      589.2
   04/23/2018 13:00      82.6      81.2       32     49.1      0.00      6.07      68.3     0.46      1015.3     3.1     ENE    64   5.8     ENE    66   9.35    262      591.4
   04/23/2018 12:50      82.1      80.7       32     48.8      0.00      6.07      68.3     0.46      1015.4     2.9     NNE    13   6.3      NE    46   9.35    263      593.3
   04/23/2018 12:40      81.3      80.3       32     48.6      0.00      6.07      68.3     0.46      1015.6     2.9     ENE    70   6.1     ENE    70   9.35    262      593.4
   04/23/2018 12:30      81.3      80.4       32     48.5      0.00      6.07      68.2     0.46      1015.8     2.2     NNE    27   4.5       N   354   9.35    262      592.0
   04/23/2018 12:20      81.6      80.1       32     48.1      0.00      6.07      68.2     0.46      1015.9     3.0     NNE    14   7.0       N   352   9.35    262      586.5
   04/23/2018 12:10      81.5      80.4       32     48.0      0.00      6.07      68.2     0.46      1016.1     1.9      NE    51   4.5     ENE    69   9.35    262      584.2
   04/23/2018 12:00      80.4      78.8       33     47.8      0.00      6.07      68.2     0.46      1016.2     2.7      NE    36   7.2       N   355   9.35    263      579.1
   04/23/2018 11:50      79.5      78.5       33     47.8      0.00      6.07      68.2     0.47      1016.3     3.0     NNE    29   6.2      NE    34   9.35    262      573.0
   04/23/2018 11:40      78.8      77.6       35     48.1      0.00      6.07      68.2     0.47      1016.4     3.0     NNE    31   7.0      NE    52   9.35    263      563.9
   04/23/2018 11:30      78.5      77.3       37     49.5      0.00      6.07      68.2     0.47      1016.5     2.7     NNE    33   6.2     NNE    16   9.35    263      556.4
   04/23/2018 11:20      77.4      76.6       38     49.6      0.00      6.07      68.2     0.47      1016.6     2.9     NNE    33   5.2     NNE    17   9.35    263      547.9
   04/23/2018 11:10      77.5      76.4       38     49.6      0.00      6.07      68.2     0.47      1016.6     2.9      NE    38   4.9     NNE    31   9.35    263      538.4
   04/23/2018 11:00      77.4      75.4       39     49.4      0.00      6.07      68.2     0.47      1016.6     1.9      NE    52   4.8      NE    51   9.35    263      526.0
   04/23/2018 10:50      75.6      74.5       40     48.9      0.00      6.07      68.2     0.47      1016.7     2.9     NNE    25   5.1     ENE    63   9.35    263      511.9
   04/23/2018 10:40      75.0      73.6       41     49.2      0.00      6.07      68.3     0.47      1016.8     1.8     ENE    59   5.2       N   355   9.35    263      497.3
   04/23/2018 10:30      74.3      73.7       42     49.3      0.00      6.07      68.3     0.47      1016.7     2.2     NNE    32   5.7     ESE   102   9.35    263      481.9
   04/23/2018 10:20      73.8      72.7       43     49.4      0.00      6.07      68.3     0.47      1016.7     2.3      NE    39   5.5      NE    46   9.35    263      465.1
   04/23/2018 10:10      73.0      71.7       45     49.6      0.00      6.07      68.3     0.47      1016.8     2.1     NNE    28   4.1       N     1   9.35    263      446.9
   04/23/2018 10:00      71.8      70.7       46     49.5      0.00      6.07      68.3     0.47      1016.8     2.4      NE    34   4.9       N     3   9.35    263      428.6
   04/23/2018 09:50      71.5      69.6       48     49.8      0.00      6.07      68.4     0.47      1016.8     1.5      NE    42   4.3     ESE   102   9.35    263      411.3
   04/23/2018 09:40      70.2      69.3       49     49.8      0.00      6.07      68.4     0.47      1016.7     1.6      NE    56   4.1      NE    56   9.35    263      389.9
   04/23/2018 09:30      69.3      68.1       52     50.1      0.00      6.07      68.4     0.47      1016.7     1.6     NNE    27   3.5     NNE    32   9.35    264      373.5
   04/23/2018 09:20      68.8      67.6       53     50.5      0.00      6.07      68.5     0.47      1016.7     1.2     WNW   295   3.1      NE    52   9.35    264      349.0
   04/23/2018 09:10      67.8      66.5       55     50.4      0.00      6.07      68.5     0.47      1016.7     1.1     ENE    72   3.2     ENE    56   9.35    264      330.0
   04/23/2018 09:00      66.4      65.0       57     50.3      0.00      6.07      68.5     0.47      1016.7     0.9       S   190   1.9     SSW   204   9.35    264      307.0
   04/23/2018 08:50      65.0      63.1       62     50.5      0.00      6.07      68.6     0.47      1016.6     1.5     NNE    22   3.0      NE    36   9.35    264      289.8
   04/23/2018 08:40      63.2      61.8       66     50.7      0.00      6.07      68.6     0.47      1016.7     1.4       N     8   2.9     NNW   339   9.35    264      265.4
   04/23/2018 08:30      61.9      60.8       68     50.9      0.00      6.07      68.7     0.48      1016.7     0.8     NNE    14   2.1     NNW   347   9.35    264      234.2
   04/23/2018 08:20      61.1      60.3       70     50.9      0.00      6.07      68.7     0.48      1016.6     0.8      NW   308   2.2       W   273   8.71    265      197.3
   04/23/2018 08:10      60.6      59.9       71     50.9      0.00      6.07      68.7     0.48      1016.6     0.7     NNW   328   1.8     NNW   330   8.71    266      162.4
   04/23/2018 08:00      60.2      59.4       72     50.8      0.00      6.07      68.8     0.48      1016.6     0.4       W   264   1.2      SW   220   8.71    266       24.9
   04/23/2018 07:50      59.5      58.3       73     50.3      0.00      6.07      68.8     0.48      1016.6     0.4      NW   323   1.5      NW   323   8.71    267       27.0
   04/23/2018 07:40      58.5      57.0       74     49.6      0.00      6.07      68.8     0.48      1016.6     0.9     NNW   330   2.0      NW   321   8.71    268        4.8
   04/23/2018 07:30      57.3      55.7       79     49.9      0.00      6.07      68.9     0.48      1016.5     0.7       N     4   2.1     NNW   335   8.71    268       34.8
   04/23/2018 07:20      55.8      54.6       84     50.5      0.00      6.07      68.9     0.48      1016.4     0.3     NNE    17   2.2     NNW   338   8.71    268       16.9
   04/23/2018 07:10      54.8      53.5       88     50.5      0.00      6.07      68.9     0.48      1016.2     0.3     NNE    22   1.2       N     4   8.71    277        1.2
   04/23/2018 07:00      53.7      53.0       88     49.9      0.00      6.07      69.0     0.48      1016.2     0.0       N     0   0.0     SSE   148   8.71    280       -3.2
   04/23/2018 06:50      53.2      52.5       89     49.4      0.00      6.07      69.0     0.48      1016.1     0.5     SSE   148   1.9      SE   145   8.71    280       -8.5
   04/23/2018 06:40      52.9      52.2       89     49.5      0.00      6.07      69.0     0.48      1015.9     0.6     SSE   165   1.7      SE   144   8.71    279      -14.1
   04/23/2018 06:30      52.7      52.2       88     49.1      0.00      6.07      69.1     0.48      1015.9     0.7     SSE   152   1.1      SE   143   8.71    278      -21.3
   04/23/2018 06:20      52.7      52.1       88     48.9      0.00      6.07      69.1     0.48      1015.8     0.3       S   171   1.1       S   179   8.71    276      -27.3
   04/23/2018 06:10      52.7      52.1       88     48.7      0.00      6.07      69.2     0.48      1015.7     0.2     SSE   166   1.2       S   187   8.71    275      -31.6
   04/23/2018 06:00      52.9      52.1       87     48.5      0.00      6.07      69.2     0.48      1015.7     0.0     SSE   158   0.5     SSE   158   8.71    275      -35.8
   04/23/2018 05:50      53.2      52.4       87     49.1      0.00      6.07      69.2     0.48      1015.6     0.7     SSE   164   1.5       S   190   8.71    273      -36.8
   04/23/2018 05:40      53.2      52.7       87     49.1      0.00      6.07      69.3     0.48      1015.5     0.3       S   171   1.6       S   190   8.71    273      -39.2
   04/23/2018 05:30      53.5      52.8       86     49.0      0.00      6.07      69.3     0.48      1015.4     0.3     SSE   156   0.9      SE   144   8.71    272      -42.7
   04/23/2018 05:20      53.5      53.0       86     49.2      0.00      6.07      69.3     0.48      1015.4     0.4     SSE   155   1.3     SSE   147   8.71    271      -45.1
   04/23/2018 05:10      53.5      53.0       86     49.0      0.00      6.07      69.3     0.48      1015.3     0.5     SSE   167   1.1     SSE   165   8.71    270      -48.2
   04/23/2018 05:00      53.8      53.2       85     48.9      0.00      6.07      69.4     0.48      1015.3     0.5       S   172   1.1       S   184   8.71    269      -51.2
   04/23/2018 04:50      53.8      53.3       85     49.1      0.00      6.07      69.4     0.48      1015.1     1.3     SSE   150   2.3      SE   144   8.71    268      -54.4
   04/23/2018 04:40      53.5      52.7       84     48.4      0.00      6.07      69.5     0.48      1015.1     1.0     SSE   154   2.3      SE   142   8.71    269      -57.3
   04/23/2018 04:30      54.5      53.1       83     48.6      0.00      6.07      69.5     0.48      1015.0     0.6       S   169   1.3     SSE   167   8.71    268      -57.6
   04/23/2018 04:20      54.5      53.9       83     49.0      0.00      6.07      69.5     0.48      1015.0     0.1       S   179   0.9       S   180   8.71    268      -58.2
   04/23/2018 04:10      54.3      53.8       83     49.0      0.00      6.07      69.5     0.48      1015.0     0.0       S   191   0.7       S   180   8.72    268      -59.8
   04/23/2018 04:00      54.2      53.6       82     48.6      0.00      6.07      69.6     0.48      1015.0     0.3       S   180   1.0     SSW   198   8.72    268      -61.4
   04/23/2018 03:50      55.0      54.0       82     48.9      0.00      6.07      69.6     0.48      1015.0     0.5     SSE   156   1.1     SSE   155   8.72    268      -62.3
   04/23/2018 03:40      54.8      54.5       81     49.0      0.00      6.07      69.6     0.48      1015.0     1.0       S   179   2.0       S   183   8.72    268      -62.2
   04/23/2018 03:30      54.9      54.5       83     49.5      0.00      6.07      69.6     0.48      1014.8     0.1     SSW   195   1.1     SSW   196   8.72    268      -59.4
   04/23/2018 03:20      54.9      54.4       83     49.5      0.00      6.07      69.7     0.48      1014.8     0.5     SSE   153   1.1      SE   145   8.72    268      -60.1
   04/23/2018 03:10      55.0      54.5       82     49.5      0.00      6.07      69.7     0.48      1014.8     0.6     SSE   166   1.1       S   169   8.72    267      -60.0
   04/23/2018 03:00      54.9      54.5       82     49.3      0.00      6.07      69.7     0.48      1014.7     0.0       N     0   0.0     SSE   147   8.72    267      -61.1
   04/23/2018 02:50      55.5      54.6       81     49.1      0.00      6.07      69.8     0.48      1014.7     0.4     SSE   161   1.2     SSE   152   8.72    267      -61.7
   04/23/2018 02:40      56.3      55.2       80     49.6      0.00      6.07      69.8     0.48      1014.6     0.7       S   171   1.5       S   175   8.72    267      -61.7
   04/23/2018 02:30      56.6      56.0       79     49.8      0.00      6.07      69.9     0.48      1014.6     0.2       S   186   0.8       S   174   8.72    267      -62.0
   04/23/2018 02:20      56.9      56.3       79     50.0      0.00      6.07      69.9     0.48      1014.5     0.3       S   181   1.2       S   184   8.72    266      -62.3
   04/23/2018 02:10      57.1      56.5       77     49.6      0.00      6.07      69.9     0.48      1014.5     0.0       S   174   0.9       S   174   8.72    266      -63.2
   04/23/2018 02:00      57.3      56.8       77     49.8      0.00      6.07      69.9     0.48      1014.7     0.6     SSE   151   1.6      SE   144   8.72    266      -64.6
   04/23/2018 01:50      57.4      56.9       77     50.0      0.00      6.07      69.9     0.48      1014.6     0.6     SSE   158   1.0     SSE   161   8.72    266      -65.2
   04/23/2018 01:40      57.7      57.0       76     50.0      0.00      6.07      69.9     0.48      1014.5     0.4     SSE   155   1.2     SSE   149   8.72    266      -65.7
   04/23/2018 01:30      58.2      57.4       75     49.8      0.00      6.07      70.0     0.48      1014.6     0.8       S   171   1.3     SSW   206   8.72    266      -66.0
   04/23/2018 01:20      58.4      57.9       74     49.8      0.00      6.07      70.0     0.48      1014.7     0.9       S   184   1.6     SSW   196   8.72    266      -65.5
   04/23/2018 01:10      58.3      57.9       72     49.1      0.00      6.07      70.0     0.48      1014.7     0.6     SSE   166   1.6       S   178   8.72    266      -67.0
   04/23/2018 01:00      59.0      58.0       72     49.4      0.00      6.07      70.0     0.48      1014.8     1.1     SSE   164   2.1     SSE   155   8.73    266      -67.1
   04/23/2018 00:50      59.9      58.7       70     49.6      0.00      6.07      70.0     0.48      1014.8     0.7     SSE   168   2.0     SSW   193   8.73    266      -66.9
   04/23/2018 00:40      60.4      59.4       68     49.2      0.00      6.07      70.0     0.48      1014.7     1.1     SSW   206   2.2     SSW   206   8.73    266      -66.5
   04/23/2018 00:30      60.9      60.1       66     49.4      0.00      6.07      70.0     0.48      1014.7     0.3       S   181   1.2     SSW   192   8.73    266      -66.4
   04/23/2018 00:20      61.4      60.5       66     49.4      0.00      6.07      70.1     0.48      1014.7     0.2      SW   214   1.1      SW   217   8.73    265      -66.3
   04/23/2018 00:10      62.5      61.3       65     49.7      0.00      6.07      70.1     0.48      1014.7     0.2     SSE   165   0.7       S   178   8.73    265      -67.9
   04/23/2018 00:00      63.1      62.1       63     49.6      0.00      6.07      70.1     0.48      1014.8     0.0       E   101   0.7       E   101   8.73    265      -70.2
   04/22/2018 23:50      63.1      62.5       62     49.6      0.00      6.07      70.1     0.48      1014.8     0.8     ESE   102   2.5     ESE   106   8.73    264      -71.5
   04/22/2018 23:40      62.9      62.0       59     47.8      0.00      6.07      70.2     0.48      1014.7     1.0      SE   137   1.7      SE   133   8.73    264      -70.6
   04/22/2018 23:30      62.1      61.4       55     45.3      0.00      6.07      70.2     0.48      1014.7     0.4       S   171   1.8     SSE   147   8.73    264      -69.0
   04/22/2018 23:20      62.0      61.2       51     43.3      0.00      6.07      70.1     0.48      1014.7     0.6     SSE   158   2.2     ESE   114   8.73    264      -70.7
   04/22/2018 23:10      62.5      61.5       49     42.4      0.00      6.07      70.2     0.48      1014.6     1.3     SSE   169   2.3     SSW   205   8.74    264      -70.9
   04/22/2018 23:00      62.9      62.0       47     42.1      0.00      6.07      70.2     0.48      1014.6     0.9     SSW   203   2.0      SW   222   8.74    264      -70.5
   04/22/2018 22:50      63.0      62.6       46     41.9      0.00      6.07      70.2     0.48      1014.6     0.4       S   178   1.4       S   181   8.74    264      -71.0
   04/22/2018 22:40      63.7      62.7       46     42.1      0.00      6.07      70.2     0.48      1014.6     0.4       S   174   1.1       S   174   8.74    264      -72.2
   04/22/2018 22:30      64.5      63.6       44     41.8      0.00      6.07      70.2     0.48      1014.5     0.0     SSE   147   0.9      SE   132   8.74    264      -72.0
   04/22/2018 22:20      64.8      64.2       44     41.9      0.00      6.07      70.2     0.48      1014.3     0.2       S   181   0.9       S   181   8.74    264      -72.8
   04/22/2018 22:10      65.1      64.5       43     42.0      0.00      6.07      70.2     0.48      1014.3     0.5     SSE   166   1.1       S   181   8.74    264      -73.5
   04/22/2018 22:00      65.4      64.7       43     41.8      0.00      6.07      70.1     0.48      1014.2     0.6     SSE   156   1.6     SSE   160   8.75    263      -75.0
   04/22/2018 21:50      66.2      64.9       42     41.4      0.00      6.07      70.1     0.48      1014.1     0.9     SSE   159   1.4     SSE   156   8.75    263      -76.5
   04/22/2018 21:40      68.1      65.8       38     40.4      0.00      6.07      70.1     0.48      1014.1     0.5       S   169   1.2       S   181   8.75    263      -77.0
   04/22/2018 21:30      68.7      67.8       35     39.9      0.00      6.07      70.1     0.48      1014.1     2.5     SSW   201   3.3     SSW   209   8.75    263      -75.4
   04/22/2018 21:20      68.6      67.9       36     39.9      0.00      6.07      70.1     0.48      1014.0     2.3     SSW   209   3.1     SSW   211   8.75    263      -75.0
   04/22/2018 21:10      69.5      68.2       35     39.7      0.00      6.07      70.1     0.48      1013.9     2.2      SW   220   3.0      SW   218   8.76    263      -77.0
   04/22/2018 21:00      70.4      69.1       34     39.8      0.00      6.07      70.1     0.48      1013.8     1.1      SW   218   2.6      SW   236   8.76    263      -79.4
   04/22/2018 20:50      71.7      70.2       32     39.8      0.00      6.07      70.1     0.48      1013.6     0.6     SSW   198   2.2      SW   233   8.76    263      -81.4
   04/22/2018 20:40      73.2      71.4       31     39.9      0.00      6.07      70.0     0.48      1013.5     1.9      SW   224   2.6      SW   225   8.76    262      -81.4
   04/22/2018 20:30      73.9      72.8       30     40.1      0.00      6.07      70.0     0.48      1013.4     0.5     WSW   257   1.9     WSW   246   8.76    262      -85.1
   04/22/2018 20:20      74.0      73.4       30     40.3      0.00      6.07      70.0     0.48      1013.3     1.2     WSW   248   2.6     WNW   301   8.77    262      -88.5
   04/22/2018 20:10      74.8      73.8       30     40.6      0.00      6.07      69.9     0.48      1013.1     2.2      SW   226   5.0     WSW   249   8.77    262      -90.5
   04/22/2018 20:00      75.7      74.4       29     40.9      0.00      6.07      69.9     0.48      1013.0     2.1      SW   226   4.1     WSW   250   8.77    262      -92.8
   04/22/2018 19:50      76.3      75.3       29     41.4      0.00      6.07      69.8     0.48      1012.7     3.3      SW   235   5.7      SW   232   8.77    262      -94.2
   04/22/2018 19:40      77.3      75.8       29     41.8      0.00      6.07      69.8     0.48      1012.7     3.1      SW   228   5.0     WSW   238   8.78    262      -93.3
   04/22/2018 19:30      78.1      77.0       28     41.5      0.00      6.07      69.8     0.48      1012.6     3.3      SW   229   6.4      SW   229   8.78    262      -91.1
   04/22/2018 19:20      79.1      77.7       26     40.9      0.00      6.07      69.8     0.48      1012.5     5.4      SW   226   8.0     WSW   249   8.78    262      -88.4
   04/22/2018 19:10      80.4      78.8       23     38.9      0.00      6.07      69.7     0.48      1012.4     3.9      SW   228   7.3     WSW   241   8.79    262      -84.1
   04/22/2018 19:00      80.9      80.2       22     37.9      0.00      6.07      69.6     0.48      1012.2     3.8     WSW   251   7.2     WSW   254   8.79    261      -66.3
   04/22/2018 18:50      82.3      80.6       22     38.6      0.00      6.07      69.7     0.48      1012.2     5.6     WSW   246  10.0     WSW   243   8.80    261      -46.9
   04/22/2018 18:40      83.4      81.9       22     40.3      0.00      6.07      69.6     0.48      1012.2     4.6     WSW   253   7.8     WSW   247   8.81    261      -25.2
   04/22/2018 18:30      84.5      83.0       21     40.0      0.00      6.07      69.5     0.48      1012.2     4.1     WNW   283   8.1     WSW   256   8.81    261       -1.2
   04/22/2018 18:20      84.5      83.9       19     37.7      0.00      6.07      69.5     0.48      1012.2     3.5     WNW   293   6.6      SW   221   8.81    261       24.0
   04/22/2018 18:10      84.5      84.0       18     36.4      0.00      6.07      69.4     0.48      1012.2     5.4       W   262  10.5     WNW   282   8.82    261       51.1
   04/22/2018 18:00      85.0      84.1       17     35.6      0.00      6.07      69.3     0.48      1012.2     6.3     WSW   258  11.4     WNW   285   8.83    261       78.4
   04/22/2018 17:50      86.0      84.7       17     35.8      0.00      6.07      69.3     0.48      1012.1     5.4     WSW   257  11.3     WSW   250   8.83    261      104.8
   04/22/2018 17:40      86.5      85.6       17     35.9      0.00      6.07      69.2     0.48      1012.0     4.1       W   269   8.6      NW   317   8.84    261      131.1
   04/22/2018 17:30      86.7      86.1       17     35.8      0.00      6.07      69.2     0.48      1012.0     4.6       W   264   9.0     WNW   288   8.84    261      158.4
   04/22/2018 17:20      86.4      85.5       17     35.4      0.00      6.07      69.1     0.48      1012.1     4.7     WSW   239   9.6      SW   222   8.85    261      185.9
   04/22/2018 17:10      86.7      85.7       16     35.4      0.00      6.07      69.0     0.48      1012.0     5.8     WSW   248  10.5      SW   232   8.85    261      213.2
   04/22/2018 17:00      86.7      85.8       17     36.5      0.00      6.07      68.9     0.48      1012.0     6.1     WSW   258  10.7     WSW   243   8.86    261      241.9
   04/22/2018 16:50      86.4      85.9       18     38.1      0.00      6.07      68.8     0.48      1012.0     5.6       W   263  10.0       W   261   8.86    261      266.7
   04/22/2018 16:40      86.9      85.8       18     38.2      0.00      6.07      68.8     0.48      1011.9     7.4       W   262  13.0      SW   214   8.87    261      291.2
   04/22/2018 16:30      86.9      85.8       18     38.5      0.00      6.07      68.7     0.48      1011.9     5.4       W   270  10.3     WSW   250   8.88    261      312.9
   04/22/2018 16:20      87.4      86.0       19     39.0      0.00      6.07      68.6     0.48      1012.0     6.7       W   272  12.0       W   272   8.88    261      336.6
   04/22/2018 16:10      87.7      86.7       19     40.0      0.00      6.07      68.6     0.48      1011.9     5.9     WSW   250  11.1     WSW   242   8.89    261      358.4
   04/22/2018 16:00      87.0      86.2       19     39.9      0.00      6.07      68.5     0.48      1012.0     5.8      SW   232  10.0      SW   218   8.89    261      380.6
   04/22/2018 15:50      86.7      85.7       20     40.5      0.00      6.07      68.4     0.48      1012.0     7.1     SSW   204   9.9     WSW   251   8.90    261      402.9
   04/22/2018 15:40      86.7      86.2       20     40.2      0.00      6.07      68.2     0.48      1012.1     6.9     SSW   213  11.2      SW   217   8.90    261      422.3
   04/22/2018 15:30      87.0      86.1       20     40.8      0.00      6.07      68.2     0.48      1012.2     6.6      SW   230  10.3      SW   215   8.91    261      441.3
   04/22/2018 15:20      87.7      86.3       20     41.3      0.00      6.07      68.1     0.48      1012.2     7.2      SW   225  12.0      SW   219   8.91    262      457.7
   04/22/2018 15:10      88.6      87.0       21     42.7      0.00      6.07      68.1     0.48      1012.3     6.2      SW   232  10.1     WSW   249   8.92    261      472.3
   04/22/2018 15:00      88.5      87.1       21     42.9      0.00      6.07      68.0     0.48      1012.4     6.1     WSW   239  11.6      SW   227   8.92    261      488.1
   04/22/2018 14:50      88.5      87.1       19     40.9      0.00      6.07      67.9     0.48      1012.5     6.9      SW   226  11.0       S   191   8.93    261      505.3
   04/22/2018 14:40      88.4      87.3       20     41.5      0.00      6.07      67.8     0.48      1012.6     5.7      SW   219  10.9     WSW   242   8.93    261      518.7
   04/22/2018 14:30      88.4      87.2       20     41.1      0.00      6.07      67.7     0.48      1012.6     6.6      SW   216  11.3      SW   223   8.94    261      531.8
   04/22/2018 14:20      88.9      87.5       18     39.1      0.00      6.07      67.6     0.48      1012.6     7.8     SSW   213  11.6       S   175   8.94    261      544.4
   04/22/2018 14:10      88.8      87.9       17     37.4      0.00      6.07      67.6     0.47      1012.6     6.9      SW   219  11.5       S   176   8.95    261      551.9
   04/22/2018 14:00      89.3      87.9       16     36.0      0.00      6.07      67.5     0.47      1012.6     7.4      SW   222  12.4       S   184   8.95    261      562.6
   04/22/2018 13:50      89.3      88.7       15     35.8      0.00      6.07      67.4     0.47      1012.6     7.1      SW   227  11.6      SW   222   8.96    261      565.8
   04/22/2018 13:40      90.3      88.8       15     35.5      0.00      6.07      67.3     0.47      1012.6     5.1       W   269  10.6     SSW   206   8.96    261      569.1
   04/22/2018 13:30      89.4      88.1       15     34.7      0.00      6.07      67.3     0.47      1012.7     4.8      SW   228   9.5      SW   226   8.96    261      577.6
   04/22/2018 13:20      89.5      88.1       14     34.0      0.00      6.07      67.2     0.47      1012.7     6.5     SSW   204  10.2       S   189   8.97    261      583.1
   04/22/2018 13:10      89.4      88.1       15     35.4      0.00      6.07      67.1     0.47      1012.8     3.5     WSW   240   8.7     SSW   210   8.97    261      582.0
   04/22/2018 13:00      89.0      87.9       16     36.0      0.00      6.07      67.1     0.47      1012.9     4.6     SSW   206  10.3      SW   224   8.97    261      586.8
   04/22/2018 12:50      89.9      88.7       17     38.0      0.00      6.07      67.1     0.47      1012.9     4.2     SSE   161   7.8      SW   215   8.97    261      585.2
   04/22/2018 12:40      89.1      87.8       17     38.0      0.00      6.07      67.0     0.47      1013.0     3.3       W   280   7.4      SW   227   8.97    261      580.5
   04/22/2018 12:30      89.3      87.8       17     39.0      0.00      6.07      67.0     0.47      1013.1     2.4     WNW   301   6.2      SW   229   8.98    261      577.4
   04/22/2018 12:20      88.9      88.1       17     38.7      0.00      6.07      67.0     0.47      1013.2     2.2     NNE    12   5.0      NE    49   8.98    261      575.6
   04/22/2018 12:10      88.4      86.7       18     38.2      0.00      6.07      67.0     0.48      1013.4     1.5     ENE    66   3.0     ENE    63   8.98    261      568.6
   04/22/2018 12:00      86.9      85.7       18     37.5      0.00      6.07      66.9     0.48      1013.5     1.3     NNW   332   3.6     WNW   289   8.98    261      567.8
   04/22/2018 11:50      86.8      85.7       18     37.8      0.00      6.07      66.9     0.48      1013.5     2.4       N     3   4.8     WNW   291   8.98    261      560.6
   04/22/2018 11:40      85.9      84.4       19     38.7      0.00      6.07      66.9     0.48      1013.7     2.1      NE    37   4.7     NNE    29   8.98    261      554.9
   04/22/2018 11:30      84.6      83.9       20     39.3      0.00      6.07      66.9     0.48      1013.7     1.9     NNE    21   4.3      NE    46   8.98    261      547.4
   04/22/2018 11:20      84.0      83.0       21     40.0      0.00      6.07      66.9     0.48      1013.8     1.8      NE    37   4.4       E    90   8.98    261      539.2
   04/22/2018 11:10      83.1      81.7       22     40.2      0.00      6.07      66.9     0.48      1013.8     1.6     ENE    62   4.1     NNW   340   8.98    261      530.1
   04/22/2018 11:00      81.9      80.6       24     40.5      0.00      6.07      66.9     0.48      1014.0     2.3      NE    36   4.4       N   352   8.98    261      517.4
   04/22/2018 10:50      81.5      79.8       24     40.6      0.00      6.07      66.9     0.48      1014.1     1.9     NNE    19   3.7       N   352   8.98    261      505.0
   04/22/2018 10:40      79.8      78.7       25     40.3      0.00      6.07      67.0     0.48      1014.2     2.2      NE    39   4.5     NNE    18   8.98    261      491.6
   04/22/2018 10:30      78.8      77.8       26     40.1      0.00      6.07      66.9     0.48      1014.3     2.0     NNE    14   4.6     NNE    23   8.98    262      470.9
   04/22/2018 10:20      78.0      76.6       26     40.3      0.00      6.07      67.0     0.48      1014.3     1.8     NNE    20   4.1       E    99   8.98    261      460.7
   04/22/2018 10:10      77.1      75.4       28     40.7      0.00      6.07      67.0     0.48      1014.3     1.8       N   358   3.9       N     1   8.98    261      444.7
   04/22/2018 10:00      75.7      75.3       29     41.0      0.00      6.07      67.0     0.48      1014.4     2.2       N     4   4.4     NNE    17   8.98    262      425.1
   04/22/2018 09:50      75.4      74.6       31     42.3      0.00      6.07      67.1     0.48      1014.5     1.5     NNE    33   3.6     NNW   334   8.98    262      406.8
   04/22/2018 09:40      74.6      73.1       33     42.7      0.00      6.07      67.1     0.48      1014.6     1.2     NNE    29   3.8     NNW   347   8.98    262      388.6
   04/22/2018 09:30      73.4      72.3       34     42.8      0.00      6.07      67.1     0.48      1014.6     1.7     NNE    31   3.5      NE    49   8.98    262      369.1
   04/22/2018 09:20      72.3      71.3       37     44.1      0.00      6.07      67.2     0.49      1014.6     1.3     NNE    16   2.7     NNE    14   8.98    262      347.7
   04/22/2018 09:10      71.4      69.1       40     44.8      0.00      6.07      67.2     0.49      1014.7     0.7     NNW   339   1.9     NNW   334   8.99    263      325.8
   04/22/2018 09:00      69.4      67.6       44     45.8      0.00      6.07      67.3     0.49      1014.7     1.0       N   357   2.7     NNE    12   8.99    263      303.2
   04/22/2018 08:50      67.9      65.3       47     45.9      0.00      6.07      67.3     0.49      1014.7     0.8      NW   324   1.6     NNW   332   8.99    263      283.1
   04/22/2018 08:40      65.5      63.7       51     45.8      0.00      6.07      67.3     0.49      1014.8     1.0     NNW   342   2.1      NW   318   8.99    263      262.6
   04/22/2018 08:30      64.0      62.5       53     45.7      0.00      6.07      67.4     0.49      1014.7     0.6     NNE    12   1.9      NW   324   8.99    263      241.1
   04/22/2018 08:20      62.7      61.4       53     44.9      0.00      6.07      67.4     0.49      1014.8     0.9       N     2   1.7       N     3   8.99    263      209.6
   04/22/2018 08:10      61.5      60.8       54     44.1      0.00      6.07      67.5     0.49      1014.8     0.9       N   349   1.9      NE    48   8.99    264      183.9
   04/22/2018 08:00      61.0      60.0       54     43.8      0.00      6.07      67.5     0.49      1014.8     0.7     ENE    59   1.7     ENE    65   8.99    264      115.8
   04/22/2018 07:50      60.1      58.4       56     43.5      0.00      6.07      67.5     0.49      1014.8     0.1      NE    53   1.1      NE    45   8.99    265       67.8
   04/22/2018 07:40      58.5      56.8       59     43.4      0.00      6.07      67.5     0.49      1014.8     0.2     NNW   346   0.9     NNW   337   8.99    266      -26.7
   04/22/2018 07:30      56.8      55.5       65     44.4      0.00      6.07      67.6     0.49      1014.8     0.0     SSE   162   0.4     SSE   163   8.99    266        3.0
   04/22/2018 07:20      55.7      54.2       68     44.5      0.00      6.07      67.6     0.49      1014.8     0.5      SE   127   1.1      SE   135   8.99    266      -24.9
   04/22/2018 07:10      54.3      53.0       71     44.5      0.00      6.07      67.6     0.49      1014.8     0.0      SW   227   0.5       S   180   8.99    266      -36.8
   04/22/2018 07:00      53.3      52.5       72     44.1      0.00      6.07      67.7     0.49      1014.7     0.8     SSE   158   2.0      SE   141   8.99    266      -40.9
   04/22/2018 06:50      52.8      52.4       71     43.6      0.00      6.07      67.7     0.49      1014.6     0.2     SSE   152   1.0      SE   141   8.99    266      -43.1
   04/22/2018 06:40      52.7      52.1       72     43.8      0.00      6.07      67.7     0.49      1014.5     0.6      SW   219   1.6     SSW   197   8.99    266      -46.8
   04/22/2018 06:30      52.6      52.1       73     44.0      0.00      6.07      67.7     0.49      1014.4     0.0       S   181   0.0       S   181   8.99    266      -50.1
   04/22/2018 06:20      52.4      52.1       73     43.9      0.00      6.07      67.8     0.49      1014.4     0.3     SSE   168   0.7     SSE   151   8.99    266      -54.4
   04/22/2018 06:10      52.4      52.0       74     44.1      0.00      6.07      67.8     0.49      1014.4     0.6     SSW   204   2.1      SW   215   8.99    266      -55.7
   04/22/2018 06:00      52.4      51.9       75     44.4      0.00      6.07      67.9     0.49      1014.3     0.3       S   174   0.9     SSW   198   8.99    266      -57.1
   04/22/2018 05:50      53.0      52.0       74     44.4      0.00      6.07      67.9     0.49      1014.3     0.9     SSE   150   1.9      SE   140   8.99    266      -58.5
   04/22/2018 05:40      53.3      52.5       74     44.9      0.00      6.07      68.0     0.49      1014.3     0.2     SSE   151   0.8      SE   146   8.99    266      -58.5
   04/22/2018 05:30      53.8      53.0       74     45.3      0.00      6.07      67.9     0.49      1014.2     0.4     SSE   155   0.9     SSE   152   8.99    266      -58.7
   04/22/2018 05:20      54.2      53.4       74     45.5      0.00      6.07      68.0     0.49      1014.1     0.1       S   179   0.8       S   179   8.99    266      -58.6
   04/22/2018 05:10      54.3      53.8       74     45.8      0.00      6.07      68.0     0.49      1014.2     0.2     SSE   153   1.0     SSE   150   8.99    266      -58.1
   04/22/2018 05:00      54.6      54.0       74     46.1      0.00      6.07      68.0     0.49      1014.2     0.3     SSE   149   1.1     SSE   151   9.00    266      -58.5
   04/22/2018 04:50      54.5      54.0       75     46.5      0.00      6.07      68.1     0.49      1014.3     0.1       S   174   0.9       S   172   9.00    266      -58.8
   04/22/2018 04:40      54.4      54.0       75     46.5      0.00      6.07      68.1     0.49      1014.4     0.0     SSW   196   0.4     SSW   196   9.00    266      -58.9
   04/22/2018 04:30      54.7      54.2       75     46.6      0.00      6.07      68.1     0.49      1014.4     0.5     SSE   159   1.2      SE   142   9.00    266      -59.7
   04/22/2018 04:20      55.2      54.3       74     46.4      0.00      6.07      68.1     0.49      1014.5     0.3     SSE   163   0.8     SSE   167   9.00    266      -59.8
   04/22/2018 04:10      55.1      54.7       73     46.4      0.00      6.07      68.2     0.49      1014.6     0.1     SSE   166   0.8     SSE   164   9.00    266      -60.4
   04/22/2018 04:00      55.2      54.6       72     46.2      0.00      6.07      68.2     0.49      1014.5     0.5       S   186   1.4       S   189   9.00    266      -60.7
   04/22/2018 03:50      55.5      54.8       70     45.4      0.00      6.07      68.2     0.49      1014.6     0.4       S   174   1.1       S   174   9.00    266      -61.2
   04/22/2018 03:40      55.6      55.2       69     45.4      0.00      6.07      68.2     0.49      1014.6     0.5     SSE   148   1.1     SSE   147   9.00    266      -61.8
   04/22/2018 03:30      55.5      55.0       66     44.1      0.00      6.07      68.3     0.49      1014.7     0.4     SSE   157   1.2       S   174   9.00    266      -62.0
   04/22/2018 03:20      56.5      55.2       65     44.5      0.00      6.07      68.3     0.49      1014.7     0.7     SSE   164   1.5       S   190   9.00    265      -63.2
   04/22/2018 03:10      56.3      56.0       62     43.3      0.00      6.07      68.3     0.49      1014.7     1.0     SSE   156   1.9      SE   145   9.00    265      -63.6
   04/22/2018 03:00      56.2      55.8       63     43.8      0.00      6.07      68.3     0.49      1014.7     1.0     SSE   154   1.6     SSE   149   9.00    265      -63.7
   04/22/2018 02:50      56.6      55.9       62     43.2      0.00      6.07      68.3     0.49      1014.8     0.8     SSE   156   1.7      SE   145   9.00    265      -64.4
   04/22/2018 02:40      56.8      56.3       61     43.2      0.00      6.07      68.4     0.49      1014.8     1.1     SSE   150   2.1      SE   145   9.00    265      -63.9
   04/22/2018 02:30      57.2      56.4       60     43.0      0.00      6.07      68.4     0.49      1014.8     0.9     SSE   155   1.4      SE   146   9.00    264      -63.5
   04/22/2018 02:20      57.7      56.9       58     42.7      0.00      6.07      68.5     0.49      1014.9     0.9     SSE   165   1.5      SE   145   9.00    264      -64.0
   04/22/2018 02:10      57.7      56.9       56     41.8      0.00      6.07      68.5     0.49      1015.0     0.7       S   171   1.5     SSE   166   9.00    264      -65.1
   04/22/2018 02:00      58.9      57.3       53     41.0      0.00      6.07      68.5     0.49      1015.1     1.4       S   174   2.6       S   186   9.01    264      -65.3
   04/22/2018 01:50      59.0      58.4       50     40.0      0.00      6.07      68.5     0.49      1015.1     1.1      SW   217   1.6     SSW   208   9.01    264      -62.9
   04/22/2018 01:40      59.8      58.7       48     39.5      0.00      6.07      68.5     0.49      1015.2     0.6     SSE   165   1.3     SSW   192   9.01    264      -63.4
   04/22/2018 01:30      60.4      59.4       47     39.4      0.00      6.07      68.5     0.49      1015.2     0.3     SSW   196   1.0       S   181   9.01    264      -63.2
   04/22/2018 01:20      61.0      60.2       44     38.7      0.00      6.07      68.5     0.49      1015.2     0.5     SSE   147   1.9      SE   143   9.01    264      -64.4
   04/22/2018 01:10      60.9      60.3       43     38.0      0.00      6.07      68.6     0.49      1015.2     0.5     SSE   155   1.5     SSE   167   9.01    264      -65.5
   04/22/2018 01:00      60.2      59.5       42     36.5      0.00      6.07      68.5     0.49      1015.3     1.1     SSE   157   2.3       S   172   9.01    264      -65.0
   04/22/2018 00:50      60.4      59.5       42     36.6      0.00      6.07      68.5     0.49      1015.3     0.7     SSE   165   1.9     SSE   150   9.01    264      -65.3
   04/22/2018 00:40      61.2      59.9       42     37.2      0.00      6.07      68.6     0.49      1015.3     0.7     SSE   168   2.1      SE   137   9.01    264      -66.0
   04/22/2018 00:30      61.2      60.7       41     37.0      0.00      6.07      68.5     0.49      1015.2     0.5     SSE   146   1.5     SSE   150   9.02    264      -66.0
   04/22/2018 00:20      61.5      60.9       39     36.1      0.00      6.07      68.6     0.49      1015.3     1.1       S   181   2.1     SSE   149   9.02    263      -66.2
   04/22/2018 00:10      62.2      61.1       40     37.2      0.00      6.07      68.6     0.49      1015.2     0.7       S   175   1.3       S   188   9.02    263      -67.2
   04/22/2018 00:00      62.7      62.0       38     36.7      0.00      6.07      68.6     0.49      1015.2     0.7     SSE   156   1.8      SE   142   9.02    263      -67.3
   04/21/2018 23:50      63.2      62.3       38     36.6      0.00      6.07      68.6     0.49      1015.1     0.5     SSW   192   1.7     SSE   165   9.02    263      -67.9
   04/21/2018 23:40      64.2      63.0       36     36.3      0.00      6.07      68.6     0.49      1015.1     0.6       S   175   1.2     SSW   196   9.02    263      -69.0
   04/21/2018 23:30      64.9      63.8       35     36.2      0.00      6.07      68.6     0.49      1015.1     0.7       S   178   1.5       S   177   9.02    263      -68.1
   04/21/2018 23:20      64.9      64.1       35     36.1      0.00      6.07      68.6     0.49      1015.1     1.2     SSW   202   1.9      SW   235   9.02    263      -65.7
   04/21/2018 23:10      65.9      64.8       34     36.1      0.00      6.07      68.6     0.49      1015.1     0.3     SSE   155   1.0      SE   139   9.02    263      -64.8
   04/21/2018 23:00      65.9      65.5       33     36.1      0.00      6.07      68.6     0.49      1015.3     0.6       S   174   1.4     SSW   201   9.03    263      -62.2
   04/21/2018 22:50      66.0      65.2       34     36.3      0.00      6.07      68.6     0.49      1015.4     0.5     SSW   195   1.9     SSW   195   9.03    263      -60.1
   04/21/2018 22:40      66.0      65.3       33     36.0      0.00      6.07      68.6     0.49      1015.3     0.0      SE   131   0.6       E    86   9.03    263      -59.7
   04/21/2018 22:30      66.7      65.8       34     36.8      0.00      6.07      68.7     0.49      1015.4     0.3     SSE   164   1.3       S   173   9.03    262      -60.5
   04/21/2018 22:20      66.9      66.4       33     36.3      0.00      6.07      68.6     0.49      1015.4     1.5       S   172   2.7       S   170   9.03    262      -62.0
   04/21/2018 22:10      67.4      66.4       33     36.4      0.00      6.07      68.6     0.49      1015.5     0.5     SSE   166   1.3       S   184   9.03    263      -63.6
   04/21/2018 22:00      68.6      67.1       31     36.0      0.00      6.07      68.6     0.49      1015.4     0.3     SSE   151   1.1     SSE   159   9.04    262      -66.4
   04/21/2018 21:50      69.6      68.4       29     35.8      0.00      6.07      68.6     0.49      1015.4     0.3      SE   131   1.1     SSE   155   9.04    262      -67.4
   04/21/2018 21:40      71.1      69.5       28     35.2      0.00      6.07      68.6     0.49      1015.3     0.2       S   176   1.7     SSE   166   9.04    262      -66.5
   04/21/2018 21:30      71.5      70.9       27     35.5      0.00      6.07      68.5     0.49      1015.3     0.4      NW   315   1.7     WSW   238   9.04    262      -66.9
   04/21/2018 21:20      71.5      71.2       26     35.0      0.00      6.07      68.5     0.49      1015.3     0.8      SW   216   2.6     WSW   245   9.04    262      -66.9
   04/21/2018 21:10      72.6      71.2       26     35.4      0.00      6.07      68.5     0.49      1015.3     0.9       S   185   1.8       S   184   9.05    262      -67.9
   04/21/2018 21:00      73.2      72.4       25     35.4      0.00      6.07      68.5     0.49      1015.3     1.3     SSW   201   2.6      SW   219   9.05    262      -71.5
   04/21/2018 20:50      73.7      72.8       25     35.4      0.00      6.07      68.5     0.49      1015.3     1.7     SSW   199   3.7       S   180   9.05    262      -73.7
   04/21/2018 20:40      74.2      73.3       25     35.3      0.00      6.07      68.4     0.49      1015.1     2.2     SSW   199   4.9     SSW   204   9.05    262      -76.3
   04/21/2018 20:30      74.5      73.7       24     35.2      0.00      6.07      68.4     0.49      1015.1     3.4     SSW   207   5.2      SW   229   9.05    262      -78.9
   04/21/2018 20:20      75.0      74.2       24     34.8      0.00      6.07      68.3     0.49      1015.0     2.6     SSW   199   5.3      SW   226   9.06    261      -80.7
   04/21/2018 20:10      75.8      74.6       22     34.1      0.00      6.07      68.3     0.49      1014.9     1.8     SSW   203   3.6      SW   225   9.06    261      -84.1
   04/21/2018 20:00      76.5      75.4       21     33.5      0.00      6.07      68.3     0.49      1014.8     2.8     SSW   210   4.4       S   183   9.06    261      -87.7
   04/21/2018 19:50      77.2      76.1       21     33.9      0.00      6.07      68.2     0.49      1014.8     3.7     SSW   209   6.2      SW   214   9.06    261      -88.2
   04/21/2018 19:40      78.0      76.8       21     34.3      0.00      6.07      68.2     0.49      1014.7     2.8      SW   226   5.7     WSW   240   9.07    261      -87.7
   04/21/2018 19:30      78.6      77.7       20     34.0      0.00      6.07      68.2     0.49      1014.7     3.1     WSW   237   6.3     WSW   243   9.07    261      -85.9
   04/21/2018 19:20      79.1      78.4       20     34.0      0.00      6.07      68.1     0.49      1014.7     3.0      SW   219   5.7     WSW   254   9.07    261      -78.2
   04/21/2018 19:10      80.1      78.8       18     32.8      0.00      6.07      68.0     0.49      1014.7     2.6     SSW   209   4.5      SW   222   9.08    261      -70.3
   04/21/2018 19:00      81.3      79.8       17     31.8      0.00      6.07      68.0     0.49      1014.7     3.1      SW   216   5.6      SW   217   9.08    261      -61.9
   04/21/2018 18:50      82.2      81.0       15     29.0      0.00      6.07      67.9     0.49      1014.7     4.5     WSW   241   7.4       W   266   9.09    261      -51.4
   04/21/2018 18:40      82.8      81.8       14     27.5      0.00      6.07      67.9     0.49      1014.7     4.0     WSW   243   6.8     SSW   211   9.09    261      -38.0
   04/21/2018 18:30      82.9      82.3       14     28.0      0.00      6.07      67.8     0.49      1014.7     4.6     WSW   253   8.5       W   260   9.10    261      -23.0
   04/21/2018 18:20      83.8      82.6       14     29.7      0.00      6.07      67.8     0.49      1014.7     4.9      SW   235   9.3       W   267   9.11    261       -8.0
   04/21/2018 18:10      84.5      83.4       16     32.2      0.00      6.07      67.7     0.49      1014.7     5.3     WSW   255  11.1       W   267   9.11    261        9.0
   04/21/2018 18:00      84.9      84.1       15     32.4      0.00      6.07      67.7     0.49      1014.6     3.5       W   274   9.3     WSW   254   9.12    261       20.6
   04/21/2018 17:50      85.0      84.4       15     31.6      0.00      6.07      67.6     0.49      1014.6     3.6       W   278   7.1     WSW   244   9.12    261       32.1
   04/21/2018 17:40      86.0      84.5       15     31.4      0.00      6.07      67.5     0.49      1014.6     4.2     WNW   295   9.6       W   271   9.12    261       42.2
   04/21/2018 17:30      86.3      85.5       14     31.4      0.00      6.07      67.4     0.49      1014.6     4.1     WNW   290  10.3     WSW   252   9.13    261       55.1
   04/21/2018 17:20      86.3      85.7       13     29.7      0.00      6.07      67.4     0.49      1014.5     4.3       W   260   7.5      SW   236   9.13    261       77.3
   04/21/2018 17:10      86.6      85.6       13     29.3      0.00      6.07      67.3     0.49      1014.5     5.8     WSW   247   9.0     WSW   250   9.14    261       79.0
   04/21/2018 17:00      87.3      86.4       13     29.7      0.00      6.07      67.2     0.49      1014.5     5.3     WSW   246   9.1     WSW   253   9.15    261       98.0
   04/21/2018 16:50      88.4      86.9       13     30.3      0.00      6.07      67.2     0.49      1014.5     6.1     WSW   245  10.8     WNW   288   9.15    261      230.9
   04/21/2018 16:40      88.2      87.3       13     31.0      0.00      6.07      67.1     0.49      1014.5     5.1     WSW   238   9.9      SW   227   9.16    261      354.1
   04/21/2018 16:30      87.5      86.5       13     31.1      0.00      6.07      67.0     0.49      1014.6     5.6      SW   235   9.2      SW   233   9.16    261      297.4
   04/21/2018 16:20      88.5      87.3       13     31.4      0.00      6.07      66.8     0.49      1014.7     6.4     WSW   247  11.3      SW   230   9.17    261      373.1
   04/21/2018 16:10      88.6      87.5       14     32.2      0.00      6.07      66.8     0.49      1014.7     6.4      SW   230  12.0       W   269   9.18    261      454.2
   04/21/2018 16:00      88.3      87.6       14     32.2      0.00      6.07      66.7     0.49      1014.7     6.1     WSW   256  12.9       W   260   9.18    261      368.6
   04/21/2018 15:50      89.4      87.6       14     32.8      0.00      6.07      66.7     0.49      1014.7     7.3       W   267  12.2     WNW   288   9.19    261      363.6
   04/21/2018 15:40      89.7      88.7       14     34.4      0.00      6.07      66.6     0.49      1014.8     4.9     WSW   253   9.9     WSW   244   9.19    261      420.4
   04/21/2018 15:30      89.5      87.8       15     34.5      0.00      6.07      66.5     0.49      1014.9     3.8     WNW   281   8.9     SSW   203   9.19    261      449.3
   04/21/2018 15:20      89.1      87.6       14     33.4      0.00      6.07      66.4     0.49      1015.0     5.8       W   266  11.1      SW   224   9.20    261      453.0
   04/21/2018 15:10      88.7      87.6       12     29.9      0.00      6.07      66.3     0.49      1015.0     3.9     SSW   208   9.0     SSE   165   9.20    261      443.3
   04/21/2018 15:00      89.5      87.5       13     30.3      0.00      6.07      66.2     0.49      1015.1     6.4     SSE   164  11.4     SSW   200   9.20    261      429.5
   04/21/2018 14:50      89.5      88.1       13     30.8      0.00      6.07      66.1     0.49      1015.2     4.9     SSW   195  10.1     SSW   204   9.21    261      502.5
   04/21/2018 14:40      90.0      88.5       13     31.2      0.00      6.07      66.0     0.49      1015.4     5.0     SSW   200  10.8     ESE   107   9.21    261      523.3
   04/21/2018 14:30      90.2      89.3       13     31.9      0.00      6.07      65.9     0.49      1015.5     4.9     SSE   158  10.5     SSW   213   9.22    261      533.0
   04/21/2018 14:20      90.1      88.8       13     31.0      0.00      6.07      65.9     0.49      1015.5     3.0       S   187   8.1     SSW   208   9.22    261      502.5
   04/21/2018 14:10      90.8      89.5       11     28.9      0.00      6.07      65.8     0.49      1015.7     2.3       E    98   6.5     SSW   209   9.22    261      545.0
   04/21/2018 14:00      90.0      89.0       11     28.9      0.00      6.07      65.7     0.49      1015.8     2.6       N     8   8.3     NNW   347   9.23    261      564.8
   04/21/2018 13:50      89.6      88.6       11     28.2      0.00      6.07      65.6     0.49      1015.9     3.1       N   358   6.5     NNW   329   9.23    261      555.4
   04/21/2018 13:40      90.0      89.0       11     28.3      0.00      6.07      65.6     0.49      1016.0     2.2       N     0   5.2      NE    42   9.23    261      595.6
   04/21/2018 13:30      89.2      87.1       11     27.8      0.00      6.07      65.5     0.49      1016.2     1.3     ENE    72   5.9     WSW   250   9.23    261      575.8
   04/21/2018 13:20      87.1      86.1       12     27.1      0.00      6.07      65.5     0.49      1016.4     2.6     ENE    77   5.8       E    89   9.23    261      383.7
   04/21/2018 13:10      87.4      86.5       11     26.8      0.00      6.07      65.4     0.49      1016.5     3.5      SW   236   8.3      SW   222   9.23    261      461.1
   04/21/2018 13:00      88.1      86.8       10     25.4      0.00      6.07      65.3     0.49      1016.6     4.2      SW   236   7.1       S   177   9.24    261      624.2
   04/21/2018 12:50      88.0      86.9       10     24.3      0.00      6.07      65.3     0.49      1016.7     2.6     NNE    12   5.6     NNW   329   9.24    261      558.1
   04/21/2018 12:40      88.3      87.5       11     26.4      0.00      6.07      65.3     0.49      1016.9     2.3     WNW   295   4.6     SSW   210   9.24    261      614.2
   04/21/2018 12:30      87.9      86.2       12     29.2      0.00      6.07      65.2     0.49      1017.0     1.5      NE    42   3.4       N   355   9.24    261      613.9
   04/21/2018 12:20      86.7      84.8       14     30.9      0.00      6.07      65.2     0.49      1017.1     1.7      NW   305   3.4      NW   305   9.24    261      573.1
   04/21/2018 12:10      85.9      85.1       15     32.6      0.00      6.07      65.2     0.49      1017.3     1.7      NW   308   3.6     WNW   294   9.24    261      562.7
   04/21/2018 12:00      85.7      83.8       16     34.0      0.00      6.07      65.1     0.49      1017.3     1.5     WNW   299   4.4      NW   315   9.24    261      560.7
   04/21/2018 11:50      84.0      82.3       17     34.0      0.00      6.07      65.1     0.49      1017.4     1.5     WNW   283   4.4       W   278   9.25    261      572.2
   04/21/2018 11:40      82.8      82.0       18     34.1      0.00      6.07      65.1     0.49      1017.5     1.8     WNW   285   3.1      NW   316   9.25    261      562.3
   04/21/2018 11:30      82.1      81.2       19     35.3      0.00      6.07      65.0     0.49      1017.6     1.7     NNW   329   3.3      NW   315   9.25    261      554.0
   04/21/2018 11:20      81.3      80.3       20     36.5      0.00      6.07      65.1     0.50      1017.7     1.7      SE   130   4.1     SSE   149   9.25    261      545.9
   04/21/2018 11:10      81.5      79.7       21     37.5      0.00      6.07      65.1     0.50      1017.8     1.4       E    92   4.0     ESE   121   9.25    261      535.3
   04/21/2018 11:00      79.6      78.7       22     36.9      0.00      6.07      65.1     0.50      1017.9     1.6      NW   318   3.0       N     4   9.25    261      522.7
   04/21/2018 10:50      79.5      77.7       22     36.8      0.00      6.07      65.1     0.50      1018.0     1.3       N     7   4.4      NE    56   9.25    261      510.4
   04/21/2018 10:40      77.9      76.6       23     37.0      0.00      6.07      65.1     0.50      1018.1     1.1     NNW   339   4.1     WNW   288   9.25    261      496.4
   04/21/2018 10:30      76.6      75.3       24     36.7      0.00      6.07      65.2     0.50      1018.2     1.9     WNW   288   3.5     WNW   295   9.25    262      482.0
   04/21/2018 10:20      75.5      74.1       25     37.1      0.00      6.07      65.2     0.50      1018.2     1.7     WNW   297   3.9     WNW   293   9.25    262      465.9
   04/21/2018 10:10      74.2      73.2       26     37.1      0.00      6.07      65.2     0.50      1018.3     2.3     SSW   211   5.1     WSW   240   9.25    263      450.2
   04/21/2018 10:00      73.1      71.9       29     38.6      0.00      6.07      65.3     0.50      1018.4     1.4     WNW   295   4.1     WSW   244   9.25    263      430.7
   04/21/2018 09:50      72.0      70.6       33     40.5      0.00      6.07      65.3     0.50      1018.5     1.5     WSW   247   4.4       W   266   9.25    263      412.5
   04/21/2018 09:40      70.7      69.0       36     41.3      0.00      6.07      65.3     0.50      1018.6     1.3     NNW   333   3.4       W   259   9.25    263      392.4
   04/21/2018 09:30      69.5      68.7       38     42.6      0.00      6.07      65.3     0.50      1018.6     1.5     NNE    16   2.6       N     4   9.25    263      372.2
   04/21/2018 09:20      69.3      66.8       41     43.7      0.00      6.07      65.4     0.50      1018.7     0.4      NW   315   2.4     NNE    29   9.25    263      350.4
   04/21/2018 09:10      67.0      65.4       46     44.7      0.00      6.07      65.4     0.50      1018.9     0.8     NNW   328   2.0     WNW   293   9.25    264      330.0
   04/21/2018 09:00      65.6      63.9       49     45.0      0.00      6.07      65.5     0.50      1018.9     0.6       N   358   2.5       N   349   9.25    264      307.0
   04/21/2018 08:50      64.0      61.7       53     45.4      0.00      6.07      65.5     0.50      1019.0     0.9     NNE    15   2.4       N    10   9.25    264      286.5
   04/21/2018 08:40      62.0      60.6       57     45.7      0.00      6.07      65.5     0.50      1019.1     1.0      NW   317   2.7     NNW   334   9.25    264      265.8
   04/21/2018 08:30      60.8      59.6       60     46.0      0.00      6.07      65.6     0.51      1019.1     1.2     WSW   256   3.6       W   276   9.25    264      240.6
   04/21/2018 08:20      59.7      58.1       63     46.2      0.00      6.07      65.7     0.51      1019.1     1.2       W   269   3.2       W   261   9.25    265      210.6
   04/21/2018 08:10      58.3      56.8       66     46.1      0.00      6.07      65.7     0.51      1019.0     1.1      NW   320   3.0     NNW   334   9.25    266      184.6
   04/21/2018 08:00      57.0      55.5       69     46.1      0.00      6.07      65.7     0.51      1019.0     1.7      NW   320   3.1     NNW   344   9.25    266      184.0
   04/21/2018 07:50      55.7      53.7       75     46.8      0.00      6.07      65.7     0.51      1018.9     1.3       N     1   2.9       N   350   9.25    267      133.9
   04/21/2018 07:40      54.0      52.1       83     47.9      0.00      6.07      65.8     0.51      1018.9     0.3     NNE    26   1.4     NNE    20   9.25    297       15.6
   04/21/2018 07:30      52.1      50.3       88     48.0      0.00      6.07      65.8     0.51      1018.8     0.5     SSE   155   2.6       W   264   9.25    311       53.7
   04/21/2018 07:20      50.5      48.9       90     46.8      0.00      6.07      65.8     0.51      1018.7     0.4       N   349   1.6       N     4   9.25    316       21.6
   04/21/2018 07:10      49.1      48.1       91     46.1      0.00      6.07      65.9     0.51      1018.6     0.0       N     0   0.0     SSE   159   9.25    316        4.4
   04/21/2018 07:00      48.3      47.3       91     45.3      0.00      6.07      65.9     0.51      1018.4     0.0       N     0   0.0     SSE   160   9.25    316        0.5
   04/21/2018 06:50      47.6      46.9       91     44.9      0.00      6.07      65.9     0.51      1018.3     0.3      SE   142   2.0      SE   143   9.25    313       -4.5
   04/21/2018 06:40      47.2      46.4       91     44.5      0.00      6.07      66.0     0.51      1018.2     0.6     SSE   154   1.3     SSE   147   9.25    311       -9.6
   04/21/2018 06:30      47.2      46.0       91     44.1      0.00      6.07      66.0     0.51      1018.2     0.8       S   176   2.0     SSE   148   9.25    309      -15.0
   04/21/2018 06:20      47.0      46.3       91     44.0      0.00      6.07      66.1     0.51      1018.2     0.6     SSE   157   1.2      SE   144   9.25    307      -19.6
   04/21/2018 06:10      47.2      46.6       91     44.3      0.00      6.07      66.1     0.51      1018.1     1.0       S   173   1.6     SSW   193   9.25    303      -22.2
   04/21/2018 06:00      47.2      46.6       90     44.2      0.00      6.07      66.1     0.51      1018.1     0.3       S   177   1.1     SSE   157   9.25    301      -24.1
   04/21/2018 05:50      47.1      46.7       90     44.0      0.00      6.07      66.1     0.51      1018.1     0.6     SSE   163   1.1       S   176   9.25    297      -24.6
   04/21/2018 05:40      47.5      46.8       89     44.1      0.00      6.07      66.2     0.51      1018.0     1.1       S   184   2.2      SW   221   9.26    294      -24.8
   04/21/2018 05:30      47.5      46.9       89     44.1      0.00      6.07      66.2     0.51      1017.9     0.2     SSW   200   1.0     SSW   209   9.25    293      -26.1
   04/21/2018 05:20      47.7      46.8       88     43.9      0.00      6.07      66.2     0.51      1017.8     0.2      SE   140   1.2      SE   142   9.25    291      -27.8
   04/21/2018 05:10      48.1      47.4       88     44.4      0.00      6.07      66.3     0.51      1017.8     0.8       S   176   1.8       S   190   9.26    289      -28.2
   04/21/2018 05:00      48.1      47.6       89     44.6      0.00      6.07      66.3     0.51      1017.9     0.3      SW   219   1.2      SW   217   9.26    288      -28.7
   04/21/2018 04:50      48.4      47.6       88     44.5      0.00      6.07      66.3     0.51      1017.9     0.4     SSE   151   1.3      SE   144   9.26    287      -30.5
   04/21/2018 04:40      48.6      47.8       88     44.7      0.00      6.07      66.3     0.51      1017.9     0.8     SSE   157   1.4      SE   138   9.26    284      -31.8
   04/21/2018 04:30      48.6      48.1       87     44.6      0.00      6.07      66.4     0.51      1017.8     0.0     SSE   159   0.7     SSE   159   9.26    283      -33.9
   04/21/2018 04:20      49.2      48.4       87     45.2      0.00      6.07      66.4     0.51      1017.9     0.2     SSE   148   1.2      SE   143   9.26    280      -35.6
   04/21/2018 04:10      49.2      48.4       88     45.3      0.00      6.07      66.5     0.51      1018.0     0.0     ESE   103   0.5     ESE   103   9.26    279      -38.5
   04/21/2018 04:00      49.0      48.1       87     44.7      0.00      6.07      66.5     0.51      1018.0     0.3     SSW   199   1.4       S   185   9.26    277      -41.3
   04/21/2018 03:50      49.5      48.6       87     45.0      0.00      6.07      66.5     0.51      1018.0     0.7     SSE   161   1.2     SSE   159   9.26    275      -42.8
   04/21/2018 03:40      49.9      49.2       87     45.7      0.00      6.07      66.5     0.51      1018.0     0.9     SSE   152   2.1     SSE   147   9.26    274      -45.0
   04/21/2018 03:30      49.9      49.4       87     45.7      0.00      6.07      66.6     0.51      1018.1     0.6     SSE   155   1.0     SSE   152   9.26    272      -48.5
   04/21/2018 03:20      49.7      49.2       86     45.2      0.00      6.07      66.6     0.51      1018.2     0.8     SSE   156   1.7      SE   141   9.26    270      -53.5
   04/21/2018 03:10      50.1      49.4       84     44.9      0.00      6.07      66.6     0.51      1018.2     0.8     SSE   161   1.4      SE   144   9.26    269      -57.4
   04/21/2018 03:00      50.4      49.8       83     45.0      0.00      6.07      66.7     0.51      1018.3     0.8       S   177   2.2      SE   145   9.26    268      -58.5
   04/21/2018 02:50      50.7      50.3       84     45.8      0.00      6.07      66.7     0.51      1018.4     1.3     SSW   212   3.0     WSW   239   9.26    268      -55.1
   04/21/2018 02:40      51.0      50.3       83     45.6      0.00      6.07      66.7     0.51      1018.5     0.0       N     0   0.0     ESE   109   9.26    268      -58.2
   04/21/2018 02:30      50.9      50.1       83     45.6      0.00      6.07      66.7     0.51      1018.5     0.3     ESE   114   0.9       S   171   9.26    268      -62.3
   04/21/2018 02:20      51.1      50.6       83     46.0      0.00      6.07      66.8     0.51      1018.5     0.9       S   183   1.9      SE   144   9.26    268      -60.5
   04/21/2018 02:10      51.0      50.2       84     45.9      0.00      6.07      66.8     0.51      1018.6     0.5       S   185   1.3     SSW   205   9.27    268      -63.0
   04/21/2018 02:00      51.2      50.4       83     45.6      0.00      6.07      66.8     0.51      1018.8     0.9     SSE   161   1.6      SE   141   9.27    268      -64.6
   04/21/2018 01:50      51.9      51.0       82     45.9      0.00      6.07      66.8     0.51      1018.9     0.5     SSE   161   1.1     SSE   159   9.27    268      -65.1
   04/21/2018 01:40      52.0      51.5       81     46.2      0.00      6.07      66.8     0.51      1019.0     0.1     SSE   153   1.0       S   169   9.27    267      -63.8
   04/21/2018 01:30      52.5      51.7       81     46.4      0.00      6.07      66.9     0.51      1019.2     0.4     SSE   161   1.1     SSE   148   9.27    267      -64.5
   04/21/2018 01:20      52.8      52.2       80     46.2      0.00      6.07      66.9     0.51      1019.3     0.7     SSE   163   1.2     SSE   162   9.27    267      -64.9
   04/21/2018 01:10      53.0      52.5       79     46.4      0.00      6.07      66.9     0.51      1019.4     1.2     SSE   156   2.4      SE   145   9.27    267      -65.9
   04/21/2018 01:00      53.4      52.5       78     46.1      0.00      6.07      66.9     0.51      1019.5     0.9     SSW   202   2.1     WSW   248   9.27    267      -66.2
   04/21/2018 00:50      53.3      52.9       79     46.7      0.00      6.07      67.0     0.51      1019.6     1.4     SSW   194   2.3       S   180   9.27    267      -66.3
   04/21/2018 00:40      53.6      52.8       79     46.9      0.00      6.07      67.0     0.51      1019.8     0.9     SSE   167   1.4     SSE   153   9.27    267      -66.9
   04/21/2018 00:30      53.7      53.0       77     46.2      0.00      6.07      67.0     0.51      1019.8     1.3     SSE   165   2.4     SSW   199   9.27    267      -67.0
   04/21/2018 00:20      54.2      53.6       76     46.5      0.00      6.07      67.0     0.51      1019.7     1.5     SSW   203   2.3     SSW   201   9.27    266      -65.9
   04/21/2018 00:10      55.0      53.7       75     46.4      0.00      6.07      67.0     0.51      1019.7     0.4     SSE   162   1.0     SSW   211   9.28    266      -67.4
   04/21/2018 00:00      55.2      54.5       75     47.1      0.00      6.07      67.0     0.51      1019.7     0.5     SSW   193   1.4     SSW   200   9.28    266      -67.0
   04/20/2018 23:50      55.6      54.5       73     46.6      0.00      6.07      67.0     0.51      1019.8     0.5     SSE   154   1.7      SE   142   9.28    266      -68.3
   04/20/2018 23:40      56.4      55.4       72     46.7      0.00      6.07      67.0     0.51      1019.8     0.2     ESE   120   1.3      SE   135   9.28    266      -68.8
   04/20/2018 23:30      56.3      55.6       72     47.1      0.00      6.07      67.1     0.51      1019.8     0.4       N    10   1.1     WSW   251   9.28    266      -68.8
   04/20/2018 23:20      56.6      55.6       70     46.5      0.00      6.07      67.0     0.51      1019.8     0.1      SE   146   1.0       S   172   9.28    266      -69.3
   04/20/2018 23:10      57.2      56.4       70     47.0      0.00      6.07      67.0     0.51      1019.7     0.9     SSW   197   2.2      SW   232   9.28    266      -69.8
   04/20/2018 23:00      57.4      56.9       69     47.1      0.00      6.07      67.1     0.51      1019.6     0.0       S   186   0.8     SSW   207   9.28    266      -71.4
   04/20/2018 22:50      58.1      57.1       68     47.0      0.00      6.07      67.1     0.51      1019.6     0.8       E    92   2.2      SE   136   9.28    266      -71.6
   04/20/2018 22:40      58.7      57.8       65     46.6      0.00      6.07      67.1     0.51      1019.6     0.0      NE    42   0.4      NE    40   9.29    266      -71.3
   04/20/2018 22:30      59.6      58.5       63     46.4      0.00      6.07      67.1     0.51      1019.6     0.0     ESE   115   0.4     ESE   115   9.29    266      -72.3
   04/20/2018 22:20      59.4      59.0       63     46.5      0.00      6.07      67.1     0.51      1019.5     0.8     ESE   104   2.3     ESE   117   9.29    266      -73.5
   04/20/2018 22:10      59.1      57.8       62     45.4      0.00      6.07      67.1     0.51      1019.3     1.1     ESE   103   3.4     ESE   115   9.29    266      -71.3
   04/20/2018 22:00      58.7      58.0       60     44.7      0.00      6.07      67.1     0.51      1019.2     1.0       S   171   2.1       S   181   9.29    265      -69.8
   04/20/2018 21:50      58.8      58.3       60     44.6      0.00      6.07      67.1     0.51      1019.1     0.6      SE   124   1.6     ESE   110   9.29    265      -70.8
   04/20/2018 21:40      59.6      58.4       59     44.5      0.00      6.07      67.1     0.51      1019.2     1.0     SSE   162   1.7     SSE   158   9.29    265      -71.8
   04/20/2018 21:30      60.5      59.0       57     44.1      0.00      6.07      67.1     0.51      1019.0     1.1       S   188   2.2     SSW   202   9.30    265      -71.6
   04/20/2018 21:20      61.3      60.2       55     44.2      0.00      6.07      67.0     0.51      1019.0     0.7       S   188   2.1     SSW   197   9.30    265      -71.8
   04/20/2018 21:10      62.6      61.1       52     44.1      0.00      6.07      67.0     0.51      1018.9     0.2       E    79   0.8     ENE    62   9.30    264      -74.5
   04/20/2018 21:00      63.5      62.3       51     44.3      0.00      6.07      67.0     0.51      1018.8     1.4       S   189   2.6     WSW   259   9.30    264      -76.7
   04/20/2018 20:50      63.7      63.0       50     44.2      0.00      6.07      67.0     0.51      1018.7     0.9      SW   228   2.6     WSW   253   9.30    264      -78.2
   04/20/2018 20:40      64.4      63.4       49     44.3      0.00      6.07      67.0     0.51      1018.6     2.1      SW   215   4.0     WSW   240   9.30    264      -79.5
   04/20/2018 20:30      64.6      63.8       48     44.2      0.00      6.07      67.0     0.51      1018.5     2.0      SW   232   3.9     WSW   239   9.30    264      -79.0
   04/20/2018 20:20      64.6      63.9       48     44.2      0.00      6.07      66.9     0.51      1018.4     1.7     WSW   252   3.2     WNW   285   9.31    264      -78.7
   04/20/2018 20:10      64.9      63.8       48     44.1      0.00      6.07      66.9     0.51      1018.4     1.5     WSW   242   2.5      SW   229   9.31    264      -79.3
   04/20/2018 20:00      65.9      64.5       47     44.4      0.00      6.07      66.9     0.51      1018.4     1.4      SW   220   2.0     WSW   245   9.31    264      -81.9
   04/20/2018 19:50      67.1      65.7       45     44.4      0.00      6.07      66.8     0.51      1018.3     1.3     WSW   253   3.3      NW   306   9.31    264      -86.0
   04/20/2018 19:40      67.7      66.9       44     44.5      0.00      6.07      66.8     0.51      1018.2     1.8     WNW   303   3.2      NW   314   9.32    263      -85.9
   04/20/2018 19:30      68.5      67.4       43     44.3      0.00      6.07      66.8     0.51      1018.1     2.5      NW   313   5.3     NNW   327   9.32    263      -84.3
   04/20/2018 19:20      69.1      68.0       41     44.1      0.00      6.07      66.8     0.51      1017.9     2.1      NW   318   4.5       N     3   9.32    263      -81.5
   04/20/2018 19:10      69.8      68.9       40     43.9      0.00      6.07      66.7     0.51      1017.8     2.5      NW   305   6.2      NW   317   9.32    263      -75.5
   04/20/2018 19:00      71.9      69.5       37     43.1      0.00      6.07      66.7     0.51      1017.8     3.4      NW   313   6.2     NNW   339   9.33    263      -60.5
   04/20/2018 18:50      71.9      71.3       33     40.6      0.00      6.07      66.7     0.51      1017.6     2.1     WNW   300   5.3       W   279   9.33    262      -42.5
   04/20/2018 18:40      73.3      71.5       31     40.0      0.00      6.07      66.6     0.51      1017.5     3.4      NW   312   7.8     NNW   328   9.33    262      -20.4
   04/20/2018 18:30      73.3      71.9       25     35.1      0.00      6.07      66.6     0.51      1017.4     3.5     WSW   259   7.0       S   176   9.33    262        4.6
   04/20/2018 18:20      73.5      72.1       25     35.1      0.00      6.07      66.6     0.51      1017.4     6.0      SW   218   7.8     WSW   240   9.34    262       31.5
   04/20/2018 18:10      74.3      73.2       24     34.9      0.00      6.07      66.5     0.51      1017.4     5.6      SW   228   9.3      SW   219   9.34    262       57.8
   04/20/2018 18:00      74.6      73.8       25     35.8      0.00      6.07      66.4     0.51      1017.3     3.5       W   271   8.1     SSW   198   9.35    262       84.1
   04/20/2018 17:50      75.4      74.2       24     35.7      0.00      6.07      66.3     0.51      1017.3     4.3     WNW   291   7.4      NW   317   9.35    262      113.2
   04/20/2018 17:40      75.2      74.4       25     37.0      0.00      6.07      66.3     0.51      1017.2     4.0     WNW   296   8.3      NW   319   9.36    262      140.6
   04/20/2018 17:30      75.0      74.3       30     41.4      0.00      6.07      66.2     0.51      1017.1     3.3       W   281   6.8     WNW   297   9.36    262      169.1
   04/20/2018 17:20      75.7      74.5       27     39.3      0.00      6.07      66.2     0.51      1017.1     5.1     WNW   284  10.5     WSW   255   9.36    262      197.9
   04/20/2018 17:10      76.2      75.2       22     33.8      0.00      6.07      66.1     0.51      1017.1     7.1     WSW   247  10.2      SW   225   9.37    262      225.7
   04/20/2018 17:00      76.4      75.3       20     32.1      0.00      6.07      66.1     0.51      1017.0     6.2      SW   236  10.3     WSW   245   9.38    261      250.6
   04/20/2018 16:50      76.5      75.2       21     33.5      0.00      6.07      66.0     0.51      1016.9     6.1      SW   236  12.9     WSW   253   9.38    262      276.7
   04/20/2018 16:40      77.3      75.4       20     32.6      0.00      6.07      65.9     0.51      1016.8     7.4       W   264  12.8     WNW   288   9.38    262      302.9
   04/20/2018 16:30      77.0      75.7       20     32.0      0.00      6.07      65.8     0.51      1016.7     6.1     WSW   243  10.7       W   266   9.39    262      327.6
   04/20/2018 16:20      76.6      75.7       21     32.9      0.00      6.07      65.8     0.51      1016.6     8.1     WSW   250  13.4     WNW   292   9.39    262      351.7
   04/20/2018 16:10      77.4      76.2       22     35.0      0.00      6.07      65.7     0.52      1016.6     7.4      SW   222  12.1      SW   233   9.40    262      371.9
   04/20/2018 16:00      77.9      76.8       24     37.5      0.00      6.07      65.6     0.52      1016.7     7.7     WSW   250  12.2     WNW   303   9.41    262      390.7
   04/20/2018 15:50      78.5      77.2       24     38.3      0.00      6.07      65.5     0.52      1016.6     7.2     WSW   244  11.6     WSW   242   9.41    262      411.9
   04/20/2018 15:40      79.3      78.3       23     37.9      0.00      6.07      65.5     0.52      1016.6     6.5       W   262  10.6     WSW   257   9.41    262      431.0
   04/20/2018 15:30      79.2      78.7       23     38.0      0.00      6.07      65.4     0.52      1016.6     5.3     WNW   288   9.8      NW   320   9.42    262      448.1
   04/20/2018 15:20      80.3      78.3       22     37.1      0.00      6.07      65.3     0.52      1016.7     5.1     WNW   301  10.8     WSW   249   9.42    262      465.4
   04/20/2018 15:10      80.2      78.6       21     36.0      0.00      6.07      65.3     0.52      1016.7     4.9     WSW   258   9.4     WSW   248   9.42    262      482.6
   04/20/2018 15:00      79.5      78.4       22     36.5      0.00      6.07      65.0     0.52      1016.7     5.1     WNW   282  11.4     NNW   331   9.43    262      497.7
   04/20/2018 14:50      79.2      78.1       22     36.0      0.00      6.07      65.1     0.52      1016.8     5.5       W   268  13.2     WNW   294   9.43    262      513.8
   04/20/2018 14:40      78.4      77.1       22     35.6      0.00      6.07      65.0     0.52      1016.9     5.0     WSW   257  10.2     NNE    19   9.43    262      528.4
   04/20/2018 14:30      77.7      77.0       22     35.4      0.00      6.07      64.9     0.52      1016.9     7.3      SW   230  11.4       S   183   9.43    262      542.3
   04/20/2018 14:20      78.2      76.9       22     35.6      0.00      6.07      64.9     0.52      1017.1     5.6      SW   231  11.6     SSW   209   9.44    261      552.3
   04/20/2018 14:10      78.7      77.4       22     36.1      0.00      6.07      64.8     0.52      1017.1     6.4     SSW   205  13.8     SSW   201   9.44    261      563.9
   04/20/2018 14:00      78.4      76.8       21     34.3      0.00      6.07      64.7     0.52      1017.3     5.5      SW   222  10.4     WSW   253   9.44    262      572.2
   04/20/2018 13:50      78.4      77.0       19     32.4      0.00      6.07      64.7     0.52      1017.3     5.4      SW   217  10.1     WSW   248   9.45    261      581.0
   04/20/2018 13:40      77.7      76.6       20     32.8      0.00      6.07      64.6     0.52      1017.5     3.9     SSW   207   7.1     SSW   198   9.45    262      587.4
   04/20/2018 13:30      77.9      76.9       20     33.5      0.00      6.07      64.6     0.51      1017.7     3.1     WSW   243   9.0     SSW   203   9.45    262      590.4
   04/20/2018 13:20      77.5      76.5       21     34.1      0.00      6.07      64.5     0.52      1017.8     2.6     WNW   291   6.2     WNW   303   9.45    262      598.8
   04/20/2018 13:10      76.6      75.8       22     34.7      0.00      6.07      64.5     0.52      1017.9     2.3     WNW   289   6.1       W   259   9.45    262      601.0
   04/20/2018 13:00      76.2      74.7       23     35.5      0.00      6.07      64.4     0.52      1018.0     3.5     WNW   286   9.9     WNW   297   9.45    262      608.3
   04/20/2018 12:50      75.0      73.9       27     38.2      0.00      6.07      64.4     0.52      1018.1     3.8     WSW   246   8.0     WSW   236   9.45    262      609.2
   04/20/2018 12:40      75.0      73.0       29     39.4      0.00      6.07      64.4     0.52      1018.3     2.4       W   276   6.1     WNW   287   9.45    263      609.7
   04/20/2018 12:30      73.3      71.5       31     39.8      0.00      6.07      64.4     0.52      1018.6     2.5      NW   314   5.7       W   276   9.45    263      608.2
   04/20/2018 12:20      72.3      70.5       33     40.7      0.00      6.07      64.4     0.52      1018.7     3.0     WSW   248   6.7       S   181   9.45    263      605.6
   04/20/2018 12:10      71.1      69.5       35     41.3      0.00      6.07      64.3     0.52      1018.8     2.5     WNW   290   5.5     WNW   283   9.45    263      600.8
   04/20/2018 12:00      69.8      68.0       36     41.2      0.00      6.07      64.3     0.52      1019.1     3.1      NW   326   6.2       N   350   9.46    263      598.3
   04/20/2018 11:50      68.4      66.0       40     42.0      0.00      6.07      64.3     0.52      1019.4     2.3     WNW   286   6.7       W   267   9.46    263      591.4
   04/20/2018 11:40      67.3      65.8       41     42.0      0.00      6.07      64.3     0.52      1019.6     3.2     SSW   204   7.1     SSW   195   9.46    263      581.7
   04/20/2018 11:30      66.3      65.3       43     42.3      0.00      6.07      64.3     0.52      1019.6     3.0      SW   234   6.2     WSW   247   9.46    263      574.5
   04/20/2018 11:20      66.0      64.2       44     42.9      0.00      6.07      64.3     0.52      1019.8     1.4      NW   325   4.3     NNW   331   9.46    263      562.3
   04/20/2018 11:10      64.7      64.0       46     42.8      0.00      6.07      64.3     0.52      1020.0     3.0     WNW   285   6.2      NW   320   9.46    263      551.8
   04/20/2018 11:00      64.8      63.3       47     43.0      0.00      6.07      64.3     0.52      1020.2     2.0     NNE    23   4.3      NE    34   9.46    263      537.5
   04/20/2018 10:50      65.1      62.8       46     42.9      0.00      6.07      64.3     0.52      1020.2     1.0     ENE    57   5.4     NNE    19   9.46    263      524.4
   04/20/2018 10:40      62.8      61.7       49     42.8      0.00      6.07      64.4     0.52      1020.4     1.2     WSW   246   3.0      SW   227   9.46    263      510.6
   04/20/2018 10:30      62.2      61.2       51     43.3      0.00      6.07      64.4     0.52      1020.4     2.2       N     2   5.2     NNW   347   9.46    263      494.6
   04/20/2018 10:20      61.6      60.9       52     43.5      0.00      6.07      64.5     0.52      1020.5     2.1     SSW   203   4.3      SW   216   9.46    264      478.5
   04/20/2018 10:10      61.3      59.5       55     44.0      0.00      6.07      64.5     0.52      1020.5     1.7       N   354   6.1     NNW   326   9.46    264      462.4
   04/20/2018 10:00      60.6      59.3       56     43.9      0.00      6.07      64.5     0.52      1020.5     2.8       N   359   5.1     NNW   334   9.46    264      442.0
   04/20/2018 09:50      60.5      58.7       56     44.1      0.00      6.07      64.5     0.52      1020.6     1.3     ENE    68   3.6     NNE    19   9.46    264      422.8
   04/20/2018 09:40      58.9      58.3       57     43.4      0.00      6.07      64.6     0.52      1020.5     2.3       N   353   4.4     NNW   347   9.46    264      403.7
   04/20/2018 09:30      58.8      57.5       58     43.6      0.00      6.07      64.6     0.52      1020.5     1.9     NNW   343   4.8     NNW   332   9.46    264      384.0
   04/20/2018 09:20      58.2      57.4       58     43.3      0.00      6.07      64.7     0.52      1020.6     2.5      SW   236   5.1      SW   235   9.46    264      360.6
   04/20/2018 09:10      57.6      55.6       62     43.5      0.00      6.07      64.7     0.53      1020.7     3.1     WSW   237   5.4       W   271   9.46    264      332.8
   04/20/2018 09:00      56.2      55.5       65     44.1      0.00      6.07      64.7     0.52      1020.7     2.3     NNW   345   4.0       N   350   9.20    265      304.7
   04/20/2018 08:50      56.1      55.1       66     44.3      0.00      6.07      64.8     0.52      1020.7     1.0      NW   312   2.2      NW   305   8.63    265      282.9
   04/20/2018 08:40      55.2      54.1       68     44.3      0.00      6.07      64.8     0.52      1020.8     1.3       E    98   3.9     ENE    71   8.63    266      232.8
   04/20/2018 08:30      54.4      53.4       71     44.9      0.00      6.07      64.9     0.52      1020.8     1.1     ESE   105   2.8      SW   230   8.63    266      185.3
   04/20/2018 08:20      53.5      52.7       74     44.8      0.00      6.07      64.9     0.52      1020.7     1.0       N     5   3.5     ENE    76   8.63    266      197.7
   04/20/2018 08:10      53.3      52.1       75     45.2      0.00      6.07      65.0     0.52      1020.6     0.8      NE    37   3.6     ENE    73   8.63    266      188.2
   04/20/2018 08:00      52.4      51.6       78     45.3      0.00      6.07      65.0     0.53      1020.6     0.9     SSW   193   2.5      SW   217   8.63    266      124.3
   04/20/2018 07:50      51.9      50.8       79     45.1      0.00      6.07      65.1     0.53      1020.6     0.7     NNW   337   1.8       E    82   8.63    266       97.9
   04/20/2018 07:40      51.0      49.9       81     44.8      0.00      6.07      65.1     0.52      1020.5     0.4     SSE   154   1.3       S   190   8.63    268      -11.9
   04/20/2018 07:30      50.0      48.6       83     44.3      0.00      6.07      65.2     0.53      1020.4     0.7     SSE   148   1.3       S   177   8.63    268        7.3
   04/20/2018 07:20      48.7      47.0       84     43.3      0.00      6.07      65.2     0.53      1020.4     0.7       S   175   1.5       S   177   8.63    268       -5.8
   04/20/2018 07:10      47.2      45.6       85     42.0      0.00      6.07      65.2     0.53      1020.4     0.7      SE   138   1.5      SE   144   8.63    268      -24.3
   04/20/2018 07:00      45.8      45.0       85     41.2      0.00      6.07      65.3     0.53      1020.4     0.7     SSE   157   1.9     SSE   147   8.63    269      -29.7
   04/20/2018 06:50      45.8      45.0       85     40.9      0.00      6.07      65.3     0.53      1020.3     1.0     SSE   154   2.1      SE   143   8.63    269      -35.1
   04/20/2018 06:40      45.6      44.2       84     40.2      0.00      6.07      65.4     0.53      1020.1     0.9       S   186   1.6     SSW   198   8.63    269      -43.8
   04/20/2018 06:30      45.4      44.3       82     39.7      0.00      6.07      65.4     0.53      1020.0     0.9      NE    54   1.9       N     6   8.63    269      -51.3
   04/20/2018 06:20      45.6      45.0       83     40.4      0.00      6.07      65.4     0.53      1019.9     0.9     WSW   242   2.8      SW   216   8.63    268      -55.2
   04/20/2018 06:10      45.3      44.0       82     39.2      0.00      6.07      65.5     0.53      1019.8     2.9      SW   226   3.8      SW   217   8.63    268      -60.0
   04/20/2018 06:00      44.6      44.0       79     38.2      0.00      6.07      65.5     0.53      1019.5     0.4     SSE   148   1.2     SSE   158   8.63    268      -62.8
   04/20/2018 05:50      44.6      43.9       78     37.8      0.00      6.07      65.5     0.53      1019.4     1.2      SW   221   2.6     SSW   209   8.63    268      -62.5
   04/20/2018 05:40      44.4      43.8       77     37.1      0.00      6.07      65.6     0.53      1019.3     0.8     SSE   168   1.8     SSE   162   8.63    267      -63.4
   04/20/2018 05:30      44.8      44.1       75     37.0      0.00      6.07      65.6     0.53      1019.1     1.3     SSE   167   2.4     SSW   208   8.63    267      -62.9
   04/20/2018 05:20      45.1      44.3       73     36.6      0.00      6.07      65.7     0.53      1019.1     0.3       S   172   1.4     SSW   201   8.63    267      -63.6
   04/20/2018 05:10      45.9      44.9       72     36.6      0.00      6.07      65.7     0.53      1019.2     1.2     SSE   150   2.3      SW   223   8.63    267      -64.0
   04/20/2018 05:00      46.6      45.5       70     36.5      0.00      6.07      65.8     0.53      1019.0     1.8     SSW   196   3.3      SW   216   8.64    267      -63.8
   04/20/2018 04:50      46.5      45.8       69     36.6      0.00      6.07      65.8     0.53      1018.9     0.8     SSW   203   1.7      SW   230   8.64    267      -63.5
   04/20/2018 04:40      46.4      45.6       69     36.2      0.00      6.07      65.8     0.53      1018.7     0.2      SW   224   1.6      SW   215   8.64    267      -64.7
   04/20/2018 04:30      47.3      46.1       67     36.2      0.00      6.07      65.9     0.53      1018.7     0.5     ESE   117   1.6     NNE    23   8.64    267      -65.1
   04/20/2018 04:20      48.1      47.1       65     36.3      0.00      6.07      65.9     0.53      1018.8     0.5      SE   131   1.8      SE   137   8.64    266      -65.3
   04/20/2018 04:10      48.0      47.2       64     36.1      0.00      6.07      65.9     0.53      1018.7     1.2     ENE    72   2.4     NNE    20   8.64    267      -63.8
   04/20/2018 04:00      48.6      47.2       65     36.4      0.00      6.07      66.0     0.53      1018.6     1.7       S   179   3.4     SSW   201   8.64    266      -63.2
   04/20/2018 03:50      50.5      48.4       61     36.3      0.00      6.07      66.0     0.53      1018.5     0.9       E    93   3.0       S   179   8.64    266      -65.5
   04/20/2018 03:40      50.2      46.2       65     36.7      0.00      6.07      66.1     0.53      1018.4     2.3     SSW   209   4.3     SSW   209   8.64    266      -64.0
   04/20/2018 03:30      46.7      45.9       71     37.5      0.00      6.07      66.1     0.53      1018.5     1.9     SSE   168   3.8      SE   133   8.64    267      -66.2
   04/20/2018 03:20      47.3      46.3       70     37.4      0.00      6.07      66.2     0.53      1018.3     1.7       S   186   2.7     WSW   237   8.64    267      -65.9
   04/20/2018 03:10      47.7      47.0       69     37.6      0.00      6.07      66.2     0.53      1018.3     0.5     WNW   303   1.6      NE    38   8.64    267      -66.4
   04/20/2018 03:00      48.6      47.4       68     37.8      0.00      6.07      66.3     0.53      1018.3     1.1     SSE   155   3.2     SSE   148   8.64    266      -66.8
   04/20/2018 02:50      48.6      47.3       68     37.9      0.00      6.07      66.3     0.53      1018.3     1.6       S   172   4.7     NNW   340   8.64    266      -66.1
   04/20/2018 02:40      49.1      47.5       67     37.9      0.00      6.07      66.3     0.53      1018.3     0.8      SE   131   1.9     SSW   206   8.64    266      -66.5
   04/20/2018 02:30      49.4      48.8       66     38.1      0.00      6.07      66.3     0.54      1018.3     2.2       S   179   4.5       S   186   8.64    266      -66.3
   04/20/2018 02:20      49.0      47.5       69     38.4      0.00      6.07      66.4     0.54      1018.2     2.5     SSW   199   4.5      SW   217   8.64    266      -66.7
   04/20/2018 02:10      47.9      47.3       70     38.2      0.00      6.07      66.4     0.54      1018.3     0.8      SE   125   2.2       S   189   8.64    267      -66.3
   04/20/2018 02:00      47.3      46.8       71     38.2      0.00      6.07      66.5     0.54      1018.3     0.7      SW   225   2.3      NW   320   8.64    267      -65.5
   04/20/2018 01:50      47.3      46.3       74     38.8      0.00      6.07      66.5     0.54      1018.2     1.1     SSE   152   2.5     NNE    23   8.64    267      -65.6
   04/20/2018 01:40      47.5      46.9       73     39.1      0.00      6.07      66.5     0.54      1018.1     0.8       S   169   2.0     SSE   146   8.64    267      -65.8
   04/20/2018 01:30      47.1      46.7       76     39.7      0.00      6.07      66.5     0.54      1018.1     0.7     SSW   197   2.5     WSW   243   8.64    267      -65.5
   04/20/2018 01:20      47.8      46.8       75     39.6      0.00      6.07      66.6     0.54      1018.0     0.4     SSE   151   1.1     SSW   195   8.64    267      -67.0
   04/20/2018 01:10      48.3      47.3       74     39.9      0.00      6.07      66.6     0.54      1017.9     1.0       S   173   1.9     SSW   207   8.64    267      -67.3
   04/20/2018 01:00      48.4      47.9       74     40.4      0.00      6.07      66.7     0.54      1017.9     0.1     SSE   154   1.0      SE   146   8.65    266      -68.4
   04/20/2018 00:50      48.4      47.6       75     40.4      0.00      6.07      66.7     0.54      1017.9     1.1     SSE   168   2.3       S   180   8.65    266      -68.1
   04/20/2018 00:40      48.8      48.1       73     40.3      0.00      6.07      66.7     0.54      1017.9     0.7      SE   146   2.2       S   184   8.65    266      -68.7
   04/20/2018 00:30      49.7      48.6       72     40.4      0.00      6.07      66.8     0.54      1017.8     0.8     SSE   161   1.7     SSW   207   8.65    266      -69.3
   04/20/2018 00:20      50.5      49.2       71     40.4      0.00      6.07      66.8     0.54      1017.8     1.4       S   179   2.8      SE   139   8.65    266      -69.3
   04/20/2018 00:10      50.8      50.2       69     40.6      0.00      6.07      66.8     0.54      1017.7     1.1     WSW   257   2.1      SW   227   8.65    266      -69.5
   04/20/2018 00:00      51.2      50.5       68     40.6      0.00      6.07      66.8     0.54      1017.7     1.0       S   173   2.2     SSE   165   8.65    266      -70.1
   04/19/2018 23:50      51.4      50.7       68     40.8      0.00      6.07      66.9     0.54      1017.7     1.9      SW   214   3.4      SW   218   8.65    266      -70.1
   04/19/2018 23:40      52.5      51.1       66     40.8      0.00      6.07      66.9     0.54      1017.5     0.8       E    97   2.1     ENE    69   8.65    266      -72.7
   04/19/2018 23:30      52.5      51.9       66     41.1      0.00      6.07      67.0     0.54      1017.3     1.1     WSW   247   3.0     WSW   237   8.65    266      -72.9
   04/19/2018 23:20      52.7      51.7       66     41.1      0.00      6.07      67.0     0.54      1017.3     1.2     WSW   237   3.5     WSW   239   8.65    266      -72.7
   04/19/2018 23:10      52.7      51.8       66     41.2      0.00      6.07      67.0     0.54      1017.2     1.3     WSW   252   2.4       W   264   8.65    266      -72.9
   04/19/2018 23:00      52.3      51.7       66     41.1      0.00      6.07      67.0     0.54      1017.2     1.5      SW   235   2.7     SSW   210   8.66    266      -71.7
   04/19/2018 22:50      53.0      51.7       65     41.0      0.00      6.07      67.1     0.54      1017.4     1.2     SSW   212   2.2       W   272   8.66    266      -72.3
   04/19/2018 22:40      53.9      52.7       64     41.3      0.00      6.07      67.1     0.54      1017.3     0.5      SE   141   2.2      SE   145   8.66    266      -73.9
   04/19/2018 22:30      54.5      53.6       63     41.5      0.00      6.07      67.1     0.54      1017.4     0.8      NE    50   1.9       E    81   8.66    266      -76.0
   04/19/2018 22:20      54.9      54.2       62     41.6      0.00      6.07      67.1     0.55      1017.3     1.4      SW   220   4.5      SW   229   8.66    266      -76.8
   04/19/2018 22:10      55.1      54.5       61     41.6      0.00      6.07      67.2     0.55      1017.2     3.2       W   259   5.8      SW   228   8.66    266      -76.9
   04/19/2018 22:00      55.2      54.7       61     41.5      0.00      6.07      67.2     0.55      1017.1     3.2     WNW   290   5.1     NNW   343   8.66    266      -77.0
   04/19/2018 21:50      55.1      54.5       61     41.4      0.00      6.07      67.2     0.55      1016.9     2.8      SW   233   5.5       W   274   8.66    266      -77.3
   04/19/2018 21:40      55.4      54.7       60     41.5      0.00      6.07      67.3     0.55      1016.9     3.1     SSW   207   5.6       S   189   8.66    266      -77.9
   04/19/2018 21:30      55.8      55.1       60     41.6      0.00      6.07      67.3     0.55      1016.8     2.5      SW   225   5.3      SW   234   8.66    266      -78.6
   04/19/2018 21:20      55.9      55.5       59     41.7      0.00      6.07      67.3     0.55      1016.8     2.5     WSW   248   5.7      SW   215   8.66    266      -78.8
   04/19/2018 21:10      56.3      55.5       59     41.7      0.00      6.07      67.3     0.55      1016.6     1.4      SW   225   2.7     SSW   201   8.66    266      -78.6
   04/19/2018 21:00      56.2      55.8       59     41.9      0.00      6.07      67.3     0.55      1016.5     3.3     SSW   211   5.1      SW   226   8.67    265      -78.6
   04/19/2018 20:50      56.4      55.8       59     42.0      0.00      6.07      67.3     0.55      1016.4     4.0     SSW   208   6.1      SW   221   8.67    266      -77.8
   04/19/2018 20:40      56.6      55.9       59     42.1      0.00      6.07      67.3     0.55      1016.4     3.4     SSW   207   4.8      SW   222   8.67    265      -77.6
   04/19/2018 20:30      56.8      56.2       58     41.9      0.00      6.07      67.4     0.55      1016.4     3.5     SSW   200   5.1     SSW   204   8.67    265      -77.5
   04/19/2018 20:20      57.2      56.3       58     42.1      0.00      6.07      67.4     0.55      1016.3     2.3     SSW   197   5.9     SSW   205   8.67    265      -77.4
   04/19/2018 20:10      57.6      56.9       57     42.1      0.00      6.07      67.4     0.55      1016.3     1.8     SSW   213   2.6      SW   221   8.68    265      -78.3
   04/19/2018 20:00      58.1      57.3       56     42.0      0.00      6.07      67.3     0.55      1016.2     2.2     SSW   197   3.7     SSW   213   8.68    265      -79.4
   04/19/2018 19:50      58.7      57.7       54     41.6      0.00      6.07      67.4     0.55      1016.0     2.2     SSW   212   4.8      SW   234   8.68    264      -81.1
   04/19/2018 19:40      59.3      58.5       53     41.5      0.00      6.07      67.4     0.55      1016.1     2.4      SW   222   4.9     WSW   251   8.68    264      -79.8
   04/19/2018 19:30      59.8      58.9       51     41.2      0.00      6.07      67.4     0.55      1015.9     2.0      SW   224   4.8     WSW   238   8.68    264      -77.5
   04/19/2018 19:20      60.8      59.5       48     40.2      0.00      6.07      67.4     0.56      1015.8     3.1      SW   218   5.2      SW   221   8.68    264      -73.7
   04/19/2018 19:10      61.1      60.6       46     40.1      0.00      6.07      67.4     0.56      1015.8     1.8     WNW   294   4.2     WSW   256   8.69    264      -66.7
   04/19/2018 19:00      61.1      60.5       46     40.0      0.00      6.07      67.4     0.56      1015.7     3.2     WSW   243   7.3     WSW   245   8.69    264      -51.3
   04/19/2018 18:50      61.1      60.5       47     40.3      0.00      6.07      67.5     0.56      1015.6     5.0     WSW   240   8.7      SW   226   8.69    264      -33.4
   04/19/2018 18:40      61.6      60.8       46     40.3      0.00      6.07      67.4     0.56      1015.5     5.2      SW   234   8.3      SW   218   8.69    264      -12.0
   04/19/2018 18:30      61.9      61.3       44     39.5      0.00      6.07      67.5     0.56      1015.5     5.3     WSW   243   9.0     WSW   238   8.70    264       11.7
   04/19/2018 18:20      62.2      61.5       44     40.0      0.00      6.07      67.5     0.56      1015.6     6.1       W   266   9.7     WNW   282   8.70    264       38.3
   04/19/2018 18:10      62.5      61.9       45     40.7      0.00      6.07      67.5     0.56      1015.5     5.2     WSW   257   9.2      SW   224   8.70    264       65.0
   04/19/2018 18:00      62.5      61.9       45     40.3      0.00      6.07      67.5     0.56      1015.5     5.6     WSW   252  10.7     WSW   250   8.70    264       94.8
   04/19/2018 17:50      62.7      62.0       43     39.7      0.00      6.07      67.5     0.56      1015.5     6.8     WSW   250  10.2     WSW   255   8.71    264      124.2
   04/19/2018 17:40      63.2      62.0       43     39.5      0.00      6.07      67.5     0.56      1015.5     6.9     WSW   245  11.9      SW   216   8.71    264      154.8
   04/19/2018 17:30      63.5      62.7       42     39.8      0.00      6.07      67.4     0.56      1015.5     6.4     WSW   252  10.1       W   265   8.71    264      182.1
   04/19/2018 17:20      63.5      62.7       42     39.8      0.00      6.07      67.5     0.56      1015.4     6.7     WSW   251  11.3       W   280   8.72    264      211.6
   04/19/2018 17:10      64.1      62.8       41     39.6      0.00      6.07      67.5     0.56      1015.4     7.6     WSW   245  11.5       W   271   8.72    264      239.0
   04/19/2018 17:00      64.0      63.0       41     39.5      0.00      6.07      67.5     0.56      1015.4     6.4     WSW   239  10.8      SW   222   8.72    264      279.0
   04/19/2018 16:50      63.8      63.2       41     39.1      0.00      6.07      67.4     0.57      1015.4     6.9     WSW   242  11.7     WNW   289   8.72    264      322.5
   04/19/2018 16:40      63.8      63.2       40     38.5      0.00      6.07      67.4     0.57      1015.4     7.0      SW   230  10.6     WSW   258   8.72    264      334.8
   04/19/2018 16:30      64.4      63.5       39     38.4      0.00      6.07      67.4     0.57      1015.5     6.8     WSW   243  12.6     WSW   253   8.73    264      365.8
   04/19/2018 16:20      63.9      62.8       39     37.8      0.00      6.07      67.4     0.57      1015.5     6.7      SW   226  11.3     WSW   239   8.73    264      430.2
   04/19/2018 16:10      63.0      61.8       40     37.5      0.00      6.07      67.4     0.57      1015.6     3.6     WSW   241   8.5      SE   141   8.73    264      124.8
   04/19/2018 16:00      63.7      61.8       39     37.5      0.00      6.07      67.4     0.57      1015.6     6.2     SSW   214  10.6      SW   231   8.74    264      107.1
   04/19/2018 15:50      63.7      62.7       39     37.8      0.00      6.07      67.4     0.58      1015.8     5.3      SW   219  12.0     SSW   197   8.74    264      389.6
   04/19/2018 15:40      64.4      62.6       40     38.3      0.00      6.07      67.4     0.58      1015.9     4.7     SSW   198   8.8     SSE   146   8.74    263      329.1
   04/19/2018 15:30      63.3      61.3       42     38.6      0.00      6.07      67.3     0.58      1016.0     4.6       S   186   9.5     WSW   247   8.74    264      407.9
   04/19/2018 15:20      62.4      60.8       44     39.1      0.00      6.07      67.3     0.58      1016.1     4.7     SSE   167   7.4       S   188   8.74    263      459.3
   04/19/2018 15:10      62.0      60.5       44     39.1      0.00      6.07      67.2     0.58      1016.2     4.6       S   169   8.9     SSE   156   8.75    264      137.1
   04/19/2018 15:00      61.9      60.8       44     39.0      0.00      6.07      67.1     0.59      1016.3     4.9       S   170  11.4     SSE   165   8.75    264      259.4
   04/19/2018 14:50      61.6      60.6       44     39.0      0.00      6.07      66.9     0.59      1016.5     4.4     SSW   199   9.5      SW   215   8.75    264      130.5
   04/19/2018 14:40      62.9      61.2       43     39.1      0.00      6.07      66.9     0.60      1016.4     5.1       S   187  10.6     SSW   191   8.75    263      382.7
   04/19/2018 14:30      62.4      61.0       44     39.8      0.00      6.07      66.4     0.58      1016.4     5.6       S   170   9.8       S   183   8.76    263      480.6
   04/19/2018 14:20      61.5      60.3       47     40.4      0.00      6.07      65.8     0.35      1016.5     5.0      SE   143   9.4      SE   136   8.76    263      544.8
   04/19/2018 14:10      62.0      60.5       44     39.0      0.00      6.07      65.8     0.36      1016.6     4.8       S   190   9.1       S   182   8.76    263      381.7
   04/19/2018 14:00      62.3      61.2       40     37.2      0.00      6.07      65.8     0.36      1016.7     3.9     SSW   210   9.0     WSW   243   8.76    263      428.0
   04/19/2018 13:50      63.5      61.7       39     37.4      0.00      6.07      65.7     0.35      1016.7     5.3     SSW   200   9.0       S   169   8.76    263      570.7
   04/19/2018 13:40      63.3      61.4       40     37.4      0.00      6.07      65.7     0.35      1016.7     3.7       W   273   9.0     SSW   197   8.77    263      543.3
   04/19/2018 13:30      62.4      60.9       41     37.5      0.00      6.07      65.7     0.35      1016.8     3.0     WSW   253   9.5      SW   231   8.77    263      538.7
   04/19/2018 13:20      61.9      61.0       41     37.4      0.00      6.07      65.6     0.36      1016.8     3.6     WSW   247   8.7     WSW   254   8.77    264      340.0
   04/19/2018 13:10      62.4      61.2       41     37.7      0.00      6.07      65.6     0.35      1016.8     2.2     WSW   248   5.4     WSW   243   8.77    263      494.5
   04/19/2018 13:00      61.4      60.2       43     37.9      0.00      6.07      65.6     0.35      1016.8     3.3     NNW   343  10.1       W   275   8.77    263      616.4
   04/19/2018 12:50      60.4      59.9       43     37.7      0.00      6.07      65.6     0.35      1016.9     3.4     WNW   291   8.6     WSW   250   8.77    263      656.6
   04/19/2018 12:40      60.3      59.3       44     38.0      0.00      6.07      65.6     0.35      1017.0     3.7       W   268   8.4     WNW   299   8.77    264      603.2
   04/19/2018 12:30      59.8      58.7       45     37.7      0.00      6.07      65.6     0.35      1017.1     3.9       W   262   8.9      SW   219   8.77    263      709.9
   04/19/2018 12:20      58.8      57.9       46     37.3      0.00      6.07      65.6     0.36      1017.3     2.7     WNW   282   8.2       W   271   8.77    264      434.4
   04/19/2018 12:10      58.3      57.0       48     38.0      0.00      6.07      65.5     0.36      1017.3     2.7       W   270   7.1      SW   235   8.77    264      355.0
   04/19/2018 12:00      57.1      56.4       53     39.7      0.00      6.07      65.6     0.35      1017.4     3.1       E    79   6.4      SE   137   8.77    264      282.3
   04/19/2018 11:50      57.8      56.7       50     38.8      0.00      6.07      65.6     0.35      1017.4     1.8      SE   130   4.3       E    83   8.77    264      169.6
   04/19/2018 11:40      58.5      57.5       46     37.1      0.00      6.07      65.6     0.35      1017.3     2.4     NNE    31   5.0      NE    55   8.77    264      211.0
   04/19/2018 11:30      58.2      57.5       46     37.0      0.00      6.07      65.6     0.35      1017.3     1.9     NNW   345   4.3     NNW   342   8.77    264      324.2
   04/19/2018 11:20      57.7      56.9       46     36.6      0.00      6.07      65.6     0.35      1017.3     1.9     WSW   245   4.5     WNW   287   8.77    264      395.7
   04/19/2018 11:10      57.6      57.0       48     37.7      0.00      6.07      65.6     0.35      1017.3     3.6      SW   231   6.9       W   275   8.77    264      476.9
   04/19/2018 11:00      57.5      56.5       49     38.1      0.00      6.07      65.6     0.35      1017.2     2.8     WSW   249   6.3     WSW   252   8.77    263      616.9
   04/19/2018 10:50      56.8      55.8       51     38.6      0.00      6.07      65.7     0.35      1017.2     3.1       W   268   5.4       W   273   8.77    264      454.8
   04/19/2018 10:40      56.5      55.1       54     39.0      0.00      6.07      65.7     0.35      1017.1     2.7     WSW   242   6.7      SW   217   8.77    264      600.3
   04/19/2018 10:30      55.3      53.8       58     39.7      0.00      6.07      65.7     0.35      1017.1     2.4     WNW   282   5.3     WSW   250   8.77    264      525.8
   04/19/2018 10:20      53.8      53.2       60     39.9      0.00      6.07      65.7     0.36      1017.0     1.9     WSW   258   5.1       W   276   8.77    265      197.8
   04/19/2018 10:10      55.0      53.2       58     39.9      0.00      6.07      65.8     0.35      1017.1     3.9     SSW   201   6.9     SSW   214   8.77    265      270.3
   04/19/2018 10:00      55.1      54.1       55     38.6      0.00      6.07      65.8     0.35      1017.2     2.8      SW   234   5.1       W   262   8.78    264      551.2
   04/19/2018 09:50      54.9      52.5       56     38.1      0.00      6.07      65.8     0.36      1017.3     1.2     NNW   339   4.2      NW   313   8.78    264      453.0
   04/19/2018 09:40      53.3      52.1       60     38.8      0.00      6.07      65.8     0.36      1017.4     3.2      NW   321   4.8       N    10   8.78    265      289.9
   04/19/2018 09:30      53.8      52.9       60     40.0      0.00      6.07      65.9     0.35      1017.4     2.3     NNW   345   5.8       W   277   8.78    264      423.3
   04/19/2018 09:20      53.4      52.1       63     40.8      0.00      6.07      65.9     0.36      1017.0     1.4     ESE   113   4.8       S   170   8.77    265      465.6
   04/19/2018 09:10      52.3      51.1       66     40.7      0.00      6.07      66.0     0.36      1016.7     2.8     ESE   123   6.5      SE   141   8.77    274      438.4
   04/19/2018 09:00      51.2      50.8       72     42.3      0.00      6.07      66.0     0.36      1017.1     1.9       S   184   4.6     SSE   151   8.77    282      353.0
   04/19/2018 08:50      51.6      50.8       71     42.1      0.00      6.07      66.0     0.36      1017.4     1.2       E    87   2.5      NW   309   8.77    286      193.0
   04/19/2018 08:40      51.3      50.2       74     42.5      0.00      6.07      66.0     0.36      1017.2     1.8     WNW   288   3.7       W   275   8.77    288      430.6
   04/19/2018 08:30      51.1      50.0       75     43.2      0.00      6.07      66.0     0.36      1016.7     1.0     SSE   153   2.7     ESE   113   8.77    293      328.5
   04/19/2018 08:20      50.3      47.9       81     43.6      0.00      6.07      66.1     0.36      1016.6     0.9       E   101   2.4       E    92   8.77    297      296.4
   04/19/2018 08:10      48.1      47.2       86     43.6      0.00      6.07      66.2     0.36      1016.8     1.9     SSE   158   3.4     SSW   197   8.77    306      202.3
   04/19/2018 08:00      47.3      46.7       87     43.2      0.00      6.07      66.2     0.36      1016.7     1.7       S   182   3.0       S   178   8.77    318       91.2
   04/19/2018 07:50      47.0      46.6       88     43.3      0.00      6.07      66.2     0.36      1016.6     1.2     SSW   200   2.6     SSW   192   8.77    325       45.8
   04/19/2018 07:40      47.0      46.3       88     43.4      0.00      6.07      66.2     0.36      1016.2     1.1      NE    55   2.4      NE    49   8.77    336       58.5
   04/19/2018 07:30      46.8      46.2       88     42.9      0.00      6.07      66.3     0.36      1016.3     1.4     ENE    78   3.4     ENE    78   8.77    360       19.3
   04/19/2018 07:20      46.6      46.0       87     42.5      0.00      6.07      66.3     0.36      1016.6     0.5       S   173   1.3      SW   214   8.77    365       10.1
   04/19/2018 07:10      46.5      45.9       85     42.0      0.01      6.07      66.4     0.36      1016.6     1.5       S   187   2.1       S   173   8.77    336       10.6
   04/19/2018 07:00      46.6      46.0       84     41.7      0.00      6.06      66.4     0.36      1016.4     0.8      SE   142   1.8      SE   131   8.77    365        7.5
   04/19/2018 06:50      46.7      46.4       81     40.8      0.01      6.06      66.4     0.36      1016.5     0.6      NE    53   2.0     NNE    29   8.76    382       -1.0
   04/19/2018 06:40      46.6      46.1       78     39.9      0.00      6.05      66.5     0.36      1016.5     1.5      SW   219   3.5     WSW   237   8.75    295       -8.8
   04/19/2018 06:30      46.1      45.4       78     39.2      0.00      6.05      66.5     0.36      1016.5     1.5      SW   218   2.2     WSW   249   8.74    269      -15.7
   04/19/2018 06:20      45.6      45.1       79     39.2      0.00      6.05      66.5     0.36      1016.3     0.5     SSE   168   1.2     SSW   200   8.74    267      -17.2
   04/19/2018 06:10      45.3      44.8       80     39.2      0.00      6.05      66.6     0.36      1016.1     0.2      SW   217   0.7      SW   217   8.74    268      -21.6
   04/19/2018 06:00      44.9      44.3       82     39.3      0.00      6.05      66.6     0.36      1016.0     0.9     SSW   195   1.5     SSW   201   8.74    268      -21.7
   04/19/2018 05:50      44.6      43.9       83     39.2      0.00      6.05      66.7     0.36      1015.9     0.5       S   172   1.2       S   186   8.74    268      -16.9
   04/19/2018 05:40      44.2      43.3       84     39.2      0.00      6.05      66.7     0.36      1015.8     0.3       E    93   0.9      SE   145   8.74    268      -17.3
   04/19/2018 05:30      43.5      42.7       85     39.0      0.00      6.05      66.8     0.36      1015.8     0.2     NNE    18   1.6       N     3   8.74    269      -15.5
   04/19/2018 05:20      43.0      42.5       85     38.7      0.00      6.05      66.8     0.36      1015.7     0.4     SSE   166   1.6       S   187   8.74    273      -27.8
   04/19/2018 05:10      42.9      41.7       87     38.7      0.00      6.05      66.8     0.36      1015.7     1.9       S   183   2.8       S   188   8.74    273      -43.8
   04/19/2018 05:00      42.1      41.4       85     37.5      0.00      6.05      66.9     0.36      1015.8     1.1     SSE   165   2.3       S   178   8.74    273      -59.4
   04/19/2018 04:50      43.1      41.7       83     37.5      0.00      6.05      66.9     0.36      1015.9     1.0     SSE   161   2.1     SSW   192   8.75    272      -64.7
   04/19/2018 04:40      43.4      42.8       83     38.2      0.00      6.05      66.9     0.36      1015.9     0.7     WSW   244   2.8     WSW   250   8.75    271      -65.8
   04/19/2018 04:30      43.7      43.0       82     38.3      0.00      6.05      67.0     0.36      1015.8     1.8     SSW   212   3.5     SSW   200   8.75    271      -66.8
   04/19/2018 04:20      44.3      43.4       81     38.5      0.00      6.05      67.0     0.36      1015.9     0.4       E    86   1.2       E    97   8.75    271      -70.2
   04/19/2018 04:10      45.2      44.0       80     38.7      0.00      6.05      67.1     0.36      1015.9     0.9     SSE   167   1.6       S   173   8.75    269      -72.6
   04/19/2018 04:00      45.5      44.8       79     38.9      0.00      6.05      67.1     0.36      1015.8     2.0       S   180   3.8     SSW   205   8.75    269      -73.5
   04/19/2018 03:50      45.4      45.0       79     39.1      0.00      6.05      67.1     0.36      1015.8     1.9      SW   216   3.5      SW   226   8.75    268      -65.8
   04/19/2018 03:40      45.3      44.5       81     39.3      0.00      6.05      67.1     0.36      1015.7     1.8     SSW   208   3.1     SSW   212   8.75    269      -60.4
   04/19/2018 03:30      44.6      42.8       84     39.3      0.00      6.05      67.2     0.36      1015.8     2.2      SW   214   3.0      SW   234   8.75    269      -56.7
   04/19/2018 03:20      44.3      42.7       82     38.4      0.00      6.05      67.2     0.36      1015.7     0.9     SSE   161   1.8       S   180   8.75    270      -59.5
   04/19/2018 03:10      44.2      43.1       84     39.1      0.00      6.05      67.2     0.36      1015.6     2.4     SSW   214   3.1      SW   226   8.75    270      -57.9
   04/19/2018 03:00      44.3      43.1       83     39.0      0.00      6.05      67.2     0.36      1015.4     0.5       S   176   1.7      SW   214   8.75    271      -59.8
   04/19/2018 02:50      44.5      44.0       83     39.3      0.00      6.05      67.3     0.36      1015.5     0.4       S   170   1.1       S   184   8.75    271      -61.1
   04/19/2018 02:40      44.5      44.1       83     39.5      0.00      6.05      67.3     0.36      1015.7     0.2      SE   132   0.7       S   191   8.75    270      -64.4
   04/19/2018 02:30      44.4      43.8       83     39.1      0.00      6.05      67.3     0.36      1015.7     0.6     SSW   192   1.2      SW   231   8.75    269      -67.8
   04/19/2018 02:20      45.0      44.1       82     39.5      0.00      6.05      67.3     0.36      1015.8     0.8     SSE   161   1.3       S   171   8.75    268      -67.9
   04/19/2018 02:10      45.4      44.6       81     39.6      0.00      6.05      67.3     0.36      1015.8     0.7     SSE   152   1.6      SE   143   8.75    268      -69.9
   04/19/2018 02:00      45.9      45.2       81     40.0      0.00      6.05      67.4     0.36      1015.8     0.7     SSW   200   1.6       S   172   8.75    268      -70.1
   04/19/2018 01:50      45.9      45.5       81     40.0      0.00      6.05      67.4     0.36      1015.9     1.1       S   182   1.9       S   171   8.75    268      -69.7
   04/19/2018 01:40      46.4      45.6       79     39.8      0.00      6.05      67.4     0.36      1016.0     1.3     SSW   208   2.7      SW   226   8.75    267      -70.2
   04/19/2018 01:30      47.1      46.0       79     40.3      0.00      6.05      67.5     0.36      1016.0     0.7       S   188   1.9       S   190   8.75    267      -71.0
   04/19/2018 01:20      47.3      46.6       78     40.5      0.00      6.05      67.5     0.36      1016.0     0.6     SSW   202   1.6     SSW   197   8.76    267      -71.4
   04/19/2018 01:10      48.1      47.0       77     40.7      0.00      6.05      67.5     0.36      1016.0     0.4     SSE   160   1.2      SE   144   8.76    267      -72.9
   04/19/2018 01:00      48.9      47.8       76     41.1      0.00      6.05      67.5     0.36      1015.9     0.5     ESE   116   1.3       E    86   8.76    266      -72.8
   04/19/2018 00:50      49.4      48.6       75     41.4      0.00      6.05      67.6     0.36      1016.0     0.7     ENE    78   1.4       E    80   8.76    266      -72.5
   04/19/2018 00:40      49.7      49.1       75     41.7      0.00      6.05      67.6     0.36      1016.0     0.7      SW   222   2.5       S   176   8.76    266      -73.1
   04/19/2018 00:30      49.9      49.2       75     41.8      0.00      6.05      67.6     0.36      1015.9     1.7     SSW   205   4.5       S   173   8.76    266      -74.0
   04/19/2018 00:20      50.0      49.5       75     42.0      0.00      6.05      67.6     0.36      1015.9     3.0     SSW   213   5.4      SW   217   8.76    266      -76.3
   04/19/2018 00:10      50.1      49.7       75     42.1      0.00      6.05      67.6     0.36      1015.9     3.9     SSW   213   6.2       S   182   8.76    266      -78.1
   04/19/2018 00:00      50.6      49.9       73     41.9      0.00      6.05      67.7     0.36      1015.9     2.9      SW   220   6.0      SW   219   8.76    266      -79.4
   04/18/2018 23:50      51.1      50.3       72     42.0      0.00      6.05      67.7     0.36      1015.9     3.2      SW   217   5.9     WSW   239   8.76    266      -80.4
   04/18/2018 23:40      51.5      50.9       70     41.7      0.00      6.05      67.7     0.36      1015.8     3.9      SW   234   7.0     WSW   245   8.76    265      -80.9
   04/18/2018 23:30      51.8      51.2       68     41.2      0.00      6.05      67.7     0.36      1015.7     3.6     SSW   211   7.4     SSW   206   8.76    265      -81.3
   04/18/2018 23:20      52.1      51.4       66     40.9      0.00      6.05      67.7     0.36      1015.6     3.5     SSW   202   5.2     SSW   212   8.76    265      -81.8
   04/18/2018 23:10      52.5      51.8       65     40.5      0.00      6.05      67.7     0.36      1015.8     4.2     SSW   203   7.5     SSW   206   8.77    264      -81.8
   04/18/2018 23:00      53.0      52.2       62     40.1      0.00      6.05      67.7     0.36      1015.8     3.3     SSW   208   5.2     SSW   202   8.77    264      -82.9
   04/18/2018 22:50      53.3      52.7       61     39.8      0.00      6.05      67.7     0.36      1015.7     3.0     SSW   210   5.1      SW   216   8.77    264      -83.4
   04/18/2018 22:40      53.3      52.5       60     39.6      0.00      6.05      67.8     0.36      1015.9     3.9      SW   229   6.8     WSW   245   8.77    264      -82.7
   04/18/2018 22:30      53.4      52.7       60     39.5      0.00      6.05      67.8     0.36      1015.9     1.5     SSW   203   3.6       S   187   8.77    264      -82.3
   04/18/2018 22:20      53.5      53.0       59     39.4      0.00      6.05      67.8     0.36      1015.9     2.0     SSW   207   3.8     SSW   198   8.77    264      -82.6
   04/18/2018 22:10      53.7      53.1       59     39.4      0.00      6.05      67.8     0.36      1015.9     1.7      SW   218   4.1     WSW   237   8.77    264      -81.7
   04/18/2018 22:00      54.2      53.4       58     39.3      0.00      6.05      67.8     0.36      1015.7     1.5      SW   216   2.2     SSW   212   8.77    264      -82.7
   04/18/2018 21:50      54.6      53.8       56     39.0      0.00      6.05      67.8     0.36      1015.7     2.2     SSW   205   3.5     SSW   210   8.77    264      -82.4
   04/18/2018 21:40      54.8      54.3       55     38.5      0.00      6.05      67.8     0.36      1015.4     1.6     SSW   212   2.5     SSW   210   8.77    264      -83.5
   04/18/2018 21:30      55.4      54.5       52     37.5      0.00      6.05      67.8     0.36      1015.5     1.4     SSE   153   3.0       S   176   8.78    264      -85.1
   04/18/2018 21:20      55.9      55.1       49     36.4      0.00      6.05      67.8     0.36      1015.8     2.2     SSW   207   4.3     WSW   237   8.78    264      -86.4
   04/18/2018 21:10      56.4      55.5       46     35.3      0.00      6.05      67.8     0.36      1015.8     3.2     SSW   206   5.6     SSW   197   8.78    263      -87.0
   04/18/2018 21:00      56.6      56.0       44     34.5      0.00      6.05      67.7     0.36      1015.6     2.6     SSW   204   4.8      SW   218   8.78    263      -87.7
   04/18/2018 20:50      57.1      56.3       43     34.3      0.00      6.05      67.7     0.36      1015.5     3.1     SSW   211   5.2      SW   216   8.78    263      -88.9
   04/18/2018 20:40      57.6      56.9       42     34.0      0.00      6.05      67.7     0.36      1015.4     3.7     SSW   211   5.6      SW   227   8.78    263      -89.9
   04/18/2018 20:30      58.1      57.4       41     34.1      0.00      6.05      67.7     0.36      1015.2     2.4      SW   224   4.7     WSW   242   8.79    263      -91.0
   04/18/2018 20:20      58.6      57.8       42     34.9      0.00      6.05      67.7     0.36      1015.1     3.7      SW   220   7.5      SW   222   8.79    263      -91.5
   04/18/2018 20:10      59.2      58.4       43     36.1      0.00      6.05      67.7     0.36      1014.9     2.4      SW   216   4.8     WSW   240   8.79    263      -92.1
   04/18/2018 20:00      59.9      58.9       44     37.3      0.00      6.05      67.6     0.36      1015.0     3.5      SW   218   5.7     SSW   206   8.79    263      -92.3
   04/18/2018 19:50      60.8      59.6       43     37.6      0.00      6.05      67.6     0.36      1014.9     4.0      SW   227   7.1     WSW   244   8.79    262      -92.4
   04/18/2018 19:40      61.7      60.4       41     36.9      0.00      6.05      67.6     0.36      1014.9     5.4      SW   234   8.8      SW   231   8.80    262      -92.6
   04/18/2018 19:30      63.7      61.4       37     35.8      0.00      6.05      67.6     0.36      1014.8     5.4      SW   234   8.5     WSW   257   8.80    262      -91.0
   04/18/2018 19:20      64.1      63.3       17     17.5      0.00      6.05      67.6     0.36      1014.8     3.5     SSW   204   6.0     WSW   238   8.81    261      -90.8
   04/18/2018 19:10      64.7      63.8       17     18.1      0.00      6.05      67.5     0.36      1014.8     3.7       S   185   6.8       S   173   8.81    261      -85.9
   04/18/2018 19:00      65.5      64.4       17     18.6      0.00      6.05      67.5     0.36      1014.7     5.0       S   171   7.8       S   185   8.81    261      -73.0
   04/18/2018 18:50      66.3      65.3       17     20.0      0.00      6.05      67.5     0.36      1014.6     4.9     SSE   166   8.2     SSE   167   8.82    261      -52.8
   04/18/2018 18:40      67.0      66.1       17     20.9      0.00      6.05      67.4     0.36      1014.5     4.9     SSE   167   8.6       S   179   8.82    261      -31.6
   04/18/2018 18:30      67.4      66.6       17     20.9      0.00      6.05      67.4     0.36      1014.5     4.7     SSE   165   9.9      SE   138   8.83    261       -7.5
   04/18/2018 18:20      67.8      67.1       17     21.6      0.00      6.05      67.3     0.36      1014.5     5.0       S   179   8.1     SSW   201   8.83    261       18.1
   04/18/2018 18:10      68.5      67.4       18     22.9      0.00      6.05      67.3     0.36      1014.5     5.4       S   177   9.4     SSW   199   8.84    261       43.8
   04/18/2018 18:00      69.2      68.1       19     25.0      0.00      6.05      67.3     0.36      1014.4     6.0     SSE   167   9.9      SW   227   8.84    261       73.4
   04/18/2018 17:50      69.6      68.8       19     24.8      0.00      6.05      67.2     0.36      1014.4     5.0     SSE   152   8.7      SE   139   8.85    261      103.8
   04/18/2018 17:40      70.1      69.4       18     24.2      0.00      6.05      67.2     0.36      1014.5     4.9     SSE   157   9.0       S   183   8.85    261      128.6
   04/18/2018 17:30      70.3      69.5       18     23.9      0.00      6.05      67.1     0.36      1014.5     5.1     SSE   154   9.8     SSW   193   8.85    261      156.9
   04/18/2018 17:20      70.8      70.0       17     23.9      0.00      6.05      67.0     0.36      1014.6     4.8     SSE   155   9.3       S   191   8.86    261      182.4
   04/18/2018 17:10      71.4      70.5       16     22.4      0.00      6.05      67.0     0.36      1014.7     4.1     SSE   160   7.8       S   179   8.86    261      211.2
   04/18/2018 17:00      71.4      70.5       16     22.8      0.00      6.05      66.9     0.36      1014.8     4.9       S   174   9.6       S   177   8.87    261      236.6
   04/18/2018 16:50      71.5      70.9       16     22.9      0.00      6.05      66.9     0.36      1014.9     4.0       S   187   7.6     SSW   199   8.87    261      262.3
   04/18/2018 16:40      71.8      70.8       16     23.1      0.00      6.05      66.8     0.36      1015.0     4.2       S   174   7.8       S   186   8.87    261      287.2
   04/18/2018 16:30      72.2      70.9       16     23.0      0.00      6.05      66.7     0.36      1015.0     4.1       S   169   8.2       S   190   8.88    261      310.8
   04/18/2018 16:20      72.2      70.8       16     23.4      0.00      6.05      66.7     0.36      1015.0     4.1       S   176  10.2     SSW   202   8.88    261      334.4
   04/18/2018 16:10      71.9      70.7       17     24.4      0.00      6.05      66.6     0.36      1015.2     4.8       S   171  10.7       S   171   8.88    261      358.4
   04/18/2018 16:00      72.4      70.8       17     24.6      0.00      6.05      66.5     0.36      1015.3     5.0      SE   139  10.6     SSE   169   8.89    261      383.4
   04/18/2018 15:50      72.3      71.1       18     25.3      0.00      6.05      66.5     0.36      1015.5     5.3       S   169  10.0       S   186   8.89    261      404.8
   04/18/2018 15:40      72.0      70.3       18     24.8      0.00      6.05      66.4     0.36      1015.7     5.3       S   183  10.2       S   173   8.90    261      430.9
   04/18/2018 15:30      72.1      70.6       18     26.1      0.00      6.05      66.3     0.36      1015.8     5.8     SSE   149  10.7     ESE   117   8.90    261      416.3
   04/18/2018 15:20      71.9      70.8       19     27.2      0.00      6.05      66.3     0.36      1015.9     5.2       S   186  10.4      SW   218   8.90    261      462.9
   04/18/2018 15:10      72.3      70.8       21     29.4      0.00      6.05      66.2     0.36      1016.0     6.6       S   169  10.7       S   180   8.91    261      477.1
   04/18/2018 15:00      72.3      71.5       19     27.6      0.00      6.05      66.1     0.36      1016.1     6.2     SSE   151  10.1       S   178   8.91    261      490.7
   04/18/2018 14:50      72.2      71.3       18     25.6      0.00      6.05      66.0     0.36      1016.2     5.8     SSE   166  11.4     SSE   149   8.92    261      504.8
   04/18/2018 14:40      72.7      71.5       18     25.9      0.00      6.05      66.0     0.36      1016.3     6.6     SSE   164  12.6     SSW   195   8.92    261      521.5
   04/18/2018 14:30      72.5      71.4       18     26.2      0.00      6.05      65.9     0.36      1016.3     5.8       S   171  10.4     SSW   203   8.92    261      536.4
   04/18/2018 14:20      72.7      71.5       18     26.4      0.00      6.05      65.8     0.36      1016.4     6.6     SSE   161  10.2     SSW   204   8.93    261      549.2
   04/18/2018 14:10      73.0      72.2       17     25.2      0.00      6.05      65.8     0.36      1016.8     5.2     SSE   154  10.4       S   187   8.93    261      557.6
   04/18/2018 14:00      72.8      71.4       18     25.9      0.00      6.05      65.7     0.36      1017.0     6.2     SSE   160  12.4     ESE   122   8.93    261      568.4
   04/18/2018 13:50      72.6      71.3       17     24.9      0.00      6.05      65.7     0.36      1017.0     6.8     SSE   155  12.1     SSE   149   8.94    261      578.1
   04/18/2018 13:40      73.4      71.6       17     25.3      0.00      6.05      65.6     0.36      1017.0     6.3     SSE   158  11.3      SE   132   8.94    261      583.7
   04/18/2018 13:30      73.5      71.9       17     25.8      0.00      6.05      65.5     0.36      1017.1     5.4       S   181   9.1      SE   145   8.94    261      590.5
   04/18/2018 13:20      72.8      71.7       17     24.2      0.00      6.05      65.5     0.36      1017.1     5.9     SSE   163   9.2     SSE   165   8.95    261      589.4
   04/18/2018 13:10      72.7      71.9       18     26.1      0.00      6.05      65.4     0.36      1017.1     6.2       S   179  10.3     SSW   208   8.95    261      620.2
   04/18/2018 13:00      72.2      71.2       17     24.8      0.00      6.05      65.4     0.36      1017.1     6.6     SSE   159  12.2     SSE   157   8.95    261      576.3
   04/18/2018 12:50      72.8      71.7       18     26.7      0.00      6.05      65.4     0.36      1017.0     6.4       S   181  11.3      SW   220   8.96    261      601.0
   04/18/2018 12:40      72.7      70.5       18     26.3      0.00      6.05      65.4     0.36      1017.1     6.5       S   189  10.8     SSW   200   8.96    261      568.6
   04/18/2018 12:30      72.2      71.1       18     25.4      0.00      6.05      65.4     0.36      1017.2     7.0     SSE   151  11.4      SE   141   8.96    261      473.1
   04/18/2018 12:20      72.5      71.4       19     26.9      0.00      6.05      65.3     0.36      1017.3     6.2     SSE   159  10.2      SE   135   8.96    261      596.3
   04/18/2018 12:10      73.2      71.6       19     28.1      0.00      6.05      65.3     0.36      1017.4     6.6     SSW   194  10.1       S   178   8.97    261      593.1
   04/18/2018 12:00      73.3      72.3       19     28.3      0.00      6.05      65.3     0.36      1017.2     4.4     SSE   169  10.1     SSW   211   8.97    261      570.2
   04/18/2018 11:50      73.0      72.2       16     23.3      0.00      6.05      65.3     0.36      1017.1     3.1     ESE   115   7.8      SE   132   8.97    261      565.0
   04/18/2018 11:40      72.8      71.7       16     23.0      0.00      6.05      65.3     0.36      1017.3     3.9       S   185   7.6     SSE   165   8.97    261      560.8
   04/18/2018 11:30      72.3      70.8       15     22.1      0.00      6.05      65.3     0.36      1017.2     3.2     ESE   116   6.8      SE   144   8.97    261      552.1
   04/18/2018 11:20      71.6      70.7       15     21.6      0.00      6.05      65.3     0.36      1017.2     5.9      SE   132   9.3      SE   129   8.97    261      541.4
   04/18/2018 11:10      71.8      71.1       15     22.2      0.00      6.05      65.3     0.36      1017.3     4.5     ESE   110   9.4      SE   133   8.98    261      527.7
   04/18/2018 11:00      72.2      70.9       16     22.8      0.00      6.05      65.3     0.36      1017.5     4.1      SE   136   8.8      SE   137   8.98    261      513.4
   04/18/2018 10:50      72.0      71.0       18     25.1      0.00      6.05      65.3     0.36      1017.6     2.0     SSE   152   4.6       E    89   8.98    261      496.5
   04/18/2018 10:40      71.6      70.0       18     25.2      0.00      6.05      65.4     0.36      1017.6     1.8       E    79   3.5      NE    53   8.98    261      481.9
   04/18/2018 10:30      69.9      68.5       18     24.4      0.00      6.05      65.4     0.36      1017.6     2.3       N   355   4.8     NNW   341   8.98    261      466.0
   04/18/2018 10:20      68.8      68.1       19     24.0      0.00      6.05      65.4     0.36      1017.6     2.3     NNE    27   4.9     ENE    63   8.98    261      449.7
   04/18/2018 10:10      68.3      67.6       20     24.9      0.00      6.05      65.5     0.36      1017.6     2.2       N   350   4.3     NNE    20   8.98    261      433.0
   04/18/2018 10:00      68.3      67.4       21     26.1      0.00      6.05      65.5     0.36      1017.6     1.4     NNW   346   4.2     NNE    30   8.98    261      416.7
   04/18/2018 09:50      68.5      66.8       21     26.3      0.00      6.05      65.5     0.36      1017.6     1.0       E    96   3.0       E    87   8.98    261      398.9
   04/18/2018 09:40      67.1      66.2       22     26.6      0.00      6.05      65.5     0.36      1017.7     0.9       N     3   3.0     NNE    23   8.98    261      380.7
   04/18/2018 09:30      66.2      64.9       22     25.2      0.00      6.05      65.6     0.36      1017.8     1.2      NE    39   2.8       N   354   8.98    261      317.4
   04/18/2018 09:20      65.5      63.8       22     25.1      0.00      6.05      65.7     0.36      1017.8     0.8      NE    50   2.3     NNE    32   8.98    261      341.9
   04/18/2018 09:10      64.0      62.3       24     25.9      0.00      6.05      65.7     0.36      1017.7     1.2       N     6   3.1      NE    42   8.98    261      323.1
   04/18/2018 09:00      63.4      62.2       25     26.8      0.00      6.05      65.8     0.36      1017.7     1.3     NNW   338   2.8     NNW   328   8.98    262      283.5
   04/18/2018 08:50      62.8      61.9       26     27.3      0.00      6.05      65.8     0.36      1017.7     1.0      NE    50   2.3     ENE    60   8.98    262      277.8
   04/18/2018 08:40      62.2      61.0       27     27.8      0.00      6.05      65.8     0.36      1017.8     0.8     SSE   165   2.6     ESE   119   8.98    262      254.8
   04/18/2018 08:30      61.2      59.6       31     29.1      0.00      6.05      65.9     0.36      1017.8     0.5       S   186   3.1     SSE   153   8.98    262      227.2
   04/18/2018 08:20      59.6      57.4       34     30.3      0.00      6.05      65.9     0.36      1017.8     0.6     ESE   124   1.8     ESE   107   8.98    262      194.9
   04/18/2018 08:10      57.5      55.2       38     31.1      0.00      6.05      65.9     0.36      1017.8     0.3     ESE   114   0.9       E    83   8.98    263      162.2
   04/18/2018 08:00      55.2      52.1       43     31.4      0.00      6.05      66.0     0.36      1017.8     0.0     ESE   118   0.2     ESE   118   8.98    263      137.4
   04/18/2018 07:50      52.1      50.7       47     31.9      0.00      6.05      66.0     0.36      1017.9     0.0       N     0   0.0     NNE    30   8.98    264       77.3
   04/18/2018 07:40      50.8      48.6       50     32.0      0.00      6.05      66.1     0.36      1017.9     0.2     NNE    14   1.3       N   353   8.98    265      -25.7
   04/18/2018 07:30      48.6      46.1       57     32.7      0.00      6.05      66.1     0.36      1017.9     0.0       N     0   0.0     SSE   149   8.98    266      -20.6
   04/18/2018 07:20      46.2      44.9       62     33.1      0.00      6.05      66.2     0.36      1017.9     0.0       N     0   0.0     SSE   149   8.98    266      -25.8
   04/18/2018 07:10      45.1      44.0       64     32.9      0.00      6.05      66.2     0.36      1017.8     0.0       N     0   0.0     SSE   149   8.98    266      -33.3
   04/18/2018 07:00      44.2      43.3       62     31.6      0.00      6.05      66.2     0.36      1017.7     0.2     SSE   151   1.0     SSE   150   8.98    266      -38.8
   04/18/2018 06:50      43.6      42.9       63     31.3      0.00      6.05      66.3     0.36      1017.7     0.2       S   178   0.6       S   187   8.98    266      -44.0
   04/18/2018 06:40      43.4      43.0       63     31.3      0.00      6.05      66.3     0.36      1017.7     0.2     SSE   151   0.6     SSE   151   8.98    266      -50.8
   04/18/2018 06:30      43.3      42.5       64     31.4      0.00      6.05      66.3     0.36      1017.6     0.4       S   176   1.0     SSE   168   8.98    266      -56.6
   04/18/2018 06:20      43.4      42.4       65     31.6      0.00      6.05      66.3     0.36      1017.5     0.6     SSE   161   1.4     SSE   154   8.98    266      -61.5
   04/18/2018 06:10      43.3      43.0       61     30.5      0.00      6.05      66.4     0.36      1017.5     0.8       S   179   1.2     SSE   152   8.99    266      -63.2
   04/18/2018 06:00      43.4      42.9       61     30.6      0.00      6.05      66.5     0.36      1017.4     0.4       S   171   0.9     SSE   164   8.99    266      -63.6
   04/18/2018 05:50      43.7      43.0       59     30.2      0.00      6.05      66.4     0.36      1017.3     0.0       S   175   0.9       S   182   8.99    266      -63.9
   04/18/2018 05:40      43.7      43.0       59     30.1      0.00      6.05      66.5     0.36      1017.3     0.3     SSE   160   0.8     SSE   157   8.99    266      -64.1
   04/18/2018 05:30      43.7      43.2       59     30.2      0.00      6.05      66.6     0.36      1017.3     0.7     SSE   164   0.9       S   187   8.99    266      -63.5
   04/18/2018 05:20      44.2      43.4       59     30.1      0.00      6.05      66.6     0.36      1017.3     0.1     SSE   155   0.8     SSE   155   8.99    266      -63.3
   04/18/2018 05:10      44.5      43.9       60     31.1      0.00      6.05      66.6     0.36      1017.2     0.0     SSE   160   0.4     SSE   160   8.99    266      -63.3
   04/18/2018 05:00      44.4      44.0       61     31.4      0.00      6.05      66.7     0.36      1017.2     0.4     SSE   156   1.1     SSE   156   8.99    266      -63.7
   04/18/2018 04:50      44.5      43.9       61     31.5      0.00      6.05      66.7     0.36      1017.3     0.6     SSE   161   1.2       S   169   8.99    266      -63.9
   04/18/2018 04:40      44.4      43.9       62     31.8      0.00      6.05      66.7     0.36      1017.3     0.5     SSE   162   1.1     SSE   161   8.99    266      -64.1
   04/18/2018 04:30      44.5      44.1       61     31.6      0.00      6.05      66.8     0.36      1017.3     0.7     SSE   159   1.5     SSE   155   8.99    265      -65.3
   04/18/2018 04:20      45.0      44.0       60     31.4      0.00      6.05      66.8     0.36      1017.3     0.8     SSE   158   1.8      SE   144   8.99    266      -65.4
   04/18/2018 04:10      44.9      44.5       59     31.2      0.00      6.05      66.8     0.36      1017.4     0.5       S   173   1.2       S   173   8.99    265      -65.0
   04/18/2018 04:00      45.3      44.5       59     31.4      0.00      6.05      66.9     0.36      1017.4     0.6     SSE   146   1.3      SE   138   8.99    265      -65.9
   04/18/2018 03:50      45.5      45.0       56     30.6      0.00      6.05      66.9     0.36      1017.4     0.8       S   170   1.7       S   171   8.99    265      -65.5
   04/18/2018 03:40      45.9      45.1       56     30.9      0.00      6.05      66.9     0.36      1017.5     0.4     SSE   165   1.1     SSE   164   8.99    265      -65.4
   04/18/2018 03:30      45.9      45.4       56     30.8      0.00      6.05      67.0     0.36      1017.6     0.2       S   184   1.1       S   183   8.99    265      -65.7
   04/18/2018 03:20      46.2      45.4       57     31.3      0.00      6.05      67.0     0.36      1017.5     0.1       S   177   0.8       S   184   8.99    265      -66.5
   04/18/2018 03:10      47.3      46.1       55     31.3      0.00      6.05      67.0     0.36      1017.5     0.6     SSE   147   1.8      SE   138   8.99    265      -67.0
   04/18/2018 03:00      47.3      46.9       53     31.0      0.00      6.05      67.0     0.36      1017.5     0.3       S   174   1.1       S   174   8.99    265      -66.0
   04/18/2018 02:50      47.5      47.0       53     30.9      0.00      6.05      67.0     0.36      1017.5     0.3     SSE   166   1.0     SSE   165   9.00    265      -66.6
   04/18/2018 02:40      47.5      46.8       53     30.8      0.00      6.05      67.1     0.36      1017.4     0.5     SSW   193   1.4     SSW   195   9.00    264      -67.0
   04/18/2018 02:30      47.9      47.2       53     31.0      0.00      6.05      67.1     0.36      1017.4     0.3     SSE   158   1.2     SSE   157   9.00    264      -67.7
   04/18/2018 02:20      47.9      47.5       52     31.0      0.00      6.05      67.1     0.36      1017.4     0.3     SSE   162   0.9     SSE   153   9.00    264      -67.8
   04/18/2018 02:10      48.0      47.3       53     31.2      0.00      6.05      67.2     0.36      1017.5     1.0       S   184   1.7       S   185   9.00    264      -67.5
   04/18/2018 02:00      48.7      47.5       52     31.0      0.00      6.05      67.2     0.36      1017.5     0.6     SSE   167   1.4      SE   144   9.00    264      -69.1
   04/18/2018 01:50      49.5      48.4       48     30.1      0.00      6.05      67.2     0.36      1017.5     0.9       S   174   1.6      SE   141   9.00    264      -69.0
   04/18/2018 01:40      49.5      49.1       49     31.1      0.00      6.05      67.3     0.36      1017.6     0.5       S   173   1.4       S   179   9.00    264      -69.4
   04/18/2018 01:30      50.4      49.2       48     30.7      0.00      6.05      67.3     0.36      1017.5     0.2     SSE   153   0.9     SSE   151   9.00    264      -69.7
   04/18/2018 01:20      50.5      50.0       46     30.4      0.00      6.05      67.3     0.36      1017.5     0.3     SSE   147   1.0     SSE   149   9.00    264      -70.2
   04/18/2018 01:10      51.5      50.2       46     30.9      0.00      6.05      67.4     0.36      1017.5     0.3     SSE   155   1.2      SE   144   9.00    264      -70.2
   04/18/2018 01:00      52.2      51.3       44     30.7      0.00      6.05      67.3     0.36      1017.5     0.5     SSE   148   1.2     SSE   168   9.00    264      -71.3
   04/18/2018 00:50      53.0      52.0       44     31.2      0.00      6.05      67.3     0.36      1017.5     0.5     SSE   149   1.9     SSE   148   9.00    264      -73.0
   04/18/2018 00:40      52.7      51.8       45     31.6      0.00      6.05      67.4     0.36      1017.6     1.0     SSE   161   2.1      SE   140   9.00    264      -72.6
   04/18/2018 00:30      52.9      52.2       45     31.8      0.00      6.05      67.4     0.36      1017.6     0.1     ESE   111   1.2      SE   129   9.01    264      -73.8
   04/18/2018 00:20      54.1      52.6       45     32.2      0.00      6.05      67.4     0.36      1017.6     0.8     SSE   148   1.7      SE   139   9.01    264      -75.7
   04/18/2018 00:10      55.8      54.0       42     32.4      0.00      6.05      67.5     0.36      1017.5     1.2     SSE   154   2.3      SE   142   9.01    264      -77.7
   04/18/2018 00:00      56.9      55.5       40     32.0      0.00      6.05      67.5     0.36      1017.7     1.7     SSE   164   5.0     SSW   203   9.01    264      -80.6
   04/17/2018 23:50      57.2      56.5       39     32.0      0.00      6.05      67.5     0.36      1017.8     3.2     SSW   204   5.8       S   190   9.01    264      -81.7
   04/17/2018 23:40      57.3      56.9       39     32.1      0.00      6.05      67.5     0.36      1017.8     3.2     SSW   209   5.5      SW   224   9.01    264      -81.7
   04/17/2018 23:30      57.1      56.0       40     32.2      0.00      6.05      67.5     0.36      1017.8     2.4      SW   219   5.0     WSW   246   9.01    264      -80.5
   04/17/2018 23:20      56.8      56.1       41     32.7      0.00      6.05      67.5     0.36      1017.7     1.6     SSW   197   3.7       S   176   9.01    264      -80.8
   04/17/2018 23:10      56.6      55.9       41     32.9      0.00      6.05      67.5     0.36      1017.8     3.2     SSW   208   6.4      SW   216   9.01    264      -81.1
   04/17/2018 23:00      56.0      53.6       43     32.9      0.00      6.05      67.5     0.36      1017.9     3.0     SSW   202   5.7     SSW   197   9.01    264      -78.3
   04/17/2018 22:50      53.8      52.2       47     33.2      0.00      6.05      67.5     0.36      1017.9     1.1     SSE   169   2.7      SW   215   9.01    264      -75.8
   04/17/2018 22:40      53.6      52.4       48     33.6      0.00      6.05      67.5     0.36      1018.0     0.3     SSE   150   1.0       S   181   9.02    264      -76.4
   04/17/2018 22:30      54.7      53.3       46     33.4      0.00      6.05      67.5     0.36      1018.0     0.5      SE   129   1.6       E    94   9.02    264      -77.6
   04/17/2018 22:20      54.6      54.0       45     33.6      0.00      6.05      67.5     0.36      1018.0     0.9     SSE   163   2.1       S   172   9.02    264      -77.1
   04/17/2018 22:10      55.4      54.3       44     33.4      0.00      6.05      67.5     0.36      1018.0     0.9     SSE   155   1.6      SE   138   9.02    263      -79.2
   04/17/2018 22:00      56.1      55.1       42     33.0      0.00      6.05      67.6     0.36      1018.1     0.8     SSE   164   1.8     SSW   193   9.02    264      -80.6
   04/17/2018 21:50      56.8      55.7       41     32.8      0.00      6.05      67.5     0.36      1018.2     1.1     SSE   160   2.3     SSE   163   9.02    263      -81.7
   04/17/2018 21:40      57.0      56.4       40     32.4      0.00      6.05      67.5     0.36      1018.2     1.2       S   191   2.7      SW   229   9.02    263      -82.5
   04/17/2018 21:30      57.6      56.5       39     32.2      0.00      6.05      67.5     0.36      1018.3     1.3       S   191   2.7       S   179   9.02    263      -84.1
   04/17/2018 21:20      58.0      57.2       37     31.7      0.00      6.05      67.5     0.36      1018.3     1.9     SSW   204   4.2      SW   230   9.02    263      -85.4
   04/17/2018 21:10      58.2      57.7       36     31.0      0.00      6.05      67.5     0.36      1018.4     2.5     SSW   207   4.7       W   259   9.03    263      -86.6
   04/17/2018 21:00      58.8      57.9       35     31.0      0.00      6.05      67.5     0.36      1018.4     1.8     SSW   204   4.4      SW   223   9.03    263      -87.3
   04/17/2018 20:50      59.1      58.5       35     30.8      0.00      6.05      67.5     0.36      1018.3     3.6      SW   235   5.8      SW   234   9.03    263      -88.9
   04/17/2018 20:40      59.3      58.8       34     30.6      0.00      6.05      67.5     0.36      1018.2     4.5      SW   235   6.1      SW   233   9.03    263      -89.8
   04/17/2018 20:30      59.4      59.0       33     30.3      0.00      6.05      67.5     0.36      1018.2     5.0      SW   233   8.7      SW   230   9.03    262      -90.4
   04/17/2018 20:20      59.9      59.2       32     29.9      0.00      6.05      67.4     0.36      1018.1     4.9     WSW   237   9.1      SW   226   9.04    262      -91.1
   04/17/2018 20:10      60.1      59.5       31     29.4      0.00      6.05      67.4     0.36      1018.1     4.4     WSW   243   7.3     SSW   195   9.04    262      -91.8
   04/17/2018 20:00      60.3      59.8       31     29.0      0.00      6.05      67.4     0.36      1018.1     5.3     WSW   251   8.6      SW   233   9.04    262      -92.7
   04/17/2018 19:50      60.7      59.8       30     28.8      0.00      6.05      67.3     0.36      1018.0     4.2      SW   220   7.2      SW   232   9.04    262      -94.3
   04/17/2018 19:40      61.5      60.3       29     28.3      0.00      6.05      67.3     0.36      1018.1     4.8      SW   216   8.9      SW   235   9.05    262      -94.7
   04/17/2018 19:30      62.2      61.2       27     27.7      0.00      6.05      67.3     0.36      1018.0     5.5      SW   233  10.3       W   264   9.05    262      -92.7
   04/17/2018 19:20      62.5      61.8       27     27.6      0.00      6.05      67.3     0.36      1017.9     6.2     WSW   239  10.8      SW   229   9.06    262      -88.9
   04/17/2018 19:10      63.9      62.2       27     28.2      0.00      6.05      67.3     0.36      1018.0     5.8      SW   224  10.2       W   259   9.06    262      -83.5
   04/17/2018 19:00      65.3      63.7       26     28.8      0.00      6.05      67.2     0.36      1018.0     5.2      SW   234  10.1      SW   228   9.07    262      -68.5
   04/17/2018 18:50      65.2      64.6       26     28.8      0.00      6.05      67.2     0.36      1018.1     5.9     WSW   255  10.0       W   279   9.07    262      -51.1
   04/17/2018 18:40      65.3      64.7       26     29.7      0.00      6.05      67.2     0.36      1018.1     5.8      SW   230   9.6     SSW   201   9.08    261      -29.4
   04/17/2018 18:30      65.9      65.2       26     29.7      0.00      6.05      67.1     0.36      1018.1     6.2     WSW   237  10.5     WSW   246   9.08    261       -4.7
   04/17/2018 18:20      67.2      65.6       25     29.1      0.00      6.05      67.1     0.36      1018.0     6.8      SW   234  10.8      SW   230   9.09    261       20.0
   04/17/2018 18:10      69.4      67.0       22     27.7      0.00      6.05      67.0     0.36      1017.9     7.1     WSW   247  11.9     WSW   248   9.09    261       45.6
   04/17/2018 18:00      70.3      69.1       21     27.7      0.00      6.05      67.0     0.36      1017.7     4.1     WNW   295   9.4     NNW   336   9.10    261       69.9
   04/17/2018 17:50      71.7      69.7       19     26.6      0.00      6.05      67.0     0.36      1017.7     4.5     WNW   293  10.2     NNE    14   9.10    261       97.7
   04/17/2018 17:40      71.8      71.1       18     25.3      0.00      6.05      66.9     0.36      1017.6     3.5      NW   305   7.4      NW   309   9.10    261      124.5
   04/17/2018 17:30      73.3      71.3       14     20.6      0.00      6.05      66.9     0.36      1017.6     5.3     WNW   292  12.1      NW   306   9.11    261      149.9
   04/17/2018 17:20      74.7      73.0       11     15.8      0.00      6.05      66.8     0.36      1017.6     5.5     NNW   330  11.2     NNW   331   9.11    261      175.5
   04/17/2018 17:10      74.6      73.6       11     17.2      0.00      6.05      66.8     0.36      1017.4     2.1      NE    52   4.0      NE    35   9.12    261      201.8
   04/17/2018 17:00      74.3      73.2       12     17.4      0.00      6.05      66.7     0.36      1017.5     4.2       N   350   8.2     NNW   344   9.12    261      230.9
   04/17/2018 16:50      74.3      73.7       12     17.7      0.00      6.05      66.7     0.36      1017.6     3.4     NNW   332   7.3     NNW   347   9.12    261      255.5
   04/17/2018 16:40      73.8      72.5       13     18.7      0.00      6.05      66.5     0.36      1017.7     2.5     NNE    28   6.2       N     2   9.12    261      281.1
   04/17/2018 16:30      73.5      72.6       13     18.6      0.00      6.05      66.5     0.36      1018.0     3.6     WNW   282  10.1      NW   324   9.13    261      305.0
   04/17/2018 16:20      72.9      71.4       13     18.2      0.00      6.05      66.5     0.36      1018.1     3.6     SSW   191   9.7      SE   126   9.13    261      329.2
   04/17/2018 16:10      72.6      71.3       13     18.9      0.00      6.05      66.4     0.36      1018.2     3.9     ESE   123   7.8       S   171   9.13    261      348.6
   04/17/2018 16:00      73.5      72.2       13     19.6      0.00      6.05      66.3     0.36      1018.4     3.9      NE    41   6.9      NE    52   9.14    261      369.9
   04/17/2018 15:50      73.6      72.9       13     19.6      0.00      6.05      66.3     0.36      1018.4     3.0      NE    41   5.9     NNE    26   9.14    261      390.6
   04/17/2018 15:40      73.5      71.4       14     20.6      0.00      6.05      66.2     0.36      1018.6     3.3     ENE    74   6.2     ENE    72   9.14    261      413.3
   04/17/2018 15:30      72.2      71.1       13     18.9      0.00      6.05      66.2     0.36      1018.7     2.8       S   183   6.8     WSW   254   9.14    261      433.4
   04/17/2018 15:20      72.3      71.4       13     19.1      0.00      6.05      66.1     0.36      1019.0     3.8      NW   320   9.0       N    10   9.15    261      450.6
   04/17/2018 15:10      73.3      71.7       14     20.3      0.00      6.05      66.1     0.36      1019.1     3.9       N     0   8.7       N   352   9.15    261      467.0
   04/17/2018 15:00      72.9      71.9       15     21.6      0.00      6.05      66.0     0.36      1019.2     3.5      NE    54   6.1     ENE    59   9.15    261      482.9
   04/17/2018 14:50      72.3      71.1       15     21.6      0.00      6.05      65.9     0.36      1019.2     3.2       N   350   6.4     NNW   345   9.15    261      499.2
   04/17/2018 14:40      71.0      69.7       16     21.8      0.00      6.05      65.9     0.36      1019.3     5.0     ESE   115   8.6       S   177   9.16    261      520.8
   04/17/2018 14:30      70.1      68.7       17     23.0      0.00      6.05      65.8     0.36      1019.5     4.9     ESE   115   9.3      SE   144   9.16    261      535.4
   04/17/2018 14:20      71.4      70.0       16     22.1      0.00      6.05      65.8     0.36      1019.5     6.4     SSW   200  12.1      SW   232   9.16    261      544.6
   04/17/2018 14:10      70.5      69.8       13     17.8      0.00      6.05      65.7     0.36      1019.7     4.5     SSW   207  10.2       S   185   9.17    261      552.6
   04/17/2018 14:00      71.1      69.7       13     17.4      0.00      6.05      65.7     0.36      1020.1     3.6       N   359   8.5      NW   311   9.17    260      558.7
   04/17/2018 13:50      71.5      70.3       13     17.2      0.00      6.05      65.7     0.36      1020.1     5.5       N   359  16.0     NNW   348   9.17    261      568.1
   04/17/2018 13:40      71.4      70.7       13     17.5      0.00      6.05      65.6     0.36      1020.2     4.7       N     3   8.7       N     3   9.17    261      574.1
   04/17/2018 13:30      71.3      70.1       13     17.5      0.00      6.05      65.6     0.36      1020.4     4.9     NNE    15   9.6      NW   312   9.17    261      582.6
   04/17/2018 13:20      70.3      69.2       14     17.7      0.00      6.05      65.6     0.36      1020.5     6.1       N     6  10.7     NNW   341   9.18    261      590.4
   04/17/2018 13:10      69.5      68.2       13     16.7      0.00      6.05      65.5     0.36      1020.6     4.8     NNE    26   8.8       N   355   9.18    261      592.9
   04/17/2018 13:00      70.0      68.7       13     17.1      0.00      6.05      65.5     0.36      1020.8     4.6     NNE    19  10.6     NNW   328   9.18    261      595.1
   04/17/2018 12:50      69.5      68.3       13     16.1      0.00      6.05      65.5     0.36      1020.9     5.0       N     5  12.1      NW   320   9.18    261      596.9
   04/17/2018 12:40      70.0      68.8       13     16.9      0.00      6.05      65.5     0.36      1021.0     5.2       N     7  10.1     NNE    17   9.18    261      597.0
   04/17/2018 12:30      69.4      67.5       14     17.9      0.00      6.05      65.5     0.36      1021.1     5.3       N   356  12.6     NNW   327   9.18    261      598.1
   04/17/2018 12:20      68.3      67.4       15     17.9      0.00      6.05      65.3     0.36      1021.3     6.0       N     5  10.5       N   352   9.19    261      593.2
   04/17/2018 12:10      68.0      66.4       16     18.6      0.00      6.05      65.4     0.36      1021.4     5.0     NNE    18   7.8       N     5   9.19    261      590.3
   04/17/2018 12:00      67.0      65.9       16     18.3      0.00      6.05      65.4     0.36      1021.6     5.6     NNE    19   9.4      NE    43   9.19    261      587.9
   04/17/2018 11:50      66.1      65.3       16     18.6      0.00      6.05      65.5     0.36      1021.7     8.0       N     7  13.9       N    10   9.19    261      581.9
   04/17/2018 11:40      66.4      65.3       16     18.7      0.00      6.05      65.5     0.36      1021.8     7.2       N    10  15.1       N   351   9.19    261      570.9
   04/17/2018 11:30      66.3      64.2       18     20.5      0.00      6.05      65.5     0.36      1021.9     5.0     NNE    24  11.8      NE    53   9.19    261      561.3
   04/17/2018 11:20      64.5      63.9       18     19.9      0.00      6.05      65.5     0.36      1021.9     6.3     NNE    13  13.4       N   355   9.20    261      551.8
   04/17/2018 11:10      64.2      63.5       19     20.6      0.00      6.05      65.5     0.36      1022.0     5.6     NNE    26  10.3       N     1   9.20    261      540.2
   04/17/2018 11:00      64.3      62.2       21     22.6      0.00      6.05      65.5     0.36      1022.0     4.5     NNE    31  10.3      NE    56   9.20    261      528.0
   04/17/2018 10:50      62.5      62.2       23     23.8      0.00      6.05      65.5     0.36      1021.9     5.3     NNE    15  11.2       N     4   9.20    262      514.3
   04/17/2018 10:40      62.4      60.8       24     24.4      0.00      6.05      65.5     0.36      1021.9     4.4     NNE    12   8.5     NNE    29   9.20    261      499.9
   04/17/2018 10:30      60.9      59.0       26     24.4      0.00      6.05      65.6     0.36      1021.9     6.4       N     0  14.5     NNE    24   9.20    262      488.3
   04/17/2018 10:20      59.5      58.5       27     25.1      0.00      6.05      65.6     0.36      1021.9     7.0     NNE    11  13.1       N     9   9.20    262      469.9
   04/17/2018 10:10      59.2      58.3       29     26.1      0.00      6.05      65.6     0.36      1022.0     4.8       N   355   9.6       N   351   9.20    262      450.2
   04/17/2018 10:00      58.2      57.2       30     26.1      0.00      6.05      65.7     0.36      1022.0     5.2       N     3  10.0     ENE    72   9.20    262      432.1
   04/17/2018 09:50      57.7      57.0       31     27.0      0.00      6.05      65.8     0.36      1022.1     5.5     NNW   335  10.5     NNW   349   9.20    262      410.9
   04/17/2018 09:40      57.6      56.1       32     27.5      0.00      6.05      65.8     0.36      1022.1     2.2       N     5   6.0     NNE    21   9.20    262      389.3
   04/17/2018 09:30      56.4      55.5       33     27.7      0.00      6.05      65.8     0.36      1022.0     2.6       N   351   5.3     NNE    23   9.20    262      368.0
   04/17/2018 09:20      55.5      54.9       34     27.4      0.00      6.05      65.9     0.36      1022.1     3.5     NNW   348   6.3     NNE    27   9.20    262      346.4
   04/17/2018 09:10      55.3      54.3       35     28.0      0.00      6.05      65.9     0.36      1022.1     2.7     NNE    22   5.3     NNW   328   9.20    262      324.3
   04/17/2018 09:00      54.5      53.6       36     27.9      0.00      6.05      65.9     0.36      1022.1     3.3     NNE    25   6.3      NE    42   9.20    262      300.8
   04/17/2018 08:50      53.9      53.1       37     27.7      0.00      6.05      66.0     0.36      1022.0     3.8     NNW   349   7.6     NNW   334   9.20    262      278.9
   04/17/2018 08:40      53.3      52.6       38     27.8      0.00      6.05      66.0     0.36      1022.1     3.9       N     6   7.6      NW   305   9.20    263      255.9
   04/17/2018 08:30      52.9      52.2       39     28.1      0.00      6.05      66.1     0.36      1022.0     4.1       N   353   7.9     WSW   251   9.21    263      228.9
   04/17/2018 08:20      52.4      51.8       40     28.3      0.00      6.05      66.1     0.36      1022.0     4.1     NNW   334   9.3      NW   314   9.21    263      200.5
   04/17/2018 08:10      52.2      51.7       40     28.3      0.00      6.05      66.1     0.36      1021.9     4.2     NNW   327   9.0     NNW   332   9.21    263      174.6
   04/17/2018 08:00      52.1      50.9       41     28.4      0.00      6.05      66.2     0.36      1022.1     2.4     NNW   346   4.9     NNW   332   9.21    263      148.2
   04/17/2018 07:50      51.0      50.3       42     28.4      0.00      6.05      66.2     0.36      1022.0     3.9      NW   310   8.6      NW   322   9.21    264       57.5
   04/17/2018 07:40      50.8      50.3       42     28.4      0.00      6.05      66.3     0.36      1022.0     4.1      NW   319   8.0      NW   305   9.21    264      -40.6
   04/17/2018 07:30      50.6      49.8       43     28.2      0.00      6.05      66.3     0.36      1021.7     2.5      NW   323   5.5     WSW   249   9.21    264      -45.9
   04/17/2018 07:20      49.9      49.5       43     28.3      0.00      6.05      66.3     0.36      1021.7     1.1     NNE    30   3.0     WNW   298   9.21    265      -51.6
   04/17/2018 07:10      49.9      49.4       43     27.9      0.00      6.05      66.4     0.36      1021.4     2.1      NW   306   4.9     WNW   288   9.21    265      -58.9
   04/17/2018 07:00      49.7      49.4       42     27.5      0.00      6.05      66.4     0.36      1021.3     3.8     NNW   328   7.6      NW   318   9.21    265      -60.9
   04/17/2018 06:50      49.7      49.2       42     27.1      0.00      6.05      66.5     0.36      1021.3     4.8     NNW   330   9.0      NW   309   9.21    265      -65.0
   04/17/2018 06:40      49.4      48.8       42     27.1      0.00      6.05      66.5     0.36      1021.2     5.5     NNW   347  10.1       N     9   9.21    265      -69.9
   04/17/2018 06:30      49.2      48.7       42     27.0      0.00      6.05      66.5     0.36      1021.2     4.5       N   353   8.5     NNE    24   9.21    265      -73.8
   04/17/2018 06:20      49.2      48.6       44     27.6      0.00      6.05      66.6     0.36      1021.1     3.5       N     3   8.2       N   352   9.21    265      -76.9
   04/17/2018 06:10      49.0      48.5       44     27.8      0.00      6.05      66.6     0.36      1021.1     6.3       N     8  10.7      NW   326   9.21    265      -78.5
   04/17/2018 06:00      48.8      48.3       45     28.2      0.00      6.05      66.7     0.36      1020.8     3.6       N   349   9.1     WNW   302   9.21    265      -78.9
   04/17/2018 05:50      49.1      48.3       46     28.6      0.00      6.05      66.7     0.36      1020.7     3.0       N   351   6.4       N     4   9.21    266      -79.0
   04/17/2018 05:40      49.1      48.6       45     28.4      0.00      6.05      66.8     0.36      1020.6     4.2      NW   306  11.0     NNW   334   9.21    265      -78.6
   04/17/2018 05:30      48.9      48.3       45     28.4      0.00      6.05      66.8     0.36      1020.5     3.8      NW   311   8.6     NNW   338   9.21    266      -78.1
   04/17/2018 05:20      48.5      48.1       46     28.6      0.00      6.05      66.9     0.36      1020.5     3.1     WNW   303   8.4      NW   322   9.21    266      -77.8
   04/17/2018 05:10      48.3      47.8       47     28.8      0.00      6.05      66.9     0.36      1020.6     2.9     WNW   287   5.3     WNW   290   9.21    266      -76.9
   04/17/2018 05:00      48.3      47.8       48     29.2      0.00      6.05      67.0     0.37      1020.7     2.2      NW   321   5.3     WNW   295   9.21    266      -75.6
   04/17/2018 04:50      48.4      48.0       48     29.3      0.00      6.05      67.0     0.37      1020.7     2.3       N   352   6.1     NNW   335   9.21    266      -75.1
   04/17/2018 04:40      48.4      48.0       48     29.2      0.00      6.05      67.0     0.37      1020.7     2.8       N     4   6.9     NNW   347   9.21    266      -74.9
   04/17/2018 04:30      48.2      43.7       52     29.5      0.00      6.05      67.1     0.37      1020.7     4.6       N   359  10.2       N   353   9.21    266      -72.7
   04/17/2018 04:20      43.4      42.0       67     32.3      0.00      6.05      67.1     0.37      1020.8     0.9     NNE    31   7.0       N   350   9.21    266      -69.6
   04/17/2018 04:10      42.3      41.3       71     33.2      0.00      6.05      67.2     0.37      1020.7     0.6     WNW   285   1.7     SSW   196   9.21    266      -69.7
   04/17/2018 04:00      42.5      41.6       71     33.0      0.00      6.05      67.2     0.37      1020.7     1.1     SSE   153   2.2       S   177   9.21    267      -69.7
   04/17/2018 03:50      42.5      42.1       70     33.1      0.00      6.05      67.2     0.37      1020.7     1.4     SSW   196   2.2     SSW   212   9.22    266      -68.9
   04/17/2018 03:40      42.4      42.0       71     33.6      0.00      6.05      67.3     0.37      1020.6     0.9       S   171   1.9       S   171   9.22    266      -69.9
   04/17/2018 03:30      43.5      42.2       69     33.3      0.00      6.05      67.3     0.37      1020.7     1.0       S   176   1.9     SSW   202   9.22    266      -70.4
   04/17/2018 03:20      44.0      43.1       66     33.0      0.00      6.05      67.3     0.37      1020.6     0.9     SSW   211   3.3      SW   219   9.22    266      -71.1
   04/17/2018 03:10      43.7      43.0       68     33.5      0.00      6.05      67.4     0.37      1020.6     1.1     SSW   210   2.9      SW   226   9.22    266      -71.4
   04/17/2018 03:00      43.5      43.0       69     33.9      0.00      6.05      67.5     0.37      1020.6     0.2       S   180   1.4       S   184   9.22    266      -72.2
   04/17/2018 02:50      44.1      43.2       70     34.5      0.00      6.05      67.5     0.37      1020.6     0.6     SSW   211   1.7      SW   217   9.22    266      -71.1
   04/17/2018 02:40      44.2      43.4       71     35.1      0.00      6.05      67.5     0.37      1020.6     2.0       S   189   3.1       S   182   9.22    266      -71.6
   04/17/2018 02:30      45.0      43.5       68     34.2      0.00      6.05      67.5     0.37      1020.6     0.9      SE   146   1.7       S   186   9.22    266      -73.6
   04/17/2018 02:20      45.3      44.7       67     34.5      0.00      6.05      67.6     0.37      1020.6     1.5      SW   215   3.4     WSW   249   9.22    266      -74.9
   04/17/2018 02:10      46.1      45.0       66     34.8      0.00      6.05      67.6     0.37      1020.6     2.6     SSW   200   3.5     SSW   214   9.22    266      -75.3
   04/17/2018 02:00      46.5      45.8       66     35.2      0.00      6.05      67.6     0.37      1020.5     1.4       W   272   3.7       W   263   9.22    266      -76.5
   04/17/2018 01:50      46.7      46.2       65     35.3      0.00      6.05      67.6     0.37      1020.3     1.9       W   274   3.2     WSW   256   9.22    266      -77.4
   04/17/2018 01:40      46.9      46.4       64     35.1      0.00      6.05      67.7     0.37      1020.2     2.5     WSW   246   4.1       W   266   9.22    266      -78.1
   04/17/2018 01:30      47.1      46.4       63     34.8      0.00      6.05      67.7     0.37      1020.1     2.7     WSW   237   5.7     WSW   254   9.22    266      -78.2
   04/17/2018 01:20      46.9      46.3       62     34.5      0.00      6.05      67.8     0.37      1020.2     3.1     SSW   211   5.0     WSW   240   9.22    266      -77.9
   04/17/2018 01:10      46.6      46.2       62     34.1      0.00      6.05      67.8     0.37      1020.2     2.4     SSW   201   4.9     SSW   208   9.22    266      -76.7
   04/17/2018 01:00      46.8      46.2       61     33.9      0.00      6.05      67.8     0.37      1020.3     1.1       S   184   3.0     SSE   166   9.22    266      -76.5
   04/17/2018 00:50      47.5      46.4       61     34.1      0.00      6.05      67.8     0.37      1020.3     2.0     SSW   209   3.0     SSW   205   9.22    266      -76.0
   04/17/2018 00:40      47.6      47.1       60     34.1      0.00      6.05      67.9     0.37      1020.2     1.7     WSW   243   3.0       W   264   9.22    266      -76.3
   04/17/2018 00:30      47.9      47.4       60     34.3      0.00      6.05      67.9     0.37      1020.1     2.2      SW   224   4.0      SW   224   9.22    266      -76.9
   04/17/2018 00:20      48.2      47.6       60     34.5      0.00      6.05      67.9     0.37      1020.1     2.7     SSW   212   4.7     SSW   209   9.22    266      -77.6
   04/17/2018 00:10      48.1      47.7       60     34.8      0.00      6.05      68.0     0.37      1019.9     4.0     SSW   212   6.4     SSW   211   9.23    266      -77.6
   04/17/2018 00:00      48.4      47.6       61     34.9      0.00      6.05      68.0     0.37      1019.9     3.6     SSW   196   5.6       S   181   9.23    266      -77.5
   04/16/2018 23:50      48.8      48.1       60     35.2      0.00      6.05      68.0     0.37      1020.0     0.8     WSW   254   3.3      NW   314   9.23    266      -78.6
   04/16/2018 23:40      48.9      48.3       60     35.3      0.00      6.05      68.1     0.37      1019.8     3.2     WSW   239   6.2      SW   224   9.23    265      -79.6
   04/16/2018 23:30      49.1      48.7       60     35.6      0.00      6.05      68.1     0.37      1019.8     2.2       W   266   5.2      SW   224   9.23    266      -79.1
   04/16/2018 23:20      49.1      48.7       60     35.8      0.00      6.05      68.1     0.37      1019.7     1.4     WNW   287   3.8     WNW   286   9.23    265      -80.7
   04/16/2018 23:10      49.3      48.8       60     35.8      0.00      6.05      68.1     0.37      1019.6     4.5     WSW   241   8.0     WSW   237   9.23    265      -81.2
   04/16/2018 23:00      49.5      48.9       60     35.8      0.00      6.05      68.2     0.37      1019.6     4.8     WSW   244   8.6     WSW   248   9.23    265      -81.1
   04/16/2018 22:50      49.9      49.2       58     35.5      0.00      6.05      68.2     0.37      1019.6     6.0     WSW   244   9.6       W   276   9.23    265      -80.9
   04/16/2018 22:40      50.0      49.6       57     35.3      0.00      6.05      68.2     0.37      1019.5     4.4     WSW   257   8.1       W   267   9.23    265      -81.0
   04/16/2018 22:30      50.0      49.7       56     35.0      0.00      6.05      68.2     0.37      1019.4     5.4     WSW   250   9.9     SSW   206   9.23    265      -81.4
   04/16/2018 22:20      50.5      49.8       55     34.6      0.00      6.05      68.2     0.37      1019.2     5.5     WSW   244  10.1     WSW   244   9.24    265      -81.8
   04/16/2018 22:10      50.6      50.2       54     34.4      0.00      6.05      68.3     0.37      1019.3     5.5     WSW   256  10.9       W   267   9.24    265      -81.8
   04/16/2018 22:00      51.2      50.3       53     34.3      0.00      6.05      68.3     0.37      1019.1     5.1     WSW   241  10.6      SW   235   9.24    265      -82.5
   04/16/2018 21:50      51.0      50.6       54     34.6      0.00      6.05      68.3     0.37      1019.0     4.6       W   269   9.8     WSW   258   9.24    265      -82.6
   04/16/2018 21:40      50.8      50.4       55     35.2      0.00      6.05      68.3     0.37      1018.7     5.5     WSW   245   9.6       W   271   9.24    265      -83.7
   04/16/2018 21:30      51.1      50.5       57     35.9      0.00      6.05      68.3     0.37      1018.4     5.4      SW   235  12.1     WSW   254   9.24    265      -84.3
   04/16/2018 21:20      51.0      50.5       59     36.7      0.00      6.05      68.3     0.37      1018.3     6.8      SW   233  11.6     WSW   239   9.24    265      -83.9
   04/16/2018 21:10      51.1      50.7       58     36.8      0.00      6.05      68.3     0.37      1018.3     5.9     WSW   236  13.7      SW   235   9.25    265      -83.0
   04/16/2018 21:00      51.3      50.8       58     36.6      0.00      6.05      68.3     0.37      1018.2     5.0     WSW   242   9.0     SSW   212   9.25    265      -83.7
   04/16/2018 20:50      51.3      50.9       58     36.8      0.00      6.05      68.3     0.37      1018.2     6.1     WSW   252  11.7      SW   229   9.25    265      -83.9
   04/16/2018 20:40      51.3      51.0       58     36.7      0.00      6.05      68.3     0.37      1018.1     4.5     WSW   257   9.9       W   260   9.25    265      -84.7
   04/16/2018 20:30      51.4      51.0       57     36.4      0.00      6.05      68.4     0.37      1017.9     5.5     WSW   246  11.5     WSW   236   9.25    264      -85.8
   04/16/2018 20:20      51.5      51.0       56     36.0      0.00      6.05      68.3     0.37      1017.6     6.3     WSW   244  12.1     SSW   206   9.25    264      -86.7
   04/16/2018 20:10      51.7      51.1       55     35.7      0.00      6.05      68.3     0.37      1017.5     6.7      SW   229  13.1     SSW   211   9.26    264      -86.6
   04/16/2018 20:00      52.0      51.4       56     36.3      0.00      6.05      68.4     0.37      1017.3     6.9      SW   231  10.9      SW   225   9.26    264      -87.0
   04/16/2018 19:50      52.2      51.5       56     36.5      0.00      6.05      68.3     0.37      1017.2     7.9      SW   228  12.2     WSW   238   9.26    264      -87.0
   04/16/2018 19:40      52.6      51.8       56     36.8      0.00      6.05      68.3     0.37      1017.2     6.6      SW   230  12.4     WSW   243   9.26    264      -86.3
   04/16/2018 19:30      53.0      52.3       55     36.9      0.00      6.05      68.3     0.37      1017.1     6.8      SW   230  12.2     WSW   244   9.26    264      -82.3
   04/16/2018 19:20      53.6      52.6       55     37.1      0.00      6.05      68.3     0.37      1017.1     7.1      SW   231  12.0     SSW   212   9.27    264      -78.2
   04/16/2018 19:10      54.0      53.3       54     37.4      0.00      6.05      68.3     0.37      1017.0     5.6     WSW   237   9.5      SW   234   9.27    264      -71.5
   04/16/2018 19:00      54.8      53.8       52     37.0      0.00      6.05      68.3     0.37      1016.9     7.3      SW   235  11.8     WSW   238   9.27    264      -56.3
   04/16/2018 18:50      54.9      54.4       51     37.0      0.00      6.05      68.3     0.37      1017.0     7.0     WSW   242  13.8      SW   224   9.28    264      -37.5
   04/16/2018 18:40      55.1      54.5       50     36.8      0.00      6.05      68.3     0.37      1017.0     9.0      SW   235  16.8      SW   226   9.28    264      -16.5
   04/16/2018 18:30      55.9      54.7       51     37.1      0.00      6.05      68.2     0.37      1016.8    11.4     WSW   244  16.4      SW   219   9.29    264        8.0
   04/16/2018 18:20      56.0      55.5       49     36.7      0.00      6.05      68.2     0.37      1016.7     8.2      SW   235  12.9      SW   236   9.29    264       35.3
   04/16/2018 18:10      56.6      55.6       47     36.3      0.00      6.05      68.2     0.37      1016.7     9.8     WSW   248  16.5       W   267   9.30    264       64.0
   04/16/2018 18:00      57.6      56.4       46     36.0      0.00      6.05      68.1     0.37      1016.5     8.9      SW   230  15.7     WSW   258   9.30    264       91.1
   04/16/2018 17:50      58.1      57.1       45     36.4      0.00      6.05      68.1     0.37      1016.3     7.5      SW   231  16.0      SW   228   9.30    264      118.7
   04/16/2018 17:40      58.1      57.5       44     36.1      0.00      6.05      68.1     0.37      1016.2     8.3     WSW   242  14.2       W   266   9.31    263      148.4
   04/16/2018 17:30      58.8      57.4       43     35.5      0.00      6.05      68.1     0.37      1016.1    10.5     WSW   244  19.8      SW   218   9.31    263      177.4
   04/16/2018 17:20      59.2      58.3       41     34.9      0.00      6.05      68.0     0.37      1016.0     9.2     WSW   252  17.8     WNW   294   9.31    263      203.3
   04/16/2018 17:10      58.9      58.0       40     33.9      0.00      6.05      68.0     0.37      1015.9    10.8     WSW   245  17.6      SW   235   9.32    263      232.2
   04/16/2018 17:00      60.3      58.4       39     34.5      0.00      6.05      68.0     0.37      1015.9     9.3      SW   234  17.7     SSW   200   9.33    263      256.0
   04/16/2018 16:50      60.0      59.4       40     35.3      0.00      6.05      67.9     0.37      1015.7     8.3     WSW   250  13.6      SW   226   9.33    263      280.2
   04/16/2018 16:40      60.5      59.5       41     36.5      0.00      6.05      67.9     0.37      1015.7     8.6     WSW   254  14.2       W   272   9.33    263      305.4
   04/16/2018 16:30      60.2      59.3       42     36.3      0.00      6.05      67.8     0.37      1015.7     8.8      SW   231  16.8     SSW   208   9.33    263      330.4
   04/16/2018 16:20      60.8      59.5       41     36.1      0.00      6.05      67.8     0.37      1015.7     9.1     WSW   246  14.2     WSW   242   9.34    263      353.8
   04/16/2018 16:10      61.8      60.3       38     35.2      0.00      6.05      67.7     0.37      1015.7     8.7     WSW   248  13.9      SW   216   9.35    263      378.6
   04/16/2018 16:00      61.7      60.9       37     35.0      0.00      6.05      67.7     0.37      1015.6     8.0     WSW   247  14.7      SW   220   9.35    263      391.6
   04/16/2018 15:50      61.6      60.6       36     33.7      0.00      6.05      67.7     0.37      1015.6     6.8     WSW   237  11.5     WSW   255   9.35    262      320.9
   04/16/2018 15:40      62.5      60.9       29     28.6      0.00      6.05      67.5     0.37      1015.7     8.9     WSW   239  14.4      SW   232   9.36    263      444.9
   04/16/2018 15:30      62.6      61.2       30     30.3      0.00      6.05      67.5     0.37      1015.7     8.9     WSW   239  16.2      SW   233   9.37    262      461.2
   04/16/2018 15:20      61.9      61.1       34     32.6      0.00      6.05      67.5     0.37      1015.8     7.8      SW   233  14.4     WSW   243   9.37    263      475.9
   04/16/2018 15:10      61.8      60.6       34     32.3      0.00      6.05      67.5     0.37      1015.7     9.8      SW   229  16.8      SW   219   9.38    263      493.7
   04/16/2018 15:00      62.6      61.5       34     33.6      0.00      6.05      67.4     0.37      1015.7     9.0     WSW   244  14.3       S   186   9.38    263      511.6
   04/16/2018 14:50      63.2      61.5       34     33.2      0.00      6.05      67.4     0.37      1015.8     8.9     WSW   249  14.9       W   261   9.38    263      521.2
   04/16/2018 14:40      63.3      62.3       33     33.1      0.00      6.05      67.3     0.37      1015.8     7.5     WSW   255  13.1      SW   230   9.39    262      536.9
   04/16/2018 14:30      63.3      62.2       31     31.8      0.00      6.05      67.3     0.37      1015.8     8.1       W   262  14.4     WNW   293   9.39    262      551.2
   04/16/2018 14:20      63.3      62.1       33     33.3      0.00      6.05      67.3     0.37      1015.8     7.7     WSW   245  11.9     WSW   248   9.40    262      562.5
   04/16/2018 14:10      63.2      62.2       35     34.3      0.00      6.05      67.2     0.37      1015.8     8.9     WSW   243  16.0     WNW   297   9.40    262      574.0
   04/16/2018 14:00      63.3      62.1       36     35.0      0.00      6.05      67.2     0.37      1015.8     8.2     WSW   251  14.2     WSW   248   9.40    262      583.9
   04/16/2018 13:50      63.4      62.5       35     35.0      0.00      6.05      67.2     0.37      1015.8     7.1     WSW   251  13.8      SW   232   9.41    262      590.1
   04/16/2018 13:40      63.8      62.5       36     35.5      0.00      6.05      67.2     0.37      1015.8     6.8       W   266  12.3       W   273   9.41    262      599.3
   04/16/2018 13:30      63.8      62.5       36     35.8      0.00      6.05      67.1     0.37      1015.8     8.8       W   261  14.1     WSW   244   9.41    262      606.5
   04/16/2018 13:20      63.9      63.4       34     34.8      0.00      6.05      67.1     0.37      1015.8     6.9       W   270  14.0     WSW   251   9.42    262      607.4
   04/16/2018 13:10      64.4      63.2       32     33.7      0.00      6.05      67.1     0.37      1015.8     6.5     WSW   257  14.1     WSW   242   9.42    262      611.0
   04/16/2018 13:00      63.8      63.1       35     35.0      0.00      6.05      67.1     0.37      1015.9     6.9       W   264  14.8       W   278   9.42    262      618.1
   04/16/2018 12:50      64.3      63.3       35     35.9      0.00      6.05      67.1     0.37      1015.9     7.1     WSW   257  12.4      NW   324   9.42    263      631.3
   04/16/2018 12:40      64.8      63.6       36     36.7      0.00      6.05      67.1     0.37      1015.9     6.2      SW   227  12.4      SW   227   9.43    262      624.8
   04/16/2018 12:30      65.7      63.4       34     35.3      0.00      6.05      67.0     0.37      1015.9     3.9      SW   224   7.4     WSW   237   9.43    263      365.3
   04/16/2018 12:20      65.5      63.6       30     32.4      0.00      6.05      67.1     0.37      1016.0     5.2     SSE   152  10.4      SE   136   9.43    263      637.6
   04/16/2018 12:10      64.7      63.6       29     31.1      0.00      6.05      67.1     0.37      1016.0     6.7       S   173  12.1      SE   140   9.43    262      632.4
   04/16/2018 12:00      65.2      63.0       34     34.9      0.00      6.05      67.1     0.37      1016.0     4.2       S   171  10.8       S   189   9.43    263      608.0
   04/16/2018 11:50      64.1      62.5       38     37.3      0.00      6.05      67.1     0.37      1016.1     6.5     SSE   164  11.8      SE   132   9.44    263      621.0
   04/16/2018 11:40      64.0      62.8       40     38.7      0.00      6.05      67.1     0.37      1016.1     5.6       S   187   9.9     SSW   212   9.44    263      496.6
   04/16/2018 11:30      64.7      63.4       42     40.2      0.00      6.05      67.1     0.37      1016.1     5.9     SSE   158  11.5     SSE   148   9.44    263      613.8
   04/16/2018 11:20      64.9      61.3       46     42.0      0.00      6.05      67.0     0.37      1016.1     3.8       S   181   9.5     ESE   122   9.44    263      693.2
   04/16/2018 11:10      61.4      60.5       48     41.2      0.00      6.05      67.1     0.37      1016.2     4.0      SW   221   7.4     SSW   193   9.44    264      345.6
   04/16/2018 11:00      61.3      60.5       48     40.8      0.00      6.05      67.2     0.37      1016.2     3.6      SW   216   7.7     SSW   196   9.45    264      176.5
   04/16/2018 10:50      61.3      60.3       48     40.8      0.00      6.05      67.2     0.37      1016.2     3.6       W   275  10.3     SSW   213   9.45    264      167.1
   04/16/2018 10:40      60.7      59.9       48     40.3      0.00      6.05      67.2     0.37      1016.2     1.7      NE    47   6.1     ESE   112   9.45    264      130.1
   04/16/2018 10:30      61.7      60.0       47     40.7      0.00      6.05      67.2     0.37      1016.2     3.4       W   262   8.1     WSW   238   9.45    263      382.4
   04/16/2018 10:20      61.2      59.5       49     40.9      0.00      6.05      67.2     0.37      1016.2     4.6     WNW   287   8.6      NW   309   9.45    264      244.8
   04/16/2018 10:10      61.1      59.8       50     41.8      0.00      6.05      67.2     0.37      1016.2     3.9      SW   230   8.9     SSW   207   9.45    263      509.0
   04/16/2018 10:00      60.0      59.4       51     41.7      0.00      6.05      67.3     0.37      1016.2     5.0      SW   214   9.3     WSW   252   9.45    264      482.0
   04/16/2018 09:50      60.3      59.5       52     42.0      0.00      6.05      67.3     0.37      1016.3     6.0      SW   227  11.3      SW   227   9.45    264      462.9
   04/16/2018 09:40      59.6      57.9       56     43.0      0.00      6.05      67.4     0.37      1016.2     5.4      SW   224   8.8      SW   222   9.45    264      442.2
   04/16/2018 09:30      58.3      57.4       57     42.9      0.00      6.05      67.4     0.37      1016.2     5.3      SW   232   9.8       W   264   9.45    264      286.9
   04/16/2018 09:20      58.8      58.0       56     42.8      0.00      6.05      67.5     0.37      1016.1     4.3      SW   214   9.8     SSW   199   9.45    264      345.0
   04/16/2018 09:10      58.0      56.9       58     42.5      0.00      6.05      67.5     0.37      1016.2     3.7     WSW   237   6.1     WNW   284   8.99    264      330.5
   04/16/2018 09:00      57.5      56.9       57     42.3      0.00      6.05      67.6     0.37      1016.2     3.8     SSW   211   9.1     SSW   194   4.02    264      254.9
   04/16/2018 08:50      57.4      56.6       59     42.7      0.00      6.05      67.6     0.37      1016.3     2.4     WNW   289   7.5       W   270   4.03    264      249.1
   04/16/2018 08:40      57.4      56.6       62     44.3      0.00      6.05      67.6     0.37      1016.2     1.3     ENE    57   2.9     NNW   337   8.18    264      231.3
   04/16/2018 08:30      57.3      56.0       64     44.4      0.00      6.05      67.6     0.37      1016.3     0.8     ESE   112   2.5      NE    48   8.18    264      205.3
   04/16/2018 08:20      56.3      55.5       63     43.7      0.00      6.05      67.7     0.37      1016.2     1.2     NNE    24   2.2     ENE    73   8.18    264      178.2
   04/16/2018 08:10      55.5      55.1       62     42.5      0.00      6.05      67.7     0.37      1016.1     1.1       N     5   3.1     NNW   338   8.18    264      147.2
   04/16/2018 08:00      55.4      53.5       63     42.1      0.00      6.05      67.8     0.37      1016.0     0.5       N     9   2.3     NNE    13   8.18    265      122.6
   04/16/2018 07:50      53.6      52.2       66     41.7      0.00      6.05      67.8     0.37      1015.9     0.6       S   169   2.0      SW   221   8.18    266       59.5
   04/16/2018 07:40      52.3      50.8       68     41.4      0.00      6.05      67.8     0.37      1015.9     0.2     SSW   213   1.8     SSW   199   8.18    266      -11.9
   04/16/2018 07:30      50.9      49.1       72     41.3      0.00      6.05      67.9     0.37      1015.7     0.2     WSW   245   0.7     WSW   245   8.18    266      -16.6
   04/16/2018 07:20      49.3      48.3       74     40.7      0.00      6.05      67.9     0.37      1015.6     0.1     WSW   242   0.8     WSW   244   8.18    266      -29.4
   04/16/2018 07:10      48.5      47.7       75     40.6      0.00      6.05      67.9     0.37      1015.6     0.2     SSW   196   0.7     SSW   196   8.18    266      -35.6
   04/16/2018 07:00      47.8      47.0       76     40.3      0.00      6.05      68.0     0.37      1015.5     0.3      SW   221   1.0     WSW   246   8.18    267      -37.6
   04/16/2018 06:50      47.1      46.2       78     40.0      0.00      6.05      68.0     0.37      1015.4     1.8      SW   216   2.7     WSW   244   8.18    267      -44.8
   04/16/2018 06:40      46.9      46.0       77     39.5      0.00      6.05      68.0     0.37      1015.2     0.3       S   184   1.5      SW   226   8.18    267      -53.7
   04/16/2018 06:30      47.1      46.6       76     39.8      0.00      6.05      68.1     0.37      1015.3     0.4       E    83   1.1     ENE    73   8.18    267      -59.2
   04/16/2018 06:20      47.1      46.8       76     39.9      0.00      6.05      68.1     0.37      1015.3     1.6      SW   222   2.3     WSW   243   8.18    267      -60.2
   04/16/2018 06:10      47.9      46.8       75     39.7      0.00      6.05      68.2     0.37      1015.3     0.5       S   178   1.4       S   170   8.18    266      -62.0
   04/16/2018 06:00      49.1      47.7       72     39.7      0.00      6.05      68.2     0.37      1015.2     0.8      SE   141   1.2       S   182   8.18    267      -63.5
   04/16/2018 05:50      49.5      48.9       71     40.2      0.00      6.05      68.2     0.37      1015.2     1.0     SSE   165   1.7     SSW   193   8.18    266      -64.4
   04/16/2018 05:40      49.5      49.2       71     40.4      0.00      6.05      68.3     0.37      1015.1     1.8      SW   221   3.3      SW   231   8.18    266      -64.9
   04/16/2018 05:30      49.3      48.3       71     39.8      0.00      6.05      68.3     0.37      1015.1     1.9      SW   232   3.5     WSW   252   8.18    266      -63.2
   04/16/2018 05:20      49.1      48.2       70     39.0      0.00      6.05      68.3     0.37      1014.9     0.7      SW   215   3.2     WSW   250   8.18    266      -63.2
   04/16/2018 05:10      50.0      48.8       66     38.8      0.00      6.05      68.3     0.37      1014.8     1.0     SSW   199   3.2      SW   215   8.18    266      -64.0
   04/16/2018 05:00      50.0      49.2       67     39.1      0.00      6.05      68.5     0.37      1014.7     2.3     SSW   197   3.6     SSW   194   8.18    266      -62.9
   04/16/2018 04:50      50.9      49.7       66     39.1      0.00      6.05      68.5     0.37      1014.7     1.0      SW   219   3.2      SW   218   8.18    266      -64.4
   04/16/2018 04:40      50.7      49.0       68     39.9      0.00      6.05      68.5     0.37      1014.7     3.5     WSW   238   5.5     WSW   239   8.18    266      -63.9
   04/16/2018 04:30      49.0      48.4       72     40.0      0.00      6.05      68.5     0.37      1014.6     1.0     SSW   209   3.5       W   262   8.18    266      -61.3
   04/16/2018 04:20      49.5      48.4       69     39.2      0.00      6.05      68.6     0.37      1014.4     1.3      SW   234   1.8     WSW   251   8.18    266      -61.2
   04/16/2018 04:10      49.5      48.6       68     39.2      0.00      6.05      68.6     0.37      1014.3     1.5      SW   232   2.1     WSW   257   8.18    266      -60.6
   04/16/2018 04:00      49.4      48.4       68     38.7      0.00      6.05      68.6     0.37      1014.3     0.9     SSE   164   1.4      SE   137   8.18    266      -62.3
   04/16/2018 03:50      49.8      49.2       66     38.6      0.00      6.05      68.6     0.37      1014.4     0.5       S   171   1.1      SE   138   8.18    266      -62.4
   04/16/2018 03:40      50.4      49.5       65     38.8      0.00      6.05      68.7     0.37      1014.4     0.4       S   170   1.4     SSE   147   8.18    266      -63.3
   04/16/2018 03:30      50.3      49.7       65     38.9      0.00      6.05      68.7     0.37      1014.3     0.8      SW   225   2.2       W   264   8.18    266      -62.2
   04/16/2018 03:20      49.9      49.4       66     38.6      0.00      6.05      68.8     0.37      1014.4     0.6     SSW   194   1.9     SSW   201   8.18    266      -62.2
   04/16/2018 03:10      49.7      49.1       67     38.8      0.00      6.05      68.8     0.37      1014.4     1.2       S   173   2.6     SSW   205   8.18    266      -61.4
   04/16/2018 03:00      50.5      49.2       66     38.6      0.00      6.05      68.8     0.37      1014.5     0.6      SE   144   1.4      SE   139   8.18    266      -63.7
   04/16/2018 02:50      50.8      50.2       64     38.6      0.00      6.05      68.8     0.37      1014.5     0.7     SSW   194   2.9     WSW   241   8.18    266      -63.7
   04/16/2018 02:40      50.5      50.0       64     38.3      0.00      6.05      68.9     0.37      1014.5     0.4     SSE   166   1.4      SE   146   8.19    266      -64.8
   04/16/2018 02:30      51.6      50.2       62     38.1      0.00      6.05      68.9     0.37      1014.4     0.7     SSE   149   1.3      SE   141   8.19    266      -66.0
   04/16/2018 02:20      52.2      51.3       60     38.2      0.00      6.05      68.9     0.37      1014.4     0.0     SSE   157   0.6      SE   140   8.19    265      -66.4
   04/16/2018 02:10      52.4      51.9       58     37.9      0.00      6.05      68.9     0.37      1014.3     0.3     SSE   148   1.2      SE   145   8.19    265      -64.7
   04/16/2018 02:00      52.5      51.8       61     39.2      0.00      6.05      69.0     0.37      1014.4     0.5     SSE   151   1.8       S   176   8.19    265      -63.8
   04/16/2018 01:50      52.5      52.1       61     39.2      0.00      6.05      69.0     0.37      1014.4     0.4     SSE   163   1.3      SE   132   8.19    265      -62.3
   04/16/2018 01:40      52.7      52.1       60     39.1      0.00      6.05      69.0     0.37      1014.5     0.7     SSE   159   1.4       S   177   8.19    265      -60.5
   04/16/2018 01:30      52.7      52.0       60     38.7      0.00      6.05      69.1     0.37      1014.6     1.0       S   175   1.6     SSW   193   8.19    265      -60.0
   04/16/2018 01:20      52.7      52.2       59     38.3      0.00      6.05      69.0     0.37      1014.6     1.1       S   188   1.6       S   182   8.19    265      -60.3
   04/16/2018 01:10      53.3      52.3       58     38.3      0.00      6.05      69.1     0.37      1014.6     0.2     SSE   162   1.1      SW   214   8.19    264      -61.4
   04/16/2018 01:00      53.7      53.0       56     38.2      0.00      6.05      69.1     0.37      1014.6     0.0     ESE   115   0.6     ESE   112   8.19    264      -61.9
   04/16/2018 00:50      54.9      53.4       55     38.3      0.00      6.05      69.2     0.37      1014.6     0.3      SE   128   1.5      SE   131   8.19    264      -61.5
   04/16/2018 00:40      55.5      54.6       53     38.2      0.00      6.05      69.2     0.37      1014.6     1.0       S   179   1.6     SSE   168   8.19    264      -62.8
   04/16/2018 00:30      55.7      55.1       52     38.2      0.00      6.05      69.2     0.37      1014.6     1.0       S   186   1.7       S   185   8.19    264      -63.7
   04/16/2018 00:20      55.9      55.4       51     37.9      0.00      6.05      69.2     0.37      1014.6     0.9       S   175   1.7     SSE   152   8.19    264      -65.2
   04/16/2018 00:10      55.9      55.2       51     37.9      0.00      6.05      69.2     0.37      1014.6     1.4     SSW   204   2.8      SW   215   8.19    264      -67.3
   04/16/2018 00:00      55.3      54.3       53     38.0      0.00      6.05      69.2     0.37      1014.6     1.3     SSW   201   2.2      SW   221   8.20    264      -68.0
   04/15/2018 23:50      56.3      54.6       51     37.7      0.00      6.05      69.3     0.37      1014.5     0.3     SSE   167   1.4       S   176   8.20    264      -71.0
   04/15/2018 23:40      57.1      55.9       49     37.5      0.00      6.05      69.2     0.37      1014.4     1.1       S   173   2.5      SW   227   8.20    264      -72.3
   04/15/2018 23:30      56.6      55.4       49     37.0      0.00      6.05      69.3     0.37      1014.3     2.4      SW   214   3.6     WSW   239   8.20    264      -69.4
   04/15/2018 23:20      56.6      55.3       50     37.3      0.00      6.05      69.3     0.37      1014.3     0.7       S   175   1.6     SSW   211   8.20    264      -69.8
   04/15/2018 23:10      57.2      56.3       48     37.1      0.00      6.05      69.3     0.37      1014.3     0.7       S   175   2.1       S   177   8.20    264      -69.7
   04/15/2018 23:00      57.2      56.6       47     36.8      0.00      6.05      69.3     0.37      1014.2     1.2     SSW   199   2.1      SW   233   8.20    264      -69.1
   04/15/2018 22:50      57.3      56.5       48     37.3      0.00      6.05      69.3     0.37      1014.1     0.4       S   174   1.0     SSW   193   8.20    264      -70.4
   04/15/2018 22:40      57.9      57.0       48     37.5      0.00      6.05      69.3     0.37      1014.1     0.6       S   177   1.3       S   189   8.20    264      -68.4
   04/15/2018 22:30      59.1      57.6       46     37.3      0.00      6.05      69.4     0.37      1014.1     0.3       E   101   1.3     ENE    73   8.20    264      -68.4
   04/15/2018 22:20      59.3      58.8       44     37.0      0.00      6.05      69.3     0.37      1014.2     0.2       S   172   1.0     SSE   154   8.20    264      -66.5
   04/15/2018 22:10      59.9      59.0       45     37.8      0.00      6.05      69.3     0.37      1014.3     0.6       S   187   1.5       S   186   8.21    264      -65.5
   04/15/2018 22:00      60.9      59.6       44     38.1      0.00      6.05      69.3     0.37      1014.3     1.1       S   176   2.1       S   178   8.21    263      -64.7
   04/15/2018 21:50      61.3      60.7       43     38.4      0.00      6.05      69.3     0.37      1014.3     0.9       S   187   1.7     SSW   203   8.21    263      -63.1
   04/15/2018 21:40      61.7      61.0       43     38.5      0.00      6.05      69.3     0.37      1014.2     0.9     SSW   203   2.5     SSW   198   8.21    263      -63.2
   04/15/2018 21:30      61.5      61.0       42     38.3      0.00      6.05      69.3     0.37      1014.1     2.4     SSW   208   4.3       S   183   8.21    263      -62.9
   04/15/2018 21:20      61.6      61.0       42     38.3      0.00      6.05      69.3     0.37      1014.0     2.7       S   186   4.8     SSW   192   8.21    263      -66.9
   04/15/2018 21:10      61.9      61.2       43     38.6      0.00      6.05      69.3     0.37      1014.0     2.3     SSW   197   4.2       S   178   8.21    263      -68.2
   04/15/2018 21:00      62.5      61.6       42     38.6      0.00      6.05      69.3     0.37      1014.0     2.7     SSW   194   5.2     SSW   195   8.21    263      -71.1
   04/15/2018 20:50      63.2      62.1       40     38.0      0.00      6.05      69.3     0.37      1013.8     2.7     SSW   197   4.2     SSW   200   8.22    263      -73.5
   04/15/2018 20:40      63.4      63.0       39     37.6      0.00      6.05      69.2     0.37      1013.9     2.3     SSW   198   4.1      SW   218   8.22    263      -72.5
   04/15/2018 20:30      63.3      62.5       36     35.7      0.00      6.05      69.2     0.37      1013.7     1.6     SSW   213   2.8     SSW   195   8.22    263      -67.9
   04/15/2018 20:20      63.8      63.0       35     35.3      0.00      6.05      69.2     0.37      1013.7     2.1     SSW   212   2.8     SSW   202   8.22    263      -68.8
   04/15/2018 20:10      64.4      63.3       35     35.7      0.00      6.05      69.2     0.37      1013.5     0.9     SSW   193   1.8      SW   223   8.22    263      -70.9
   04/15/2018 20:00      65.7      64.3       35     36.6      0.00      6.05      69.2     0.37      1013.5     1.0       S   180   1.7     SSW   207   8.23    263      -71.8
   04/15/2018 19:50      68.0      65.5       36     39.1      0.00      6.05      69.1     0.37      1013.4     0.6      SE   134   1.6      SE   136   8.23    262      -73.5
   04/15/2018 19:40      68.2      67.6       35     38.9      0.00      6.05      69.1     0.37      1013.4     1.1      NW   322   2.4      NW   310   8.23    262      -74.1
   04/15/2018 19:30      68.6      67.6       36     40.2      0.00      6.05      69.0     0.37      1013.4     1.5     WNW   297   2.9      NW   318   8.23    262      -69.1
   04/15/2018 19:20      69.1      68.3       37     41.7      0.00      6.05      69.1     0.37      1013.3     0.5      NW   323   2.1     NNW   340   8.23    262      -65.2
   04/15/2018 19:10      69.5      68.7       37     42.0      0.00      6.05      69.0     0.37      1013.2     1.7      NW   311   4.2       W   273   8.23    262      -57.2
   04/15/2018 19:00      70.5      69.2       37     42.1      0.00      6.05      69.0     0.37      1013.4     3.5     WNW   290   6.2       W   275   8.23    262      -45.5
   04/15/2018 18:50      71.5      70.2       36     42.4      0.00      6.05      69.0     0.37      1013.2     2.8     WNW   302   6.7     NNW   336   8.24    262      -39.9
   04/15/2018 18:40      72.0      71.2       34     41.7      0.00      6.05      68.9     0.37      1013.1     2.4      NW   311   4.8     WSW   251   8.24    261      -32.7
   04/15/2018 18:30      72.6      71.8       31     40.1      0.00      6.05      68.9     0.37      1013.1     2.2     WNW   300   6.0      NW   325   8.24    261       -9.6
   04/15/2018 18:20      72.9      72.3       20     29.8      0.00      6.05      68.9     0.37      1013.0     2.2       S   171   4.9       W   272   8.24    261       14.3
   04/15/2018 18:10      73.2      72.6       20     29.0      0.00      6.05      68.8     0.37      1013.1     2.5       S   171   5.2     SSE   150   8.24    261       39.4
   04/15/2018 18:00      73.8      72.8       19     28.1      0.00      6.05      68.8     0.37      1013.1     3.2       S   178   6.4     SSE   168   8.25    261       73.6
   04/15/2018 17:50      73.8      73.2       18     27.3      0.00      6.05      68.7     0.37      1013.2     2.5     SSE   163   5.3      SE   136   8.25    261       86.6
   04/15/2018 17:40      73.7      73.2       17     26.5      0.00      6.05      68.7     0.37      1013.2     2.6       S   177   5.2     SSE   154   8.25    261      106.5
   04/15/2018 17:30      73.6      72.9       17     25.8      0.00      6.05      68.6     0.37      1013.2     2.2       S   182   4.6       S   186   8.25    261      101.3
   04/15/2018 17:20      73.6      72.9       15     23.4      0.00      6.05      68.6     0.37      1013.2     2.9       S   175   5.3     SSE   157   8.26    261       89.4
   04/15/2018 17:10      74.0      73.2       14     22.2      0.00      6.05      68.5     0.37      1013.1     4.0      SW   214   6.7     SSW   202   8.26    261       92.3
   04/15/2018 17:00      74.1      73.2       14     21.6      0.00      6.05      68.5     0.37      1013.1     3.6     SSW   194   6.1     SSW   195   8.26    261      107.5
   04/15/2018 16:50      74.0      73.3       14     21.3      0.00      6.05      68.4     0.37      1013.2     3.0       S   182   5.6       S   185   8.26    261      130.2
   04/15/2018 16:40      73.6      73.2       14     21.3      0.00      6.05      68.4     0.37      1013.2     3.8       S   171   7.0       S   177   8.27    260      166.4
   04/15/2018 16:30      73.1      72.6       14     20.3      0.00      6.05      68.3     0.37      1013.2     4.0      SE   146   7.5     SSE   153   8.27    261      152.0
   04/15/2018 16:20      73.6      72.5       14     21.6      0.00      6.05      68.3     0.37      1013.3     4.6      SE   144  10.0     SSE   163   8.27    261      113.3
   04/15/2018 16:10      74.4      72.9       15     23.8      0.00      6.05      68.2     0.37      1013.6     5.8      SE   143  10.6      SE   139   8.28    261      107.9
   04/15/2018 16:00      74.3      73.6       16     25.4      0.00      6.05      68.2     0.37      1013.7     5.0       S   173   9.1     SSW   212   8.28    261      164.4
   04/15/2018 15:50      74.9      73.8       19     29.9      0.00      6.05      68.1     0.37      1013.8     6.1       S   172   9.9      SE   144   8.28    261      170.1
   04/15/2018 15:40      75.5      74.6       18     28.4      0.00      6.05      68.0     0.37      1013.9     4.5       S   179   7.2     SSW   197   8.29    261      147.5
   04/15/2018 15:30      76.8      75.0       17     28.4      0.00      6.05      68.0     0.37      1013.9     5.5     SSW   199   9.2     SSW   195   8.29    261      235.3
   04/15/2018 15:20      76.6      75.4       17     28.1      0.00      6.05      67.9     0.37      1013.9     5.0     SSW   196   9.1     SSW   198   8.30    261      339.9
   04/15/2018 15:10      77.4      75.7       16     26.8      0.00      6.05      67.9     0.37      1013.8     5.0       S   190  11.0       S   184   8.30    261      252.5
   04/15/2018 15:00      77.4      76.5       16     27.3      0.00      6.05      67.8     0.37      1014.0     4.1       S   175   8.7       S   172   8.31    260      338.4
   04/15/2018 14:50      77.5      76.3       16     27.3      0.00      6.05      67.8     0.37      1014.0     3.3     ESE   111   7.8      SE   143   8.31    260      336.3
   04/15/2018 14:40      77.4      76.3       14     24.4      0.00      6.05      67.7     0.37      1014.1     4.1      SE   125   7.6     ENE    62   8.31    260      287.5
   04/15/2018 14:30      77.2      76.0       13     23.0      0.00      6.05      67.7     0.37      1014.2     3.0     SSE   147   8.3      SE   135   8.32    260      385.0
   04/15/2018 14:20      77.3      75.8       13     22.1      0.00      6.05      67.6     0.37      1014.4     3.9     SSE   156   7.8       E    95   8.32    260      264.0
   04/15/2018 14:10      76.9      75.8       13     21.3      0.00      6.05      67.6     0.37      1014.4     4.0     ESE   108   8.6     ESE   111   8.32    260      317.4
   04/15/2018 14:00      77.1      76.1       12     20.9      0.00      6.05      67.5     0.37      1014.6     4.9     ESE   113   8.9     SSE   154   8.33    260      275.9
   04/15/2018 13:50      78.4      76.9       13     22.2      0.00      6.05      67.4     0.37      1014.5     4.5      SE   135   9.2       S   177   8.33    260      347.6
   04/15/2018 13:40      78.1      76.9       13     22.1      0.00      6.05      67.4     0.37      1014.6     4.6      SE   133   8.7      SE   130   8.33    260      390.0
   04/15/2018 13:30      78.8      77.9       13     23.5      0.00      6.05      67.4     0.37      1014.6     3.8      SE   127   7.8      SE   143   8.34    261      282.5
   04/15/2018 13:20      79.7      78.3       13     23.6      0.00      6.05      67.3     0.37      1014.7     3.2       E   101   8.4     ENE    74   8.34    260      333.4
   04/15/2018 13:10      79.7      78.8       13     24.0      0.00      6.05      67.3     0.37      1014.9     2.8       E    80   6.8       E    99   8.34    260      431.9
   04/15/2018 13:00      79.6      78.7       13     24.0      0.00      6.05      67.3     0.37      1015.1     3.4      NE    44   7.1       E    90   8.35    260      506.6
   04/15/2018 12:50      79.3      78.3       14     25.0      0.00      6.05      67.3     0.37      1015.1     2.9     ENE    63   6.7     ENE    56   8.35    260      526.1
   04/15/2018 12:40      79.3      78.4       15     26.7      0.00      6.05      67.2     0.37      1015.2     2.6      NE    48   6.0      NE    35   8.35    260      525.3
   04/15/2018 12:30      78.7      77.4       16     28.1      0.00      6.05      67.2     0.37      1015.4     3.1     ENE    64   6.0     ENE    72   8.35    260      592.4
   04/15/2018 12:20      77.9      76.8       16     28.5      0.00      6.05      67.2     0.37      1015.5     2.9      NE    38   8.4     NNE    26   8.35    260      560.4
   04/15/2018 12:10      77.6      76.3       15     26.4      0.00      6.05      67.2     0.37      1015.6     4.0       E    95   7.5       E    90   8.35    260      554.2
   04/15/2018 12:00      77.7      76.8       15     25.4      0.00      6.05      67.2     0.37      1015.8     2.8       N     6   6.4      NE    50   8.35    260      480.4
   04/15/2018 11:50      77.9      76.5       15     26.5      0.00      6.05      67.1     0.37      1015.9     2.4     ENE    64   6.7     ESE   105   8.35    260      494.0
   04/15/2018 11:40      77.8      75.4       16     27.3      0.00      6.05      67.2     0.37      1016.0     2.2     ENE    60   4.6      NE    52   8.35    260      551.7
   04/15/2018 11:30      75.6      74.6       17     26.7      0.00      6.05      67.2     0.37      1016.0     2.1     NNW   345   3.9       N     0   8.35    260      411.7
   04/15/2018 11:20      76.0      74.9       16     26.1      0.00      6.05      67.2     0.37      1016.1     1.7       S   186   4.3       S   178   8.36    260      322.2
   04/15/2018 11:10      75.3      74.4       17     26.4      0.00      6.05      67.2     0.37      1016.2     1.4      NE    45   3.4       E    80   8.36    261      293.7
   04/15/2018 11:00      76.6      74.6       16     26.3      0.00      6.05      67.2     0.37      1016.3     1.9      NE    34   4.3     NNE    21   8.36    261      301.4
   04/15/2018 10:50      76.3      74.4       16     26.1      0.00      6.05      67.1     0.37      1016.3     1.1     NNW   333   3.7     ESE   105   8.36    260      517.7
   04/15/2018 10:40      74.5      73.0       17     25.8      0.00      6.05      67.3     0.37      1016.5     1.6     NNW   337   3.8     NNE    22   8.36    260      494.6
   04/15/2018 10:30      73.2      72.2       17     25.3      0.00      6.05      67.3     0.37      1016.6     1.7     NNW   328   4.1     WNW   303   8.36    260      457.5
   04/15/2018 10:20      72.6      71.5       18     25.6      0.00      6.05      67.3     0.37      1016.5     2.0     NNE    27   3.5       N   350   8.36    260      421.5
   04/15/2018 10:10      71.5      70.1       18     25.7      0.00      6.05      67.4     0.37      1016.4     1.8     NNE    15   3.5     NNE    18   8.36    260      412.3
   04/15/2018 10:00      70.7      70.1       19     25.6      0.00      6.05      67.4     0.37      1016.4     1.9       N     3   4.4     NNE    11   8.36    261      342.6
   04/15/2018 09:50      70.5      69.8       18     25.3      0.00      6.05      67.4     0.37      1016.4     1.7     NNE    14   4.7     NNE    17   8.36    260      389.5
   04/15/2018 09:40      70.0      68.7       19     25.1      0.00      6.05      67.4     0.37      1016.4     1.2       N     6   2.6       N     0   8.36    260      388.9
   04/15/2018 09:30      68.7      67.4       20     25.7      0.00      6.05      67.5     0.37      1016.6     1.4     NNE    27   4.3      NE    50   8.36    261      359.6
   04/15/2018 09:20      67.8      66.7       22     27.2      0.00      6.05      67.6     0.37      1016.7     1.3       N   350   3.4     NNW   332   8.36    261      329.8
   04/15/2018 09:10      66.8      65.6       22     26.1      0.00      6.05      67.6     0.37      1016.8     1.0       N     6   2.1     NNE    25   8.36    261      268.2
   04/15/2018 09:00      65.9      65.3       24     28.1      0.00      6.05      67.7     0.37      1016.9     0.7     NNW   343   1.7     NNW   332   8.36    261      239.1
   04/15/2018 08:50      65.6      63.5       25     28.4      0.00      6.05      67.7     0.37      1016.9     0.5     NNE    28   1.8     NNE    20   8.36    261      243.6
   04/15/2018 08:40      63.5      62.0       27     28.7      0.00      6.05      67.7     0.37      1016.9     0.8     ESE   121   2.7      SE   137   8.36    262      195.4
   04/15/2018 08:30      62.1      60.3       30     29.5      0.00      6.05      67.8     0.37      1017.0     0.5     NNE    21   1.7      NE    48   8.36    262      177.1
   04/15/2018 08:20      60.6      59.9       33     30.7      0.00      6.05      67.8     0.37      1016.9     1.3       N     5   2.1       N     8   8.36    262      151.7
   04/15/2018 08:10      60.0      58.0       34     30.9      0.00      6.05      67.8     0.37      1017.0     0.5       N     1   1.8       N   355   8.36    262      181.0
   04/15/2018 08:00      58.0      54.9       38     31.4      0.00      6.05      67.9     0.37      1017.1     0.4     NNE    23   1.4       N     3   8.36    262      127.0
   04/15/2018 07:50      54.8      52.5       42     30.6      0.00      6.05      67.9     0.37      1017.1     0.6      SE   125   1.5      SE   138   8.36    264       65.8
   04/15/2018 07:40      52.7      52.1       44     31.0      0.00      6.05      68.0     0.37      1017.0     0.7     ESE   123   1.3     NNW   335   8.36    264        7.5
   04/15/2018 07:30      52.3      50.7       45     30.5      0.00      6.05      68.0     0.37      1017.0     0.0       N     8   1.2      NW   309   8.36    264       -5.8
   04/15/2018 07:20      50.8      48.6       47     30.4      0.00      6.05      68.1     0.37      1016.7     1.0       N   356   2.1     NNW   341   8.36    264      -20.5
   04/15/2018 07:10      48.9      47.9       50     30.3      0.00      6.05      68.1     0.37      1016.6     0.3       S   190   0.9       S   180   8.36    264      -27.3
   04/15/2018 07:00      48.1      47.3       51     30.2      0.00      6.05      68.2     0.37      1016.5     0.8       S   175   1.6       S   186   8.36    264      -31.8
   04/15/2018 06:50      48.4      47.7       48     29.6      0.00      6.05      68.2     0.37      1016.7     0.6      SE   124   1.4      SE   136   8.36    264      -46.4
   04/15/2018 06:40      48.1      47.6       48     29.1      0.00      6.05      68.2     0.37      1016.7     0.0       N     0   0.0      SW   217   8.36    264      -44.6
   04/15/2018 06:30      47.7      47.0       49     29.3      0.00      6.05      68.3     0.37      1016.6     0.9     SSW   208   1.7      SW   224   8.36    264      -30.6
   04/15/2018 06:20      47.4      46.8       50     29.2      0.00      6.05      68.3     0.37      1016.5     0.8     SSE   167   1.2       S   176   8.36    264      -43.5
   04/15/2018 06:10      47.4      47.0       49     29.1      0.00      6.05      68.4     0.37      1016.7     0.3      SE   141   1.5      SE   139   8.36    264      -50.1
   04/15/2018 06:00      47.2      46.5       50     29.1      0.00      6.05      68.4     0.37      1016.7     0.3     ESE   117   1.0      SE   143   8.36    264      -57.5
   04/15/2018 05:50      46.8      46.0       52     29.6      0.00      6.05      68.4     0.37      1016.8     0.6       S   174   1.8       S   179   8.37    264      -62.4
   04/15/2018 05:40      47.6      46.4       50     29.4      0.00      6.05      68.5     0.37      1016.9     0.8     SSE   158   1.2      SE   145   8.37    264      -59.9
   04/15/2018 05:30      47.5      47.0       48     28.5      0.00      6.05      68.5     0.37      1017.0     0.3     SSE   168   0.8       S   181   8.37    264      -63.3
   04/15/2018 05:20      47.7      47.0       50     29.4      0.00      6.05      68.5     0.37      1016.8     0.3     SSE   151   1.9      SE   138   8.37    264      -65.7
   04/15/2018 05:10      47.8      47.2       49     29.3      0.00      6.05      68.6     0.37      1016.9     0.9       S   182   1.8      SE   140   8.37    264      -65.4
   04/15/2018 05:00      48.0      47.3       49     29.5      0.00      6.05      68.6     0.37      1016.8     0.7     SSE   168   1.7     SSW   202   8.37    264      -66.6
   04/15/2018 04:50      48.4      47.6       47     28.7      0.00      6.05      68.6     0.37      1016.8     1.0       S   187   2.0     WSW   239   8.37    264      -66.3
   04/15/2018 04:40      49.0      47.8       44     27.6      0.00      6.05      68.7     0.38      1016.8     0.7     SSE   168   1.7       S   180   8.37    264      -67.0
   04/15/2018 04:30      49.2      48.4       43     27.3      0.00      6.05      68.7     0.38      1016.9     0.3     SSW   211   1.2     SSW   209   8.37    264      -66.1
   04/15/2018 04:20      49.3      48.9       43     27.3      0.00      6.05      68.8     0.38      1017.0     0.5     WSW   242   1.6      SW   231   8.37    264      -65.2
   04/15/2018 04:10      49.4      48.9       44     27.9      0.00      6.05      68.8     0.37      1017.1     0.6       S   171   1.3       S   184   8.37    264      -66.1
   04/15/2018 04:00      49.9      48.7       44     28.4      0.00      6.05      68.8     0.38      1017.2     0.0       N     0   0.0       E    88   8.37    264      -66.7
   04/15/2018 03:50      49.8      48.9       44     28.6      0.00      6.05      68.9     0.38      1017.3     0.4     SSE   158   1.1     SSE   168   8.37    264      -67.0
   04/15/2018 03:40      50.2      49.1       45     29.1      0.00      6.05      68.9     0.38      1017.4     0.3     SSE   161   0.8      SE   142   8.37    264      -67.3
   04/15/2018 03:30      51.0      50.0       43     28.6      0.00      6.05      68.9     0.38      1017.5     0.2       S   169   1.0       S   171   8.37    263      -68.2
   04/15/2018 03:20      51.8      50.8       41     28.4      0.00      6.05      69.0     0.38      1017.5     0.2     SSE   153   1.2      SE   138   8.38    263      -68.8
   04/15/2018 03:10      51.6      50.8       39     27.3      0.00      6.05      69.0     0.38      1017.5     0.7     SSW   193   1.4     SSW   207   8.38    263      -68.2
   04/15/2018 03:00      51.9      50.9       41     28.6      0.00      6.05      69.0     0.38      1017.5     0.5     SSE   161   1.3     SSE   156   8.38    263      -69.4
   04/15/2018 02:50      51.9      51.2       41     28.6      0.00      6.05      69.1     0.38      1017.6     0.7     SSE   161   1.4     SSE   161   8.38    263      -70.6
   04/15/2018 02:40      52.1      51.3       41     28.4      0.00      6.05      69.1     0.38      1017.8     0.9     SSE   168   1.7       S   184   8.38    263      -70.8
   04/15/2018 02:30      53.0      51.9       38     27.8      0.00      6.05      69.1     0.38      1018.0     0.7     SSE   161   1.8     SSE   151   8.38    263      -67.0
   04/15/2018 02:20      53.0      52.6       36     26.4      0.00      6.05      69.1     0.38      1018.1     0.4       S   182   1.4       S   174   8.38    263      -59.8
   04/15/2018 02:10      53.1      52.5       38     27.7      0.00      6.05      69.2     0.38      1018.1     0.3     SSE   163   1.0     SSE   163   8.38    263      -55.6
   04/15/2018 02:00      53.5      52.8       36     26.6      0.00      6.05      69.2     0.38      1018.2     0.4     SSE   157   1.0      SE   142   8.38    263      -53.9
   04/15/2018 01:50      53.4      52.7       34     25.5      0.00      6.05      69.2     0.38      1018.3     0.5       S   170   1.3       S   174   8.38    263      -56.6
   04/15/2018 01:40      53.6      52.9       35     26.6      0.00      6.05      69.3     0.38      1018.5     0.7     SSE   160   1.3     SSE   165   8.38    263      -67.3
   04/15/2018 01:30      53.7      53.2       33     25.3      0.00      6.05      69.3     0.38      1018.6     0.7     SSE   163   1.4     SSE   150   8.38    263      -70.2
   04/15/2018 01:20      53.6      52.8       34     25.4      0.00      6.05      69.4     0.38      1018.7     0.4     SSE   161   2.1     SSE   159   8.38    263      -71.3
   04/15/2018 01:10      54.4      53.5       31     24.1      0.00      6.05      69.3     0.38      1018.8     0.9       S   175   2.0       S   178   8.39    262      -70.8
   04/15/2018 01:00      55.2      54.1       30     24.1      0.00      6.05      69.4     0.38      1018.9     1.2       S   191   1.9     SSW   193   8.39    262      -70.3
   04/15/2018 00:50      55.4      54.8       30     23.9      0.00      6.05      69.4     0.38      1018.9     0.6       S   173   1.1     SSE   164   8.39    262      -70.9
   04/15/2018 00:40      55.7      55.2       28     22.9      0.00      6.05      69.4     0.38      1018.9     0.5       S   191   1.7     SSW   196   8.39    262      -70.7
   04/15/2018 00:30      55.8      55.3       28     22.9      0.00      6.05      69.4     0.38      1019.1     0.2       S   186   1.4       S   188   8.39    262      -71.4
   04/15/2018 00:20      56.6      55.6       28     23.4      0.00      6.05      69.5     0.38      1019.1     0.0      SE   140   0.6     SSE   168   8.39    262      -71.4
   04/15/2018 00:10      57.1      56.4       27     23.0      0.00      6.05      69.5     0.38      1019.1     0.1      SE   145   0.6     ESE   117   8.39    262      -73.1
   04/15/2018 00:00      57.4      56.8       26     22.9      0.00      6.05      69.5     0.38      1019.1     0.8     SSE   147   2.0     SSE   162   8.39    262      -73.8
   04/14/2018 23:50      58.6      57.3       25     21.9      0.00      6.05      69.5     0.38      1019.2     1.3       S   171   2.2     SSE   167   8.39    262      -74.3
   04/14/2018 23:40      59.0      58.3       23     21.4      0.00      6.05      69.5     0.38      1019.3     0.9       S   175   2.0       S   184   8.39    262      -74.7
   04/14/2018 23:30      60.7      58.7       23     21.9      0.00      6.05      69.5     0.38      1019.4     1.1     SSE   159   2.1     SSE   165   8.39    262      -76.2
   04/14/2018 23:20      61.9      60.4       20     20.3      0.00      6.05      69.5     0.38      1019.5     1.8       S   184   3.8     SSW   206   8.40    262      -77.3
   04/14/2018 23:10      62.5      61.4       20     19.9      0.00      6.05      69.5     0.38      1019.6     2.4       S   190   4.1     SSW   206   8.40    262      -77.1
   04/14/2018 23:00      62.6      61.2       19     19.4      0.00      6.05      69.5     0.38      1019.6     2.5     SSW   195   3.6       S   181   8.40    262      -77.3
   04/14/2018 22:50      62.0      60.4       22     21.6      0.00      6.05      69.5     0.38      1019.6     2.2       S   179   3.5     SSW   192   8.40    262      -77.4
   04/14/2018 22:40      61.4      60.2       22     22.1      0.00      6.05      69.6     0.38      1019.7     2.2       S   180   2.8       S   187   8.40    262      -77.4
   04/14/2018 22:30      61.0      59.8       23     22.2      0.00      6.05      69.5     0.38      1019.7     2.0       S   182   3.4     SSW   191   8.40    262      -77.1
   04/14/2018 22:20      60.2      59.5       25     23.6      0.00      6.05      69.6     0.38      1019.7     1.6       S   174   2.5       S   179   8.41    262      -77.6
   04/14/2018 22:10      61.4      59.9       23     22.8      0.00      6.05      69.5     0.38      1019.7     1.2     SSE   160   2.3     SSE   160   8.41    262      -78.6
   04/14/2018 22:00      61.8      60.9       23     22.9      0.00      6.05      69.6     0.38      1019.7     0.6     SSE   154   1.4       S   170   8.41    262      -79.4
   04/14/2018 21:50      62.5      61.6       22     22.8      0.00      6.05      69.6     0.38      1019.6     0.7      SE   145   1.5     SSE   154   8.41    261      -80.6
   04/14/2018 21:40      63.5      62.2       20     21.6      0.00      6.05      69.5     0.38      1019.6     0.7       S   176   1.9       S   190   8.41    261      -81.0
   04/14/2018 21:30      65.8      63.3       19     21.5      0.00      6.05      69.5     0.38      1019.7     1.5       S   188   2.2      SW   215   8.41    261      -81.8
   04/14/2018 21:20      67.3      65.7       17     19.9      0.00      6.05      69.5     0.38      1019.6     2.0       S   186   3.3     SSW   200   8.41    261      -83.9
   04/14/2018 21:10      68.1      66.8       16     19.4      0.00      6.05      69.4     0.38      1019.5     1.6     SSW   203   2.4      SW   221   8.42    261      -86.1
   04/14/2018 21:00      68.0      67.4       15     19.1      0.00      6.05      69.5     0.38      1019.4     1.6      SW   229   3.2     WSW   241   8.42    261      -87.5
   04/14/2018 20:50      68.2      67.4       16     19.2      0.00      6.05      69.5     0.38      1019.2     1.5     WSW   240   2.5       W   269   8.42    261      -86.0
   04/14/2018 20:40      68.5      67.8       15     18.6      0.00      6.05      69.4     0.38      1019.1     1.0     SSW   210   2.1     SSW   202   8.42    261      -86.4
   04/14/2018 20:30      70.1      68.2       14     18.6      0.00      6.05      69.4     0.38      1019.0     0.7     SSW   210   1.5     SSW   194   8.43    261      -88.6
   04/14/2018 20:20      70.8      69.8       13     17.8      0.00      6.05      69.4     0.38      1018.9     1.8     SSW   199   3.0     SSW   208   8.43    261      -93.9
   04/14/2018 20:10      71.2      70.5       13     17.6      0.00      6.05      69.4     0.38      1018.8     2.1     SSW   208   3.9     WSW   254   8.43    261      -96.8
   04/14/2018 20:00      72.2      70.9       13     18.0      0.00      6.05      69.3     0.38      1018.8     2.0     SSW   211   3.6       S   190   8.43    261     -100.3
   04/14/2018 19:50      73.0      71.8       12     17.5      0.00      6.05      69.3     0.38      1018.9     3.0     SSW   211   5.8     WSW   241   8.43    261     -103.2
   04/14/2018 19:40      73.7      72.6       12     17.4      0.00      6.05      69.3     0.38      1018.9     2.9      SW   221   4.8     SSW   201   8.44    261     -104.5
   04/14/2018 19:30      74.6      73.5       12     17.4      0.00      6.05      69.2     0.38      1018.9     3.2      SW   224   5.1     WSW   239   8.44    261     -103.5
   04/14/2018 19:20      75.6      74.3       11     17.9      0.00      6.05      69.2     0.38      1018.9     3.1      SW   235   5.7       W   265   8.44    260      -99.6
   04/14/2018 19:10      76.6      75.4       11     18.0      0.00      6.05      69.1     0.38      1018.9     4.4     WSW   247   7.6     WSW   257   8.45    260      -93.1
   04/14/2018 19:00      77.5      76.4       10     16.5      0.00      6.05      69.1     0.38      1019.0     3.6     WSW   244   6.7     WSW   250   8.45    260      -82.0
   04/14/2018 18:50      78.4      77.3        8     11.7      0.00      6.05      69.1     0.38      1019.0     6.3     WSW   240  10.8     WSW   253   8.46    260      -67.4
   04/14/2018 18:40      78.8      78.1        8     12.4      0.00      6.05      69.0     0.38      1019.0     4.6      SW   230   9.5      SW   220   8.46    260      -48.5
   04/14/2018 18:30      79.8      78.6        8     12.4      0.00      6.05      69.0     0.38      1019.0     5.2      SW   231  10.7     WSW   238   8.47    260      -25.3
   04/14/2018 18:20      80.3      79.4        8     12.9      0.00      6.05      68.9     0.38      1019.0     5.1     WSW   236   8.5      SW   235   8.47    260       -0.4
   04/14/2018 18:10      80.6      80.1        8     13.4      0.00      6.05      68.9     0.37      1019.1     4.8     WSW   243   8.0      SW   222   8.48    260       26.8
   04/14/2018 18:00      80.8      80.3        8     12.9      0.00      6.05      68.8     0.37      1019.1     5.8     WSW   242  10.1     WSW   251   8.48    260       54.8
   04/14/2018 17:50      81.2      80.4        8     13.5      0.00      6.05      68.7     0.37      1019.1     6.1      SW   232   9.4      SW   216   8.49    260       82.9
   04/14/2018 17:40      81.2      80.4        8     14.4      0.00      6.05      68.7     0.37      1019.0     6.5      SW   224  10.3     SSW   203   8.49    260      110.8
   04/14/2018 17:30      82.0      80.9        8     14.6      0.00      6.05      68.6     0.37      1019.0     5.8     SSW   194  10.3     SSW   207   8.50    260      137.1
   04/14/2018 17:20      82.2      81.5        8     14.4      0.00      6.05      68.5     0.37      1019.0     6.2     SSW   201   8.3     WSW   239   8.50    260      164.4
   04/14/2018 17:10      82.3      81.6        8     13.8      0.00      6.05      68.5     0.37      1019.0     5.7     SSW   200  12.2      SW   220   8.51    260      191.5
   04/14/2018 17:00      83.1      82.0        7     13.4      0.00      6.05      68.4     0.37      1019.0     6.2     SSW   194  10.1     SSW   206   8.52    260      217.9
   04/14/2018 16:50      83.1      82.3        7     13.4      0.00      6.05      68.3     0.37      1019.1     5.8     SSW   199  12.0     SSW   203   8.52    260      242.9
   04/14/2018 16:40      83.0      82.3        7     13.0      0.00      6.05      68.2     0.37      1019.1     5.9     SSW   205  10.8      SW   230   8.53    260      269.4
   04/14/2018 16:30      83.5      82.8        7     13.6      0.00      6.05      68.2     0.37      1019.2     6.7     SSW   205   9.9     SSW   199   8.53    260      292.3
   04/14/2018 16:20      83.8      83.0        7     14.2      0.00      6.05      68.1     0.37      1019.3     6.2      SW   218  11.0      SW   214   8.54    260      315.5
   04/14/2018 16:10      84.3      83.3        7     14.3      0.00      6.05      68.0     0.37      1019.4     5.7      SW   236  10.2       S   174   8.55    260      336.7
   04/14/2018 16:00      84.5      83.6        7     14.9      0.00      6.05      67.9     0.37      1019.5     5.4     WSW   243   9.9      SW   216   8.55    260      357.2
   04/14/2018 15:50      85.0      84.0        7     14.9      0.00      6.05      67.8     0.37      1019.6     6.1     SSW   210  10.6     SSW   208   8.56    260      377.0
   04/14/2018 15:40      85.0      84.0        8     15.9      0.00      6.05      67.8     0.37      1019.7     4.9     WSW   254  10.1      SW   222   8.56    260      395.5
   04/14/2018 15:30      84.6      83.9        8     15.1      0.00      6.05      67.7     0.37      1019.7     4.7      SW   224  10.5     WSW   248   8.56    261      413.9
   04/14/2018 15:20      85.2      84.0        8     15.3      0.00      6.05      67.6     0.37      1019.9     2.1      SW   216   8.9     WSW   240   8.57    260      428.5
   04/14/2018 15:10      85.2      84.2        8     16.1      0.00      6.05      67.5     0.37      1020.1     4.5     SSW   213   7.9      SW   230   8.57    260      446.7
   04/14/2018 15:00      85.1      84.3        8     16.3      0.00      6.05      67.4     0.37      1020.3     4.3      SW   229   8.6      SW   232   8.58    260      462.2
   04/14/2018 14:50      84.6      83.4        8     16.0      0.00      6.05      67.3     0.37      1020.4     4.2     SSW   203   9.2       S   181   8.58    260      478.6
   04/14/2018 14:40      84.3      83.0        7     14.6      0.00      6.05      67.3     0.37      1020.7     5.4      SW   215   8.7     SSW   194   8.58    260      493.6
   04/14/2018 14:30      85.4      83.6        7     12.2      0.00      6.05      67.2     0.37      1020.8     5.5      SW   233  11.0      SW   215   8.59    260      503.7
   04/14/2018 14:20      85.2      83.5        6     10.3      0.00      6.05      67.1     0.37      1020.9     3.1      SW   222   6.3     WSW   256   8.60    259      513.7
   04/14/2018 14:10      84.2      83.5        6      9.1      0.00      6.05      67.1     0.37      1021.1     4.3      SW   220   9.0     SSW   203   8.60    259      526.4
   04/14/2018 14:00      84.2      83.2        7     11.6      0.00      6.05      67.0     0.37      1021.3     4.9     WSW   247   9.5     WSW   251   8.60    260      538.7
   04/14/2018 13:50      83.6      82.7        8     15.7      0.00      6.05      67.0     0.37      1021.4     5.7      SW   225   9.6     WNW   291   8.61    260      548.5
   04/14/2018 13:40      84.6      83.1        8     17.5      0.00      6.05      66.9     0.37      1021.6     5.9      SW   230  12.7      SW   223   8.61    260      552.9
   04/14/2018 13:30      84.2      82.9        9     17.7      0.00      6.05      66.8     0.37      1021.7     5.0     WSW   248  10.1      SW   220   8.62    260      557.7
   04/14/2018 13:20      84.3      82.8        9     17.4      0.00      6.05      66.8     0.37      1021.8     4.9     WSW   250   9.8       S   190   8.62    260      563.0
   04/14/2018 13:10      84.3      83.4        9     18.2      0.00      6.05      66.8     0.37      1021.9     3.5       W   276  10.2       W   266   8.62    259      559.8
   04/14/2018 13:00      84.8      83.5        9     19.1      0.00      6.05      66.7     0.37      1022.1     2.4     WNW   289   7.7      SW   222   8.62    260      560.0
   04/14/2018 12:50      84.6      82.9        9     19.8      0.00      6.05      66.7     0.37      1022.3     1.6     NNE    33   5.9      NE    44   8.62    260      560.5
   04/14/2018 12:40      83.5      82.4       10     20.0      0.00      6.05      66.6     0.37      1022.5     1.7     WSW   249   4.2       W   263   8.62    259      562.6
   04/14/2018 12:30      82.7      82.0       10     21.1      0.00      6.05      66.7     0.37      1022.6     2.4     WNW   285   7.1     WSW   252   8.63    260      562.3
   04/14/2018 12:20      83.1      82.0       10     21.4      0.00      6.05      66.6     0.37      1022.7     2.1     SSW   197   5.1     SSW   206   8.63    260      555.8
   04/14/2018 12:10      83.7      82.1       11     22.3      0.00      6.05      66.6     0.37      1022.9     1.9     NNE    20   4.4     ENE    61   8.63    260      550.5
   04/14/2018 12:00      83.5      81.9       11     22.7      0.00      6.05      66.5     0.37      1023.0     1.6       N   357   4.8      NW   316   8.63    260      547.7
   04/14/2018 11:50      82.7      81.7       11     22.3      0.00      6.05      66.7     0.37      1023.1     1.9     NNE    30   4.3      NE    46   8.63    260      541.2
   04/14/2018 11:40      82.1      80.1       11     22.1      0.00      6.05      66.6     0.37      1023.3     1.6      NE    52   4.6      SE   140   8.63    260      534.9
   04/14/2018 11:30      80.3      79.2       11     21.0      0.00      6.05      66.6     0.37      1023.4     2.5     NNE    11   4.5     NNE    33   8.63    260      526.9
   04/14/2018 11:20      79.5      78.3       11     20.3      0.00      6.05      66.6     0.37      1023.5     2.8     NNW   347   5.5     NNW   345   8.63    260      518.0
   04/14/2018 11:10      80.4      79.1       11     21.6      0.00      6.05      66.6     0.37      1023.5     2.5     NNW   339   5.1     NNW   343   8.63    260      504.7
   04/14/2018 11:00      80.0      78.6       12     22.1      0.00      6.05      66.6     0.37      1023.6     1.1      NW   306   3.0     NNW   346   8.63    260      493.5
   04/14/2018 10:50      79.2      77.4       12     22.4      0.00      6.05      66.7     0.37      1023.6     1.3     NNW   346   3.5     NNE    29   8.63    260      481.2
   04/14/2018 10:40      77.6      76.6       13     21.8      0.00      6.05      66.7     0.37      1023.7     1.8       N     3   3.4      NW   304   8.63    260      467.4
   04/14/2018 10:30      76.8      75.4       13     22.4      0.00      6.05      66.7     0.37      1023.7     1.6     NNW   343   3.2     NNW   347   8.63    260      451.8
   04/14/2018 10:20      75.5      74.4       14     23.0      0.00      6.05      66.8     0.37      1023.7     1.3     NNE    16   3.2     NNW   327   8.63    260      434.1
   04/14/2018 10:10      75.2      74.0       15     23.5      0.00      6.05      66.8     0.37      1023.7     1.8      NE    45   4.0      NE    51   8.63    260      418.8
   04/14/2018 10:00      74.3      72.8       16     24.1      0.00      6.05      66.8     0.37      1023.7     1.9     NNE    16   4.4       N     0   8.63    260      400.9
   04/14/2018 09:50      72.9      71.4       17     25.6      0.00      6.05      66.8     0.38      1023.7     2.0     NNE    32   3.1      NE    41   8.63    260      382.3
   04/14/2018 09:40      72.0      71.2       20     27.9      0.00      6.05      66.9     0.38      1023.7     2.1     NNE    27   3.5     NNE    16   8.63    261      363.8
   04/14/2018 09:30      71.9      70.0       22     29.5      0.00      6.05      67.0     0.38      1023.8     1.7     ENE    62   3.2      NE    53   8.63    261      341.3
   04/14/2018 09:20      70.2      68.0       24     30.7      0.00      6.05      67.0     0.38      1023.8     1.2     NNE    22   2.7      NE    51   8.63    260      321.8
   04/14/2018 09:10      68.0      66.6       26     31.6      0.00      6.05      67.0     0.38      1023.7     1.0     NNE    13   2.3       N     3   8.63    261      300.5
   04/14/2018 09:00      66.8      65.6       27     31.4      0.00      6.05      67.1     0.38      1023.7     1.0     NNE    22   1.8      NE    36   8.63    261      277.4
   04/14/2018 08:50      65.5      63.4       28     30.5      0.00      6.05      67.1     0.38      1023.8     0.8      NW   308   1.9       N     0   8.63    261      253.7
   04/14/2018 08:40      63.4      62.3       28     29.6      0.00      6.05      67.2     0.38      1023.7     1.0      NW   317   1.9      NW   317   8.63    261      229.6
   04/14/2018 08:30      62.6      61.4       27     27.9      0.00      6.05      67.2     0.38      1023.7     0.9       N   352   2.1       N     4   8.63    261      204.6
   04/14/2018 08:20      61.8      60.3       28     28.1      0.00      6.05      67.2     0.38      1023.7     0.7     NNE    13   1.7     NNE    18   8.63    262      177.7
   04/14/2018 08:10      60.3      57.5       31     28.0      0.00      6.05      67.3     0.38      1023.7     0.3       N   354   1.2     NNW   348   8.63    263      151.5
   04/14/2018 08:00      57.6      54.0       35     28.8      0.00      6.05      67.3     0.38      1023.7     0.2       N   355   1.1       N     2   8.64    263      124.9
   04/14/2018 07:50      54.2      52.5       39     28.8      0.00      6.05      67.3     0.38      1023.6     0.0       N     0   0.0     NNE    27   8.64    264       90.7
   04/14/2018 07:40      52.6      50.6       39     27.8      0.00      6.05      67.3     0.38      1023.6     0.0       N     0   0.0     NNE    27   8.64    264       48.4
   04/14/2018 07:30      50.8      48.8       43     28.0      0.00      6.05      67.4     0.38      1023.5     0.0       N     0   0.0      SE   133   8.64    264        3.6
   04/14/2018 07:20      49.1      48.1       45     28.1      0.00      6.05      67.5     0.38      1023.4     0.1      SE   137   0.9      SE   136   8.64    264      -30.2
   04/14/2018 07:10      48.3      47.4       45     27.5      0.00      6.05      67.5     0.38      1023.3     0.5      SE   132   1.4      SE   138   8.64    264      -39.4
   04/14/2018 07:00      47.6      47.2       43     25.8      0.00      6.05      67.5     0.38      1023.2     0.4     SSE   152   1.4      SE   143   8.64    264      -41.5
   04/14/2018 06:50      47.5      46.9       44     26.1      0.00      6.05      67.5     0.38      1023.2     0.0       N     0   0.0     SSE   165   8.64    264      -48.1
   04/14/2018 06:40      47.3      46.8       45     26.9      0.00      6.05      67.6     0.38      1023.1     0.2     SSE   162   0.9     SSE   161   8.64    264      -54.1
   04/14/2018 06:30      47.5      47.0       42     25.6      0.00      6.05      67.6     0.38      1023.1     0.3     SSE   153   0.8     SSE   150   8.64    264      -59.5
   04/14/2018 06:20      47.7      46.9       42     25.1      0.00      6.05      67.6     0.38      1023.1     0.4       S   172   1.8       S   189   8.64    264      -62.3
   04/14/2018 06:10      47.7      47.1       40     24.6      0.00      6.05      67.7     0.38      1023.1     0.5     SSE   163   1.5       S   176   8.64    264      -63.4
   04/14/2018 06:00      48.2      47.2       41     24.7      0.00      6.05      67.7     0.38      1023.1     0.7       S   174   2.0       S   180   8.64    264      -63.9
   04/14/2018 05:50      48.1      47.6       40     24.7      0.00      6.05      67.7     0.38      1023.1     0.5     SSE   160   1.1     SSE   165   8.64    264      -64.4
   04/14/2018 05:40      48.1      47.7       41     25.5      0.00      6.05      67.8     0.38      1023.0     0.3     SSE   159   1.5       S   177   8.64    264      -65.7
   04/14/2018 05:30      48.6      47.8       40     25.1      0.00      6.05      67.8     0.38      1022.9     0.9       S   181   2.3       S   181   8.64    263      -65.8
   04/14/2018 05:20      49.2      48.3       38     24.2      0.00      6.05      67.8     0.38      1023.0     1.0     SSE   167   3.6     SSE   167   8.64    263      -65.1
   04/14/2018 05:10      49.2      48.7       38     24.5      0.00      6.05      67.9     0.38      1023.0     0.1       S   182   0.9     SSW   193   8.64    264      -64.3
   04/14/2018 05:00      49.1      48.4       39     25.0      0.00      6.05      67.9     0.38      1023.0     0.3     SSE   165   0.9     SSE   164   8.64    263      -64.8
   04/14/2018 04:50      49.3      48.3       39     24.9      0.00      6.05      67.9     0.38      1023.0     0.6     SSE   163   1.6      SE   145   8.64    263      -65.4
   04/14/2018 04:40      49.4      48.9       37     24.0      0.00      6.05      68.0     0.38      1023.0     0.6       S   181   1.4       S   171   8.64    263      -65.0
   04/14/2018 04:30      50.2      49.2       37     24.4      0.00      6.05      68.0     0.38      1023.0     0.6     SSE   166   1.9      SW   226   8.65    263      -66.1
   04/14/2018 04:20      50.5      49.8       35     23.9      0.00      6.05      68.0     0.38      1023.0     0.4       S   179   1.2       S   178   8.65    263      -67.1
   04/14/2018 04:10      50.6      49.9       35     23.8      0.00      6.05      68.0     0.38      1023.0     0.3       S   177   2.1       S   178   8.65    263      -66.6
   04/14/2018 04:00      51.0      50.1       36     24.4      0.00      6.05      68.0     0.38      1023.0     0.8       S   174   2.4       S   172   8.65    263      -67.4
   04/14/2018 03:50      51.4      50.6       35     24.3      0.00      6.05      68.1     0.38      1023.0     0.8       S   184   2.2       S   187   8.65    263      -67.6
   04/14/2018 03:40      51.9      50.9       34     23.9      0.00      6.05      68.1     0.38      1022.9     0.3       S   187   1.9     SSE   163   8.65    263      -68.0
   04/14/2018 03:30      52.0      51.6       33     23.9      0.00      6.05      68.1     0.38      1023.0     0.5     SSE   150   1.2       E    94   8.65    263      -68.6
   04/14/2018 03:20      52.2      51.4       33     23.9      0.00      6.05      68.1     0.38      1023.0     1.0       S   171   2.4       S   184   8.65    263      -69.2
   04/14/2018 03:10      53.0      51.9       33     23.7      0.00      6.05      68.2     0.38      1023.0     1.1       S   175   2.9       S   184   8.65    262      -69.6
   04/14/2018 03:00      53.2      52.5       31     22.9      0.00      6.05      68.2     0.38      1023.1     1.4     SSW   197   2.9      SW   218   8.65    263      -68.0
   04/14/2018 02:50      53.3      52.3       31     23.3      0.00      6.05      68.2     0.38      1023.1     1.5     SSW   201   2.9     SSW   206   8.66    263      -68.7
   04/14/2018 02:40      53.9      53.1       31     23.3      0.00      6.05      68.3     0.38      1023.1     0.4       S   171   1.6       S   180   8.66    263      -70.8
   04/14/2018 02:30      55.2      53.6       29     22.9      0.00      6.05      68.3     0.38      1023.1     0.6     ENE    72   1.3       S   171   8.66    262      -71.5
   04/14/2018 02:20      55.8      54.7       29     23.0      0.00      6.05      68.3     0.38      1023.0     0.7      SW   221   2.5     SSW   209   8.66    262      -71.6
   04/14/2018 02:10      56.9      55.6       26     21.9      0.00      6.05      68.3     0.38      1023.1     0.7     SSE   156   1.3     SSE   160   8.66    262      -71.9
   04/14/2018 02:00      57.4      56.5       25     21.1      0.00      6.05      68.3     0.38      1023.2     0.6      SE   143   1.6      SE   132   8.66    262      -72.4
   04/14/2018 01:50      57.9      56.9       23     20.4      0.00      6.05      68.3     0.38      1023.2     0.7     SSE   155   1.6     SSE   161   8.66    262      -72.3
   04/14/2018 01:40      57.4      55.8       25     20.6      0.00      6.05      68.4     0.38      1023.1     0.8       S   173   1.8     SSE   154   8.66    262      -72.9
   04/14/2018 01:30      56.8      55.7       26     21.4      0.00      6.05      68.4     0.38      1023.2     0.7     SSE   168   2.5      SE   140   8.66    262      -74.0
   04/14/2018 01:20      57.5      56.0       26     22.2      0.00      6.05      68.4     0.38      1023.1     1.2     SSE   166   2.2      SE   144   8.66    262      -74.9
   04/14/2018 01:10      58.6      56.5       25     22.1      0.00      6.05      68.4     0.38      1023.1     1.4       S   177   3.7       S   178   8.66    262      -76.3
   04/14/2018 01:00      58.5      57.3       24     21.7      0.00      6.05      68.4     0.38      1023.0     1.9     SSE   152   4.5      SE   131   8.66    262      -77.2
   04/14/2018 00:50      58.1      57.4       24     21.2      0.00      6.05      68.4     0.38      1022.9     1.7     SSE   159   3.9     SSW   192   8.66    262      -77.3
   04/14/2018 00:40      59.3      57.4       24     21.4      0.00      6.05      68.4     0.38      1022.9     1.6     SSE   162   3.5     SSE   163   8.67    262      -77.5
   04/14/2018 00:30      60.5      59.0       22     20.4      0.00      6.05      68.4     0.38      1022.9     1.4     SSE   156   2.6     SSE   153   8.67    262      -78.5
   04/14/2018 00:20      63.2      60.2       20     19.7      0.00      6.05      68.4     0.38      1022.8     0.8     SSE   159   2.2      SE   130   8.67    262      -81.6
   04/14/2018 00:10      63.1      60.6       19     18.9      0.00      6.05      68.4     0.38      1022.7     2.7       S   176   7.3     SSW   211   8.68    262      -81.3
   04/14/2018 00:00      65.7      62.0       18     18.8      0.00      6.05      68.5     0.38      1022.7     1.2     SSE   166   3.5     SSW   200   8.68    261      -83.3
   04/13/2018 23:50      66.0      65.2       15     16.4      0.00      6.05      68.5     0.38      1022.7     2.0       S   173   4.4     SSE   157   8.68    261      -85.1
   04/13/2018 23:40      65.6      63.7       16     16.7      0.00      6.05      68.4     0.38      1022.7     1.0     NNW   333   3.3       W   271   8.68    261      -85.5
   04/13/2018 23:30      65.0      64.2       15     16.6      0.00      6.05      68.5     0.38      1022.7     2.8       S   185   5.1       S   180   8.68    261      -87.0
   04/13/2018 23:20      67.9      64.4       15     16.8      0.00      6.05      68.5     0.38      1022.8     2.9       S   173   5.1     SSW   210   8.68    261      -90.0
   04/13/2018 23:10      68.7      67.7       13     15.4      0.00      6.05      68.5     0.38      1022.8     2.7      NE    38   5.8     NNE    13   8.69    261      -94.2
   04/13/2018 23:00      68.7      68.2       13     14.8      0.00      6.05      68.5     0.38      1022.8     2.6       N     6   7.8       N     0   8.69    261      -94.3
   04/13/2018 22:50      69.1      68.4       12     14.0      0.00      6.05      68.5     0.38      1022.7     3.0       N   358   6.6       N     6   8.69    261      -94.9
   04/13/2018 22:40      69.5      68.8       11     12.8      0.00      6.05      68.5     0.38      1022.8     3.4       N   354   6.9       N   350   8.69    261      -94.9
   04/13/2018 22:30      69.4      69.1       11     11.7      0.00      6.05      68.5     0.38      1023.0     3.9     NNW   336   7.7     NNW   328   8.69    261      -94.9
   04/13/2018 22:20      69.3      68.7       11     11.4      0.00      6.05      68.5     0.38      1023.0     3.8     NNW   340   7.3     NNW   339   8.69    261      -94.4
   04/13/2018 22:10      69.1      68.7       11     11.4      0.00      6.05      68.5     0.38      1023.0     3.5     NNW   340   6.6     NNE    13   8.70    261      -93.7
   04/13/2018 22:00      69.3      68.7       11     11.3      0.00      6.05      68.5     0.38      1023.1     3.0      NW   322   5.6      NW   309   8.70    261      -92.7
   04/13/2018 21:50      70.0      69.0       10     11.5      0.00      6.05      68.5     0.38      1023.3     2.4      NW   320   4.3      NW   315   8.70    261      -93.2
   04/13/2018 21:40      70.0      69.7       10     10.9      0.00      6.05      68.5     0.38      1023.2     2.8      NW   313   5.7     NNW   339   8.70    261      -94.4
   04/13/2018 21:30      70.4      69.7       10     11.0      0.00      6.05      68.5     0.38      1023.1     1.7      NW   318   4.4     WSW   256   8.70    261      -95.0
   04/13/2018 21:20      71.1      70.1       10     10.8      0.00      6.05      68.5     0.38      1023.0     2.7     NNW   327   4.8      NW   318   8.71    261      -95.9
   04/13/2018 21:10      71.3      70.7        9     10.3      0.00      6.05      68.5     0.38      1022.9     2.8      NW   324   5.1      NW   318   8.71    261      -96.5
   04/13/2018 21:00      71.6      71.1        9     10.2      0.00      6.05      68.4     0.38      1022.8     2.3     NNW   326   5.7      NW   310   8.71    261      -96.6
   04/13/2018 20:50      72.0      71.3        9     10.3      0.00      6.05      68.4     0.38      1022.7     2.1     NNW   330   3.7      NW   320   8.71    261      -97.0
   04/13/2018 20:40      72.4      71.8        9     10.2      0.00      6.05      68.4     0.38      1022.7     2.7     NNW   338   5.7     NNE    16   8.71    261      -98.1
   04/13/2018 20:30      72.7      72.0        9     10.4      0.00      6.05      68.4     0.38      1022.5     2.8     NNW   341   4.6     NNW   334   8.71    261      -98.6
   04/13/2018 20:20      73.6      72.4        9     10.5      0.00      6.05      68.4     0.38      1022.4     2.3     NNW   332   4.4      NW   313   8.72    261     -100.6
   04/13/2018 20:10      74.0      73.2        8      9.3      0.00      6.05      68.3     0.38      1022.4     2.4     NNW   331   5.0       N     2   8.72    260     -102.9
   04/13/2018 20:00      73.9      73.3        8      9.9      0.00      6.05      68.3     0.38      1022.2     3.5     NNW   344   7.2      NW   315   8.72    261     -102.9
   04/13/2018 19:50      74.7      73.4        8     10.0      0.00      6.05      68.3     0.38      1022.1     2.4     NNW   345   3.6      NW   311   8.72    261     -104.9
   04/13/2018 19:40      75.0      74.3        8      8.8      0.00      6.05      68.3     0.38      1022.0     3.5       N     0   6.1       N     5   8.72    261     -106.9
   04/13/2018 19:30      75.7      74.7        8      9.1      0.00      6.05      68.3     0.38      1022.0     3.7       N   356   8.6       N     5   8.73    261     -106.2
   04/13/2018 19:20      76.0      75.2        7      8.6      0.00      6.05      68.2     0.38      1021.9     4.2       N   359   8.6       E    89   8.73    260     -102.7
   04/13/2018 19:10      76.5      75.7        7      8.6      0.00      6.05      68.2     0.38      1021.8     4.5       N   360   9.1       N     0   8.73    260      -95.8
   04/13/2018 19:00      76.9      76.2        7      8.4      0.00      6.05      68.1     0.38      1021.8     5.4       N     5  11.4      NW   323   8.74    260      -85.2
   04/13/2018 18:50      77.3      76.6        7      8.3      0.00      6.05      68.1     0.38      1021.7     4.7       N   359   9.2     NNE    24   8.74    260      -70.4
   04/13/2018 18:40      77.6      77.0        7      8.4      0.00      6.05      68.0     0.38      1021.7     5.3       N   353   8.9     NNE    13   8.75    260      -51.6
   04/13/2018 18:30      77.7      77.3        7      8.1      0.00      6.05      68.0     0.38      1021.6     4.6     NNE    19   8.4     NNW   332   8.75    260      -30.1
   04/13/2018 18:20      78.3      77.4        7      7.6      0.00      6.05      68.0     0.38      1021.4     6.9     NNE    13  12.2      NE    36   8.75    260       -4.7
   04/13/2018 18:10      78.5      77.7        7      8.3      0.00      6.05      68.0     0.38      1021.4     5.8     NNE    13  13.0       N   350   8.76    260       13.9
   04/13/2018 18:00      78.8      78.1        7      8.5      0.00      6.05      67.9     0.38      1021.4     6.6       N     6  12.3       N     5   8.76    260       49.4
   04/13/2018 17:50      78.7      78.4        7      8.3      0.00      6.05      67.9     0.38      1021.3     6.0     NNE    16  11.0      NE    49   8.77    260       76.3
   04/13/2018 17:40      78.9      78.4        7      8.4      0.00      6.05      67.8     0.38      1021.3     6.0       N    10  11.4       N   349   8.77    260      101.0
   04/13/2018 17:30      79.1      78.5        7      8.9      0.00      6.05      67.7     0.38      1021.1     6.3       N   356  12.6      NW   317   8.78    260      133.0
   04/13/2018 17:20      79.1      78.6        7      9.0      0.00      6.05      67.7     0.38      1021.0     6.9       N     3  12.1     NNE    29   8.78    260      162.0
   04/13/2018 17:10      79.4      78.6        7      8.8      0.00      6.05      67.7     0.38      1020.9     6.9     NNE    14  14.1     NNE    29   8.78    260      187.9
   04/13/2018 17:00      79.3      78.6        7      9.2      0.00      6.05      67.6     0.38      1020.9     7.4       N    10  15.5       N     9   8.79    260      209.8
   04/13/2018 16:50      79.3      78.4        7      8.9      0.00      6.05      67.5     0.38      1020.9     7.9     NNE    13  15.0     NNE    11   8.79    260      241.6
   04/13/2018 16:40      79.4      78.8        7      9.0      0.00      6.05      67.5     0.38      1021.0     8.2       N     7  17.9       N   351   8.80    260      265.5
   04/13/2018 16:30      80.0      78.7        7      9.5      0.00      6.05      67.5     0.38      1020.9     8.2       N     2  12.7     NNE    15   8.80    260      290.1
   04/13/2018 16:20      79.8      78.8        7      9.3      0.00      6.05      67.4     0.38      1021.0     7.5       N     8  15.1       N     0   8.81    260      312.8
   04/13/2018 16:10      79.3      78.5        7      9.2      0.00      6.05      67.4     0.38      1021.0     9.0       N     2  13.8      NW   325   8.81    260      338.4
   04/13/2018 16:00      79.1      78.3        7      8.1      0.00      6.05      67.3     0.38      1021.1     9.3       N     4  16.8      NE    52   8.82    261      361.6
   04/13/2018 15:50      79.1      78.4        7      8.8      0.00      6.05      67.3     0.38      1021.1     9.5       N     3  14.9     NNW   341   8.82    261      383.6
   04/13/2018 15:40      79.5      78.7        7      9.7      0.00      6.05      67.2     0.38      1021.2     8.7       N     4  16.8     SSE   165   8.83    261      402.1
   04/13/2018 15:30      79.0      77.7        7      9.6      0.00      6.05      67.1     0.38      1021.2     9.9       N   360  17.6     NNE    19   8.83    261      422.9
   04/13/2018 15:20      79.0      78.2        7      9.3      0.00      6.05      67.1     0.38      1021.3     9.6       N     0  16.8     NNW   348   8.83    260      439.7
   04/13/2018 15:10      78.5      77.9        7      9.2      0.00      6.05      67.1     0.38      1021.5     9.1       N     3  14.7     NNW   335   8.84    261      458.4
   04/13/2018 15:00      78.7      77.8        7      9.0      0.00      6.05      67.0     0.38      1021.7    10.1       N     9  16.7       N     3   8.84    260      475.2
   04/13/2018 14:50      79.8      78.4        7      9.6      0.00      6.05      67.0     0.38      1021.8     7.7       N     8  16.5     NNE    14   8.85    260      484.2
   04/13/2018 14:40      79.2      77.9        7      9.1      0.00      6.05      66.9     0.38      1022.0     8.3       N     4  18.6     NNE    14   8.85    260      500.4
   04/13/2018 14:30      79.3      78.8        7     11.0      0.00      6.05      66.9     0.38      1022.1     7.1       N   358  13.6     NNE    21   8.85    260      509.8
   04/13/2018 14:20      79.0      78.1        7     11.0      0.00      6.05      66.8     0.38      1022.3     7.0       N   357  14.2     WNW   288   8.85    260      523.7
   04/13/2018 14:10      78.7      77.4        8     11.8      0.00      6.05      66.8     0.38      1022.4     7.1     NNW   348  16.3     NNE    29   8.86    260      536.1
   04/13/2018 14:00      78.4      77.0        8     12.3      0.00      6.05      66.7     0.38      1022.4     6.7       N     4  14.1     NNE    13   8.86    260      544.5
   04/13/2018 13:50      77.7      76.7        8     12.5      0.00      6.05      66.7     0.38      1022.6     7.2       N     5  13.1       N   353   8.86    260      553.8
   04/13/2018 13:40      76.8      75.3        9     12.8      0.00      6.05      66.7     0.38      1022.8     7.9     NNW   341  14.1     WNW   300   8.87    260      563.7
   04/13/2018 13:30      76.6      75.7        9     13.9      0.00      6.05      66.6     0.38      1022.9     6.3       N   350  12.2     NNE    18   8.87    260      568.2
   04/13/2018 13:20      76.0      75.2        9     13.7      0.00      6.05      66.6     0.38      1022.9     7.1       N     9  12.2     NNW   331   8.87    260      575.0
   04/13/2018 13:10      75.7      74.7       10     14.2      0.00      6.05      66.6     0.38      1023.0     7.5     NNE    14  14.7     NNE    20   8.88    260      575.6
   04/13/2018 13:00      74.9      74.2       10     14.4      0.00      6.05      66.5     0.38      1023.0     7.9       N   358  16.1       N     6   8.88    260      578.5
   04/13/2018 12:50      74.4      73.5       10     14.6      0.00      6.05      66.6     0.38      1023.1     7.3       N   357  15.2       N     4   8.88    261      580.3
   04/13/2018 12:40      74.2      73.0       11     14.9      0.00      6.05      66.6     0.38      1023.2     7.8       N     2  13.7       N     8   8.88    260      579.0
   04/13/2018 12:30      73.5      73.2       11     14.9      0.00      6.05      66.5     0.38      1023.2     8.8       N     4  14.7       N   351   8.88    261      575.3
   04/13/2018 12:20      73.5      72.0       11     15.3      0.00      6.05      66.5     0.38      1023.4     8.1       N     0  16.5      NW   325   8.89    261      571.0
   04/13/2018 12:10      72.8      71.9       11     15.0      0.00      6.05      66.5     0.38      1023.6     9.5     NNE    15  15.4     NNE    19   8.89    261      567.8
   04/13/2018 12:00      73.0      72.2       11     15.9      0.00      6.05      66.5     0.38      1023.6     7.6       N     5  13.7       N     0   8.89    261      561.4
   04/13/2018 11:50      72.5      71.4       11     15.2      0.00      6.05      66.5     0.38      1023.6     7.9     NNE    16  15.3     NNW   327   8.89    261      555.5
   04/13/2018 11:40      72.2      71.1       12     15.5      0.00      6.05      66.5     0.38      1023.7     8.1       N     5  15.8       N    11   8.90    260      546.4
   04/13/2018 11:30      71.4      70.7       12     15.5      0.00      6.05      66.6     0.38      1023.7     7.6       N   358  16.4     ENE    62   8.90    261      536.9
   04/13/2018 11:20      71.2      70.1       12     15.7      0.00      6.05      66.6     0.38      1023.7     7.4       N     1  15.4     NNE    21   8.90    261      524.9
   04/13/2018 11:10      70.7      69.5       13     16.9      0.00      6.05      66.6     0.38      1023.6     7.3       N     9  12.8       N     0   8.90    261      511.2
   04/13/2018 11:00      69.8      68.8       14     17.4      0.00      6.05      66.6     0.38      1023.6     7.7       N     1  14.8     NNW   345   8.90    261      494.9
   04/13/2018 10:50      69.3      68.2       14     18.3      0.00      6.05      66.7     0.38      1023.5     8.0       N     9  14.0       N   349   8.90    261      478.8
   04/13/2018 10:40      68.2      67.1       15     18.0      0.00      6.05      66.7     0.38      1023.4     9.1       N     9  15.6       N     1   8.90    261      464.9
   04/13/2018 10:30      67.7      67.0       15     18.1      0.00      6.05      66.7     0.38      1023.2     8.9       N     9  18.8       N     9   8.91    261      446.6
   04/13/2018 10:20      67.1      66.3       15     17.9      0.00      6.05      66.7     0.38      1023.3     9.0       N     0  22.0      NE    34   8.91    261      432.4
   04/13/2018 10:10      66.5      65.4       16     18.4      0.00      6.05      66.7     0.38      1023.4     7.9       N   360  13.6      NE    35   8.91    261      416.7
   04/13/2018 10:00      65.6      64.9       16     18.6      0.00      6.05      66.8     0.38      1023.3     9.3       N   357  19.2      NW   304   8.91    261      398.2
   04/13/2018 09:50      65.2      64.2       17     19.2      0.00      6.05      66.8     0.38      1023.3     8.4       N     4  16.7     WNW   291   8.91    261      377.9
   04/13/2018 09:40      64.3      63.6       18     19.9      0.00      6.05      66.8     0.38      1023.3     8.8       N     7  17.0     NNE    26   8.91    261      354.9
   04/13/2018 09:30      63.7      62.4       20     20.9      0.00      6.05      66.9     0.38      1023.3     7.4     NNE    12  13.9       N     8   8.91    261      329.5
   04/13/2018 09:20      62.5      61.3       21     22.0      0.00      6.05      66.9     0.38      1023.2     8.4       N     4  15.9      NE    40   8.91    261      306.5
   04/13/2018 09:10      61.5      60.3       23     22.8      0.00      6.05      67.0     0.38      1023.0     8.5       N     6  18.2      NE    37   8.91    261      281.9
   04/13/2018 09:00      60.5      59.8       24     23.4      0.00      6.05      67.0     0.38      1023.0     9.7       N     7  16.3      NE    38   8.92    262      258.1
   04/13/2018 08:50      59.8      59.3       25     23.3      0.00      6.05      67.0     0.38      1022.9     8.5       N    10  16.9       N   355   8.92    262      234.0
   04/13/2018 08:40      59.6      58.4       26     23.7      0.00      6.05      67.0     0.38      1022.9     8.8       N     9  18.3      SW   230   8.92    262      208.4
   04/13/2018 08:30      58.7      57.9       27     24.1      0.00      6.05      67.1     0.38      1023.0     9.2     NNE    13  16.5       N     3   8.92    262      180.1
   04/13/2018 08:20      58.1      57.4       28     24.5      0.00      6.05      67.1     0.38      1023.0     9.0       N    10  16.8      NE    40   8.92    262      148.9
   04/13/2018 08:10      57.7      56.8       28     24.7      0.00      6.05      67.1     0.38      1023.0     8.6       N     4  18.6       N   350   8.92    263      123.0
   04/13/2018 08:00      57.1      56.1       30     25.2      0.00      6.05      67.2     0.38      1022.8     7.6       N   358  15.0     NNW   340   8.92    263       93.1
   04/13/2018 07:50      56.2      55.4       31     25.5      0.00      6.05      67.2     0.38      1022.7     6.9       N   358  13.1       N     7   8.92    263       59.4
   04/13/2018 07:40      55.7      55.2       31     25.4      0.00      6.05      67.3     0.38      1022.6     8.1       N     0  15.7     NNW   340   8.92    263       19.1
   04/13/2018 07:30      55.4      54.9       31     25.2      0.00      6.05      67.3     0.39      1022.7     9.2       N   356  17.4      NW   317   8.92    263      -17.6
   04/13/2018 07:20      55.2      54.5       31     25.1      0.00      6.05      67.3     0.39      1022.8     6.4       N   354  12.3     NNW   333   8.92    263      -45.3
   04/13/2018 07:10      54.8      54.1       32     25.1      0.00      6.05      67.3     0.39      1022.7     6.1       N   354  11.3     NNE    13   8.92    263      -53.3
   04/13/2018 07:00      54.5      54.0       32     25.2      0.00      6.05      67.4     0.39      1022.7     6.4     NNW   348  11.6     NNW   339   8.92    263      -60.4
   04/13/2018 06:50      54.2      53.8       33     25.5      0.00      6.05      67.4     0.39      1022.7     5.4     NNW   338   9.0     NNW   346   8.92    263      -68.9
   04/13/2018 06:40      54.2      53.7       33     25.6      0.00      6.05      67.5     0.39      1022.6     5.3     NNW   337   8.5     NNW   342   8.93    264      -76.2
   04/13/2018 06:30      54.2      53.7       33     25.8      0.00      6.05      67.5     0.39      1022.4     5.6     NNW   332  11.0     NNW   344   8.93    264      -81.2
   04/13/2018 06:20      54.3      53.9       33     25.9      0.00      6.05      67.5     0.39      1022.2     5.9     NNW   343  11.5      NW   313   8.93    264      -83.2
   04/13/2018 06:10      54.2      53.8       34     26.1      0.00      6.05      67.6     0.39      1022.0     6.7     NNW   345  13.5       W   279   8.93    264      -83.4
   04/13/2018 06:00      54.2      53.8       34     26.1      0.00      6.05      67.6     0.39      1021.9     6.1       N   351  13.1     NNW   342   8.93    264      -83.2
   04/13/2018 05:50      54.1      53.6       34     26.3      0.00      6.05      67.6     0.39      1021.9     6.8       N   351  12.9     NNW   346   8.93    264      -82.9
   04/13/2018 05:40      53.9      53.5       35     26.8      0.00      6.05      67.6     0.39      1021.8     6.7     NNW   342  12.9       W   275   8.93    264      -82.3
   04/13/2018 05:30      53.8      53.3       36     26.9      0.00      6.05      67.7     0.39      1021.8     6.0     NNW   332  11.1     NNW   344   8.93    264      -81.1
   04/13/2018 05:20      53.7      53.1       36     27.1      0.00      6.05      67.7     0.39      1021.9     4.0      NW   317   7.1      NW   317   8.93    264      -80.0
   04/13/2018 05:10      53.7      53.1       36     27.0      0.00      6.05      67.7     0.39      1021.9     3.4      NW   326   7.4     NNW   345   8.93    264      -79.4
   04/13/2018 05:00      53.3      52.6       37     27.1      0.00      6.05      67.7     0.39      1022.0     2.0     NNW   343   4.8     NNW   346   8.93    264      -78.8
   04/13/2018 04:50      53.0      52.5       36     26.8      0.00      6.05      67.8     0.39      1022.1     0.7     WNW   292   4.1       N   352   8.93    264      -78.9
   04/13/2018 04:40      53.5      52.4       37     26.9      0.00      6.05      67.8     0.39      1022.1     1.2     SSW   192   4.6     NNE    22   8.93    264      -79.0
   04/13/2018 04:30      54.0      53.3       35     26.9      0.00      6.05      67.8     0.39      1022.0     1.4      NE    44   3.1      NW   321   8.93    263      -81.0
   04/13/2018 04:20      54.4      53.5       35     26.7      0.00      6.05      67.8     0.39      1021.9     1.1      NE    37   3.9     ENE    71   8.93    263      -82.5
   04/13/2018 04:10      54.3      53.9       35     26.8      0.00      6.05      67.9     0.39      1021.8     2.5     NNE    23   6.9     NNE    33   8.93    263      -83.2
   04/13/2018 04:00      54.4      54.0       35     26.8      0.00      6.05      67.9     0.39      1021.8     2.9       N    11   9.9     NNE    30   8.93    263      -83.8
   04/13/2018 03:50      54.4      54.0       34     26.6      0.00      6.05      68.0     0.39      1021.8     4.0     NNE    12  10.3       N     7   8.93    263      -84.3
   04/13/2018 03:40      54.4      54.1       34     26.6      0.00      6.05      68.0     0.39      1021.6     3.8     NNE    12   7.9       N     7   8.93    263      -84.9
   04/13/2018 03:30      54.7      54.1       34     26.6      0.00      6.05      68.0     0.39      1021.5     5.1     NNE    15  12.1     NNW   329   8.94    263      -85.7
   04/13/2018 03:20      54.8      54.3       34     26.7      0.00      6.05      68.0     0.39      1021.3     7.9       N     6  15.2      NW   317   8.94    263      -86.1
   04/13/2018 03:10      54.7      54.4       34     26.6      0.00      6.05      68.1     0.39      1021.1     7.4       N   358  16.7     NNW   346   8.94    263      -86.4
   04/13/2018 03:00      54.9      54.4       34     26.5      0.00      6.05      68.1     0.39      1021.0     7.9       N    10  13.3      NE    39   8.94    263      -86.6
   04/13/2018 02:50      54.9      54.5       34     26.6      0.00      6.05      68.1     0.39      1020.9     9.9       N     0  16.1       N    10   8.94    263      -86.6
   04/13/2018 02:40      54.9      54.4       34     26.9      0.00      6.05      68.2     0.39      1021.0     9.1       N     2  16.9     NNW   347   8.94    263      -86.5
   04/13/2018 02:30      54.9      54.5       34     26.7      0.00      6.05      68.2     0.39      1020.9     9.5       N     7  17.2      NE    34   8.94    263      -86.8
   04/13/2018 02:20      55.0      54.6       34     26.7      0.00      6.05      68.2     0.39      1021.0    10.6       N     2  17.8     NNW   347   8.95    263      -86.8
   04/13/2018 02:10      55.5      54.7       33     26.6      0.00      6.05      68.2     0.39      1021.1     9.1       N     4  16.6     NNE    20   8.95    263      -86.7
   04/13/2018 02:00      55.4      55.0       32     26.0      0.00      6.05      68.3     0.39      1021.2     8.9       N   353  15.9     NNW   332   8.95    263      -86.4
   04/13/2018 01:50      55.9      55.2       31     25.5      0.00      6.05      68.3     0.39      1021.3     8.8       N   352  14.6     NNW   349   8.95    263      -86.3
   04/13/2018 01:40      55.9      55.5       30     24.8      0.00      6.05      68.3     0.39      1021.4     7.7       N   350  13.1     NNW   329   8.95    263      -85.5
   04/13/2018 01:30      56.2      55.5       29     24.3      0.00      6.05      68.4     0.39      1021.4     5.9     NNW   338  10.6       N   352   8.95    263      -85.5
   04/13/2018 01:20      56.2      55.7       29     23.9      0.00      6.05      68.4     0.39      1021.3     5.1     NNW   341   9.8       N     0   8.95    263      -85.4
   04/13/2018 01:10      55.8      55.0       30     24.2      0.00      6.05      68.4     0.39      1021.3     4.9       W   265  11.6     SSW   209   8.95    263      -84.3
   04/13/2018 01:00      55.5      54.9       30     24.3      0.00      6.05      68.4     0.39      1021.3     2.0     WNW   282   5.3       W   274   8.95    263      -84.1
   04/13/2018 00:50      55.1      54.5       31     24.5      0.00      6.05      68.5     0.39      1021.3     1.8     NNE    16   9.4     ENE    63   8.95    263      -84.0
   04/13/2018 00:40      55.7      54.8       30     24.2      0.00      6.05      68.5     0.39      1021.2     2.3       S   184   6.7     SSW   205   8.95    262      -84.9
   04/13/2018 00:30      56.3      55.2       29     24.0      0.00      6.05      68.5     0.39      1021.0     3.1     SSW   209   7.9       W   276   8.95    263      -85.5
   04/13/2018 00:20      56.2      55.5       28     23.4      0.00      6.05      68.5     0.39      1021.0     3.9       W   262   8.7      SW   231   8.96    262      -86.5
   04/13/2018 00:10      56.3      55.5       28     22.8      0.00      6.05      68.6     0.39      1020.9     3.2      SW   235   7.3       S   179   8.96    262      -86.4
   04/13/2018 00:00      56.5      56.0       27     22.4      0.00      6.05      68.6     0.39      1020.9     3.4     WSW   247   7.7     WSW   252   8.96    262      -86.5
   04/12/2018 23:50      56.8      56.1       25     21.2      0.00      6.05      68.6     0.39      1020.7     3.3     WSW   254   8.6       N     2   8.96    262      -86.9
   04/12/2018 23:40      57.1      56.5       24     20.2      0.00      6.05      68.6     0.39      1020.7     3.6      NW   317  10.5      NW   325   8.96    262      -87.0
   04/12/2018 23:30      57.4      56.8       23     19.3      0.00      6.05      68.7     0.39      1020.7     3.1      NW   322   8.4      NW   325   8.96    262      -87.5
   04/12/2018 23:20      57.6      56.9       22     18.4      0.00      6.05      68.7     0.39      1020.7     4.2     WNW   286   9.9     WSW   257   8.96    262      -88.2
   04/12/2018 23:10      57.7      57.0       21     17.9      0.00      6.05      68.7     0.39      1020.7     4.1     WSW   251  11.7      SW   225   8.96    262      -89.0
   04/12/2018 23:00      57.7      57.2       21     18.0      0.00      6.05      68.7     0.39      1020.6     4.3     WSW   243  11.1      SW   216   8.97    262      -90.1
   04/12/2018 22:50      57.7      57.2       21     18.2      0.00      6.05      68.7     0.39      1020.3     3.8     WNW   299   9.5       W   262   8.97    262      -90.3
   04/12/2018 22:40      57.9      57.2       21     18.1      0.00      6.05      68.8     0.39      1020.2     3.9     WNW   298   7.3      NE    35   8.97    262      -90.1
   04/12/2018 22:30      58.0      57.5       21     18.2      0.00      6.05      68.7     0.39      1020.2     3.5     NNW   338   9.9     WNW   292   8.97    262      -90.5
   04/12/2018 22:20      57.9      57.4       22     18.8      0.00      6.05      68.8     0.39      1019.9     7.3      NW   325  15.7     WNW   294   8.97    262      -90.7
   04/12/2018 22:10      57.9      57.4       22     18.9      0.00      6.05      68.8     0.39      1019.8     8.6     NNW   335  14.8     NNW   332   8.97    262      -91.6
   04/12/2018 22:00      58.2      57.6       21     17.9      0.00      6.05      68.8     0.39      1020.0     6.0     NNW   347  12.2     NNW   330   8.98    262      -91.8
   04/12/2018 21:50      58.5      57.9       20     16.8      0.00      6.05      68.8     0.39      1019.5     6.6       N   351  13.3     NNW   348   8.98    262      -93.6
   04/12/2018 21:40      58.4      58.0       19     16.0      0.00      6.05      68.8     0.39      1018.9     8.5      NW   315  15.6       W   266   8.98    262      -94.8
   04/12/2018 21:30      58.6      58.0       19     15.8      0.00      6.05      68.8     0.39      1019.1     8.3      NW   318  15.8     NNW   340   8.98    262      -93.2
   04/12/2018 21:20      58.7      58.2       18     15.3      0.00      6.05      68.8     0.39      1019.3     7.3     NNW   329  12.1     WNW   301   8.99    262      -92.5
   04/12/2018 21:10      58.8      58.3       18     15.6      0.00      6.05      68.8     0.39      1019.4     8.7     NNW   346  16.1     WNW   290   9.00    262      -93.1
   04/12/2018 21:00      58.8      58.4       19     16.1      0.00      6.05      68.8     0.39      1019.3     8.7       N   351  20.8     NNW   334   9.00    262      -92.7
   04/12/2018 20:50      58.8      58.4       20     17.4      0.00      6.05      68.9     0.39      1019.2     8.5       N   355  16.7     NNE    11   9.00    262      -90.8
   04/12/2018 20:40      59.0      58.4       21     18.4      0.00      6.05      68.9     0.39      1019.0     8.2       N     2  15.1     NNW   330   9.00    262      -92.0
   04/12/2018 20:30      59.8      58.8       19     17.4      0.00      6.05      68.9     0.39      1019.0     8.6       N     2  15.6     NNW   344   9.00    262      -92.6
   04/12/2018 20:20      59.8      59.3       18     16.1      0.00      6.05      68.8     0.39      1019.0     7.6       N     7  12.9     NNE    17   9.01    262      -94.5
   04/12/2018 20:10      60.2      59.6       17     15.2      0.00      6.05      68.8     0.39      1018.8     8.0     NNE    14  16.0     NNE    29   9.01    262      -95.5
   04/12/2018 20:00      60.4      59.7       17     15.0      0.00      6.05      68.8     0.39      1018.4     7.7       N   357  13.1     NNW   343   9.01    262      -95.8
   04/12/2018 19:50      60.8      60.0       16     14.1      0.00      6.05      68.8     0.39      1018.3     8.8       N     3  17.4       N   353   9.02    262      -97.4
   04/12/2018 19:40      61.3      60.5       15     12.8      0.00      6.05      68.8     0.39      1018.4     8.2       N     4  16.0       W   260   9.02    262      -99.1
   04/12/2018 19:30      61.7      61.0       15     13.1      0.00      6.05      68.8     0.39      1018.3     7.7       N     2  17.9      NW   322   9.02    261      -94.5
   04/12/2018 19:20      62.1      61.4       16     14.4      0.00      6.05      68.8     0.39      1018.1     6.1       N   353  12.5      NW   305   9.02    262      -89.3
   04/12/2018 19:10      62.6      61.8       16     15.8      0.00      6.05      68.8     0.39      1018.1     5.9       N   359  10.4     NNE    23   9.02    262      -81.5
   04/12/2018 19:00      62.7      62.2       17     16.5      0.00      6.05      68.8     0.39      1017.9     5.7       N   358   9.8      NW   309   9.03    262      -61.8
   04/12/2018 18:50      62.9      62.4       17     17.6      0.00      6.05      68.8     0.39      1018.0     6.9       N     8  16.2       N   350   9.03    262      -35.9
   04/12/2018 18:40      62.9      62.4       18     18.6      0.00      6.05      68.7     0.39      1018.0     5.6       N     3  10.0       N     7   9.03    262      -37.1
   04/12/2018 18:30      63.6      62.5       18     18.1      0.00      6.05      68.8     0.39      1017.9     9.0       N   359  15.6       N   353   9.04    261      -15.1
   04/12/2018 18:20      63.8      63.3       17     18.6      0.00      6.05      68.7     0.39      1017.7     6.2       N   359  10.4     NNE    13   9.05    261       -5.1
   04/12/2018 18:10      64.4      63.6       18     19.7      0.00      6.05      68.7     0.39      1017.6     6.6       N   354  12.4       N   355   9.05    261       20.0
   04/12/2018 18:00      64.5      64.0       18     19.3      0.00      6.05      68.7     0.39      1017.6     6.6     NNE    13  10.2     NNE    25   9.05    261       57.5
   04/12/2018 17:50      64.8      63.9       17     18.9      0.00      6.05      68.7     0.39      1017.6     8.8       N     0  15.5      NW   319   9.06    261       98.3
   04/12/2018 17:40      65.3      64.6       18     19.7      0.00      6.05      68.6     0.39      1017.4     7.5       N     7  14.8     NNE    12   9.06    261      122.8
   04/12/2018 17:30      65.3      64.4       18     20.2      0.00      6.05      68.6     0.39      1017.4     7.9       N     3  14.2      NE    34   9.07    261      113.3
   04/12/2018 17:20      66.3      64.9       17     19.9      0.00      6.05      68.6     0.39      1017.4     7.7       N     7  17.0       N   350   9.07    261      118.5
   04/12/2018 17:10      67.3      66.3       16     19.3      0.00      6.05      68.5     0.39      1017.2     4.9       N   354  12.8      NE    54   9.08    261      173.0
   04/12/2018 17:00      66.9      66.0       16     19.0      0.00      6.05      68.5     0.39      1017.2     6.0     NNW   346  11.9     NNW   328   9.08    261      207.4
   04/12/2018 16:50      66.8      66.0       17     19.8      0.00      6.05      68.5     0.39      1017.2     5.8       N     8  10.8     NNW   340   9.08    261      260.9
   04/12/2018 16:40      66.8      66.1       17     20.2      0.00      6.05      68.5     0.39      1017.4     6.4       N     8  11.3       N   352   9.09    261      263.8
   04/12/2018 16:30      66.6      66.0       17     20.6      0.00      6.05      68.4     0.39      1017.5     5.9       N     4  11.4     ENE    63   9.09    261      306.5
   04/12/2018 16:20      66.6      66.1       17     19.9      0.00      6.05      68.4     0.39      1017.5     6.8     NNE    15  14.2     NNW   338   9.09    262      324.3
   04/12/2018 16:10      66.8      66.1       17     20.9      0.00      6.05      68.4     0.39      1017.5     5.9     NNE    24  10.3      NE    40   9.10    262      345.2
   04/12/2018 16:00      66.6      65.4       18     21.5      0.00      6.05      68.3     0.39      1017.5     6.7       N     4  11.9     NNE    12   9.10    262      368.4
   04/12/2018 15:50      66.8      65.6       18     21.9      0.00      6.05      68.3     0.39      1017.6     7.8     NNE    12  14.7       N     8   9.10    262      389.9
   04/12/2018 15:40      66.6      65.2       19     22.9      0.00      6.05      68.3     0.39      1018.0     6.3       N   354  11.7     NNE    30   9.10    262      411.8
   04/12/2018 15:30      65.9      65.4       19     22.5      0.00      6.05      68.2     0.39      1018.1     7.9       N     8  13.2       N     9   9.11    262      430.3
   04/12/2018 15:20      65.5      64.9       20     22.9      0.00      6.05      68.2     0.39      1018.3     8.1     NNE    12  16.1     NNW   336   9.11    262      448.6
   04/12/2018 15:10      66.4      65.3       20     24.1      0.00      6.05      68.2     0.39      1018.5     7.3       N     8  11.7      NE    36   9.12    262      464.2
   04/12/2018 15:00      66.0      64.6       22     25.3      0.00      6.05      68.1     0.39      1018.6     7.2       N   356  14.2     NNE    15   9.12    262      484.2
   04/12/2018 14:50      64.9      64.0       23     25.5      0.00      6.05      68.1     0.39      1018.7     7.3       N   358  13.3     NNW   342   9.12    262      499.8
   04/12/2018 14:40      64.8      63.8       23     25.6      0.00      6.05      68.0     0.39      1018.8     8.9       N     8  13.9      NE    50   9.12    262      514.0
   04/12/2018 14:30      65.4      64.0       23     26.4      0.00      6.05      68.0     0.39      1018.7     8.0       N   355  15.5     NNW   332   9.13    262      525.6
   04/12/2018 14:20      65.3      63.9       24     26.9      0.00      6.05      68.0     0.39      1018.7     6.5       N     0  13.7       N   354   9.13    262      537.1
   04/12/2018 14:10      64.1      62.9       24     25.8      0.00      6.05      68.0     0.39      1018.8     8.3       N     7  14.2       N     6   9.13    261      551.1
   04/12/2018 14:00      65.4      63.5       24     27.0      0.00      6.05      67.9     0.39      1018.8     8.9       N     2  17.0     NNE    23   9.14    261      559.3
   04/12/2018 13:50      65.2      64.0       25     27.4      0.00      6.05      67.9     0.39      1018.8     6.9       N     8  12.8     NNE    20   9.14    262      567.0
   04/12/2018 13:40      65.6      63.2       25     27.0      0.00      6.05      67.9     0.39      1018.8     7.7       N   360  13.5       N   353   9.14    262      574.4
   04/12/2018 13:30      65.5      63.6       26     28.4      0.00      6.05      67.8     0.39      1018.8     6.1       N   360  13.5       N   352   9.14    262      579.9
   04/12/2018 13:20      64.0      63.3       27     28.7      0.00      6.05      67.9     0.39      1018.9     6.8       N   352  12.3     WNW   296   9.15    262      585.4
   04/12/2018 13:10      64.8      63.2       26     28.7      0.00      6.05      67.8     0.39      1019.0     6.4     NNW   346  12.8     NNE    13   9.15    262      587.7
   04/12/2018 13:00      64.3      63.0       26     28.4      0.00      6.05      67.9     0.39      1019.0     7.5       N   353  15.2      NW   326   9.15    262      591.0
   04/12/2018 12:50      64.2      61.9       27     28.6      0.00      6.05      67.9     0.39      1019.1     7.9       N   359  17.3      NE    47   9.15    262      593.8
   04/12/2018 12:40      64.1      63.1       27     29.2      0.00      6.05      67.9     0.39      1019.1     6.4     NNW   346  14.4     NNW   340   9.16    262      590.0
   04/12/2018 12:30      63.7      62.4       27     28.8      0.00      6.05      67.8     0.39      1019.3     6.4       N   358  13.7     NNW   330   9.16    262      590.3
   04/12/2018 12:20      63.2      61.9       28     28.6      0.00      6.05      67.9     0.39      1019.2     6.5       N   358  13.0      NE    35   9.16    263      590.0
   04/12/2018 12:10      63.0      61.1       28     28.6      0.00      6.05      67.9     0.39      1019.4     6.7       N     2  13.3       N   350   9.16    263      586.4
   04/12/2018 12:00      61.2      60.5       29     28.4      0.00      6.05      67.9     0.39      1019.3     9.8     NNE    13  15.1      NE    41   9.16    263      583.2
   04/12/2018 11:50      61.9      60.6       30     29.7      0.00      6.05      67.9     0.39      1019.4     8.7       N   356  17.5       N     0   9.17    263      571.6
   04/12/2018 11:40      61.6      60.1       31     29.8      0.00      6.05      67.9     0.39      1019.2     7.8       N     7  14.9      NE    34   9.17    262      563.0
   04/12/2018 11:30      61.1      59.8       32     30.3      0.00      6.05      67.9     0.39      1019.2     7.8       N     4  11.8     NNE    30   9.17    263      555.2
   04/12/2018 11:20      60.5      59.8       32     30.0      0.00      6.05      67.9     0.39      1019.2     8.8       N     5  14.9     WNW   287   9.17    263      545.1
   04/12/2018 11:10      60.6      59.7       32     30.0      0.00      6.05      68.0     0.39      1019.0     8.3     NNE    15  14.7       N     8   9.17    263      529.4
   04/12/2018 11:00      60.4      59.5       32     30.0      0.00      6.05      68.0     0.39      1018.9     8.4       N   357  13.6     NNW   345   9.17    263      514.4
   04/12/2018 10:50      60.0      59.2       33     30.4      0.00      6.05      68.1     0.39      1018.9     6.5       N   356  14.4       N   355   9.17    263      500.7
   04/12/2018 10:40      59.8      58.5       34     30.7      0.00      6.05      68.1     0.39      1018.7     8.3       N   355  15.8      NW   304   9.18    263      486.6
   04/12/2018 10:30      59.7      58.2       35     31.3      0.00      6.05      68.1     0.39      1018.5     6.0       N   356  13.4     NNE    12   9.17    263      467.4
   04/12/2018 10:20      58.9      57.8       36     31.5      0.00      6.05      68.1     0.39      1018.3     7.4       N   350  14.9     NNW   338   9.18    263      449.8
   04/12/2018 10:10      58.2      57.5       36     31.3      0.00      6.05      68.2     0.39      1018.2     8.5       N   353  15.3       N     9   9.18    263      433.8
   04/12/2018 10:00      57.9      56.8       38     31.7      0.00      6.05      68.2     0.39      1018.1     8.4       N   359  15.8       N     0   9.18    263      413.4
   04/12/2018 09:50      57.7      57.2       39     32.5      0.00      6.05      68.3     0.39      1018.1     7.2       N   352  12.7     NNW   343   9.18    263      390.3
   04/12/2018 09:40      57.6      56.8       39     32.4      0.00      6.05      68.3     0.39      1018.1     6.9       N   356  12.5     NNW   336   9.18    263      370.1
   04/12/2018 09:30      57.5      56.9       39     32.2      0.00      6.05      68.3     0.39      1018.1     6.6     NNE    14  11.4     NNE    30   9.18    263      346.4
   04/12/2018 09:20      57.5      56.6       39     32.1      0.00      6.05      68.4     0.39      1017.9     5.1     NNE    15  10.1     NNE    20   9.18    264      324.1
   04/12/2018 09:10      56.9      55.3       40     32.0      0.00      6.05      68.4     0.39      1017.9     4.8     NNE    11  14.6      NW   325   9.18    264      303.2
   04/12/2018 09:00      55.4      54.9       41     31.9      0.00      6.05      68.5     0.39      1017.8     8.2       N     0  13.9       N   353   9.18    264      280.6
   04/12/2018 08:50      55.5      54.6       41     31.9      0.00      6.05      68.5     0.39      1017.9     8.1       N   358  16.4     NNW   328   9.18    264      256.7
   04/12/2018 08:40      56.2      55.1       41     32.5      0.00      6.05      68.5     0.39      1017.8     6.6       N     8  16.1     NNW   338   9.18    264      230.3
   04/12/2018 08:30      56.1      55.6       41     32.6      0.00      6.05      68.5     0.39      1017.6     3.9       N   350   9.9     NNW   344   9.18    264      200.9
   04/12/2018 08:20      55.8      54.9       41     32.4      0.00      6.05      68.6     0.39      1017.4     3.5       N   360   7.2     NNE    21   9.18    264      173.5
   04/12/2018 08:10      55.1      54.0       42     32.1      0.00      6.05      68.7     0.39      1017.3     4.0     NNW   341   8.6       N   351   9.19    266      146.7
   04/12/2018 08:00      54.2      53.3       43     32.0      0.00      6.05      68.7     0.39      1017.0     5.0       N   358  10.0     NNE    12   9.19    266      119.2
   04/12/2018 07:50      53.6      53.0       44     32.1      0.00      6.05      68.7     0.39      1017.0     4.7       N   357  10.4     NNW   346   9.19    266       87.3
   04/12/2018 07:40      53.2      52.7       46     33.0      0.00      6.05      68.8     0.39      1017.0     4.4       N   350   9.6      NW   318   9.19    266       33.3
   04/12/2018 07:30      53.0      52.4       49     33.9      0.00      6.05      68.8     0.39      1017.0     4.5       N   356   9.8       N     0   9.19    266       -2.1
   04/12/2018 07:20      52.5      50.6       64     39.3      0.00      6.05      68.8     0.39      1016.7     3.7       N   357   8.2     NNE    33   9.19    267      -46.2
   04/12/2018 07:10      50.8      49.7       80     44.2      0.00      6.05      68.9     0.39      1016.3     1.2     ESE   116   2.5       E    94   9.19    268      -49.3
   04/12/2018 07:00      49.8      48.7       83     44.3      0.00      6.05      68.9     0.39      1016.2     1.2      SE   134   3.0      SE   135   9.19    269      -50.2
   04/12/2018 06:50      48.9      48.3       84     43.9      0.00      6.05      69.0     0.39      1016.2     0.7     SSE   151   2.7      SE   139   9.19    270      -54.1
   04/12/2018 06:40      48.6      48.2       84     43.8      0.00      6.05      69.0     0.39      1016.2     1.1     SSE   163   1.8       S   179   9.19    270      -55.9
   04/12/2018 06:30      49.0      48.3       82     43.5      0.00      6.05      69.0     0.39      1016.2     0.4     SSE   167   1.7       S   178   9.19    270      -45.6
   04/12/2018 06:20      50.5      48.7       80     43.7      0.00      6.05      69.1     0.39      1016.2     0.7     SSE   164   1.9       S   179   9.19    269      -64.2
   04/12/2018 06:10      50.6      50.1       80     44.4      0.00      6.05      69.1     0.39      1016.1     0.9       W   274   2.5      NW   310   9.19    269      -69.1
   04/12/2018 06:00      50.8      50.2       80     44.4      0.00      6.05      69.2     0.39      1015.8     1.4     WSW   248   3.4       W   268   9.19    268      -70.3
   04/12/2018 05:50      50.8      50.4       79     44.3      0.00      6.05      69.2     0.39      1015.6     2.6     WSW   245   4.4     WSW   254   9.19    268      -70.6
   04/12/2018 05:40      50.7      50.1       79     44.0      0.00      6.05      69.2     0.39      1015.5     2.5      SW   235   5.1     WSW   239   9.19    268      -70.0
   04/12/2018 05:30      50.5      49.9       78     43.4      0.00      6.05      69.3     0.39      1015.4     1.5     SSW   201   3.2      SW   236   9.19    268      -69.7
   04/12/2018 05:20      50.5      50.2       77     43.3      0.00      6.05      69.3     0.39      1015.4     1.5     SSW   206   4.1       S   186   9.19    268      -70.2
   04/12/2018 05:10      51.1      50.2       76     43.2      0.00      6.05      69.3     0.39      1015.3     1.3     SSW   203   3.1      SW   222   9.19    267      -71.5
   04/12/2018 05:00      51.2      50.7       75     43.4      0.00      6.05      69.3     0.39      1015.3     2.1      SW   218   5.4      SW   225   9.19    267      -72.2
   04/12/2018 04:50      51.1      50.8       75     43.4      0.00      6.05      69.4     0.39      1015.2     2.9     SSW   208   6.0      SW   215   9.19    267      -72.8
   04/12/2018 04:40      51.2      50.7       75     43.1      0.00      6.05      69.5     0.39      1015.0     3.3     SSW   202   6.5     SSW   195   9.19    267      -73.3
   04/12/2018 04:30      51.4      51.0       74     43.2      0.00      6.05      69.5     0.39      1015.0     3.4     SSW   205   6.1     SSW   197   9.20    267      -74.1
   04/12/2018 04:20      51.6      51.1       73     43.0      0.00      6.05      69.5     0.39      1015.1     3.5      SW   216   6.0     SSW   206   9.20    267      -74.3
   04/12/2018 04:10      52.0      51.3       72     42.9      0.00      6.05      69.5     0.39      1015.0     3.3      SW   216   6.6      SW   236   9.20    267      -74.7
   04/12/2018 04:00      52.1      51.6       71     42.8      0.00      6.05      69.6     0.39      1014.9     4.4      SW   225   7.9     WSW   240   9.20    267      -74.7
   04/12/2018 03:50      52.1      51.7       70     42.3      0.00      6.05      69.6     0.39      1014.8     5.0      SW   236   8.1     WSW   248   9.20    267      -74.8
   04/12/2018 03:40      52.0      51.3       67     41.1      0.00      6.05      69.6     0.39      1014.8     3.7      SW   228   7.5     WSW   252   9.20    266      -74.4
   04/12/2018 03:30      51.9      51.1       63     39.4      0.00      6.05      69.7     0.40      1014.8     1.6     SSW   208   5.7       W   266   9.20    267      -73.7
   04/12/2018 03:20      52.1      51.5       62     39.1      0.00      6.05      69.7     0.39      1014.9     1.8       S   188   3.5     SSW   202   9.20    266      -74.3
   04/12/2018 03:10      52.4      51.7       61     39.1      0.00      6.05      69.7     0.40      1014.9     1.2      SW   218   2.8      SW   229   9.20    266      -75.7
   04/12/2018 03:00      52.5      52.1       61     39.3      0.00      6.05      69.8     0.40      1015.0     2.9     SSW   201   5.0      SW   215   9.20    266      -76.2
   04/12/2018 02:50      52.4      51.7       66     40.9      0.00      6.05      69.8     0.40      1014.9     2.9     SSW   205   3.5     SSW   206   9.20    267      -73.7
   04/12/2018 02:40      53.4      51.8       67     41.7      0.00      6.05      69.8     0.40      1015.0     1.4       S   175   2.6     SSW   213   9.20    267      -72.5
   04/12/2018 02:30      53.3      52.6       63     40.9      0.00      6.05      69.8     0.40      1015.2     1.7     SSW   202   3.6      SW   216   9.20    267      -71.7
   04/12/2018 02:20      52.8      51.7       77     44.9      0.00      6.05      69.9     0.40      1015.4     2.4     SSW   206   3.1      SW   222   9.21    267      -68.5
   04/12/2018 02:10      53.1      52.0       79     46.2      0.00      6.05      69.9     0.40      1015.5     1.6     SSW   199   2.6     SSW   212   9.21    268      -68.5
   04/12/2018 02:00      54.4      53.0       78     47.0      0.00      6.05      69.9     0.40      1015.5     1.8     SSW   202   2.8     SSW   212   9.21    268      -67.0
   04/12/2018 01:50      54.9      54.1       76     47.2      0.00      6.05      69.9     0.40      1015.5     0.0       S   170   0.2       S   170   9.21    268      -69.1
   04/12/2018 01:40      55.2      54.6       76     47.4      0.00      6.05      70.0     0.40      1015.6     0.3     SSW   214   1.2      SW   215   9.21    268      -70.7
   04/12/2018 01:30      55.2      54.6       74     46.8      0.00      6.05      70.0     0.40      1015.5     0.3       E   101   1.8     ENE    62   9.21    267      -73.2
   04/12/2018 01:20      55.6      55.0       72     46.4      0.00      6.05      70.0     0.40      1015.5     0.5     ESE   111   1.6      SE   126   9.21    266      -73.4
   04/12/2018 01:10      55.7      55.0       71     46.1      0.00      6.05      70.0     0.40      1015.4     0.8     WNW   296   2.3      NW   312   9.21    267      -70.3
   04/12/2018 01:00      56.1      55.2       69     45.6      0.00      6.05      70.1     0.40      1015.2     0.0       E    91   0.5     ESE   102   9.21    266      -68.9
   04/12/2018 00:50      57.0      55.9       67     45.4      0.00      6.05      70.1     0.40      1015.1     0.5      SE   128   1.4      SE   136   9.21    266      -62.8
   04/12/2018 00:40      57.2      56.8       65     45.3      0.00      6.05      70.1     0.40      1015.2     0.4     NNE    27   1.2     NNE    26   9.21    266      -54.3
   04/12/2018 00:30      57.2      56.9       65     45.4      0.00      6.05      70.1     0.40      1015.1     0.2       N     3   1.6     NNW   333   9.21    266      -53.5
   04/12/2018 00:20      57.4      56.9       64     44.9      0.00      6.05      70.1     0.40      1015.1     1.4       S   173   3.2       S   177   9.21    266      -52.7
   04/12/2018 00:10      57.6      56.9       63     44.7      0.00      6.05      70.2     0.40      1015.2     2.1       S   189   5.0      SW   227   9.21    266      -50.9
   04/12/2018 00:00      57.8      57.2       62     44.5      0.00      6.05      70.2     0.40      1015.2     3.5     SSW   203   5.8     SSW   202   9.21    266      -52.8
   04/11/2018 23:50      58.1      57.4       61     44.5      0.00      6.05      70.2     0.40      1015.1     2.8     SSW   199   5.5     SSW   197   9.21    266      -50.1
   04/11/2018 23:40      58.0      57.5       61     44.6      0.00      6.05      70.2     0.40      1015.1     2.5     SSW   201   4.1       S   187   9.21    266      -51.5
   04/11/2018 23:30      57.9      57.5       62     44.9      0.00      6.05      70.2     0.40      1015.1     2.6     SSW   206   3.6       S   190   9.22    266      -52.1
   04/11/2018 23:20      57.9      57.5       63     45.3      0.00      6.05      70.2     0.40      1015.1     0.9      SW   225   1.6     WSW   249   9.22    266      -53.5
   04/11/2018 23:10      58.1      57.6       63     45.2      0.00      6.05      70.3     0.40      1014.9     1.5     SSW   195   2.5     SSW   207   9.22    266      -50.8
   04/11/2018 23:00      58.5      57.7       62     45.1      0.00      6.05      70.3     0.40      1014.7     1.5     SSW   202   2.5       S   186   9.22    266      -49.1
   04/11/2018 22:50      58.3      57.0       63     45.3      0.00      6.05      70.3     0.40      1014.7     1.3       W   267   2.4     WSW   249   9.22    266      -50.0
   04/11/2018 22:40      57.7      57.0       64     45.2      0.00      6.05      70.3     0.40      1014.7     0.0     WNW   289   1.3       W   262   9.22    266      -49.9
   04/11/2018 22:30      57.7      57.4       63     45.2      0.00      6.05      70.3     0.40      1014.7     0.5       S   185   1.5     SSW   207   9.22    266      -54.5
   04/11/2018 22:20      58.2      57.5       62     45.1      0.00      6.05      70.3     0.40      1014.6     0.9      SW   220   2.0     SSW   210   9.22    266      -52.6
   04/11/2018 22:10      58.2      57.8       62     45.2      0.00      6.05      70.3     0.40      1014.5     0.6     WSW   257   2.0       W   274   9.22    266      -55.2
   04/11/2018 22:00      58.3      57.9       63     45.3      0.00      6.05      70.3     0.40      1014.5     0.7     SSW   196   2.0     SSW   206   9.22    266      -56.6
   04/11/2018 21:50      58.3      57.9       63     45.5      0.00      6.05      70.3     0.40      1014.7     1.4       S   189   2.4       S   183   9.22    266      -56.9
   04/11/2018 21:40      58.4      57.9       63     45.6      0.00      6.05      70.3     0.40      1014.7     2.2     SSW   197   3.5     SSW   197   9.23    266      -57.2
   04/11/2018 21:30      58.6      58.0       64     45.9      0.00      6.05      70.3     0.40      1014.8     2.6     SSW   195   5.0      SW   217   9.23    266      -58.6
   04/11/2018 21:20      59.0      58.3       64     46.3      0.00      6.05      70.4     0.40      1014.7     2.9     SSW   213   4.7     SSW   203   9.23    265      -60.7
   04/11/2018 21:10      59.2      58.5       64     46.5      0.00      6.05      70.3     0.40      1014.6     3.0     SSW   213   6.4      SW   223   9.23    265      -60.7
   04/11/2018 21:00      59.7      58.9       63     46.6      0.00      6.05      70.3     0.40      1014.6     3.0      SW   225   6.0       W   267   9.23    265      -60.5
   04/11/2018 20:50      60.5      59.4       61     46.4      0.00      6.05      70.3     0.40      1014.5     4.6      SW   219   7.1      SW   221   9.23    265      -60.7
   04/11/2018 20:40      61.1      60.2       59     46.0      0.00      6.05      70.3     0.40      1014.4     4.1     WSW   240   7.1     WSW   242   9.24    265      -62.8
   04/11/2018 20:30      61.6      60.8       55     45.0      0.00      6.05      70.3     0.40      1014.1     5.4     WSW   239   8.2     SSW   207   9.24    264      -64.5
   04/11/2018 20:20      61.9      61.3       53     44.2      0.00      6.05      70.3     0.40      1013.8     3.6     WSW   239   6.8      SW   233   9.24    264      -66.6
   04/11/2018 20:10      62.2      61.3       52     43.9      0.00      6.05      70.3     0.40      1013.7     2.5      SW   221   5.2     WNW   285   9.24    264      -68.3
   04/11/2018 20:00      63.1      62.0       50     43.8      0.00      6.05      70.3     0.40      1013.7     2.4      SW   222   3.9      SW   225   9.24    264      -74.8
   04/11/2018 19:50      63.1      61.9       48     42.9      0.00      6.05      70.2     0.40      1013.7     3.1     WNW   287   5.7     WNW   291   9.25    264      -80.1
   04/11/2018 19:40      62.0      61.5       55     45.1      0.00      6.05      70.2     0.40      1013.5     2.0       W   260   3.4     WSW   257   9.25    264      -84.1
   04/11/2018 19:30      62.4      61.6       53     44.8      0.00      6.05      70.2     0.40      1013.5     2.3       S   191   3.2       S   182   9.25    264      -86.7
   04/11/2018 19:20      63.6      62.1       51     44.3      0.00      6.05      70.2     0.40      1013.6     2.4       S   171   4.6       S   175   9.25    264      -86.5
   04/11/2018 19:10      64.2      63.3       47     42.9      0.00      6.05      70.1     0.40      1013.8     1.5     SSW   202   4.2     WSW   242   9.26    264      -80.0
   04/11/2018 19:00      65.0      63.9       45     42.9      0.00      6.05      70.1     0.40      1013.9     3.8     WSW   248   7.1     WSW   247   9.26    264      -60.0
   04/11/2018 18:50      65.2      64.5       46     43.5      0.00      6.05      70.1     0.40      1013.9     4.3       W   278   7.4       W   260   9.26    263      -32.0
   04/11/2018 18:40      65.3      64.6       48     44.6      0.00      6.05      70.0     0.40      1013.9     4.0       W   274   8.0       W   280   9.27    263      -29.4
   04/11/2018 18:30      66.6      64.8       48     45.3      0.00      6.05      70.0     0.40      1014.0     5.8       W   273  11.3     WSW   257   9.27    263      -32.2
   04/11/2018 18:20      67.6      66.3       48     46.7      0.00      6.05      70.0     0.40      1013.9     5.9       W   279  10.9     WSW   254   9.28    263       19.6
   04/11/2018 18:10      68.9      67.4       45     46.4      0.00      6.05      69.9     0.40      1013.6     6.0      SW   230  10.2      SW   218   9.29    263       39.4
   04/11/2018 18:00      69.6      68.6       44     46.2      0.00      6.05      69.9     0.39      1013.4     6.2      SW   233  10.3      SW   228   9.29    263       28.7
   04/11/2018 17:50      70.6      69.2       44     47.0      0.00      6.05      69.8     0.39      1013.3     8.1     WSW   237  12.6     WSW   249   9.30    263       93.2
   04/11/2018 17:40      72.3      70.3       42     47.5      0.00      6.05      69.8     0.39      1013.3     6.7     WSW   237  11.4     SSW   198   9.30    263      122.9
   04/11/2018 17:30      72.8      71.9       40     46.8      0.00      6.05      69.7     0.39      1013.3     6.0     WSW   255   9.2     WSW   240   9.31    263      137.7
   04/11/2018 17:20      73.9      72.4       39     46.5      0.00      6.05      69.7     0.39      1013.4     7.2     WSW   253  12.2      SW   222   9.31    263      167.3
   04/11/2018 17:10      74.9      73.3       39     47.2      0.00      6.05      69.6     0.39      1013.3     6.7     WSW   243  13.0     WSW   258   9.32    263      203.7
   04/11/2018 17:00      75.9      74.6       36     46.8      0.00      6.05      69.6     0.39      1013.3     6.4     SSW   206  12.0      SW   225   9.32    263      223.2
   04/11/2018 16:50      76.2      75.2       36     46.6      0.00      6.05      69.5     0.39      1013.1     6.2       S   180  12.8       S   180   9.33    262      248.7
   04/11/2018 16:40      76.1      75.5       34     45.8      0.00      6.05      69.5     0.39      1013.3     5.1       S   172  10.0       S   182   9.33    263      278.8
   04/11/2018 16:30      76.0      75.1       33     44.8      0.00      6.05      69.4     0.39      1013.2     5.3       S   191   8.8     SSW   202   9.33    262      304.7
   04/11/2018 16:20      75.8      75.2       32     43.5      0.00      6.05      69.4     0.39      1013.1     5.6     SSE   165   9.8     SSW   204   9.34    262      328.2
   04/11/2018 16:10      76.2      74.9       32     43.9      0.00      6.05      69.3     0.39      1013.1     6.7       S   171  11.2      SE   130   9.34    263      353.2
   04/11/2018 16:00      76.8      75.7       32     44.3      0.00      6.05      69.2     0.39      1013.1     6.8       S   176  11.9       S   171   9.35    262      372.5
   04/11/2018 15:50      76.8      75.9       31     43.5      0.00      6.05      69.1     0.39      1013.3     6.5     SSE   164  11.4     SSE   167   9.35    262      394.0
   04/11/2018 15:40      77.6      76.4       27     40.8      0.00      6.05      69.1     0.39      1013.3     6.6       S   169  11.4     SSE   162   9.36    262      409.1
   04/11/2018 15:30      78.4      77.4       24     38.6      0.00      6.05      69.0     0.39      1013.3     6.4     SSE   162   9.7      SE   131   9.36    262      428.9
   04/11/2018 15:20      79.0      78.0       26     41.1      0.00      6.05      68.9     0.39      1013.3     6.3     SSE   167  12.1       S   177   9.37    262      440.9
   04/11/2018 15:10      79.5      78.6       27     42.1      0.00      6.05      68.9     0.39      1013.3     6.4     SSE   153  10.6     SSE   146   9.37    262      458.6
   04/11/2018 15:00      79.5      78.6       26     41.3      0.00      6.05      68.8     0.39      1013.4     5.0     ESE   120   8.9      SE   140   9.38    262      475.7
   04/11/2018 14:50      79.9      78.5       25     40.8      0.00      6.05      68.7     0.39      1013.4     4.8      SE   132  11.2      SE   141   9.38    261      483.1
   04/11/2018 14:40      79.5      78.7       27     41.9      0.00      6.05      68.7     0.39      1013.5     5.3      SE   134   8.7     ESE   103   9.38    261      491.1
   04/11/2018 14:30      79.9      78.8       28     43.3      0.00      6.05      68.6     0.39      1013.6     4.7     ESE   120   9.2      SE   124   9.39    261      506.1
   04/11/2018 14:20      80.5      78.7       28     43.5      0.00      6.05      68.5     0.39      1013.6     5.0      SE   125   8.8      SE   135   9.39    261      520.9
   04/11/2018 14:10      80.9      79.6       27     43.3      0.00      6.05      68.5     0.39      1013.7     3.9     ESE   108   8.9      SE   134   9.39    262      527.2
   04/11/2018 14:00      80.9      79.0       27     43.2      0.00      6.05      68.4     0.39      1013.8     3.1     ENE    74   5.9     NNE    23   9.40    261      542.7
   04/11/2018 13:50      79.7      78.8       27     42.8      0.00      6.05      68.4     0.39      1014.0     3.6     ESE   111   7.1      SE   132   9.40    261      551.3
   04/11/2018 13:40      80.1      78.4       28     42.7      0.00      6.05      68.3     0.39      1014.1     4.2       E    88  10.2      SE   143   9.40    261      551.2
   04/11/2018 13:30      79.0      77.9       28     42.8      0.00      6.05      68.3     0.39      1014.3     4.0      SE   125   7.1      SE   132   9.40    262      569.9
   04/11/2018 13:20      79.5      77.9       29     43.4      0.00      6.05      68.3     0.39      1014.3     3.5     ESE   121   9.3     SSW   202   9.40    262      585.3
   04/11/2018 13:10      79.1      77.7       29     43.5      0.00      6.05      68.2     0.39      1014.4     5.3     SSE   157   9.8       S   172   9.41    261      583.3
   04/11/2018 13:00      78.7      77.8       30     44.0      0.00      6.05      68.2     0.39      1014.6     2.7      SE   132   7.3     SSE   151   9.41    262      588.2
   04/11/2018 12:50      78.6      76.9       31     44.3      0.00      6.05      68.2     0.39      1014.7     3.1      SE   141   6.4     SSE   156   9.41    262      575.7
   04/11/2018 12:40      77.7      76.6       31     44.1      0.00      6.05      68.2     0.39      1015.0     4.5      SE   134   7.5       S   178   9.41    262      574.0
   04/11/2018 12:30      77.6      76.5       31     44.3      0.00      6.05      68.1     0.39      1015.2     4.6     SSE   161   8.8       S   187   9.42    262      572.8
   04/11/2018 12:20      77.9      76.8       31     44.2      0.00      6.05      68.2     0.39      1015.1     4.5      SE   143   8.7      SE   142   9.42    262      566.7
   04/11/2018 12:10      77.9      76.5       31     44.7      0.00      6.05      68.1     0.39      1015.1     3.2       S   171   7.3      SW   227   9.42    262      562.3
   04/11/2018 12:00      76.6      75.7       33     44.8      0.00      6.05      68.1     0.39      1015.1     4.7     SSW   202   8.4      SW   230   9.42    263      557.9
   04/11/2018 11:50      76.6      75.2       35     46.0      0.00      6.05      68.1     0.39      1015.2     4.0      SE   136  10.3      SE   143   9.43    262      551.9
   04/11/2018 11:40      76.5      75.2       37     47.6      0.00      6.05      68.2     0.39      1015.2     3.8     SSW   204   6.6      SW   230   9.43    263      540.6
   04/11/2018 11:30      77.1      75.4       38     49.0      0.00      6.05      68.1     0.39      1015.3     4.0       S   182   7.9       S   176   9.43    263      525.4
   04/11/2018 11:20      77.1      75.8       36     47.8      0.00      6.05      68.1     0.39      1015.2     1.3     WNW   286   3.2     WNW   299   9.43    262      510.1
   04/11/2018 11:10      76.6      75.8       36     47.1      0.00      6.05      68.2     0.39      1015.2     2.7     ENE    64   5.9       E    79   9.43    262      500.2
   04/11/2018 11:00      76.3      74.4       36     46.5      0.00      6.05      68.1     0.39      1015.2     2.6     NNE    30   6.6      NE    38   9.43    263      487.5
   04/11/2018 10:50      74.7      73.8       36     45.6      0.00      6.05      68.2     0.39      1015.2     3.4     NNE    29   6.3      NE    39   9.43    263      474.9
   04/11/2018 10:40      74.4      73.5       35     44.9      0.00      6.05      68.2     0.39      1015.2     2.4     NNE    28   4.9      NE    39   9.43    263      463.8
   04/11/2018 10:30      73.8      73.2       34     43.8      0.00      6.05      68.3     0.39      1015.1     2.3      NE    56   5.2       E    95   9.43    262      446.9
   04/11/2018 10:20      73.6      72.4       34     43.3      0.00      6.05      68.3     0.39      1015.1     2.8     ENE    59   5.7      NE    36   9.43    262      432.1
   04/11/2018 10:10      72.5      71.6       38     45.2      0.00      6.05      68.3     0.39      1015.1     2.3     NNE    15   4.2     NNE    17   9.43    263      412.6
   04/11/2018 10:00      72.1      71.2       38     44.5      0.00      6.05      68.4     0.39      1015.2     2.1     NNE    33   4.7     NNW   341   9.43    262      391.3
   04/11/2018 09:50      71.7      70.5       38     44.2      0.00      6.05      68.4     0.40      1015.0     1.9     NNE    32   5.6     NNE    20   9.43    263      374.1
   04/11/2018 09:40      70.9      69.5       39     43.9      0.00      6.05      68.5     0.40      1015.0     1.5     NNE    28   3.5     NNE    18   9.43    263      354.8
   04/11/2018 09:30      69.7      68.7       39     43.3      0.00      6.05      68.5     0.40      1015.0     2.1      NE    43   4.3     ENE    65   9.43    263      335.2
   04/11/2018 09:20      69.5      68.3       40     43.2      0.00      6.05      68.5     0.40      1015.1     1.6     ENE    61   3.2      SE   125   9.43    263      314.2
   04/11/2018 09:10      68.8      67.0       42     43.9      0.00      6.05      68.5     0.40      1015.1     1.0     NNE    22   2.9     ENE    57   9.43    263      292.0
   04/11/2018 09:00      67.1      66.2       44     44.2      0.00      6.05      68.6     0.40      1015.0     1.9      NE    45   3.6     NNE    32   9.43    263      270.1
   04/11/2018 08:50      67.0      66.3       45     44.8      0.00      6.05      68.7     0.40      1015.0     1.7      NE    45   2.6      NE    46   9.43    264      244.7
   04/11/2018 08:40      66.5      65.6       46     44.6      0.00      6.05      68.7     0.40      1015.0     1.2     ENE    75   3.0       E    80   9.43    264      219.4
   04/11/2018 08:30      65.8      64.4       47     44.2      0.00      6.05      68.7     0.40      1015.1     1.1     ENE    62   3.5      NE    52   9.43    264      194.7
   04/11/2018 08:20      64.5      62.4       49     43.8      0.00      6.05      68.8     0.40      1015.1     0.7       N   358   2.6       N     9   9.43    264      167.6
   04/11/2018 08:10      62.5      61.1       52     43.8      0.00      6.05      68.8     0.40      1015.2     1.5     NNW   343   3.0      NW   311   9.43    266      141.4
   04/11/2018 08:00      61.2      59.2       56     44.2      0.00      6.05      68.9     0.40      1015.1     1.5      NW   326   2.3       N   353   9.43    266      113.8
   04/11/2018 07:50      59.4      58.0       59     44.5      0.00      6.05      68.9     0.40      1014.9     1.3      NW   315   2.3      NW   306   9.43    266       84.6
   04/11/2018 07:40      58.2      56.8       63     44.8      0.00      6.05      68.9     0.40      1014.8     0.2      NW   320   2.0     NNW   336   9.43    266       33.5
   04/11/2018 07:30      56.9      54.9       66     44.7      0.00      6.05      68.9     0.40      1014.8     0.0     NNE    29   0.3     NNE    29   9.43    266      -12.6
   04/11/2018 07:20      55.0      54.2       68     44.1      0.00      6.05      69.0     0.40      1014.8     0.0       N     0   0.0       E    93   9.43    267      -38.9
   04/11/2018 07:10      54.5      52.7       69     43.8      0.00      6.05      69.0     0.40      1014.7     0.6      SE   130   1.2      SE   134   9.43    266      -43.3
   04/11/2018 07:00      52.9      51.9       71     43.5      0.00      6.05      69.1     0.40      1014.7     1.1      SE   144   2.3      SE   138   9.43    267      -47.6
   04/11/2018 06:50      53.1      52.0       71     43.2      0.00      6.05      69.1     0.40      1014.7     0.8     SSE   162   1.8      SE   145   9.43    267      -53.9
   04/11/2018 06:40      53.3      52.7       69     43.0      0.00      6.05      69.1     0.40      1014.7     0.6     SSE   159   1.0       S   179   9.43    267      -58.5
   04/11/2018 06:30      53.2      52.7       68     42.8      0.00      6.05      69.2     0.40      1014.7     0.6     SSE   147   1.2     SSE   163   9.44    266      -61.7
   04/11/2018 06:20      53.2      52.7       68     42.8      0.00      6.05      69.2     0.40      1014.6     0.0       N   355   0.1       N   355   9.44    266      -62.1
   04/11/2018 06:10      53.5      53.0       69     43.2      0.00      6.05      69.3     0.40      1014.5     0.0     ESE   111   0.5     ESE   111   9.44    266      -62.2
   04/11/2018 06:00      53.7      53.0       68     43.1      0.00      6.05      69.2     0.40      1014.3     0.3     SSE   158   1.0     SSE   166   9.44    266      -62.3
   04/11/2018 05:50      53.6      53.2       68     42.9      0.00      6.05      69.3     0.40      1014.2     0.4     SSE   165   0.9       S   178   9.44    266      -62.4
   04/11/2018 05:40      53.8      53.3       67     42.9      0.00      6.05      69.3     0.40      1014.1     0.6     SSE   155   2.7      SE   140   9.44    266      -63.6
   04/11/2018 05:30      54.5      53.6       66     42.9      0.00      6.05      69.4     0.40      1014.2     1.2     SSE   151   2.3     SSE   147   9.44    266      -64.2
   04/11/2018 05:20      54.5      53.9       66     43.1      0.00      6.05      69.4     0.40      1014.3     0.7     SSE   158   1.3     SSE   154   9.44    266      -63.9
   04/11/2018 05:10      54.3      53.7       66     42.9      0.00      6.05      69.5     0.40      1014.3     0.4     SSE   163   1.3       S   170   9.44    266      -64.7
   04/11/2018 05:00      54.5      54.0       65     42.7      0.00      6.05      69.5     0.40      1014.2     0.9     SSE   157   1.6      SE   138   9.44    266      -64.5
   04/11/2018 04:50      55.1      54.2       63     42.3      0.00      6.05      69.5     0.40      1014.1     1.1      SE   145   1.7      SE   144   9.44    266      -63.9
   04/11/2018 04:40      55.4      54.8       61     41.6      0.00      6.05      69.5     0.40      1014.0     0.8       S   183   2.1       S   188   9.44    266      -62.7
   04/11/2018 04:30      55.2      54.6       60     41.5      0.00      6.05      69.6     0.40      1013.9     0.6     SSE   163   1.4      SE   142   9.44    266      -61.3
   04/11/2018 04:20      56.0      55.1       58     41.1      0.00      6.05      69.6     0.40      1014.0     0.8     SSE   160   1.4      SE   141   9.44    266      -57.5
   04/11/2018 04:10      56.3      55.7       56     40.6      0.00      6.05      69.6     0.40      1014.0     0.3     SSE   157   0.9     SSE   159   9.44    266      -53.0
   04/11/2018 04:00      56.4      55.9       55     39.9      0.00      6.05      69.7     0.40      1014.0     0.1     SSE   158   0.6     SSE   159   9.44    266      -51.4
   04/11/2018 03:50      56.2      55.8       54     39.7      0.00      6.05      69.7     0.40      1014.0     0.5       S   172   1.3     SSE   148   9.45    266      -54.5
   04/11/2018 03:40      56.4      55.9       53     39.3      0.00      6.05      69.7     0.40      1014.0     0.4       S   169   1.1       S   185   9.45    265      -56.9
   04/11/2018 03:30      56.0      55.5       54     39.5      0.00      6.05      69.8     0.40      1014.0     0.3       S   185   1.1     SSW   212   9.44    266      -58.8
   04/11/2018 03:20      56.4      55.5       55     40.0      0.00      6.05      69.8     0.40      1014.2     0.0     SSW   206   1.0     SSW   204   9.45    265      -60.7
   04/11/2018 03:10      56.8      56.1       54     40.2      0.00      6.05      69.8     0.40      1014.2     0.2      SE   139   0.8      SE   139   9.45    265      -62.2
   04/11/2018 03:00      57.3      56.4       55     40.8      0.00      6.05      69.8     0.40      1014.3     0.3     SSE   168   1.0       S   179   9.45    265      -62.6
   04/11/2018 02:50      57.5      57.0       53     40.3      0.00      6.05      69.9     0.40      1014.4     0.9     SSE   152   1.8     SSE   148   9.45    265      -60.3
   04/11/2018 02:40      57.2      56.4       54     40.4      0.00      6.05      69.9     0.40      1014.4     0.9     SSW   199   1.9       S   183   9.45    265      -59.9
   04/11/2018 02:30      57.1      56.3       55     40.5      0.00      6.05      69.9     0.40      1014.2     1.0     SSE   154   2.1      SE   143   9.45    265      -61.3
   04/11/2018 02:20      57.7      56.6       54     40.5      0.00      6.05      70.0     0.40      1014.4     1.1     SSE   164   2.4     SSE   156   9.45    265      -60.5
   04/11/2018 02:10      57.9      57.1       52     40.1      0.00      6.05      70.0     0.40      1014.5     0.9     SSE   155   1.9      SE   136   9.45    264      -60.6
   04/11/2018 02:00      58.2      57.0       52     39.8      0.00      6.05      70.0     0.40      1014.6     0.5     SSE   163   1.4       S   186   9.45    265      -61.1
   04/11/2018 01:50      58.3      57.8       50     39.4      0.00      6.05      70.1     0.40      1014.7     1.0       S   180   1.8     SSW   201   9.45    264      -61.4
   04/11/2018 01:40      59.0      58.1       48     39.2      0.00      6.05      70.1     0.40      1014.7     1.7      SW   220   2.3     SSW   213   9.45    264      -61.0
   04/11/2018 01:30      59.1      58.5       48     39.0      0.00      6.05      70.1     0.40      1014.7     0.7     SSW   212   2.0      SW   231   9.45    264      -61.9
   04/11/2018 01:20      59.3      58.7       48     39.1      0.00      6.05      70.1     0.40      1014.7     0.4       S   188   1.5     SSW   202   9.45    264      -63.4
   04/11/2018 01:10      59.9      58.7       48     39.4      0.00      6.05      70.2     0.40      1014.7     0.5     SSE   155   2.0      SE   136   9.45    264      -63.3
   04/11/2018 01:00      60.2      59.6       46     39.1      0.00      6.05      70.2     0.40      1015.0     0.3      SE   145   1.0     ESE   106   9.46    264      -63.3
   04/11/2018 00:50      60.4      59.7       45     38.7      0.00      6.05      70.2     0.40      1015.2     0.8       S   182   2.0     WSW   242   9.46    264      -63.2
   04/11/2018 00:40      59.8      59.1       47     39.1      0.00      6.05      70.2     0.40      1015.2     0.3      SW   229   1.8     WSW   242   9.46    264      -64.3
   04/11/2018 00:30      59.4      58.6       48     39.3      0.00      6.05      70.2     0.40      1015.2     0.9       S   173   2.3     SSW   193   9.46    264      -65.7
   04/11/2018 00:20      59.9      58.5       48     39.4      0.00      6.05      70.3     0.40      1015.3     0.9     SSE   160   2.0       S   174   9.46    264      -66.1
   04/11/2018 00:10      60.1      59.6       46     38.8      0.00      6.05      70.2     0.40      1015.4     0.6       S   173   1.5       S   170   9.46    264      -67.4
   04/11/2018 00:00      61.6      59.8       45     38.9      0.00      6.05      70.3     0.40      1015.4     0.7     SSE   152   1.4      SE   145   9.46    264      -68.9
   04/10/2018 23:50      62.0      61.3       41     37.8      0.00      6.05      70.3     0.40      1015.4     1.3       S   182   2.5       S   184   9.46    264      -68.7
   04/10/2018 23:40      62.9      61.0       41     37.5      0.00      6.05      70.3     0.40      1015.3     0.7       S   172   1.7       S   172   9.47    264      -69.2
   04/10/2018 23:30      63.0      61.9       39     37.1      0.00      6.05      70.3     0.40      1015.5     0.9      SW   226   1.7     WSW   245   9.47    264      -67.5
   04/10/2018 23:20      62.9      61.8       38     36.4      0.00      6.05      70.3     0.40      1015.4     0.4     SSE   162   1.1       S   177   9.47    264      -68.9
   04/10/2018 23:10      63.9      62.6       37     36.7      0.00      6.05      70.3     0.40      1015.5     1.1       S   181   1.9      SW   221   9.47    264      -67.9
   04/10/2018 23:00      63.7      62.7       38     36.9      0.00      6.05      70.3     0.40      1015.5     1.0      SW   229   2.2     WSW   238   9.47    264      -66.9
   04/10/2018 22:50      63.1      62.5       39     37.3      0.00      6.05      70.3     0.40      1015.3     0.0       N    10   0.8       N    10   9.47    263      -67.0
   04/10/2018 22:40      63.2      62.4       38     36.9      0.00      6.05      70.3     0.40      1015.4     0.2      SW   231   1.1     SSW   201   9.47    263      -66.9
   04/10/2018 22:30      64.1      62.7       39     37.9      0.00      6.05      70.3     0.40      1015.5     0.6     SSE   156   1.9      SE   135   9.47    264      -70.2
   04/10/2018 22:20      65.4      63.8       36     37.4      0.00      6.05      70.3     0.40      1015.7     0.8     SSE   159   1.4     SSE   168   9.48    263      -72.6
   04/10/2018 22:10      65.3      64.7       36     37.2      0.00      6.05      70.3     0.40      1015.7     0.4     SSW   210   1.7     SSW   211   9.48    263      -74.3
   04/10/2018 22:00      67.0      64.9       36     38.1      0.00      6.05      70.3     0.40      1015.6     0.3      SE   145   1.3       S   188   9.48    263      -77.5
   04/10/2018 21:50      68.4      66.7       32     36.7      0.00      6.05      70.3     0.40      1015.6     0.6      SE   144   2.2     SSW   208   9.48    263      -80.0
   04/10/2018 21:40      69.0      68.1       31     37.0      0.00      6.05      70.3     0.40      1015.6     0.9     SSW   192   2.3      SW   214   9.48    263      -81.5
   04/10/2018 21:30      69.1      68.6       33     38.3      0.00      6.05      70.3     0.40      1015.7     1.8     SSW   206   3.0     SSW   204   9.49    263      -79.6
   04/10/2018 21:20      69.8      68.7       33     38.6      0.00      6.05      70.3     0.40      1015.7     1.2     SSW   209   2.3      SW   220   9.49    263      -79.7
   04/10/2018 21:10      70.6      69.5       33     39.4      0.00      6.05      70.2     0.40      1015.7     0.8     SSW   192   1.8       S   172   9.49    263      -81.6
   04/10/2018 21:00      71.0      70.3       34     41.1      0.00      6.05      70.2     0.40      1015.6     1.6     SSW   193   3.3      SW   220   9.49    262      -84.5
   04/10/2018 20:50      71.7      70.8       34     41.5      0.00      6.05      70.2     0.40      1015.5     1.9     SSW   206   3.9      SW   229   9.49    263      -83.4
   04/10/2018 20:40      71.9      71.3       32     40.1      0.00      6.05      70.2     0.40      1015.5     1.4     SSW   205   3.1     SSW   199   9.50    262      -86.1
   04/10/2018 20:30      72.2      71.5       34     41.8      0.00      6.05      70.2     0.40      1015.4     2.7     SSW   202   4.0     SSW   211   9.50    262      -85.7
   04/10/2018 20:20      73.7      72.1       33     42.3      0.00      6.05      70.1     0.40      1015.3     2.4      SW   214   3.5      SW   233   9.50    262      -86.5
   04/10/2018 20:10      74.3      73.6       31     41.7      0.00      6.05      70.1     0.40      1015.2     1.6     WNW   286   3.7       W   269   9.50    262      -89.3
   04/10/2018 20:00      75.2      74.1       30     41.3      0.00      6.05      70.0     0.40      1015.1     2.1     WNW   293   4.8      NW   318   9.51    262      -90.5
   04/10/2018 19:50      76.3      74.9       31     42.5      0.00      6.05      70.0     0.40      1014.9     2.5     WNW   294   6.3     NNW   329   9.51    262      -91.9
   04/10/2018 19:40      77.4      76.0       31     43.5      0.00      6.05      70.0     0.40      1014.9     2.5       W   275   5.5     WSW   241   9.51    262      -93.0
   04/10/2018 19:30      78.2      77.2       24     38.0      0.00      6.05      70.0     0.40      1014.9     2.8     WSW   249   5.4       W   271   9.52    262      -90.5
   04/10/2018 19:20      78.9      77.9       20     34.2      0.00      6.05      69.9     0.40      1014.8     2.5     SSW   193   3.5       S   187   9.52    261      -87.6
   04/10/2018 19:10      79.9      78.7       19     33.9      0.00      6.05      69.9     0.40      1014.7     2.1       S   175   3.1       S   177   9.52    261      -85.7
   04/10/2018 19:00      81.2      79.6       18     33.2      0.00      6.05      69.9     0.40      1014.6     3.1     SSE   161   5.3       S   181   9.53    261      -66.7
   04/10/2018 18:50      82.9      80.8       18     33.6      0.00      6.05      69.8     0.40      1014.6     3.2     SSE   161   5.9      SE   146   9.53    261      -54.3
   04/10/2018 18:40      83.7      82.5       16     32.1      0.00      6.05      69.8     0.40      1014.5     3.3       S   187   5.9     SSW   192   9.54    261      -36.5
   04/10/2018 18:30      84.4      83.4       15     31.6      0.00      6.05      69.7     0.40      1014.5     4.3       S   186   8.0       S   190   9.54    261        1.3
   04/10/2018 18:20      84.7      83.9       15     31.4      0.00      6.05      69.7     0.40      1014.5     3.7       S   173   7.1      SW   218   9.54    261       34.8
   04/10/2018 18:10      84.7      84.2       15     31.4      0.00      6.05      69.6     0.40      1014.4     4.0       S   170   6.8     SSW   197   9.55    261       42.3
   04/10/2018 18:00      85.8      84.2       14     30.4      0.00      6.05      69.5     0.40      1014.3     4.9       S   180   7.6     SSW   191   9.55    261        6.1
   04/10/2018 17:50      85.9      85.5       13     29.6      0.00      6.05      69.5     0.40      1014.3     5.0     SSE   163   9.7     SSW   192   9.56    261       71.6
   04/10/2018 17:40      86.5      85.8       13     29.3      0.00      6.05      69.4     0.40      1014.3     5.2     SSE   147   9.0       S   180   9.56    261      114.6
   04/10/2018 17:30      87.0      86.1       13     29.7      0.00      6.05      69.4     0.40      1014.3     5.9      SE   145  10.1     SSE   160   9.57    261      140.1
   04/10/2018 17:20      87.6      86.5       13     30.1      0.00      6.05      69.3     0.40      1014.3     5.3      SE   143  10.1      SE   130   9.57    261      151.2
   04/10/2018 17:10      87.7      87.3       13     30.4      0.00      6.05      69.2     0.40      1014.3     4.6     SSE   160   7.4     SSE   150   9.57    261      168.8
   04/10/2018 17:00      88.3      87.1       13     29.8      0.00      6.05      69.1     0.40      1014.3     6.0     SSE   161  10.8       S   186   9.45    261      198.9
   04/10/2018 16:50      88.5      87.6       12     29.9      0.00      6.05      69.1     0.40      1014.3     5.8       S   173   9.7       S   171   9.25    261      237.8
   04/10/2018 16:40      89.4      88.1       12     30.4      0.00      6.05      69.0     0.40      1014.3     6.5       S   175  10.8       S   172   9.26    261      258.9
   04/10/2018 16:30      89.4      88.3       13     31.0      0.00      6.05      68.9     0.40      1014.5     5.6       S   184  10.1     SSW   195   9.26    261      280.7
   04/10/2018 16:20      89.4      88.7       12     30.4      0.00      6.05      68.9     0.40      1014.6     5.7       S   176   9.2       S   179   9.27    261      311.0
   04/10/2018 16:10      89.4      88.6       12     30.4      0.00      6.05      68.8     0.40      1014.7     5.9     SSE   169  10.6      SE   131   9.29    261      333.8
   04/10/2018 16:00      89.9      89.1       12     30.3      0.00      6.05      68.7     0.40      1014.8     6.4     SSE   156   9.2     ESE   118   9.29    261      362.1
   04/10/2018 15:50      90.2      89.2       12     29.3      0.00      6.05      68.6     0.40      1014.9     5.7     SSE   156   9.9      SE   132   9.30    261      380.7
   04/10/2018 15:40      90.1      89.3       11     28.1      0.00      6.05      68.5     0.40      1014.9     5.9       S   172   9.9       S   185   9.30    261      403.6
   04/10/2018 15:30      90.3      89.4       10     27.0      0.00      6.05      68.5     0.40      1015.0     6.4     SSE   158  11.0     SSE   160   9.31    261      418.4
   04/10/2018 15:20      90.3      89.8       10     25.9      0.00      6.05      68.4     0.40      1015.1     5.8     SSE   165  10.7      SE   138   9.31    261      436.9
   04/10/2018 15:10      91.2      89.8        9     24.0      0.00      6.05      68.3     0.40      1015.1     6.7       S   170  13.5       S   179   9.32    261      452.1
   04/10/2018 15:00      91.1      90.1        9     25.1      0.00      6.05      68.3     0.40      1015.2     5.4       S   170   9.5     SSW   193   9.32    261      462.7
   04/10/2018 14:50      90.8      89.6       10     26.6      0.00      6.05      68.2     0.40      1015.2     6.5     SSE   167  12.1      SE   127   9.33    261      447.9
   04/10/2018 14:40      91.3      90.1       10     27.0      0.00      6.05      68.1     0.40      1015.3     6.2      SE   135  13.6       S   181   9.33    261      487.9
   04/10/2018 14:30      91.2      90.6        9     25.5      0.00      6.05      68.0     0.40      1015.3     4.9     SSE   159   9.2      SE   129   9.33    260      491.3
   04/10/2018 14:20      91.6      90.9       10     26.3      0.00      6.05      68.0     0.40      1015.4     4.8     SSE   166  10.8       S   177   9.34    260      508.7
   04/10/2018 14:10      90.9      90.4        9     23.9      0.00      6.05      67.9     0.40      1015.5     5.4       S   173   9.6       S   182   9.34    261      506.6
   04/10/2018 14:00      91.4      90.5        8     21.3      0.00      6.05      67.8     0.40      1015.6     5.6       S   175   9.1      SE   139   9.35    260      516.3
   04/10/2018 13:50      92.0      91.0        9     23.8      0.00      6.05      67.8     0.40      1015.6     4.4     SSE   168  10.5     SSW   197   9.35    261      529.8
   04/10/2018 13:40      92.2      91.3        9     24.9      0.00      6.05      67.7     0.40      1015.7     4.8     SSW   200   9.1     SSW   208   9.35    261      543.2
   04/10/2018 13:30      92.1      90.4       12     30.4      0.00      6.05      67.7     0.40      1015.7     3.1     SSW   205   6.9       S   178   9.36    261      541.3
   04/10/2018 13:20      91.4      90.6       17     40.2      0.00      6.05      67.6     0.40      1015.8     3.2     WSW   242   5.8      NW   310   9.36    261      541.1
   04/10/2018 13:10      91.2      90.1       17     40.0      0.00      6.05      67.5     0.40      1015.9     2.9       N   351   6.3       N   353   9.36    261      533.3
   04/10/2018 13:00      90.9      89.8       17     39.1      0.00      6.05      67.6     0.40      1016.1     3.0      NW   315   7.2     WNW   297   9.36    261      538.5
   04/10/2018 12:50      90.6      89.3       17     39.1      0.00      6.05      67.5     0.40      1016.2     2.6     NNW   342   6.7     NNE    17   9.36    261      535.9
   04/10/2018 12:40      90.9      89.2       17     38.8      0.00      6.05      67.5     0.40      1016.4     3.0       N   350   7.2       N     0   9.36    261      531.9
   04/10/2018 12:30      90.9      89.5       17     39.3      0.00      6.05      67.5     0.40      1016.5     1.9     NNE    29   4.7      NE    43   9.36    261      530.4
   04/10/2018 12:20      90.0      88.7       17     38.5      0.00      6.05      67.5     0.40      1016.7     1.5     WNW   285   4.2     SSE   148   9.37    261      522.4
   04/10/2018 12:10      89.9      88.1       16     37.7      0.00      6.05      67.4     0.40      1016.7     1.5       E    90   3.4     ESE   122   9.37    261      545.0
   04/10/2018 12:00      88.5      87.9       16     36.5      0.00      6.05      67.4     0.40      1016.7     1.8       N   357   3.3       N     4   9.37    261      543.2
   04/10/2018 11:50      88.4      87.2       17     36.8      0.00      6.05      67.4     0.40      1016.8     2.6       S   179   4.9     ESE   107   9.37    261      486.2
   04/10/2018 11:40      88.5      87.5       16     36.3      0.00      6.05      67.5     0.40      1017.0     1.7      SW   235   4.0       W   262   9.37    261      482.2
   04/10/2018 11:30      87.5      86.1       16     35.7      0.00      6.05      67.4     0.40      1017.1     1.9      NW   315   3.4       N   353   9.37    261      517.4
   04/10/2018 11:20      86.3      85.6       16     34.8      0.00      6.05      67.5     0.40      1017.1     1.7     NNW   346   3.4     NNW   340   9.37    261      512.9
   04/10/2018 11:10      86.2      85.5       16     34.5      0.00      6.05      67.5     0.40      1017.2     1.5     NNE    13   3.5     ENE    70   9.37    261      459.1
   04/10/2018 11:00      85.5      84.0       16     34.2      0.00      6.05      67.5     0.40      1017.3     1.3      NE    44   3.8      NE    52   9.37    261      476.5
   04/10/2018 10:50      84.2      82.8       17     34.3      0.00      6.05      67.5     0.40      1017.2     1.6      NE    38   3.8       N     0   9.37    261      475.1
   04/10/2018 10:40      83.1      82.3       18     35.0      0.00      6.05      67.5     0.40      1017.2     1.4       N   355   3.8     NNE    19   9.37    261      449.1
   04/10/2018 10:30      82.6      80.6       20     36.1      0.00      6.05      67.5     0.40      1017.2     1.4     NNW   342   3.1       N   355   9.37    261      443.5
   04/10/2018 10:20      80.8      79.4       21     36.2      0.00      6.05      67.6     0.40      1017.1     1.8       N     4   3.9       N   352   9.37    261      411.0
   04/10/2018 10:10      79.5      78.6       22     37.0      0.00      6.05      67.6     0.40      1017.1     1.6       N     2   3.3      NE    36   9.37    261      420.0
   04/10/2018 10:00      79.0      77.0       23     37.0      0.00      6.05      67.6     0.40      1017.1     1.1     ENE    68   2.8     ESE   102   9.37    261      387.8
   04/10/2018 09:50      77.0      75.7       26     39.1      0.00      6.05      67.7     0.40      1017.1     1.1     NNE    15   2.7     NNE    21   9.37    262      327.3
   04/10/2018 09:40      75.8      75.2       28     39.8      0.00      6.05      67.7     0.40      1017.1     1.5       N     8   2.5     NNE    27   9.37    262      309.6
   04/10/2018 09:30      75.5      73.7       31     41.9      0.00      6.05      67.8     0.40      1017.1     1.2     NNE    25   3.1     NNE    15   9.37    262      344.3
   04/10/2018 09:20      73.9      73.2       33     42.9      0.00      6.05      67.8     0.40      1017.2     1.4       N     4   2.6       N     2   9.37    262      305.8
   04/10/2018 09:10      73.3      71.5       35     43.3      0.00      6.05      67.8     0.40      1017.3     0.9       N   351   2.6       N     6   9.37    262      279.5
   04/10/2018 09:00      71.9      71.0       37     43.7      0.00      6.05      67.9     0.40      1017.3     1.2       N     7   2.9       N   349   9.37    263      267.9
   04/10/2018 08:50      70.9      68.7       39     43.5      0.00      6.05      67.9     0.40      1017.3     0.8     NNE    12   1.5     NNE    16   9.37    263      244.6
   04/10/2018 08:40      68.9      68.2       41     43.6      0.00      6.05      68.0     0.40      1017.3     1.9     NNW   337   3.2      NW   325   9.37    264      219.5
   04/10/2018 08:30      68.4      67.0       43     44.1      0.00      6.05      68.0     0.40      1017.4     1.2     WNW   291   2.5      NW   310   9.37    264      160.5
   04/10/2018 08:20      67.2      65.8       44     43.9      0.00      6.05      68.0     0.40      1017.3     1.2       W   280   2.9     WNW   285   9.37    264      143.5
   04/10/2018 08:10      66.1      64.1       46     43.7      0.00      6.05      68.1     0.41      1017.3     0.8     WNW   284   2.5     WSW   243   9.37    266      116.6
   04/10/2018 08:00      64.1      60.5       51     43.7      0.00      6.05      68.1     0.40      1017.4     0.0       N     0   0.0     NNE    30   9.37    266      107.4
   04/10/2018 07:50      60.3      57.9       57     44.0      0.00      6.05      68.2     0.41      1017.3     0.0       N     0   0.0      SE   144   9.37    266       78.4
   04/10/2018 07:40      57.8      56.2       65     45.1      0.00      6.05      68.2     0.41      1017.2     0.0       N     0   0.0      SE   143   9.37    266       34.7
   04/10/2018 07:30      56.4      55.4       66     44.5      0.00      6.05      68.2     0.41      1017.1     0.2     SSE   148   0.7     SSE   152   9.37    266      -11.3
   04/10/2018 07:20      55.7      54.7       65     43.6      0.00      6.05      68.3     0.41      1017.1     0.0     SSE   154   0.6     SSE   154   9.37    266      -31.3
   04/10/2018 07:10      54.9      54.4       65     43.0      0.00      6.05      68.3     0.41      1017.0     0.0     SSE   161   0.1     SSE   168   9.37    266      -37.8
   04/10/2018 07:00      54.7      54.0       66     43.3      0.00      6.05      68.3     0.41      1017.0     0.3       S   174   0.9     SSW   191   9.37    266      -42.4
   04/10/2018 06:50      54.7      54.1       66     43.3      0.00      6.05      68.3     0.41      1016.9     0.6       S   170   1.0       S   179   9.37    266      -48.2
   04/10/2018 06:40      54.6      53.8       62     41.4      0.00      6.05      68.4     0.41      1016.8     0.8       S   180   1.2     SSW   194   9.37    266      -51.7
   04/10/2018 06:30      54.7      54.0       63     42.0      0.00      6.05      68.4     0.41      1016.8     0.4     SSE   160   1.1     SSE   150   9.37    266      -52.9
   04/10/2018 06:20      54.8      54.3       61     41.4      0.00      6.05      68.5     0.41      1016.8     0.5     SSW   196   1.0     SSW   201   9.37    266      -54.3
   04/10/2018 06:10      54.9      54.4       60     41.2      0.00      6.05      68.5     0.41      1016.7     0.0     SSW   200   0.7     SSW   200   9.38    266      -55.9
   04/10/2018 06:00      54.7      54.3       60     40.8      0.00      6.05      68.5     0.41      1016.7     0.3       S   191   1.6       S   190   9.38    266      -57.3
   04/10/2018 05:50      55.2      54.5       61     41.4      0.00      6.05      68.5     0.41      1016.7     0.7       S   178   1.7     SSW   212   9.38    266      -57.7
   04/10/2018 05:40      55.1      54.7       60     41.3      0.00      6.05      68.6     0.41      1016.6     0.2     SSE   169   0.9     SSE   163   9.38    266      -57.5
   04/10/2018 05:30      55.5      54.8       60     41.5      0.00      6.05      68.6     0.41      1016.6     0.5     SSE   157   1.2      SE   145   9.38    266      -57.1
   04/10/2018 05:20      55.7      55.2       58     41.0      0.00      6.05      68.6     0.41      1016.5     0.5       S   173   1.4       S   186   9.38    266      -57.8
   04/10/2018 05:10      55.7      55.0       60     41.6      0.00      6.05      68.6     0.41      1016.4     0.2     SSE   164   0.9     SSE   162   9.38    266      -58.9
   04/10/2018 05:00      56.0      55.0       62     42.6      0.00      6.05      68.7     0.41      1016.3     0.4     SSE   160   1.1      SE   144   9.38    266      -58.5
   04/10/2018 04:50      56.1      55.7       61     42.8      0.00      6.05      68.7     0.41      1016.3     0.0     SSE   156   0.5     SSE   156   9.38    266      -58.4
   04/10/2018 04:40      56.9      55.9       61     43.2      0.00      6.05      68.8     0.41      1016.3     0.0     SSE   167   0.3       S   182   9.38    266      -60.2
   04/10/2018 04:30      57.3      56.5       60     43.3      0.00      6.05      68.8     0.41      1016.3     0.3     SSE   157   0.9     SSE   150   9.38    266      -60.8
   04/10/2018 04:20      57.2      56.7       59     42.9      0.00      6.05      68.8     0.41      1016.3     0.3     SSE   163   1.0     SSE   168   9.38    266      -62.0
   04/10/2018 04:10      57.6      56.9       58     42.6      0.00      6.05      68.8     0.41      1016.4     0.4       S   185   2.0     WSW   257   9.38    265      -61.4
   04/10/2018 04:00      57.6      57.2       57     42.1      0.00      6.05      68.8     0.41      1016.4     0.9     SSE   154   2.1      SE   143   9.38    265      -59.2
   04/10/2018 03:50      58.2      57.1       55     41.4      0.00      6.05      68.9     0.41      1016.3     0.6     SSE   147   1.4      SE   135   9.38    265      -57.6
   04/10/2018 03:40      58.1      57.2       53     40.7      0.00      6.05      68.9     0.41      1016.4     0.8       S   170   1.7     SSW   198   9.38    264      -54.7
   04/10/2018 03:30      58.2      57.2       52     40.0      0.00      6.05      69.0     0.41      1016.4     0.9     SSE   156   1.5      SE   146   9.38    264      -54.2
   04/10/2018 03:20      58.4      57.7       49     39.1      0.00      6.05      69.0     0.41      1016.4     0.5     SSE   163   1.2     SSE   158   9.39    264      -56.2
   04/10/2018 03:10      59.2      58.2       47     38.5      0.00      6.05      69.0     0.41      1016.5     0.8     SSE   161   1.8     SSE   154   9.39    264      -58.2
   04/10/2018 03:00      59.3      58.9       45     37.6      0.00      6.05      69.0     0.41      1016.6     0.5     SSE   160   1.0     SSE   157   9.39    264      -59.9
   04/10/2018 02:50      59.1      58.6       44     37.0      0.00      6.05      69.0     0.41      1016.6     0.9     SSE   162   1.7     SSW   193   9.39    264      -61.0
   04/10/2018 02:40      59.6      58.7       43     36.7      0.00      6.05      69.1     0.41      1016.8     0.7       S   171   1.2     SSE   167   9.39    264      -61.7
   04/10/2018 02:30      59.6      59.1       42     36.0      0.00      6.05      69.0     0.41      1016.8     0.8     SSW   197   1.9       S   191   9.39    264      -63.1
   04/10/2018 02:20      59.7      59.1       41     35.9      0.00      6.05      69.1     0.41      1016.8     0.8       S   174   2.1      SE   140   9.39    264      -64.3
   04/10/2018 02:10      60.1      59.3       41     36.0      0.00      6.05      69.1     0.41      1016.8     0.7       S   188   1.6     WSW   244   9.39    264      -65.7
   04/10/2018 02:00      60.7      59.8       40     35.6      0.00      6.05      69.2     0.41      1016.8     0.4     SSW   195   1.4      SE   135   9.39    264      -65.5
   04/10/2018 01:50      61.6      60.4       40     36.3      0.00      6.05      69.1     0.41      1016.7     0.2      SE   140   1.1      SE   134   9.39    264      -65.2
   04/10/2018 01:40      61.8      61.2       38     35.4      0.00      6.05      69.2     0.41      1016.7     0.2     SSE   161   1.1     SSE   161   9.40    264      -64.0
   04/10/2018 01:30      61.8      61.3       38     36.0      0.00      6.05      69.2     0.41      1016.6     0.8     SSE   152   1.4      SE   146   9.40    264      -65.2
   04/10/2018 01:20      62.0      61.0       40     36.7      0.00      6.05      69.2     0.41      1016.6     1.3     SSE   162   1.7     SSE   159   9.40    264      -66.8
   04/10/2018 01:10      62.6      61.6       38     36.4      0.00      6.05      69.2     0.41      1016.6     1.1     SSE   162   1.6       S   170   9.40    263      -68.5
   04/10/2018 01:00      62.7      61.8       38     36.0      0.00      6.05      69.2     0.41      1016.5     1.0       S   172   2.2       S   175   9.40    263      -69.0
   04/10/2018 00:50      62.6      61.6       37     35.4      0.00      6.05      69.3     0.41      1016.5     1.1     SSE   164   2.2     SSE   148   9.40    263      -69.5
   04/10/2018 00:40      63.2      62.1       36     35.5      0.00      6.05      69.3     0.41      1016.4     1.4     SSE   153   2.9      SE   142   9.40    263      -70.6
   04/10/2018 00:30      64.6      63.0       34     34.6      0.00      6.05      69.3     0.41      1016.3     1.2     SSE   164   2.4     SSE   151   9.40    263      -70.7
   04/10/2018 00:20      65.2      64.3       31     33.5      0.00      6.05      69.3     0.41      1016.2     0.5     SSE   168   1.1       S   186   9.41    263      -70.7
   04/10/2018 00:10      66.1      64.9       30     33.2      0.00      6.05      69.3     0.41      1016.2     0.7       S   175   1.9      SW   214   9.41    263      -69.4
   04/10/2018 00:00      66.8      65.8       29     32.8      0.00      6.05      69.3     0.41      1016.1     1.0       S   178   2.5     SSW   207   9.41    262      -69.7
   04/09/2018 23:50      67.3      66.5       27     32.2      0.00      6.05      69.2     0.41      1016.0     0.4     SSE   165   2.4     SSW   201   9.41    262      -71.4
   04/09/2018 23:40      68.4      66.9       27     32.1      0.00      6.05      69.3     0.41      1015.9     0.3      SW   215   3.0     SSW   201   9.41    262      -72.0
   04/09/2018 23:30      69.0      68.1       25     31.0      0.00      6.05      69.3     0.41      1015.9     0.3     SSE   151   1.3       S   179   9.41    262      -72.3
   04/09/2018 23:20      70.3      68.7       25     31.6      0.00      6.05      69.3     0.41      1015.9     0.2     ESE   119   0.8     ENE    67   9.42    262      -74.7
   04/09/2018 23:10      72.0      70.1       23     31.7      0.00      6.05      69.3     0.41      1016.0     1.0      SE   132   1.9      SE   134   9.42    262      -76.6
   04/09/2018 23:00      72.9      71.8       22     31.2      0.00      6.05      69.3     0.41      1015.9     0.4       E    83   1.5     ESE   112   9.42    262      -79.5
   04/09/2018 22:50      73.5      72.4       21     30.8      0.00      6.05      69.3     0.41      1015.9     1.6     SSE   168   3.5     SSE   160   9.42    262      -80.6
   04/09/2018 22:40      73.8      72.8       22     31.9      0.00      6.05      69.3     0.41      1015.8     1.6       S   175   3.1       S   171   9.42    262      -81.2
   04/09/2018 22:30      74.3      73.5       21     32.0      0.00      6.05      69.3     0.41      1015.7     2.0       S   189   5.3     SSW   212   9.42    262      -83.1
   04/09/2018 22:20      74.3      73.5       22     32.9      0.00      6.05      69.3     0.41      1015.8     2.3     SSW   205   4.4       W   261   9.43    262      -81.7
   04/09/2018 22:10      74.6      74.1       21     32.5      0.00      6.05      69.3     0.41      1015.8     2.3     SSW   200   3.8       S   188   9.43    262      -81.8
   04/09/2018 22:00      74.4      73.0       22     33.0      0.00      6.05      69.3     0.41      1015.8     2.5     SSW   210   4.8     WSW   242   9.43    262      -80.6
   04/09/2018 21:50      73.0      70.5       26     35.1      0.00      6.05      69.3     0.41      1015.8     2.5     SSW   194   4.0     SSW   198   9.43    262      -76.7
   04/09/2018 21:40      74.1      71.0       27     36.3      0.00      6.05      69.3     0.41      1015.8     1.2       S   172   2.7     SSE   163   9.43    262      -78.0
   04/09/2018 21:30      75.3      73.7       23     34.5      0.00      6.05      69.3     0.41      1015.6     2.0     SSW   205   4.0      SW   216   9.44    262      -80.8
   04/09/2018 21:20      75.8      74.3       23     35.0      0.00      6.05      69.3     0.41      1015.5     1.3     SSW   198   3.7     SSW   197   9.44    262      -82.5
   04/09/2018 21:10      77.0      75.6       21     33.3      0.00      6.05      69.2     0.41      1015.4     2.0       S   181   3.7     SSW   194   9.44    262      -84.4
   04/09/2018 21:00      78.0      76.8       19     32.5      0.00      6.05      69.2     0.41      1015.3     1.6     SSW   204   2.7     SSW   207   9.45    261      -87.1
   04/09/2018 20:50      78.6      77.7       20     34.1      0.00      6.05      69.2     0.41      1015.1     2.7     SSW   212   4.3      SW   223   9.45    261      -90.5
   04/09/2018 20:40      78.8      78.3       20     34.5      0.00      6.05      69.2     0.41      1014.9     3.3      SW   226   5.1     SSW   208   9.45    261      -91.7
   04/09/2018 20:30      79.6      78.5       22     36.4      0.00      6.05      69.1     0.41      1014.8     2.4     WSW   238   4.8     WSW   238   9.45    261      -91.1
   04/09/2018 20:20      80.2      79.2       21     36.1      0.00      6.05      69.0     0.41      1014.7     2.6     WSW   241   5.8     NNW   327   9.46    261      -92.9
   04/09/2018 20:10      80.5      79.8       21     37.0      0.00      6.05      69.0     0.41      1014.5     3.1       W   263   7.1     WSW   238   9.46    261      -93.0
   04/09/2018 20:00      81.3      80.3       22     38.2      0.00      6.05      69.0     0.41      1014.4     2.3       W   263   4.8       W   265   9.46    261      -93.0
   04/09/2018 19:50      81.5      80.6       21     37.2      0.00      6.05      69.0     0.41      1014.3     2.5       W   275   5.1     WNW   284   9.47    261      -91.4
   04/09/2018 19:40      82.7      80.6       17     32.1      0.00      6.05      68.9     0.41      1014.3     1.5     WSW   255   3.6     WNW   296   9.47    261      -85.7
   04/09/2018 19:30      84.2      82.5       14     29.1      0.00      6.05      68.9     0.41      1014.2     1.0      SW   231   2.0      SW   221   9.48    261      -89.1
   04/09/2018 19:20      85.6      84.1       13     28.3      0.00      6.05      68.9     0.41      1014.1     2.3     SSW   195   3.5     SSW   211   9.48    261      -91.6
   04/09/2018 19:10      86.9      85.5       12     27.8      0.00      6.05      68.8     0.41      1014.0     2.7     SSW   201   3.8     SSW   195   9.48    261      -88.7
   04/09/2018 19:00      87.8      86.6       11     27.1      0.00      6.05      68.8     0.41      1013.9     3.5     SSW   206   5.3     SSW   198   9.49    261      -85.5
   04/09/2018 18:50      88.9      87.5       11     27.1      0.00      6.05      68.7     0.41      1013.8     3.8     SSW   213   6.3     WSW   238   9.49    261      -72.7
   04/09/2018 18:40      89.7      88.6       11     27.4      0.00      6.05      68.7     0.41      1013.7     3.8      SW   231   6.2     SSW   207   9.50    261      -53.6
   04/09/2018 18:30      90.5      89.4       11     27.8      0.00      6.05      68.6     0.41      1013.7     4.2      SW   226   7.7      SW   229   9.50    261      -34.2
   04/09/2018 18:20      91.2      90.2       11     27.8      0.00      6.05      68.6     0.41      1013.7     3.1     SSW   211   6.8      SW   232   9.51    261       -6.0
   04/09/2018 18:10      91.7      90.7       10     26.7      0.00      6.05      68.5     0.41      1013.6     3.7      SW   219   6.4       W   275   9.51    261       18.6
   04/09/2018 18:00      93.2      91.3        9     24.1      0.00      6.05      68.5     0.41      1013.5     4.0      SW   233   7.0      SW   214   9.52    260       44.5
   04/09/2018 17:50      93.3      92.7        9     24.8      0.00      6.05      68.4     0.41      1013.4     2.3       W   277   6.7       W   281   9.53    261       70.0
   04/09/2018 17:40      93.4      92.7        9     24.7      0.00      6.05      68.4     0.41      1013.3     2.0      SW   224   4.3      SW   215   9.53    260       96.6
   04/09/2018 17:30      93.8      92.6        9     26.3      0.00      6.05      68.3     0.41      1013.3     2.2       W   269   6.2     WSW   244   9.54    261      122.7
   04/09/2018 17:20      93.5      92.4        9     25.2      0.00      6.05      68.2     0.41      1013.3     2.7       S   187   6.8     SSW   212   9.54    261      148.5
   04/09/2018 17:10      93.8      93.0        9     25.0      0.00      6.05      68.2     0.41      1013.3     2.7       W   273   5.8      SW   230   9.54    260      174.7
   04/09/2018 17:00      94.4      93.4        9     25.2      0.00      6.05      68.1     0.41      1013.4     3.4      NW   321   6.2     NNW   344   9.55    261      200.2
   04/09/2018 16:50      94.3      93.0        9     26.4      0.00      6.05      68.0     0.41      1013.3     2.6     WSW   256   6.2     SSW   211   9.55    261      226.7
   04/09/2018 16:40      94.1      93.3        9     25.2      0.00      6.05      68.0     0.41      1013.3     2.2     WSW   241   6.1     WSW   242   9.56    260      248.7
   04/09/2018 16:30      94.7      93.6        9     25.5      0.00      6.05      67.9     0.41      1013.3     2.6     NNW   338   5.8     NNW   330   9.56    261      271.4
   04/09/2018 16:20      94.6      93.0        9     26.3      0.00      6.05      67.8     0.41      1013.4     1.8      SW   223   5.4     WNW   303   9.56    261      293.9
   04/09/2018 16:10      94.4      93.9        9     25.8      0.00      6.05      67.7     0.41      1013.5     1.7     WSW   258   3.9      NW   311   9.57    261      315.7
   04/09/2018 16:00      94.5      93.4        9     25.7      0.00      6.05      67.7     0.41      1013.5     1.8     WNW   302   5.0     WSW   241   9.57    261      337.5
   04/09/2018 15:50      94.1      92.9        9     25.4      0.00      6.05      67.6     0.41      1013.7     3.0     NNE    28   8.5     NNW   345   9.57    261      361.0
   04/09/2018 15:40      94.2      92.6        9     26.5      0.00      6.05      67.5     0.41      1013.7     2.9      NW   320   7.6       W   261   9.58    261      381.9
   04/09/2018 15:30      93.5      92.4        9     25.1      0.00      6.05      67.5     0.41      1013.8     3.7     SSW   198   7.6     SSW   194   9.58    261      400.2
   04/09/2018 15:20      94.4      92.6        9     25.8      0.00      6.05      67.4     0.41      1013.9     3.8       W   277   7.8     NNW   343   9.58    261      416.6
   04/09/2018 15:10      94.5      93.3        9     25.5      0.00      6.05      67.4     0.41      1014.0     2.6     NNW   343   7.3       N     0   9.59    261      431.9
   04/09/2018 15:00      93.7      92.8        9     25.8      0.00      6.05      67.3     0.41      1014.1     2.9      NW   309   5.7     NNW   330   9.59    261      442.8
   04/09/2018 14:50      94.1      92.7        9     25.7      0.00      6.05      67.2     0.41      1014.1     4.0     NNE    12   7.8       N     1   9.59    261      442.9
   04/09/2018 14:40      94.0      92.8        9     25.2      0.00      6.05      67.1     0.41      1014.2     2.1      SW   231   6.3       W   272   9.60    260      453.6
   04/09/2018 14:30      93.3      92.2        9     25.5      0.00      6.05      67.1     0.41      1014.2     3.0     WNW   302   6.6      NW   307   9.60    260      490.0
   04/09/2018 14:20      93.6      92.3        9     25.5      0.00      6.05      67.1     0.41      1014.2     3.0      NW   321   6.8       W   279   9.60    260      500.1
   04/09/2018 14:10      92.8      91.2        9     25.4      0.00      6.05      67.0     0.41      1014.3     1.7     NNE    31   3.7     ENE    72   9.60    260      510.3
   04/09/2018 14:00      92.6      91.2        9     25.3      0.00      6.05      67.0     0.41      1014.4     3.2     NNW   339   6.6      NW   314   9.61    260      520.7
   04/09/2018 13:50      92.5      91.6        9     26.3      0.00      6.05      66.9     0.40      1014.5     2.7       N   356   6.2     NNW   342   9.61    260      529.4
   04/09/2018 13:40      92.0      90.7        9     25.6      0.00      6.05      66.9     0.40      1014.6     3.0     NNW   347   7.2     NNE    19   9.61    260      536.8
   04/09/2018 13:30      91.2      90.5        9     25.0      0.00      6.05      66.8     0.40      1014.7     5.6     NNE    17  10.9     NNE    21   9.61    260      543.5
   04/09/2018 13:20      92.3      90.8        9     25.0      0.00      6.05      66.7     0.40      1014.8     4.3       N     6   9.8     NNE    17   9.61    260      547.3
   04/09/2018 13:10      92.4      90.2        9     24.0      0.00      6.05      66.7     0.40      1014.8     2.9       N   355   7.5     SSW   203   9.61    260      552.3
   04/09/2018 13:00      90.4      89.7        9     22.9      0.00      6.05      66.7     0.40      1015.0     4.4       N   350   8.2      NW   321   9.62    260      557.0
   04/09/2018 12:50      90.9      89.9        9     23.6      0.00      6.05      66.7     0.40      1015.2     4.9       N   354  12.6     NNE    19   9.62    261      559.6
   04/09/2018 12:40      90.9      90.2        9     23.5      0.00      6.05      66.7     0.40      1015.3     4.0     NNW   347   7.3     NNW   331   9.62    260      557.5
   04/09/2018 12:30      90.5      90.0        8     22.5      0.00      6.05      66.6     0.41      1015.4     3.6     NNE    29   7.3     NNE    14   9.62    260      556.3
   04/09/2018 12:20      90.3      88.8        9     22.9      0.00      6.05      66.7     0.41      1015.3     3.9     NNE    17   7.7       N     6   9.62    261      554.5
   04/09/2018 12:10      89.2      88.6        9     22.3      0.00      6.05      66.6     0.41      1015.4     4.4       N   351   8.5     NNW   346   9.62    261      558.7
   04/09/2018 12:00      89.4      88.1        9     22.6      0.00      6.05      66.6     0.41      1015.4     3.6       N   353   7.3       N     7   9.62    261      553.2
   04/09/2018 11:50      88.7      87.7        9     22.3      0.00      6.05      66.6     0.41      1015.4     4.2       N     1   8.1     NNE    12   9.62    261      520.9
   04/09/2018 11:40      88.3      87.7        9     23.1      0.00      6.05      66.5     0.41      1015.5     4.4       N   360   7.1     NNE    12   9.63    261      519.2
   04/09/2018 11:30      88.3      87.5       10     24.6      0.00      6.05      66.6     0.41      1015.6     3.5       N   352   8.9       N     3   9.63    261      479.4
   04/09/2018 11:20      88.1      86.9       10     25.1      0.00      6.05      66.6     0.41      1015.4     4.0       N   357   8.1       N   352   9.63    261      457.8
   04/09/2018 11:10      87.8      86.5       12     27.8      0.00      6.05      66.6     0.41      1015.5     1.2     SSW   212   3.2     SSW   200   9.63    261      341.7
   04/09/2018 11:00      87.5      86.7       12     28.4      0.00      6.05      66.6     0.41      1015.4     1.3       N     3   4.5     ENE    63   9.63    261      356.8
   04/09/2018 10:50      87.2      85.1       13     29.5      0.00      6.05      66.6     0.41      1015.5     2.2     NNW   330   5.0     WNW   302   9.63    261      493.0
   04/09/2018 10:40      85.3      84.4       14     29.6      0.00      6.05      66.7     0.41      1015.7     2.8     NNW   337   7.1     NNW   333   9.63    261      523.9
   04/09/2018 10:30      84.7      83.0       15     31.2      0.00      6.05      66.8     0.41      1015.6     2.4       N   352   6.1     NNW   340   9.63    261      469.0
   04/09/2018 10:20      83.3      81.7       16     31.5      0.00      6.05      66.7     0.41      1015.5     2.8     NNE    31   6.6      NE    53   9.63    261      410.4
   04/09/2018 10:10      81.8      81.2       16     31.1      0.00      6.05      66.8     0.41      1015.4     3.6     NNE    13   6.4     NNE    13   9.63    261      421.2
   04/09/2018 10:00      81.6      81.1       17     32.9      0.00      6.05      66.8     0.41      1015.4     2.3       N   357   6.3       N     0   9.62    261      407.7
   04/09/2018 09:50      81.5      79.5       18     33.4      0.00      6.05      66.8     0.41      1015.4     1.5       N     5   3.8     NNE    28   9.62    262      380.0
   04/09/2018 09:40      79.8      78.9       18     32.8      0.00      6.05      66.9     0.41      1015.4     3.0     NNE    13   6.1     NNW   346   9.62    263      383.3
   04/09/2018 09:30      79.8      79.2       20     35.4      0.00      6.05      66.9     0.41      1015.3     2.0     NNE    12   5.1       N    10   9.62    302      347.3
   04/09/2018 09:20      79.7      78.2       21     35.3      0.00      6.05      66.9     0.41      1015.2     0.8     NNW   338   2.3     WNW   298   9.57    261      292.7
   04/09/2018 09:10      78.3      77.4       22     35.5      0.00      6.05      67.0     0.41      1015.2     1.3       W   277   3.8     WSW   255   9.03    261      290.8
   04/09/2018 09:00      77.5      76.3       22     35.5      0.00      6.05      67.0     0.41      1015.3     0.5      NW   322   1.7       W   264   9.03    262      270.2
   04/09/2018 08:50      76.5      75.3       22     34.6      0.00      6.05      67.1     0.41      1015.2     1.2     ESE   118   4.0     ESE   122   9.03    262      237.5
   04/09/2018 08:40      76.6      76.0       22     34.5      0.00      6.05      67.1     0.41      1015.1     0.7      SE   126   2.7      SE   135   9.03    262      207.0
   04/09/2018 08:30      76.2      74.3       23     34.4      0.00      6.05      67.1     0.41      1015.1     0.1      SE   141   0.7      SE   140   9.03    262      191.2
   04/09/2018 08:20      74.3      70.4       26     35.7      0.00      6.05      67.2     0.41      1015.0     0.0     SSE   154   0.7     SSW   193   9.03    264      165.8
   04/09/2018 08:10      70.5      68.2       34     39.4      0.00      6.05      67.2     0.41      1014.9     1.5      SE   143   2.2     SSE   151   9.03    264      138.4
   04/09/2018 08:00      68.3      65.9       39     41.4      0.00      6.05      67.2     0.41      1014.7     0.5     ESE   108   1.3       S   169   9.04    265      109.7
   04/09/2018 07:50      66.0      63.8       41     40.8      0.00      6.05      67.3     0.41      1014.6     0.6      SE   140   1.7     SSE   152   9.03    265       76.9
   04/09/2018 07:40      63.9      62.1       42     39.5      0.00      6.05      67.3     0.41      1014.4     1.0      SE   144   1.8      SE   144   9.03    265       42.1
   04/09/2018 07:30      62.1      60.9       41     37.4      0.00      6.05      67.3     0.41      1014.3     1.5      SE   142   3.2      SE   144   9.03    265        8.0
   04/09/2018 07:20      61.2      59.8       40     36.3      0.00      6.05      67.4     0.41      1014.3     2.0      SE   142   3.7      SE   135   9.04    265      -39.2
   04/09/2018 07:10      60.0      58.4       41     35.4      0.00      6.05      67.4     0.41      1014.2     1.3       S   173   2.9      SE   140   9.04    265      -42.8
   04/09/2018 07:00      58.3      56.5       43     35.3      0.00      6.05      67.4     0.41      1014.1     1.6     SSE   156   3.5       S   169   9.04    265      -48.1
   04/09/2018 06:50      57.5      56.5       44     35.5      0.00      6.05      67.4     0.41      1014.1     1.6     SSE   165   3.7       S   172   9.04    265      -54.4
   04/09/2018 06:40      57.2      56.5       44     35.1      0.00      6.05      67.5     0.41      1014.0     1.6      SE   142   3.3     ESE   121   9.04    266      -58.8
   04/09/2018 06:30      57.6      56.4       44     35.0      0.00      6.05      67.5     0.41      1013.9     1.5     SSE   157   3.1     SSE   155   9.04    265      -62.3
   04/09/2018 06:20      58.5      57.3       41     34.6      0.00      6.05      67.6     0.41      1013.7     1.7     SSE   147   3.3      SE   137   9.04    265      -63.7
   04/09/2018 06:10      58.6      56.9       41     34.0      0.00      6.05      67.6     0.41      1013.7     1.5     SSE   151   2.5      SE   137   9.04    265      -62.1
   04/09/2018 06:00      57.1      56.4       42     34.2      0.00      6.05      67.6     0.41      1013.7     0.8      SE   143   2.2     ESE   111   9.04    265      -62.2
   04/09/2018 05:50      56.6      55.4       44     34.2      0.00      6.05      67.6     0.41      1013.7     1.7     SSE   154   3.1      SE   144   9.04    265      -60.8
   04/09/2018 05:40      55.5      54.1       46     34.5      0.00      6.05      67.7     0.41      1013.7     1.4     SSE   156   2.3      SE   140   9.04    265      -61.0
   04/09/2018 05:30      54.9      54.1       47     34.9      0.00      6.05      67.7     0.41      1013.7     0.6       S   179   2.5     SSE   168   9.04    265      -62.1
   04/09/2018 05:20      55.4      54.6       45     34.3      0.00      6.05      67.7     0.41      1013.6     0.8       S   175   1.8     SSE   151   9.04    265      -62.5
   04/09/2018 05:10      55.5      55.0       45     34.4      0.00      6.05      67.8     0.41      1013.4     0.9     SSW   192   2.0     WSW   245   9.04    265      -61.9
   04/09/2018 05:00      56.5      55.3       44     34.1      0.00      6.05      67.8     0.41      1013.4     0.5     SSE   163   1.3       S   176   9.04    265      -62.9
   04/09/2018 04:50      56.6      56.2       42     33.6      0.00      6.05      67.8     0.41      1013.3     0.7     SSE   150   2.1      SE   142   9.04    265      -63.4
   04/09/2018 04:40      57.5      56.1       41     33.4      0.00      6.05      67.9     0.41      1013.2     1.1     SSE   153   2.6      SE   141   9.04    265      -64.5
   04/09/2018 04:30      58.0      57.2       38     32.5      0.00      6.05      67.9     0.41      1013.2     1.3     SSE   148   2.4      SE   139   9.04    264      -64.6
   04/09/2018 04:20      57.9      55.8       38     31.8      0.00      6.05      67.9     0.41      1013.2     1.2       S   169   2.3      SE   138   9.04    264      -64.7
   04/09/2018 04:10      57.4      56.1       39     32.1      0.00      6.05      68.0     0.41      1013.1     0.9     SSE   151   2.6      SE   133   9.04    264      -65.6
   04/09/2018 04:00      57.9      56.9       37     31.3      0.00      6.05      68.0     0.41      1013.2     1.0       S   169   3.1      SE   140   9.05    264      -66.2
   04/09/2018 03:50      58.7      57.4       36     31.1      0.00      6.05      68.0     0.41      1013.0     1.7     SSE   160   3.8       S   177   9.05    264      -67.7
   04/09/2018 03:40      59.3      58.2       35     30.7      0.00      6.05      68.0     0.41      1013.1     1.2       S   174   2.8     SSW   203   9.05    264      -68.5
   04/09/2018 03:30      60.2      59.0       32     29.6      0.00      6.05      68.1     0.41      1013.1     1.9       S   187   3.7      SE   137   9.05    264      -67.9
   04/09/2018 03:20      60.1      58.7       32     29.4      0.00      6.05      68.1     0.41      1013.1     1.6     SSE   154   3.4       S   182   9.05    264      -66.8
   04/09/2018 03:10      59.8      59.2       31     29.0      0.00      6.05      68.1     0.41      1013.1     1.2       S   169   2.4       S   174   9.05    264      -67.4
   04/09/2018 03:00      60.4      59.1       32     29.4      0.00      6.05      68.1     0.41      1013.1     1.2     SSE   157   3.0     SSE   162   9.05    264      -69.1
   04/09/2018 02:50      62.6      60.1       29     28.7      0.00      6.05      68.2     0.41      1013.1     1.6       S   170   3.5     SSW   197   9.05    264      -69.5
   04/09/2018 02:40      65.6      62.6       24     27.2      0.00      6.05      68.2     0.41      1013.0     1.4       S   175   3.7     WSW   240   9.05    264      -72.1
   04/09/2018 02:30      65.6      63.6       22     25.5      0.00      6.05      68.2     0.41      1013.1     2.4     WNW   284   5.2     NNW   334   9.05    264      -73.0
   04/09/2018 02:20      63.5      60.8       26     26.5      0.00      6.05      68.3     0.41      1013.3     2.0       W   271   4.5      SW   219   9.05    264      -71.0
   04/09/2018 02:10      62.6      61.0       27     27.3      0.00      6.05      68.3     0.41      1013.3     1.4     SSE   161   2.4     WSW   239   9.06    264      -70.2
   04/09/2018 02:00      66.4      62.5       24     26.4      0.00      6.05      68.3     0.41      1013.5     0.8       S   188   1.8     SSW   197   9.06    264      -71.9
   04/09/2018 01:50      66.8      66.2       20     23.9      0.00      6.05      68.4     0.41      1013.6     0.9      NW   312   3.4       W   272   9.06    264      -73.1
   04/09/2018 01:40      66.9      65.2       19     23.0      0.00      6.05      68.4     0.41      1013.7     2.5      NW   315   5.3      NW   319   9.06    264      -72.5
   04/09/2018 01:30      66.1      64.2       23     26.1      0.00      6.05      68.4     0.41      1013.9     2.2      NW   311   4.5     WSW   254   9.06    264      -72.2
   04/09/2018 01:20      66.4      61.7       22     24.6      0.00      6.05      68.4     0.41      1014.0     3.6     SSW   204  10.1     SSW   210   9.06    264      -70.7
   04/09/2018 01:10      61.8      58.5       30     27.8      0.00      6.05      68.5     0.41      1013.9     1.9       S   188   3.6      SW   220   9.06    264      -68.7
   04/09/2018 01:00      59.6      58.2       34     30.3      0.00      6.05      68.4     0.41      1014.0     1.0     SSE   160   2.6       S   190   9.06    264      -69.4
   04/09/2018 00:50      59.9      58.3       32     29.6      0.00      6.05      68.5     0.41      1014.1     2.3     SSW   200   5.8     WSW   251   9.06    264      -71.0
   04/09/2018 00:40      58.8      58.0       36     31.5      0.00      6.05      68.5     0.41      1014.0     1.7     WSW   248   3.9      NW   314   9.06    265      -71.0
   04/09/2018 00:30      58.7      57.1       36     31.1      0.00      6.05      68.5     0.41      1014.0     2.5       S   177   5.8     SSW   194   9.06    265      -72.2
   04/09/2018 00:20      57.8      56.9       38     32.1      0.00      6.05      68.5     0.41      1014.0     2.0       S   183   4.1      SW   215   9.07    265      -72.1
   04/09/2018 00:10      57.2      56.5       42     33.9      0.00      6.05      68.6     0.41      1013.9     1.4     SSE   157   4.5     SSW   213   9.07    265      -73.6
   04/09/2018 00:00      58.7      56.9       41     34.0      0.00      6.05      68.6     0.41      1013.8     2.0       S   180   3.6     SSW   209   9.07    265      -74.3
   04/08/2018 23:50      59.1      57.9       39     33.3      0.00      6.05      68.6     0.41      1013.8     3.0     SSW   197   5.8     SSW   210   9.07    265      -73.7
   04/08/2018 23:40      59.2      58.0       38     32.8      0.00      6.05      68.6     0.41      1013.8     0.6     WSW   246   2.0       W   269   9.07    264      -75.9
   04/08/2018 23:30      59.1      57.9       39     33.6      0.00      6.05      68.6     0.41      1013.8     1.6      SW   219   3.1       S   173   9.07    265      -75.2
   04/08/2018 23:20      59.2      58.5       39     33.8      0.00      6.05      68.6     0.41      1013.7     1.0      SE   134   1.8     ENE    64   9.07    265      -76.2
   04/08/2018 23:10      61.5      59.0       37     33.5      0.00      6.05      68.6     0.41      1013.7     1.3     SSE   167   2.8     SSW   202   9.08    265      -75.8
   04/08/2018 23:00      61.8      60.5       37     34.2      0.00      6.05      68.6     0.41      1013.7     2.6     SSE   165   4.7      SE   141   9.08    264      -77.4
   04/08/2018 22:50      61.4      60.5       36     34.0      0.00      6.05      68.6     0.41      1013.7     1.6       S   172   3.5     SSW   200   9.08    265      -77.0
   04/08/2018 22:40      61.1      60.3       41     36.7      0.00      6.05      68.6     0.41      1013.7     1.6     SSE   165   2.8       S   185   9.08    265      -78.7
   04/08/2018 22:30      60.7      59.9       46     39.4      0.00      6.05      68.6     0.41      1013.7     1.4     SSE   154   2.4      SE   142   9.08    265      -79.8
   04/08/2018 22:20      60.7      59.7       46     39.5      0.00      6.05      68.6     0.41      1013.6     1.7     SSE   158   2.5       S   189   9.09    265      -78.7
   04/08/2018 22:10      61.3      59.5       47     40.0      0.00      6.05      68.6     0.41      1013.5     1.6     SSE   164   2.5     SSE   149   9.09    265      -78.9
   04/08/2018 22:00      62.6      61.0       43     39.2      0.00      6.05      68.6     0.41      1013.5     1.9     SSE   146   2.8     SSW   206   9.09    265      -79.5
   04/08/2018 21:50      63.0      62.0       42     38.6      0.00      6.05      68.6     0.41      1013.4     1.4       S   191   3.4     SSW   213   9.09    265      -79.7
   04/08/2018 21:40      64.2      62.9       36     36.5      0.00      6.05      68.6     0.41      1013.3     1.6       S   173   4.6     WSW   243   9.09    264      -82.2
   04/08/2018 21:30      63.7      62.8       42     39.8      0.00      6.05      68.6     0.41      1013.3     1.8     SSW   192   4.6       W   265   9.09    264      -83.5
   04/08/2018 21:20      63.7      62.8       43     40.7      0.00      6.05      68.5     0.41      1013.2     2.0       S   170   4.7      SW   225   9.10    264      -85.1
   04/08/2018 21:10      65.1      63.6       43     41.3      0.00      6.05      68.6     0.41      1013.2     1.0      SE   140   2.7      SE   129   9.10    264      -85.9
   04/08/2018 21:00      65.0      63.3       43     41.0      0.00      6.05      68.5     0.41      1013.2     2.9       S   171   6.2       S   174   9.10    264      -83.1
   04/08/2018 20:50      64.3      63.2       43     40.5      0.00      6.05      68.5     0.41      1013.1     1.3       S   174   3.3       S   178   9.10    264      -81.4
   04/08/2018 20:40      65.6      62.6       43     41.0      0.00      6.05      68.5     0.41      1013.0     2.1     SSW   210   3.2     SSW   198   9.10    264      -80.0
   04/08/2018 20:30      66.5      64.8       42     41.5      0.00      6.05      68.5     0.41      1013.0     1.7       S   172   2.7     SSW   196   9.11    264      -81.7
   04/08/2018 20:20      68.6      66.3       38     41.1      0.00      6.05      68.5     0.41      1012.9     0.8       S   170   1.9      SE   138   9.11    264      -83.5
   04/08/2018 20:10      68.8      68.1       37     41.3      0.00      6.05      68.4     0.41      1012.9     1.8      SW   216   2.7      SW   232   9.11    264      -83.0
   04/08/2018 20:00      70.9      68.8       37     42.4      0.00      6.05      68.4     0.41      1012.8     0.8       S   169   2.1     WSW   248   9.12    263      -89.3
   04/08/2018 19:50      71.9      70.6       36     42.7      0.00      6.05      68.4     0.41      1012.7     2.2     WSW   247   5.0       W   266   9.12    263      -90.9
   04/08/2018 19:40      71.8      71.2       35     42.6      0.00      6.05      68.3     0.41      1012.7     1.5       W   281   3.4      NW   313   9.12    263      -91.1
   04/08/2018 19:30      72.6      71.2       35     42.4      0.00      6.05      68.3     0.41      1012.7     1.2      SW   214   3.4     WSW   252   9.12    263      -91.3
   04/08/2018 19:20      74.0      72.4       33     42.1      0.00      6.05      68.3     0.41      1012.7     1.8     SSW   202   3.9     WSW   246   9.12    263      -91.3
   04/08/2018 19:10      74.9      73.7       31     41.9      0.00      6.05      68.3     0.41      1012.6     1.8     WSW   254   6.0      SW   224   9.13    263      -86.5
   04/08/2018 19:00      75.7      74.4       30     41.7      0.00      6.05      68.2     0.41      1012.5     2.6       W   281   6.4       W   272   9.13    263      -78.0
   04/08/2018 18:50      76.3      75.2       29     41.3      0.00      6.05      68.2     0.41      1012.5     3.1     WNW   295   6.2     WNW   293   9.13    263      -64.5
   04/08/2018 18:40      77.4      76.1       28     40.8      0.00      6.05      68.1     0.41      1012.4     3.2     WNW   302   6.7       W   260   9.14    263      -44.9
   04/08/2018 18:30      78.0      77.1       27     40.4      0.00      6.05      68.1     0.41      1012.4     2.5     WNW   301   5.1     NNW   343   9.14    263      -24.6
   04/08/2018 18:20      78.7      77.7       25     39.3      0.00      6.05      68.0     0.41      1012.5     3.0      NW   310   7.6       W   270   9.15    263       -3.7
   04/08/2018 18:10      78.8      78.4       24     38.3      0.00      6.05      68.0     0.41      1012.5     3.2      NW   308   6.3      NW   324   9.15    262       23.9
   04/08/2018 18:00      79.2      78.4       24     38.9      0.00      6.05      67.9     0.41      1012.5     4.5      NW   304  10.0     WNW   285   9.15    263       56.7
   04/08/2018 17:50      80.0      78.9       24     39.9      0.00      6.05      67.8     0.41      1012.6     3.7     WNW   292   6.9       W   264   9.16    262       91.2
   04/08/2018 17:40      80.0      79.4       24     40.1      0.00      6.05      67.8     0.41      1012.5     3.7     WNW   291   7.0     WNW   287   9.16    262      105.8
   04/08/2018 17:30      80.1      79.6       25     40.5      0.00      6.05      67.7     0.41      1012.5     3.9     WNW   286   7.2     WNW   301   9.17    262      131.3
   04/08/2018 17:20      80.4      79.7       24     40.5      0.00      6.05      67.7     0.41      1012.6     4.0     WNW   301   7.4      NW   323   9.17    262      180.0
   04/08/2018 17:10      80.8      80.0       25     41.6      0.00      6.05      67.6     0.41      1012.5     4.0     WNW   300   7.1     WSW   242   9.17    263      174.5
   04/08/2018 17:00      80.7      80.1       26     42.4      0.00      6.05      67.5     0.41      1012.5     3.6      NW   310   6.3     NNW   333   9.18    263      197.5
   04/08/2018 16:50      81.3      80.1       26     43.0      0.00      6.05      67.5     0.41      1012.4     4.4      NW   305   7.8     WSW   256   9.18    262      231.8
   04/08/2018 16:40      81.3      80.8       26     43.4      0.00      6.05      67.4     0.41      1012.5     3.7      NW   306   9.4     WNW   293   9.18    263      263.3
   04/08/2018 16:30      82.2      80.8       26     43.4      0.00      6.05      67.3     0.41      1012.5     4.9       W   274   9.1     WSW   251   9.19    262      290.0
   04/08/2018 16:20      82.1      81.4       26     43.7      0.00      6.05      67.3     0.41      1012.6     4.1     WNW   289   9.1       W   280   9.19    263      320.5
   04/08/2018 16:10      82.9      81.4       27     44.9      0.00      6.05      67.2     0.41      1012.7     3.6      NW   308   7.4     WSW   239   9.20    263      346.5
   04/08/2018 16:00      82.3      80.2       30     46.6      0.00      6.05      67.1     0.41      1012.7     1.8       W   280   4.8     WNW   299   9.20    263      352.5
   04/08/2018 15:50      80.9      79.6       32     47.3      0.00      6.05      67.1     0.41      1012.8     3.8     SSW   206   6.7     SSW   209   9.20    263      394.8
   04/08/2018 15:40      81.5      79.7       32     47.9      0.00      6.05      67.0     0.41      1012.8     3.2       S   171   6.3     SSE   149   9.20    263      411.1
   04/08/2018 15:30      81.5      81.2       30     46.9      0.00      6.05      67.0     0.41      1012.9     2.8     ESE   122   8.1     SSW   209   9.21    263      431.7
   04/08/2018 15:20      81.6      80.9       30     46.6      0.00      6.05      66.8     0.41      1013.0     3.0     ENE    72   5.1      NE    44   9.21    263      443.1
   04/08/2018 15:10      81.4      80.6       29     46.0      0.00      6.05      66.7     0.41      1013.0     3.5      NE    50   6.9      NE    46   9.21    263      460.4
   04/08/2018 15:00      81.4      80.2       29     45.4      0.00      6.05      66.8     0.41      1013.1     4.3      NE    43   7.5       E    86   9.21    263      429.5
   04/08/2018 14:50      82.2      81.0       27     44.7      0.00      6.05      66.7     0.41      1013.2     4.1      NE    54   6.7     ENE    62   9.22    262      471.6
   04/08/2018 14:40      82.5      81.3       25     42.5      0.00      6.05      66.6     0.41      1013.2     3.3     ENE    66   6.9     NNE    17   9.22    262      431.8
   04/08/2018 14:30      82.9      81.5       24     41.7      0.00      6.05      66.5     0.41      1013.3     3.4      NE    50   5.4     NNE    12   9.22    262      422.1
   04/08/2018 14:20      82.9      81.3       24     41.0      0.00      6.05      66.5     0.41      1013.5     2.9     ENE    72   5.5     ENE    74   9.23    261      507.3
   04/08/2018 14:10      82.5      81.7       16     31.0      0.00      6.05      66.5     0.41      1013.7     2.9     NNW   338   5.1     NNW   338   9.23    261      521.6
   04/08/2018 14:00      82.1      81.5       16     30.7      0.00      6.05      66.4     0.41      1013.9     3.6     NNW   336   7.4     NNW   339   9.23    261      546.3
   04/08/2018 13:50      82.1      80.7       16     31.1      0.00      6.05      66.4     0.41      1014.0     3.0       N   354   8.1      NW   319   9.23    261      545.3
   04/08/2018 13:40      81.2      79.9       16     30.4      0.00      6.05      66.4     0.41      1014.1     2.7     SSE   168   8.0       W   274   9.23    261      540.0
   04/08/2018 13:30      81.6      80.8       16     30.8      0.00      6.05      66.3     0.41      1014.3     4.4     NNW   330   9.6       N     8   9.24    261      575.4
   04/08/2018 13:20      81.0      80.2       16     30.3      0.00      6.05      66.3     0.41      1014.4     3.4     WNW   286   6.9       W   278   9.24    262      573.6
   04/08/2018 13:10      81.2      79.8       16     30.3      0.00      6.05      66.3     0.41      1014.6     3.6     WNW   300   7.1     WNW   301   9.24    261      556.3
   04/08/2018 13:00      80.8      79.5       16     29.8      0.00      6.05      66.2     0.41      1014.6     3.0     NNW   337   5.9     NNW   331   9.24    262      490.7
   04/08/2018 12:50      80.0      78.5       16     29.2      0.00      6.05      66.1     0.41      1014.7     3.4     NNE    12   6.8     NNE    13   9.24    262      559.7
   04/08/2018 12:40      78.6      77.8       17     29.9      0.00      6.05      66.2     0.41      1014.9     4.9      NW   318   7.8      NE    48   9.25    262      539.3
   04/08/2018 12:30      78.1      77.4       18     31.3      0.00      6.05      66.2     0.41      1015.1     4.5      NW   316   8.5     NNW   335   9.25    262      489.7
   04/08/2018 12:20      77.7      76.8       19     32.3      0.00      6.05      66.2     0.41      1015.3     2.5       N   355   6.3     NNW   328   9.25    262      574.7
   04/08/2018 12:10      77.7      76.8       20     33.1      0.00      6.05      66.2     0.41      1015.4     4.3       N     5   7.7     NNE    13   9.25    263      569.7
   04/08/2018 12:00      76.8      76.1       21     33.4      0.00      6.05      66.2     0.41      1015.4     2.8     WNW   299   7.0       N   352   9.25    263      514.5
   04/08/2018 11:50      76.3      75.3       21     33.3      0.00      6.05      66.2     0.41      1015.4     3.5     WNW   295   8.6      NW   311   9.25    262      538.5
   04/08/2018 11:40      76.2      74.1       23     34.3      0.00      6.05      66.2     0.41      1015.5     4.2      NW   316   8.8     NNW   335   9.25    263      573.1
   04/08/2018 11:30      74.2      73.3       23     33.9      0.00      6.05      66.2     0.41      1015.5     5.5      NW   316  10.7       W   260   9.25    263      549.3
   04/08/2018 11:20      74.1      73.0       24     34.3      0.00      6.05      66.3     0.41      1015.8     4.2     NNW   337   9.0       N     2   9.25    263      532.1
   04/08/2018 11:10      73.5      71.9       26     35.9      0.00      6.05      66.3     0.41      1015.9     3.6      NW   305   9.1       N   354   9.26    263      515.8
   04/08/2018 11:00      72.0      71.4       27     36.3      0.00      6.05      66.3     0.41      1016.0     4.9       N   351  11.2     NNE    14   9.26    263      503.1
   04/08/2018 10:50      71.5      70.3       28     35.7      0.00      6.05      66.3     0.41      1016.0     4.4       N   354   9.0     NNW   336   9.26    263      489.3
   04/08/2018 10:40      71.4      70.6       27     35.7      0.00      6.05      66.3     0.41      1016.0     5.4       N   359   9.5     NNW   342   9.26    263      431.2
   04/08/2018 10:30      71.5      70.7       27     35.6      0.00      6.05      66.3     0.41      1016.0     4.3       N     7   8.3     NNW   344   9.26    263      436.0
   04/08/2018 10:20      70.8      70.0       28     35.6      0.00      6.05      66.3     0.41      1015.9     4.7       N     7   9.2     NNE    23   9.26    263      441.2
   04/08/2018 10:10      70.0      69.3       28     35.5      0.00      6.05      66.4     0.41      1015.8     3.7       N   358   7.7     NNE    25   9.26    263      419.4
   04/08/2018 10:00      69.9      68.2       30     36.2      0.00      6.05      66.4     0.41      1015.8     3.6       N   353  10.0       N     1   9.26    263      403.0
   04/08/2018 09:50      68.8      68.0       31     36.4      0.00      6.05      66.5     0.41      1015.6     6.0     NNW   343  11.0       N     1   9.26    263      382.8
   04/08/2018 09:40      68.6      67.5       32     36.7      0.00      6.05      66.5     0.41      1015.7     3.2     NNW   334   5.8       W   266   9.26    263      360.6
   04/08/2018 09:30      67.9      66.6       33     36.9      0.00      6.05      66.5     0.41      1015.6     3.5       N     0   7.8     NNW   331   9.26    264      340.5
   04/08/2018 09:20      67.0      66.2       34     37.0      0.00      6.05      66.6     0.41      1015.5     4.6     NNW   334   9.0     NNW   327   9.26    264      320.4
   04/08/2018 09:10      66.3      65.6       34     37.1      0.00      6.05      66.6     0.41      1015.6     4.4     NNW   346   7.9      NW   315   9.26    264      296.9
   04/08/2018 09:00      66.0      65.5       35     37.5      0.00      6.05      66.6     0.41      1015.7     2.3      NW   305   4.8     WNW   296   9.26    264      271.1
   04/08/2018 08:50      65.8      65.2       37     38.3      0.00      6.05      66.7     0.41      1015.7     2.9       W   275   6.2     WSW   250   9.27    264      244.6
   04/08/2018 08:40      65.4      64.1       38     38.4      0.00      6.05      66.7     0.41      1015.7     1.8      NW   318   5.3      NW   324   9.26    265      220.7
   04/08/2018 08:30      64.5      63.1       40     38.5      0.00      6.05      66.7     0.41      1015.9     3.1     WNW   293   6.8      NW   304   9.26    265      191.8
   04/08/2018 08:20      63.2      62.3       41     38.5      0.00      6.05      66.8     0.41      1015.7     4.6      NW   317   9.5       N     0   9.28    266      163.4
   04/08/2018 08:10      62.5      61.9       42     38.8      0.00      6.05      66.8     0.41      1015.8     4.9      NW   318   9.3       W   275   9.28    266      137.3
   04/08/2018 08:00      62.2      61.6       43     39.3      0.00      6.05      66.9     0.41      1015.8     4.5      NW   312   7.9     WNW   301   9.28    267      108.6
   04/08/2018 07:50      62.0      60.7       45     39.6      0.00      6.05      66.9     0.41      1015.9     2.1     NNW   339   4.3     NNW   336   9.28    267       75.4
   04/08/2018 07:40      60.8      60.0       46     39.4      0.00      6.05      66.9     0.41      1015.7     5.6      NW   317   8.8      NW   315   9.28    267       43.1
   04/08/2018 07:30      60.2      59.7       47     39.5      0.00      6.05      67.0     0.42      1015.7     5.6       N   352  10.6       S   190   9.28    267      -17.1
   04/08/2018 07:20      60.0      59.4       47     39.4      0.00      6.05      67.0     0.42      1015.7     5.0       N    10   9.5     NNE    31   9.28    267      -50.0
   04/08/2018 07:10      59.8      59.2       47     39.3      0.00      6.05      67.0     0.42      1015.6     4.5       N     9   9.1     NNE    24   9.28    267      -53.8
   04/08/2018 07:00      59.4      58.3       48     39.4      0.00      6.05      67.0     0.42      1015.4     4.6     NNE    19   7.2       N     4   9.28    267      -58.1
   04/08/2018 06:50      58.5      54.6       51     39.2      0.00      6.05      67.1     0.42      1015.3     2.9     NNE    15   6.6     NNE    27   9.28    268      -62.4
   04/08/2018 06:40      54.6      53.1       61     40.6      0.00      6.05      67.0     0.42      1015.1     1.2      SE   132   3.7     WNW   288   9.28    268      -66.5
   04/08/2018 06:30      54.9      53.2       61     40.6      0.00      6.05      67.1     0.42      1015.1     1.3     SSE   157   3.4      SE   138   9.29    268      -67.0
   04/08/2018 06:20      55.5      54.1       59     40.5      0.00      6.05      67.2     0.42      1015.0     2.1     SSW   209   3.3      SW   228   9.29    268      -67.8
   04/08/2018 06:10      57.4      55.2       54     40.0      0.00      6.05      67.1     0.42      1015.0     1.0      SE   145   3.2     SSE   150   9.29    268      -69.4
   04/08/2018 06:00      57.1      55.2       55     40.2      0.00      6.05      67.2     0.42      1014.8     0.6       E    82   2.3     ESE   109   9.29    268      -70.4
   04/08/2018 05:50      59.3      55.4       55     41.0      0.00      6.05      67.2     0.42      1014.8     1.5     SSE   157   3.1      SE   131   9.29    268      -68.9
   04/08/2018 05:40      60.2      59.2       48     40.0      0.00      6.05      67.3     0.42      1014.7     1.1       W   277   3.0       W   260   9.29    268      -70.2
   04/08/2018 05:30      60.4      59.9       48     40.1      0.00      6.05      67.3     0.42      1014.8     1.2     NNW   330   4.4       N   355   9.29    268      -72.7
   04/08/2018 05:20      60.7      60.1       48     40.5      0.00      6.05      67.3     0.42      1014.7     2.1     NNW   344   5.7     NNW   327   9.29    268      -73.0
   04/08/2018 05:10      60.6      59.7       48     40.7      0.00      6.05      67.4     0.42      1014.7     3.8       N   360   9.3     NNW   348   9.29    268      -73.6
   04/08/2018 05:00      59.6      56.0       56     41.8      0.00      6.05      67.3     0.42      1014.8     3.0       N    11   8.1       N     6   9.29    268      -70.3
   04/08/2018 04:50      56.0      54.4       65     43.4      0.00      6.05      67.4     0.42      1014.7     1.3      SE   143   5.4     NNW   342   9.29    269      -67.8
   04/08/2018 04:40      56.0      54.6       66     43.7      0.00      6.05      67.5     0.42      1014.6     1.4       S   170   2.3     SSE   162   9.29    269      -67.7
   04/08/2018 04:30      56.7      55.9       62     43.2      0.00      6.05      67.5     0.42      1014.6     1.4     SSW   191   2.3      SW   217   9.29    269      -67.9
   04/08/2018 04:20      56.3      55.6       63     43.6      0.00      6.05      67.5     0.42      1014.6     1.2       S   184   2.2       S   188   9.29    269      -63.9
   04/08/2018 04:10      57.0      55.9       62     43.8      0.00      6.05      67.5     0.42      1014.6     0.7     SSE   165   2.0     ENE    67   9.29    269      -45.2
   04/08/2018 04:00      56.2      55.1       66     44.6      0.00      6.05      67.6     0.42      1014.6     1.0     SSE   166   2.6       S   177   9.29    273      -36.7
   04/08/2018 03:50      56.2      53.6       73     45.6      0.00      6.05      67.5     0.42      1014.6     1.4      SE   143   3.4      SE   139   9.29    311      -32.6
   04/08/2018 03:40      54.1      53.6       77     46.5      0.00      6.05      67.6     0.42      1014.6     0.9       S   179   2.7     SSE   164   9.30    345      -29.9
   04/08/2018 03:30      54.9      54.0       76     47.0      0.00      6.05      67.6     0.42      1014.6     1.3     SSE   164   2.4       S   185   9.30    351      -29.1
   04/08/2018 03:20      55.8      54.2       76     47.3      0.00      6.05      67.7     0.42      1014.7     1.3     SSE   159   4.0      SE   138   9.30    355      -28.2
   04/08/2018 03:10      55.9      54.6       76     47.9      0.00      6.05      67.7     0.42      1014.7     1.6     SSE   163   4.7      SE   132   9.30    359      -28.5
   04/08/2018 03:00      55.1      54.5       81     48.9      0.00      6.05      67.7     0.42      1014.8     1.2     SSE   150   3.2      SE   128   9.30    365      -26.2
   04/08/2018 02:50      54.9      54.1       82     49.2      0.00      6.05      67.7     0.42      1014.8     1.1     SSE   156   2.7      SE   140   9.30    366      -25.4
   04/08/2018 02:40      54.8      53.8       84     49.6      0.00      6.05      67.7     0.42      1014.8     1.5       S   171   3.1      SW   215   9.30    367      -25.0
   04/08/2018 02:30      54.4      53.8       86     49.8      0.00      6.05      67.8     0.42      1014.8     1.3     SSE   157   2.8       S   183   9.30    368      -23.8
   04/08/2018 02:20      54.4      54.0       86     50.0      0.00      6.05      67.8     0.42      1014.8     1.0      SE   142   2.2      SE   131   9.30    367      -24.3
   04/08/2018 02:10      54.6      54.0       86     50.0      0.00      6.05      67.8     0.42      1014.8     0.9     SSE   165   1.9       S   180   9.30    366      -23.8
   04/08/2018 02:00      55.0      54.3       86     50.5      0.00      6.05      67.8     0.42      1014.9     0.7       S   184   2.0     ESE   114   9.30    365      -23.7
   04/08/2018 01:50      54.9      54.5       88     51.1      0.00      6.05      67.9     0.42      1014.9     0.7     SSE   152   2.1      SE   140   9.30    365      -23.2
   04/08/2018 01:40      55.0      54.4       89     51.4      0.00      6.05      67.9     0.42      1015.0     0.9       S   182   2.3       W   260   9.30    364      -23.2
   04/08/2018 01:30      55.5      54.4       90     51.9      0.00      6.05      67.9     0.42      1014.9     1.1       S   173   2.2       S   184   9.30    362      -23.1
   04/08/2018 01:20      55.7      55.2       91     52.6      0.00      6.05      67.9     0.42      1015.0     0.4       S   177   2.3       S   185   9.30    360      -23.3
   04/08/2018 01:10      55.7      55.3       91     52.8      0.00      6.05      67.9     0.42      1015.0     0.2       S   174   1.2       S   175   9.30    358      -23.7
   04/08/2018 01:00      56.2      55.4       90     52.8      0.00      6.05      68.0     0.42      1014.9     0.6       S   172   1.4       S   183   9.30    354      -24.6
   04/08/2018 00:50      56.5      55.8       90     53.2      0.00      6.05      68.0     0.42      1014.8     0.6     SSW   201   1.2      SW   223   9.30    348      -25.4
   04/08/2018 00:40      57.1      56.3       90     53.8      0.00      6.05      68.0     0.42      1014.7     0.6     SSE   161   2.3     SSW   203   9.30    343      -25.7
   04/08/2018 00:30      57.1      56.3       90     53.7      0.00      6.05      68.0     0.42      1014.7     0.7      SW   235   1.6      SW   229   9.30    335      -24.9
   04/08/2018 00:20      57.2      56.5       90     53.9      0.00      6.05      68.0     0.42      1014.8     0.5     ESE   122   1.4     ENE    72   9.30    332      -26.0
   04/08/2018 00:10      57.3      56.8       90     54.2      0.00      6.05      68.0     0.42      1014.8     0.7     SSE   159   2.9       S   179   9.31    327      -26.0
   04/08/2018 00:00      57.4      56.9       90     54.2      0.00      6.05      68.0     0.42      1014.8     0.4     SSW   192   1.2       S   183   9.31    317      -25.0
   04/07/2018 23:50      57.5      57.0       90     54.4      0.00      6.05      68.0     0.42      1014.7     0.5       S   189   1.4     WSW   247   9.31    312      -29.1
   04/07/2018 23:40      57.4      56.9       90     54.2      0.00      6.05      68.0     0.42      1014.7     2.2      SW   225   2.8      SW   215   9.31    307      -28.1
   04/07/2018 23:30      57.2      56.5       90     53.8      0.00      6.05      68.1     0.42      1014.9     1.2     SSW   204   2.8     SSW   213   9.31    305      -30.3
   04/07/2018 23:20      57.4      56.9       90     54.0      0.00      6.05      68.0     0.42      1014.7     0.6      SE   127   1.3     SSW   192   9.31    300      -32.0
   04/07/2018 23:10      57.8      56.9       89     54.2      0.00      6.05      68.1     0.42      1014.7     1.5     SSW   209   2.0      SW   225   9.31    294      -37.2
   04/07/2018 23:00      57.8      57.2       89     54.3      0.00      6.05      68.1     0.42      1014.8     0.6       S   184   1.2       S   177   9.31    290      -44.9
   04/07/2018 22:50      57.6      57.0       88     53.5      0.00      6.05      68.1     0.42      1014.9     1.0       S   188   1.9      SE   145   9.31    285      -53.6
   04/07/2018 22:40      59.0      57.2       87     54.2      0.00      6.05      68.1     0.42      1014.9     1.3     SSW   213   2.1      SW   220   9.31    281      -54.5
   04/07/2018 22:30      59.3      58.4       86     54.6      0.00      6.05      68.1     0.42      1014.9     1.4      SW   221   1.9      SW   216   9.31    277      -56.8
   04/07/2018 22:20      59.8      59.1       86     55.2      0.00      6.05      68.0     0.42      1014.8     0.3      SW   225   1.1      SW   221   9.32    275      -58.2
   04/07/2018 22:10      60.2      59.4       86     55.4      0.00      6.05      68.1     0.42      1014.8     0.2       E   100   1.6     ENE    72   9.32    273      -61.9
   04/07/2018 22:00      60.3      59.8       85     55.5      0.00      6.05      68.1     0.42      1014.8     0.8       E    91   2.3      SE   138   9.32    272      -65.5
   04/07/2018 21:50      60.6      59.9       85     55.5      0.00      6.05      68.0     0.42      1014.7     0.8     ESE   108   2.1     ESE   117   9.32    271      -68.0
   04/07/2018 21:40      60.9      60.3       84     55.6      0.00      6.05      68.0     0.42      1014.7     0.8     ENE    77   2.2     ENE    67   9.32    270      -68.4
   04/07/2018 21:30      61.3      60.7       83     55.6      0.00      6.05      68.0     0.42      1014.6     0.6     ENE    61   2.1     NNE    29   9.32    270      -69.1
   04/07/2018 21:20      61.6      60.8       82     55.7      0.00      6.05      68.0     0.42      1014.5     0.6     ENE    66   1.6     ENE    63   9.32    270      -70.5
   04/07/2018 21:10      61.9      61.3       81     55.8      0.00      6.05      68.0     0.42      1014.3     0.7     ENE    58   2.3      NE    37   9.32    269      -70.9
   04/07/2018 21:00      62.1      61.6       81     55.7      0.00      6.05      67.9     0.42      1014.2     0.3     ENE    58   1.4     ENE    62   9.32    269      -68.4
   04/07/2018 20:50      62.3      61.7       80     55.8      0.00      6.05      68.0     0.42      1014.1     0.7     ENE    59   2.4      NE    55   9.32    268      -69.0
   04/07/2018 20:40      62.2      61.8       81     56.0      0.00      6.05      67.9     0.42      1014.0     0.6     ENE    59   1.5      NE    38   9.32    268      -68.4
   04/07/2018 20:30      62.4      61.8       81     56.0      0.00      6.05      67.9     0.42      1013.9     0.6     ENE    75   2.1       E    88   9.32    268      -67.2
   04/07/2018 20:20      63.0      62.0       80     56.0      0.00      6.05      67.9     0.42      1013.9     1.5       E    80   4.0     ENE    61   9.33    268      -69.4
   04/07/2018 20:10      63.8      62.6       78     56.1      0.00      6.05      67.9     0.42      1013.9     2.0     ENE    72   4.2       E    88   9.33    268      -67.8
   04/07/2018 20:00      64.7      63.5       75     56.2      0.00      6.05      67.8     0.42      1013.9     1.7     ENE    62   3.9     ENE    64   9.33    267      -53.6
   04/07/2018 19:50      65.8      64.5       73     56.3      0.00      6.05      67.8     0.42      1013.8     2.0      NE    51   3.6      NE    36   9.33    267      -50.3
   04/07/2018 19:40      67.6      65.7       69     55.9      0.00      6.05      67.8     0.42      1013.7     1.4     ENE    63   3.9      NE    48   9.33    267      -64.2
   04/07/2018 19:30      67.6      67.1       57     51.7      0.00      6.05      67.7     0.42      1013.6     1.5      NW   313   4.1       N     0   9.33    266      -64.6
   04/07/2018 19:20      67.8      67.3       56     51.3      0.00      6.05      67.8     0.42      1013.4     1.7     WSW   249   3.8     WSW   239   9.34    266      -65.2
   04/07/2018 19:10      68.5      67.5       56     51.3      0.00      6.05      67.7     0.42      1013.3     1.2     SSW   209   3.2       S   189   9.34    266      -66.9
   04/07/2018 19:00      69.1      68.0       55     51.5      0.00      6.05      67.7     0.42      1013.3     2.4     SSW   210   4.1      SW   217   9.34    266      -62.2
   04/07/2018 18:50      69.6      68.7       54     51.9      0.00      6.05      67.6     0.42      1013.3     2.8     WSW   239   5.5       W   266   9.34    265      -48.3
   04/07/2018 18:40      70.4      68.8       55     52.2      0.00      6.05      67.6     0.42      1013.2     4.2     WSW   244   7.1     SSW   213   9.34    266      -41.8
   04/07/2018 18:30      70.8      70.1       55     53.7      0.00      6.05      67.6     0.42      1013.1     3.9     WSW   258   6.3     WSW   246   9.35    265      -19.2
   04/07/2018 18:20      71.5      70.5       57     54.8      0.00      6.05      67.5     0.42      1013.0     4.2     WSW   248   6.7      SW   221   9.35    265       20.1
   04/07/2018 18:10      72.1      71.3       56     55.4      0.00      6.05      67.5     0.42      1012.9     3.5      SW   234   7.6      SW   231   9.35    265       39.9
   04/07/2018 18:00      72.5      71.6       56     55.4      0.00      6.05      67.4     0.42      1012.9     3.8     WNW   297   6.9       N   353   9.36    265       70.4
   04/07/2018 17:50      73.5      71.9       56     55.7      0.00      6.05      67.4     0.42      1012.9     4.1      NW   320   9.4     NNW   330   9.36    265       97.3
   04/07/2018 17:40      74.0      73.1       56     56.5      0.00      6.05      67.3     0.42      1012.9     4.0     WNW   283   7.7     WSW   252   9.36    265      128.8
   04/07/2018 17:30      74.6      73.7       55     57.2      0.00      6.05      67.3     0.42      1012.8     5.0       W   261   8.2       W   268   9.37    265      156.9
   04/07/2018 17:20      75.3      74.2       55     57.7      0.00      6.05      67.2     0.42      1012.7     4.9     WSW   255   9.0     WNW   287   9.37    265      186.1
   04/07/2018 17:10      75.4      74.4       55     57.8      0.00      6.05      67.2     0.42      1012.7     4.4     WNW   300   8.8      NW   308   9.37    265      213.4
   04/07/2018 17:00      75.0      74.3       55     57.6      0.00      6.05      67.1     0.42      1012.9     5.0      NW   306  10.5       W   274   9.38    265      241.5
   04/07/2018 16:50      75.8      74.6       55     57.7      0.00      6.05      67.1     0.42      1012.9     5.0      NW   313   8.8      NW   310   9.38    265      264.9
   04/07/2018 16:40      76.6      75.2       54     57.9      0.00      6.05      67.0     0.42      1013.0     4.6     NNW   329   9.5     WNW   301   9.38    265      286.9
   04/07/2018 16:30      76.5      75.6       54     58.1      0.00      6.05      67.0     0.42      1012.9     2.9     NNW   340   6.2       N     5   9.38    265      309.3
   04/07/2018 16:20      76.4      75.9       54     58.1      0.00      6.05      66.9     0.42      1012.9     4.1     NNW   326   7.6     WNW   291   9.38    265      413.6
   04/07/2018 16:10      76.1      74.9       55     58.3      0.00      6.05      66.9     0.42      1012.9     2.8     NNW   342   7.8     NNW   328   9.38    266      434.6
   04/07/2018 16:00      75.5      74.4       57     58.4      0.00      6.05      66.8     0.42      1013.1     3.1       N     2   5.6      NE    49   9.39    266      445.9
   04/07/2018 15:50      74.7      74.1       56     57.9      0.00      6.05      66.8     0.42      1013.4     3.8     WNW   290   9.5     WSW   250   9.39    266      175.5
   04/07/2018 15:40      74.9      74.3       56     57.7      0.00      6.05      66.8     0.42      1013.6     4.3     WNW   303   9.9       N     0   9.39    265      295.6
   04/07/2018 15:30      75.8      74.5       55     57.9      0.00      6.05      66.7     0.42      1013.8     5.2       W   275   9.0     WSW   245   9.39    265      393.7
   04/07/2018 15:20      75.8      74.6       56     58.4      0.00      6.05      66.6     0.42      1013.8     6.0     WSW   257  10.1     WSW   252   9.39    266      477.8
   04/07/2018 15:10      75.2      74.3       57     58.6      0.00      6.05      66.6     0.41      1013.8     6.7      SW   226   9.5      SW   224   9.40    266      514.7
   04/07/2018 15:00      75.6      74.7       57     58.9      0.00      6.05      66.6     0.41      1013.9     7.3      SW   227  11.0     SSW   209   9.40    266      580.4
   04/07/2018 14:50      76.0      75.2       57     59.4      0.00      6.05      66.6     0.41      1013.9     6.6      SW   236  11.7     SSW   209   9.40    265      568.3
   04/07/2018 14:40      76.8      75.4       57     59.7      0.00      6.05      66.5     0.41      1013.9     7.8      SW   231  12.3     SSW   211   9.40    265      557.7
   04/07/2018 14:30      77.3      76.4       56     60.2      0.00      6.05      66.5     0.41      1013.9     6.6      SW   230  10.3     WSW   247   9.40    265      601.8
   04/07/2018 14:20      77.0      76.3       57     60.2      0.00      6.05      66.5     0.41      1013.8     5.7     WSW   240   9.2      SW   231   9.40    265      503.3
   04/07/2018 14:10      76.9      76.1       57     60.3      0.00      6.05      66.5     0.41      1013.7     4.6     WSW   251  11.9       W   265   9.40    266      350.7
   04/07/2018 14:00      77.3      76.0       58     60.5      0.00      6.05      66.4     0.41      1013.8     6.0      SW   219  10.3       W   267   9.41    266      455.6
   04/07/2018 13:50      76.9      75.4       58     60.5      0.00      6.05      66.4     0.41      1013.8     6.0      SW   216  10.6     SSW   210   9.41    266      559.3
   04/07/2018 13:40      75.7      74.9       60     60.2      0.00      6.05      66.4     0.41      1013.9     6.9      SW   227  12.9      SW   234   9.41    266      602.6
   04/07/2018 13:30      75.5      74.1       60     60.2      0.00      6.05      66.4     0.41      1014.0     5.8     SSW   211   9.5     SSW   212   9.41    266      591.9
   04/07/2018 13:20      74.5      73.6       62     60.0      0.00      6.05      66.4     0.41      1014.2     4.5     WSW   247   8.2     WSW   251   9.41    266      596.0
   04/07/2018 13:10      73.7      72.8       64     60.0      0.00      6.05      66.4     0.41      1014.4     4.3     WSW   249   9.5      SW   225   9.41    266      604.7
   04/07/2018 13:00      73.0      72.2       65     60.0      0.00      6.05      66.4     0.41      1014.5     4.3     WSW   253   7.1     SSW   200   9.41    266      618.4
   04/07/2018 12:50      72.6      71.0       66     59.9      0.00      6.05      66.4     0.42      1014.8     3.4     WSW   247   7.8     WSW   240   9.41    266      624.6
   04/07/2018 12:40      71.3      70.1       68     59.5      0.00      6.05      66.4     0.42      1014.9     3.9      SW   229   7.7      SW   235   9.41    266      588.8
   04/07/2018 12:30      70.5      68.8       70     59.2      0.00      6.05      66.4     0.42      1015.0     2.2      SW   222   5.1       S   183   9.41    266      488.5
   04/07/2018 12:20      69.0      68.3       70     58.6      0.00      6.05      66.4     0.42      1015.3     2.9      SW   234   5.8     WSW   249   9.41    267      266.4
   04/07/2018 12:10      68.8      67.9       70     58.2      0.00      6.05      66.4     0.42      1015.3     2.1     WSW   241   6.0      SW   234   9.41    267      194.9
   04/07/2018 12:00      68.3      67.8       70     58.0      0.00      6.05      66.4     0.42      1015.3     2.1     WNW   286   5.1     WNW   301   9.41    267      182.0
   04/07/2018 11:50      68.0      67.2       69     57.0      0.00      6.05      66.4     0.42      1015.5     1.1     WSW   250   4.1       W   277   9.41    267      142.0
   04/07/2018 11:40      68.0      67.3       68     56.5      0.00      6.05      66.4     0.42      1015.6     1.1      NW   305   3.4      SW   234   9.41    267      103.5
   04/07/2018 11:30      67.9      66.8       68     56.7      0.00      6.05      66.4     0.42      1015.6     0.6       S   187   2.7       W   267   9.41    267      159.8
   04/07/2018 11:20      67.4      66.8       69     56.4      0.00      6.05      66.4     0.42      1015.6     1.3     WNW   292   4.1      SW   232   9.41    267      187.4
   04/07/2018 11:10      67.0      66.3       69     56.3      0.00      6.05      66.4     0.42      1015.6     1.7      NW   306   3.5       W   261   9.41    267      193.6
   04/07/2018 11:00      66.5      65.7       70     56.1      0.00      6.05      66.4     0.42      1015.6     2.0       N     4   3.8       N   351   9.41    267      223.0
   04/07/2018 10:50      66.0      65.4       71     56.1      0.00      6.05      66.4     0.42      1015.6     1.7     NNW   327   4.1      NW   309   9.41    267      203.3
   04/07/2018 10:40      65.7      65.2       72     56.2      0.00      6.05      66.5     0.42      1015.6     2.1       W   270   4.4     WSW   245   9.41    267      191.3
   04/07/2018 10:30      65.5      65.2       71     55.9      0.00      6.05      66.5     0.42      1015.6     1.7     WSW   249   5.0      SW   215   9.41    267      169.5
   04/07/2018 10:20      65.4      64.7       71     55.4      0.00      6.05      66.5     0.42      1015.6     1.7       W   267   4.0       W   259   9.41    267      173.7
   04/07/2018 10:10      65.0      64.3       71     55.1      0.00      6.05      66.5     0.42      1015.4     2.0     WSW   256   3.8      SW   236   9.41    267      197.6
   04/07/2018 10:00      64.9      63.8       71     54.6      0.00      6.05      66.5     0.42      1015.4     0.9     NNW   344   2.9     SSW   210   9.41    267      184.3
   04/07/2018 09:50      64.0      63.1       73     54.5      0.00      6.05      66.6     0.42      1015.3     1.1     SSE   164   4.3     SSE   148   9.41    267      178.1
   04/07/2018 09:40      63.6      62.9       70     53.1      0.00      6.05      66.6     0.42      1015.3     1.3     WNW   298   3.0     SSW   208   9.41    267      160.3
   04/07/2018 09:30      63.9      63.3       68     53.0      0.00      6.05      66.6     0.42      1015.3     0.9      NE    40   2.5       N   355   9.41    267      160.2
   04/07/2018 09:20      63.5      62.6       70     53.0      0.00      6.05      66.7     0.42      1015.3     0.5      NE    38   1.4      SE   135   9.41    267      154.9
   04/07/2018 09:10      63.0      62.2       70     52.9      0.00      6.05      66.6     0.42      1015.3     0.8     WNW   285   2.3       W   278   9.41    268      135.1
   04/07/2018 09:00      62.5      61.6       71     52.8      0.00      6.05      66.7     0.42      1015.2     0.3       W   270   1.2       W   278   9.41    268      140.4
   04/07/2018 08:50      62.2      61.6       72     52.7      0.00      6.05      66.7     0.42      1015.2     0.7      SE   141   1.9     NNE    29   9.41    268      132.0
   04/07/2018 08:40      62.5      61.6       71     52.6      0.00      6.05      66.8     0.42      1015.2     1.2     NNW   346   2.7      NW   313   9.41    268      173.6
   04/07/2018 08:30      62.4      61.3       72     52.8      0.00      6.05      66.8     0.42      1015.1     0.7     NNW   342   3.1     NNE    14   9.41    268      175.0
   04/07/2018 08:20      61.5      60.9       74     52.8      0.00      6.05      66.8     0.42      1015.0     1.1      NE    54   2.2     NNE    32   9.41    268      146.6
   04/07/2018 08:10      61.0      59.9       76     52.7      0.00      6.05      66.8     0.42      1014.9     1.0      NE    53   2.8      NE    51   9.41    269      120.1
   04/07/2018 08:00      60.2      59.3       78     53.0      0.00      6.05      66.8     0.42      1014.9     0.8     NNE    28   1.8     NNE    20   9.41    269       88.7
   04/07/2018 07:50      59.5      57.9       84     53.9      0.00      6.05      66.8     0.42      1014.9     0.4      NE    44   1.6     ENE    57   9.41    269       71.5
   04/07/2018 07:40      57.9      56.6       87     53.3      0.00      6.05      66.9     0.42      1015.0     0.0       N     0   0.0     SSE   166   9.41    270       54.2
   04/07/2018 07:30      56.6      55.7       88     52.7      0.00      6.05      67.0     0.42      1015.0     0.0       N     0   0.0       S   173   9.41    271       25.3
   04/07/2018 07:20      55.8      54.9       89     52.2      0.00      6.05      67.0     0.42      1015.0     0.2       S   189   0.9     SSW   193   9.41    278        8.7
   04/07/2018 07:10      55.0      54.4       89     51.7      0.00      6.05      67.0     0.42      1014.8     0.1       S   181   0.8     SSW   192   9.41    279       -0.9
   04/07/2018 07:00      54.8      54.4       89     51.5      0.00      6.05      67.0     0.42      1014.9     0.5     SSW   201   1.1     SSW   202   9.41    279       -8.4
   04/07/2018 06:50      54.9      54.4       89     51.5      0.00      6.05      67.0     0.42      1014.8     0.1       S   172   0.7       S   171   9.41    279      -18.3
   04/07/2018 06:40      54.9      54.4       89     51.4      0.00      6.05      67.0     0.42      1014.7     0.7     SSW   197   1.3     SSW   196   9.41    277      -24.9
   04/07/2018 06:30      54.8      54.3       89     51.3      0.00      6.05      67.1     0.42      1014.7     0.0     SSE   159   0.4     SSE   168   9.41    277      -29.0
   04/07/2018 06:20      54.9      54.3       88     51.2      0.00      6.05      67.1     0.42      1014.8     0.6      SE   144   1.1      SE   139   9.41    276      -31.4
   04/07/2018 06:10      54.9      54.5       89     51.6      0.00      6.05      67.1     0.42      1014.9     1.2     SSW   199   1.8     SSW   200   9.41    275      -30.2
   04/07/2018 06:00      55.0      54.5       89     51.5      0.00      6.05      67.2     0.42      1014.7     0.0     SSW   202   1.0     SSW   202   9.41    275      -31.1
   04/07/2018 05:50      54.9      54.6       89     51.7      0.00      6.05      67.2     0.42      1014.7     0.1     SSE   160   0.8     SSW   199   9.41    275      -31.5
   04/07/2018 05:40      55.0      54.4       89     51.6      0.00      6.05      67.2     0.42      1014.7     0.0     SSW   205   0.6     SSW   205   9.41    274      -32.7
   04/07/2018 05:30      54.7      54.2       89     51.4      0.00      6.05      67.2     0.42      1014.7     0.7       S   170   2.1       S   171   9.41    274      -34.0
   04/07/2018 05:20      54.9      54.4       89     51.3      0.00      6.05      67.3     0.42      1014.7     0.9       S   184   1.4       S   179   9.41    274      -34.5
   04/07/2018 05:10      55.0      54.5       89     51.6      0.00      6.05      67.3     0.42      1014.7     0.7       S   185   2.3     SSE   154   9.41    274      -35.8
   04/07/2018 05:00      55.1      54.4       89     51.5      0.00      6.05      67.3     0.42      1014.8     0.7       S   178   1.6       S   181   9.41    274      -35.8
   04/07/2018 04:50      55.1      54.7       89     51.7      0.00      6.05      67.3     0.42      1014.8     0.3     SSE   152   1.0      SE   145   9.41    274      -36.1
   04/07/2018 04:40      55.0      54.4       89     51.5      0.00      6.05      67.3     0.42      1014.8     0.7     SSE   152   1.2      SE   140   9.41    273      -37.8
   04/07/2018 04:30      55.1      54.4       88     51.0      0.00      6.05      67.3     0.42      1014.9     0.1       S   171   1.0     SSE   169   9.41    272      -39.7
   04/07/2018 04:20      55.2      54.5       88     51.2      0.00      6.05      67.4     0.42      1014.9     0.6       S   183   2.0       S   190   9.41    272      -40.8
   04/07/2018 04:10      55.5      54.7       87     51.3      0.00      6.05      67.4     0.42      1015.0     0.2     SSE   161   0.9     SSE   165   9.41    272      -41.9
   04/07/2018 04:00      55.9      55.3       87     51.6      0.00      6.05      67.4     0.42      1015.0     0.4     SSE   153   1.3       S   178   9.41    272      -42.1
   04/07/2018 03:50      55.9      55.5       86     51.7      0.00      6.05      67.5     0.42      1015.0     0.1     SSE   166   0.9       S   181   9.41    271      -42.6
   04/07/2018 03:40      56.3      55.6       86     51.6      0.00      6.05      67.5     0.42      1015.0     0.7       S   181   1.8       S   188   9.41    270      -42.7
   04/07/2018 03:30      56.5      56.0       85     51.7      0.00      6.05      67.5     0.42      1015.2     0.5     SSW   197   1.1       S   183   9.41    270      -42.9
   04/07/2018 03:20      56.9      56.3       84     51.8      0.00      6.05      67.5     0.42      1015.2     0.1       S   179   1.1       S   182   9.41    270      -43.7
   04/07/2018 03:10      57.0      56.4       84     51.7      0.00      6.05      67.5     0.42      1015.3     0.0       N     0   0.0     ESE   106   9.41    270      -44.4
   04/07/2018 03:00      57.3      56.8       83     51.9      0.00      6.05      67.5     0.42      1015.4     0.0       N     0   0.0       E    84   9.41    270      -44.0
   04/07/2018 02:50      57.4      56.9       83     51.9      0.00      6.05      67.6     0.42      1015.5     0.0       N     0   0.0     ESE   108   9.41    270      -43.9
   04/07/2018 02:40      57.4      57.0       82     51.9      0.00      6.05      67.6     0.42      1015.6     0.0       E    95   0.5       E    99   9.41    270      -44.8
   04/07/2018 02:30      57.6      57.0       82     51.7      0.00      6.05      67.6     0.42      1015.6     0.0     ENE    62   0.5     ENE    60   9.41    269      -45.7
   04/07/2018 02:20      57.9      57.3       81     51.8      0.00      6.05      67.6     0.42      1015.6     0.0     ENE    60   0.8     ENE    70   9.41    269      -46.5
   04/07/2018 02:10      58.3      57.6       81     51.9      0.00      6.05      67.7     0.42      1015.6     0.2     ENE    60   1.0     ENE    70   9.41    269      -47.8
   04/07/2018 02:00      58.5      58.0       80     52.0      0.00      6.05      67.7     0.42      1015.6     0.5     ENE    61   2.4      NE    50   9.42    269      -48.9
   04/07/2018 01:50      58.5      58.1       80     52.2      0.00      6.05      67.7     0.42      1015.7     1.1      NE    51   2.8      NE    40   9.42    268      -49.0
   04/07/2018 01:40      58.4      58.0       81     52.2      0.00      6.05      67.7     0.42      1015.8     0.7      NE    47   2.2      NE    53   9.42    268      -47.8
   04/07/2018 01:30      58.3      57.7       81     52.2      0.00      6.05      67.7     0.42      1015.8     0.5     ENE    76   1.5     ENE    65   9.42    268      -41.3
   04/07/2018 01:20      57.9      57.4       82     52.0      0.00      6.05      67.7     0.42      1015.9     0.4       E    86   1.5       E    99   9.42    268      -34.4
   04/07/2018 01:10      57.9      57.1       81     51.6      0.00      6.05      67.7     0.42      1015.9     0.3      SE   134   1.1      SE   134   9.42    269      -36.9
   04/07/2018 01:00      57.9      57.4       81     51.7      0.00      6.05      67.8     0.42      1016.1     0.0       N     0   0.0       E   100   9.42    268      -38.9
   04/07/2018 00:50      58.0      57.5       80     51.6      0.00      6.05      67.8     0.42      1016.1     0.0       N     0   0.0       E    99   9.42    268      -44.6
   04/07/2018 00:40      58.0      57.6       80     51.6      0.00      6.05      67.8     0.42      1016.1     0.4       E    90   1.8     ENE    75   9.42    268      -46.7
   04/07/2018 00:30      58.3      57.7       79     51.5      0.00      6.05      67.8     0.42      1016.0     0.1     SSW   197   1.0     SSW   214   9.42    268      -47.2
   04/07/2018 00:20      58.8      58.0       78     51.5      0.00      6.05      67.8     0.42      1016.0     0.0     ESE   115   0.4      SE   128   9.42    268      -48.1
   04/07/2018 00:10      59.0      58.5       77     51.8      0.00      6.05      67.8     0.42      1016.0     0.7     SSW   195   1.6     SSW   207   9.42    268      -47.9
   04/07/2018 00:00      58.9      58.4       78     51.8      0.00      6.05      67.8     0.42      1016.0     1.6     SSW   200   1.9      SW   217   9.42    268      -47.8
   04/06/2018 23:50      58.9      58.5       78     51.7      0.00      6.05      67.8     0.42      1016.0     0.8       S   175   1.8       S   180   9.42    268      -48.2
   04/06/2018 23:40      58.9      58.5       77     51.6      0.00      6.05      67.9     0.42      1015.9     1.2     SSW   198   1.6       S   191   9.42    268      -48.2
   04/06/2018 23:30      59.4      58.6       76     51.5      0.00      6.05      67.9     0.42      1015.8     0.2     SSW   196   1.5     SSW   201   9.42    268      -49.2
   04/06/2018 23:20      59.4      58.9       76     51.6      0.00      6.05      67.9     0.42      1015.8     0.8       S   169   2.1     SSW   210   9.42    268      -49.5
   04/06/2018 23:10      60.1      59.1       75     51.5      0.00      6.05      67.8     0.42      1015.8     1.0     SSW   205   2.3     SSW   212   9.42    268      -49.8
   04/06/2018 23:00      60.2      59.7       74     51.6      0.00      6.05      67.9     0.42      1015.7     0.2      SE   146   1.3     WSW   249   9.42    268      -51.8
   04/06/2018 22:50      60.2      59.9       74     51.6      0.00      6.05      67.8     0.42      1015.7     1.3       S   189   3.3     SSW   197   9.42    268      -52.5
   04/06/2018 22:40      60.4      59.9       74     51.6      0.00      6.05      67.9     0.42      1015.6     1.5     SSW   210   2.9      SW   223   9.43    268      -51.7
   04/06/2018 22:30      60.3      59.9       74     51.7      0.00      6.05      67.9     0.42      1015.5     1.0     SSW   211   2.6      SW   227   9.43    267      -51.9
   04/06/2018 22:20      60.7      59.9       73     51.6      0.00      6.05      67.9     0.42      1015.4     2.0     SSW   211   3.0     SSW   212   9.43    267      -51.7
   04/06/2018 22:10      60.8      60.3       72     51.5      0.00      6.05      67.9     0.42      1015.5     1.7      SW   218   3.4     SSW   209   9.43    267      -52.5
   04/06/2018 22:00      61.2      60.4       72     51.6      0.00      6.05      67.9     0.42      1015.4     1.6     SSW   208   2.9      SW   214   9.43    267      -52.8
   04/06/2018 21:50      61.2      60.8       71     51.6      0.00      6.05      67.8     0.42      1015.3     0.6     SSW   196   1.8     SSE   159   9.43    267      -53.7
   04/06/2018 21:40      61.3      60.8       71     51.6      0.00      6.05      67.8     0.42      1015.2     1.5     SSW   203   3.4      SW   215   9.43    267      -53.9
   04/06/2018 21:30      61.3      60.8       71     51.6      0.00      6.05      67.8     0.42      1015.1     3.1     SSW   204   4.8     SSW   196   9.43    267      -54.1
   04/06/2018 21:20      61.7      60.9       71     51.6      0.00      6.05      67.8     0.42      1015.0     3.4     SSW   200   4.9       S   191   9.43    267      -55.2
   04/06/2018 21:10      61.9      61.3       70     51.7      0.00      6.05      67.8     0.42      1014.9     3.5      SW   225   6.0      SW   233   9.43    267      -56.0
   04/06/2018 21:00      62.2      61.5       69     51.7      0.00      6.05      67.8     0.42      1014.8     4.2      SW   227   6.2      SW   232   9.43    267      -56.5
   04/06/2018 20:50      62.6      61.9       69     51.8      0.00      6.05      67.8     0.42      1014.7     2.7     SSW   211   4.7      SW   223   9.43    267      -57.3
   04/06/2018 20:40      62.7      62.1       68     51.8      0.00      6.05      67.7     0.42      1014.5     3.0      SW   219   5.7     SSW   208   9.44    266      -57.7
   04/06/2018 20:30      63.0      62.4       68     51.8      0.00      6.05      67.8     0.42      1014.5     2.4      SW   221   3.7      SW   230   9.44    266      -58.3
   04/06/2018 20:20      63.2      62.7       67     51.9      0.00      6.05      67.7     0.42      1014.3     3.4     SSW   213   6.1     SSW   204   9.44    266      -59.1
   04/06/2018 20:10      63.5      62.8       67     51.9      0.00      6.05      67.7     0.42      1014.2     4.2      SW   220   7.9      SW   216   9.44    266      -59.7
   04/06/2018 20:00      64.1      63.1       66     52.0      0.00      6.05      67.7     0.42      1014.2     4.5      SW   228   8.0     WSW   251   9.44    266      -60.1
   04/06/2018 19:50      64.6      63.8       65     52.0      0.00      6.05      67.7     0.42      1014.0     5.1      SW   231   9.2      SW   228   9.45    266      -59.1
   04/06/2018 19:40      65.3      64.2       64     52.0      0.00      6.05      67.6     0.42      1013.8     5.4      SW   228   8.3     SSW   205   9.45    266      -58.3
   04/06/2018 19:30      65.9      64.9       62     51.9      0.00      6.05      67.5     0.42      1013.8     4.3      SW   228   8.0      SW   217   9.45    266      -57.8
   04/06/2018 19:20      66.5      65.5       60     51.7      0.00      6.05      67.5     0.42      1013.8     6.0      SW   232   9.2     SSW   206   9.45    266      -53.8
   04/06/2018 19:10      66.8      66.2       59     51.6      0.00      6.05      67.5     0.42      1013.9     5.3     WSW   237  10.1      SW   223   9.46    266      -44.0
   04/06/2018 19:00      67.1      66.4       58     51.5      0.00      6.05      67.5     0.42      1013.9     4.6      SW   231  10.2     WSW   257   9.46    266      -34.6
   04/06/2018 18:50      67.8      66.9       57     51.4      0.00      6.05      67.5     0.42      1014.0     3.5      SW   224   7.2       W   271   9.46    266      -30.1
   04/06/2018 18:40      68.0      67.3       56     51.4      0.00      6.05      67.4     0.42      1013.9     3.4      SW   230   7.9     SSW   204   9.46    266        3.4
   04/06/2018 18:30      67.9      67.1       56     51.1      0.00      6.05      67.3     0.42      1013.7     4.4     WSW   237   8.0     WSW   258   9.46    266       27.4
   04/06/2018 18:20      67.4      66.9       56     51.1      0.00      6.05      67.3     0.42      1013.8     5.8      SW   234   9.3      SW   224   9.47    265       64.4
   04/06/2018 18:10      67.1      66.3       57     51.2      0.00      6.05      67.3     0.42      1013.8     5.5      SW   229   8.9     WSW   251   9.47    266       65.7
   04/06/2018 18:00      67.4      66.5       57     51.0      0.00      6.05      67.2     0.42      1013.8     6.5      SW   226  10.5      SW   235   9.47    266       27.2
   04/06/2018 17:50      68.0      67.0       55     50.8      0.00      6.05      67.2     0.42      1013.6     7.3      SW   232  11.1     WSW   250   9.48    265       33.3
   04/06/2018 17:40      68.6      67.5       54     50.5      0.00      6.05      67.1     0.42      1013.5     7.1      SW   224  11.4      SW   230   9.48    265       43.7
   04/06/2018 17:30      69.3      68.3       51     50.1      0.00      6.05      67.1     0.42      1013.5     7.6      SW   221  11.6     SSW   212   9.49    265       96.8
   04/06/2018 17:20      70.2      69.1       49     49.8      0.00      6.05      67.0     0.42      1013.5     7.3      SW   224  12.8      SW   214   9.49    264      143.9
   04/06/2018 17:10      70.2      69.2       50     49.9      0.00      6.05      67.0     0.42      1013.6     7.0     WSW   237  13.2      SW   233   9.50    264      212.9
   04/06/2018 17:00      70.1      69.3       51     50.5      0.00      6.05      66.9     0.42      1013.6     8.9     WSW   238  14.1     WSW   238   9.50    264      270.1
   04/06/2018 16:50      70.6      69.8       49     49.9      0.00      6.05      66.8     0.42      1013.6     7.6     WSW   240  11.3      SW   233   9.51    264      231.2
   04/06/2018 16:40      72.1      70.2       45     48.6      0.00      6.05      66.8     0.42      1013.5     7.4      SW   225  11.8     SSW   211   9.51    264      173.8
   04/06/2018 16:30      73.7      71.8       40     47.2      0.00      6.05      66.7     0.42      1013.5     7.8      SW   235  14.3     SSW   204   9.51    264      251.4
   04/06/2018 16:20      74.7      73.2       38     46.8      0.00      6.05      66.7     0.42      1013.5     7.1     WSW   239  12.9     SSW   213   9.52    264      294.8
   04/06/2018 16:10      75.8      74.2       37     47.0      0.00      6.05      66.6     0.42      1013.4     6.8     WSW   248  12.8     WNW   292   9.52    264      342.0
   04/06/2018 16:00      75.5      73.8       37     46.8      0.00      6.05      66.5     0.42      1013.3     5.2     WSW   244   9.9      SW   227   9.53    263      385.2
   04/06/2018 15:50      74.6      73.9       37     46.4      0.00      6.05      66.4     0.42      1013.5     6.7     WSW   244  11.3      SW   222   9.53    264      334.6
   04/06/2018 15:40      74.7      73.9       36     46.0      0.00      6.05      66.4     0.42      1013.6     8.0      SW   222  12.0     WSW   256   9.54    263      403.8
   04/06/2018 15:30      74.9      73.9       35     45.3      0.00      6.05      66.3     0.42      1013.7     7.7     WSW   238  11.5      SW   227   9.54    264      439.0
   04/06/2018 15:20      75.0      74.1       35     45.0      0.00      6.05      66.3     0.42      1013.7     6.9     WSW   240  11.4      SW   217   9.54    263      373.3
   04/06/2018 15:10      75.2      74.4       34     44.7      0.00      6.05      66.3     0.42      1013.8     6.7     WSW   241  11.5      SW   224   9.55    263      381.3
   04/06/2018 15:00      75.5      74.6       34     44.7      0.00      6.05      66.2     0.42      1013.9     7.6      SW   224  13.1     WSW   259   9.55    263      496.7
   04/06/2018 14:50      76.0      74.7       33     44.5      0.00      6.05      66.1     0.42      1013.9     8.4     WSW   242  14.5     SSW   210   9.55    263      499.7
   04/06/2018 14:40      75.8      74.9       33     44.2      0.00      6.05      66.0     0.42      1014.0     7.4     WSW   241  11.6      SW   222   9.56    263      506.8
   04/06/2018 14:30      75.9      74.8       33     44.1      0.00      6.05      66.0     0.42      1014.1     7.2     WSW   239  12.3      SW   227   9.56    263      474.6
   04/06/2018 14:20      75.8      74.8       32     43.5      0.00      6.05      66.0     0.42      1014.1     6.3     WSW   249  11.2     WSW   253   9.57    263      438.0
   04/06/2018 14:10      75.5      74.7       35     45.8      0.00      6.05      65.9     0.42      1014.2     4.9     WSW   238   8.3       W   261   9.57    263      365.3
   04/06/2018 14:00      76.2      74.7       35     46.2      0.00      6.05      65.9     0.42      1014.3     4.8      SW   232   8.7     SSW   212   9.57    263      376.5
   04/06/2018 13:50      76.8      75.2       35     46.5      0.00      6.05      65.8     0.42      1014.3     3.5       W   259  10.5     WNW   293   9.57    263      420.4
   04/06/2018 13:40      77.1      74.7       36     47.8      0.00      6.05      65.7     0.42      1014.3     2.4      NW   315   8.7     WSW   255   9.58    263      510.5
   04/06/2018 13:30      75.8      74.2       38     47.0      0.00      6.05      65.8     0.42      1014.3     3.1     SSE   164   6.9     SSW   205   9.58    263      565.9
   04/06/2018 13:20      76.5      75.7       39     49.3      0.00      6.05      65.7     0.42      1014.4     2.8       W   272   6.7      SW   227   9.58    263      491.4
   04/06/2018 13:10      76.5      74.3       40     49.9      0.00      6.05      65.7     0.42      1014.4     1.6     NNW   338   4.4       W   267   9.58    263      474.1
   04/06/2018 13:00      75.7      74.1       41     49.4      0.00      6.05      65.7     0.42      1014.5     2.6     WNW   293   5.6      SW   231   9.58    264      458.0
   04/06/2018 12:50      75.5      74.0       41     49.7      0.00      6.05      65.7     0.42      1014.5     2.9      SW   227   5.7       W   280   9.58    263      567.6
   04/06/2018 12:40      74.4      73.4       42     49.3      0.00      6.05      65.6     0.42      1014.6     2.3     ESE   119   5.0     ENE    72   9.58    264      486.6
   04/06/2018 12:30      74.3      72.4       42     48.9      0.00      6.05      65.6     0.42      1014.8     2.2      SW   217   6.0       W   262   9.58    264      365.3
   04/06/2018 12:20      74.3      72.9       42     49.0      0.00      6.05      65.7     0.42      1014.9     2.0      SW   218   5.3      NW   307   9.58    264      619.0
   04/06/2018 12:10      73.7      72.2       43     49.1      0.00      6.05      65.6     0.42      1015.0     2.7      NW   310   5.2       N     6   9.58    263      571.6
   04/06/2018 12:00      73.3      72.2       43     48.8      0.00      6.05      65.6     0.42      1015.1     1.5       S   178   4.6     SSW   205   9.58    264      564.6
   04/06/2018 11:50      72.0      71.1       44     48.6      0.00      6.05      65.6     0.42      1015.3     1.8     ENE    60   5.0       N     8   9.58    264      464.2
   04/06/2018 11:40      71.5      70.5       45     48.4      0.00      6.05      65.6     0.42      1015.4     2.6     NNW   335   4.8      NW   324   9.58    264      479.5
   04/06/2018 11:30      70.9      70.3       46     48.7      0.00      6.05      65.7     0.42      1015.5     2.4      NW   313   4.5      NW   310   9.58    264      440.1
   04/06/2018 11:20      71.0      70.2       46     49.0      0.00      6.05      65.7     0.42      1015.8     2.4       W   260   4.8     WSW   244   9.58    265      506.9
   04/06/2018 11:10      70.5      69.7       47     49.1      0.00      6.05      65.7     0.42      1015.9     2.4     WNW   302   5.0     WNW   281   9.58    265      491.5
   04/06/2018 11:00      69.8      68.0       50     49.1      0.00      6.05      65.7     0.42      1016.0     1.9       N   359   4.7     NNW   340   9.58    265      460.1
   04/06/2018 10:50      68.4      67.5       51     48.9      0.00      6.05      65.8     0.42      1016.1     2.4      NW   322   5.5     WNW   284   9.59    265      468.2
   04/06/2018 10:40      68.2      67.1       51     49.0      0.00      6.05      65.7     0.42      1016.1     1.7     WNW   286   4.4     WSW   243   9.59    265      434.6
   04/06/2018 10:30      68.1      67.1       52     49.2      0.00      6.05      65.8     0.42      1016.1     1.9       W   275   6.1       W   266   9.59    265      435.0
   04/06/2018 10:20      67.1      66.3       53     49.0      0.00      6.05      65.8     0.42      1016.2     1.2     NNW   346   2.8       N     6   9.59    265      428.2
   04/06/2018 10:10      66.6      64.8       54     48.7      0.00      6.05      65.8     0.42      1016.2     0.8       N     9   3.0       N   352   9.59    266      392.8
   04/06/2018 10:00      64.9      62.8       57     48.3      0.00      6.05      65.8     0.42      1016.2     1.1     NNE    17   2.5     WNW   303   9.59    266      374.3
   04/06/2018 09:50      63.2      62.4       58     48.0      0.00      6.05      65.9     0.42      1016.2     1.6      NW   320   2.9      NW   316   9.59    266      246.5
   04/06/2018 09:40      63.5      62.5       58     48.1      0.00      6.05      65.9     0.42      1016.2     1.3       W   274   3.1     WSW   249   9.59    266      201.1
   04/06/2018 09:30      62.5      61.8       59     47.8      0.00      6.05      65.8     0.42      1016.2     1.4     NNE    31   3.4     NNE    27   9.59    266      236.9
   04/06/2018 09:20      61.9      61.3       60     47.6      0.00      6.05      65.9     0.42      1016.2     1.6     NNW   345   3.8     NNW   335   9.59    266      287.6
   04/06/2018 09:10      62.9      61.4       59     47.4      0.00      6.05      66.0     0.42      1016.2     1.6     NNW   339   3.0     NNW   329   9.59    266      258.0
   04/06/2018 09:00      62.8      61.5       60     47.8      0.00      6.05      66.0     0.42      1016.2     0.6      SW   230   2.6       S   172   9.59    266      265.1
   04/06/2018 08:50      61.8      60.1       63     47.9      0.00      6.05      66.0     0.42      1016.2     0.8      NE    56   2.5      NE    53   9.59    266      237.9
   04/06/2018 08:40      60.4      59.3       65     48.0      0.00      6.05      66.0     0.42      1016.1     1.0     ENE    75   2.8      SE   141   9.59    267      200.6
   04/06/2018 08:30      59.3      58.7       66     47.8      0.00      6.05      66.1     0.42      1016.0     0.8       S   174   2.1     NNE    15   9.59    267      158.3
   04/06/2018 08:20      59.1      58.2       68     47.9      0.00      6.05      66.2     0.42      1016.1     0.6     NNE    18   2.5     NNW   327   9.59    268      125.7
   04/06/2018 08:10      58.5      57.5       69     47.7      0.00      6.05      66.2     0.42      1016.2     0.2       S   183   0.9      SE   139   9.59    268       99.0
   04/06/2018 08:00      57.6      55.4       73     47.9      0.00      6.05      66.2     0.42      1016.4     0.4     WSW   239   1.8     WSW   248   9.59    268       91.7
   04/06/2018 07:50      55.4      53.1       78     47.5      0.00      6.05      66.3     0.42      1016.5     0.3      SW   227   1.6     WSW   245   9.59    268       69.5
   04/06/2018 07:40      53.3      52.5       82     47.3      0.00      6.05      66.3     0.42      1016.4     0.4     SSW   210   1.4     SSW   212   9.59    269       21.8
   04/06/2018 07:30      52.7      51.8       83     47.2      0.00      6.05      66.3     0.42      1016.2     0.1       S   178   0.9     SSW   200   9.59    275       -1.4
   04/06/2018 07:20      52.0      50.6       85     46.9      0.00      6.05      66.3     0.42      1016.0     1.0      SW   219   1.8      SW   214   9.59    279        7.1
   04/06/2018 07:10      51.0      50.1       86     46.4      0.00      6.05      66.3     0.42      1015.7     0.4     SSW   202   1.1     SSW   211   9.59    285        2.9
   04/06/2018 07:00      50.4      49.9       86     46.2      0.00      6.05      66.3     0.42      1015.7     0.2       S   182   0.8       S   180   9.59    285      -17.8
   04/06/2018 06:50      50.3      49.7       86     46.0      0.00      6.05      66.4     0.42      1015.6     0.2       S   174   1.0       S   178   9.59    285      -27.2
   04/06/2018 06:40      50.5      50.0       87     46.4      0.00      6.05      66.4     0.43      1015.5     0.4     SSE   164   1.0       S   172   9.59    285      -31.1
   04/06/2018 06:30      50.5      50.0       87     46.6      0.00      6.05      66.5     0.42      1015.4     0.6       S   176   1.6     SSW   192   9.59    285      -33.0
   04/06/2018 06:20      50.6      50.0       88     46.8      0.00      6.05      66.5     0.42      1015.4     0.4     SSE   169   1.5       S   169   9.59    285      -33.2
   04/06/2018 06:10      50.5      50.1       88     46.9      0.00      6.05      66.5     0.43      1015.5     0.0       N     0   0.0     SSE   147   9.59    285      -34.4
   04/06/2018 06:00      50.7      50.1       88     46.9      0.00      6.05      66.5     0.43      1015.4     0.0       S   178   0.9       S   179   9.59    283      -36.0
   04/06/2018 05:50      51.0      50.4       88     47.2      0.00      6.05      66.6     0.43      1015.4     0.4     SSE   149   0.9     SSE   156   9.59    282      -36.8
   04/06/2018 05:40      51.0      50.6       88     47.3      0.00      6.05      66.6     0.43      1015.4     0.4     SSE   152   0.9     SSE   154   9.59    280      -39.0
   04/06/2018 05:30      51.0      50.5       87     47.1      0.00      6.05      66.6     0.43      1015.3     0.5     SSE   166   1.1       S   181   9.59    278      -41.5
   04/06/2018 05:20      51.4      50.6       87     47.3      0.00      6.05      66.7     0.43      1015.3     0.5       S   175   1.6       S   178   9.59    276      -42.3
   04/06/2018 05:10      51.3      50.8       87     47.3      0.00      6.05      66.7     0.43      1015.3     0.0       S   175   0.7     SSE   166   9.60    275      -44.3
   04/06/2018 05:00      51.5      51.0       87     47.4      0.00      6.05      66.7     0.43      1015.0     0.3     SSE   155   1.3      SE   139   9.60    275      -45.9
   04/06/2018 04:50      51.4      51.0       87     47.5      0.00      6.05      66.8     0.43      1015.0     0.2       S   179   0.8     SSE   153   9.60    274      -47.8
   04/06/2018 04:40      51.6      51.1       86     47.4      0.00      6.05      66.8     0.43      1014.8     0.3     SSE   149   1.2      SE   143   9.60    273      -50.4
   04/06/2018 04:30      51.8      51.3       86     47.5      0.00      6.05      66.7     0.43      1014.8     0.2     SSE   157   1.1     SSE   154   9.60    272      -51.6
   04/06/2018 04:20      51.8      51.1       85     47.1      0.00      6.05      66.8     0.43      1014.8     0.2     SSE   167   1.1       S   176   9.60    272      -54.3
   04/06/2018 04:10      52.6      51.5       84     47.4      0.00      6.05      66.8     0.43      1015.0     1.0     SSE   159   1.8      SE   138   9.60    270      -54.9
   04/06/2018 04:00      52.7      52.0       84     47.7      0.00      6.05      66.8     0.43      1015.2     0.5       S   173   1.4     SSW   194   9.60    270      -54.6
   04/06/2018 03:50      52.9      52.4       84     47.7      0.00      6.05      66.9     0.43      1015.2     1.1     SSW   192   2.6       S   184   9.60    270      -55.2
   04/06/2018 03:40      53.1      52.2       83     47.6      0.00      6.05      66.9     0.43      1015.1     1.3     SSW   203   2.2      SW   218   9.60    270      -56.0
   04/06/2018 03:30      54.1      52.8       80     47.5      0.00      6.05      66.9     0.43      1015.2     1.1       S   173   2.0       S   170   9.60    269      -57.2
   04/06/2018 03:20      54.5      53.8       79     47.8      0.00      6.05      66.9     0.43      1015.3     0.4      SW   223   1.4      SW   214   9.60    269      -58.6
   04/06/2018 03:10      55.3      54.2       78     48.1      0.00      6.05      67.0     0.43      1015.2     0.1      SE   131   1.2      SE   132   9.60    269      -60.2
   04/06/2018 03:00      55.2      54.5       79     48.3      0.00      6.05      66.9     0.43      1015.2     0.5       N     1   1.8      NW   308   9.60    268      -60.1
   04/06/2018 02:50      55.0      54.5       77     47.7      0.00      6.05      67.0     0.43      1014.9     0.4       N     3   2.2     NNE    31   9.60    268      -60.2
   04/06/2018 02:40      55.3      54.8       77     47.7      0.00      6.05      67.0     0.43      1014.8     0.2     ENE    76   1.4     NNE    27   9.60    268      -59.4
   04/06/2018 02:30      55.8      55.0       75     47.7      0.00      6.05      67.0     0.43      1014.9     0.0       N     0   0.0     ENE    64   9.60    268      -59.0
   04/06/2018 02:20      56.1      55.5       75     48.0      0.00      6.05      67.0     0.43      1015.0     0.3     ESE   106   1.6     ESE   105   9.60    268      -61.0
   04/06/2018 02:10      56.6      55.9       74     48.1      0.00      6.05      67.1     0.43      1015.1     0.4       E    81   1.4     ENE    72   9.60    268      -61.1
   04/06/2018 02:00      56.9      56.3       74     48.2      0.00      6.05      67.1     0.43      1015.1     0.6     ENE    57   2.1       E    94   9.61    268      -60.6
   04/06/2018 01:50      57.2      56.6       73     48.2      0.00      6.05      67.1     0.43      1015.2     0.6     ENE    67   2.3       E    81   9.61    268      -56.5
   04/06/2018 01:40      57.4      56.9       72     48.2      0.00      6.05      67.1     0.43      1015.4     1.2     ENE    62   4.3     ENE    63   9.61    268      -44.8
   04/06/2018 01:30      57.5      56.9       72     48.2      0.00      6.05      67.2     0.43      1015.4     1.6      NE    54   4.1      NE    46   9.61    268      -39.9
   04/06/2018 01:20      57.1      56.4       73     48.0      0.00      6.05      67.2     0.43      1015.5     1.1      NE    48   3.8     ENE    59   9.61    268      -40.9
   04/06/2018 01:10      56.8      56.3       72     47.7      0.00      6.05      67.2     0.43      1015.5     0.4       E    95   1.8     ENE    67   9.61    268      -44.2
   04/06/2018 01:00      56.8      56.3       72     47.6      0.00      6.05      67.2     0.43      1015.8     0.0       N     0   0.0     ESE   114   9.61    268      -43.6
   04/06/2018 00:50      56.4      55.9       73     47.6      0.00      6.05      67.2     0.43      1015.7     0.5      SE   125   1.8      SE   129   9.61    268      -40.0
   04/06/2018 00:40      56.8      56.0       72     47.5      0.00      6.05      67.2     0.43      1015.8     0.3      SE   141   1.1     SSE   146   9.61    268      -41.9
   04/06/2018 00:30      56.9      56.4       71     47.4      0.00      6.05      67.2     0.43      1015.9     0.0      SE   137   0.6      SE   137   9.61    268      -47.0
   04/06/2018 00:20      57.4      56.7       71     47.5      0.00      6.05      67.2     0.43      1015.9     0.0       N     0   0.0     SSE   160   9.61    268      -47.6
   04/06/2018 00:10      57.6      57.0       70     47.5      0.00      6.05      67.3     0.43      1015.8     0.0       N     0   0.0      SE   136   9.61    268      -44.2
   04/06/2018 00:00      57.8      57.3       69     47.6      0.00      6.05      67.3     0.43      1015.8     0.0       N     0   0.0      SE   137   9.61    268      -43.0
   04/05/2018 23:50      57.9      57.4       69     47.6      0.00      6.05      67.3     0.43      1015.7     0.2       E    90   1.4     ENE    59   9.62    268      -43.1
   04/05/2018 23:40      57.7      57.4       69     47.6      0.00      6.05      67.3     0.43      1015.8     0.3       E    82   1.6      NE    56   9.62    268      -43.5
   04/05/2018 23:30      57.7      57.2       71     47.9      0.00      6.05      67.3     0.43      1015.8     0.5     ENE    65   1.8       N    11   9.62    268      -44.1
   04/05/2018 23:20      57.9      57.2       72     48.5      0.00      6.05      67.3     0.43      1015.9     0.4     ESE   114   1.4     ESE   102   9.62    268      -46.5
   04/05/2018 23:10      57.9      57.5       72     48.6      0.00      6.05      67.3     0.43      1016.0     0.0      NE    55   0.7     ENE    57   9.62    268      -49.2
   04/05/2018 23:00      58.0      57.5       73     49.1      0.00      6.05      67.3     0.43      1015.8     0.4     ENE    66   1.2     ESE   104   9.62    268      -51.3
   04/05/2018 22:50      58.2      57.7       74     49.8      0.00      6.05      67.3     0.43      1015.8     0.3      NE    55   1.1     ENE    63   9.62    268      -52.6
   04/05/2018 22:40      58.5      57.9       74     50.0      0.00      6.05      67.3     0.43      1015.8     0.0       N     0   0.0     ESE   113   9.62    267      -52.3
   04/05/2018 22:30      58.8      58.2       74     50.2      0.00      6.05      67.3     0.43      1015.7     0.5     ENE    74   2.1     ENE    58   9.62    268      -49.7
   04/05/2018 22:20      58.7      58.3       74     50.3      0.00      6.05      67.3     0.43      1015.7     0.4      NE    51   1.5     ENE    58   9.62    268      -50.4
   04/05/2018 22:10      58.8      58.3       74     50.3      0.00      6.05      67.3     0.43      1015.8     0.9     ENE    59   2.2     ENE    64   9.62    268      -50.6
   04/05/2018 22:00      58.8      58.5       74     50.3      0.00      6.05      67.3     0.43      1015.8     1.2     ENE    59   2.4      NE    51   9.62    267      -52.6
   04/05/2018 21:50      58.7      58.3       75     50.5      0.00      6.05      67.3     0.43      1015.8     0.9      NE    44   2.6      NE    54   9.63    268      -57.9
   04/05/2018 21:40      58.7      58.3       75     50.5      0.00      6.05      67.3     0.43      1015.7     0.2      NE    50   1.9      NE    43   9.63    268      -58.3
   04/05/2018 21:30      59.1      58.4       74     50.4      0.00      6.05      67.3     0.43      1015.6     0.8       E    85   1.9     ENE    61   9.63    267      -57.4
   04/05/2018 21:20      59.2      58.7       73     50.4      0.00      6.05      67.2     0.43      1015.7     0.8     ENE    59   2.4     ENE    60   9.63    267      -59.2
   04/05/2018 21:10      59.2      58.7       73     50.5      0.00      6.05      67.3     0.43      1015.6     0.6      NE    50   2.4     ENE    57   9.63    267      -60.1
   04/05/2018 21:00      59.4      58.9       73     50.5      0.00      6.05      67.3     0.43      1015.4     0.2     ENE    66   1.5     ENE    63   9.63    267      -57.8
   04/05/2018 20:50      59.7      58.9       73     50.5      0.00      6.05      67.2     0.43      1015.3     0.6     ESE   102   1.8       E    79   9.63    267      -55.1
   04/05/2018 20:40      59.8      59.3       72     50.5      0.00      6.05      67.2     0.43      1015.2     0.9     ENE    58   2.3      NE    43   9.63    267      -56.8
   04/05/2018 20:30      59.8      59.4       72     50.6      0.00      6.05      67.2     0.43      1015.1     1.3      NE    44   4.4     ENE    66   9.63    267      -57.6
   04/05/2018 20:20      60.3      59.5       72     50.6      0.00      6.05      67.1     0.43      1014.9     2.1      NE    45   4.2     NNE    21   9.64    267      -57.7
   04/05/2018 20:10      60.8      60.0       70     50.6      0.00      6.05      67.1     0.43      1014.7     2.1      NE    54   3.7      NE    42   9.64    267      -60.4
   04/05/2018 20:00      61.1      60.3       70     50.8      0.00      6.05      67.1     0.43      1014.8     1.5     ENE    60   4.6     ESE   102   9.64    266      -61.8
   04/05/2018 19:50      61.7      60.9       69     50.9      0.00      6.05      67.1     0.43      1014.8     1.5     ENE    71   3.2       E   101   9.64    266      -64.3
   04/05/2018 19:40      62.8      61.4       67     50.9      0.00      6.05      67.1     0.43      1015.0     1.8       E    80   3.2      NE    53   9.64    266      -65.0
   04/05/2018 19:30      63.7      62.4       65     51.0      0.00      6.05      67.0     0.43      1015.0     1.3     ENE    67   2.5     SSW   211   9.65    266      -65.3
   04/05/2018 19:20      64.9      63.6       63     51.1      0.00      6.05      67.0     0.43      1014.9     1.6     ENE    61   3.7      NE    44   9.65    266      -65.0
   04/05/2018 19:10      66.3      64.7       61     51.5      0.00      6.05      67.0     0.43      1014.8     2.2      NE    34   4.4     ENE    59   9.65    266      -60.5
   04/05/2018 19:00      66.9      65.9       59     51.7      0.00      6.05      66.9     0.43      1014.7     1.9      NE    45   3.9      NE    49   9.66    266      -54.4
   04/05/2018 18:50      67.4      66.6       58     51.9      0.00      6.05      66.9     0.43      1014.7     0.7     ENE    68   2.7      NE    53   9.66    266      -49.6
   04/05/2018 18:40      67.5      66.9       58     52.0      0.00      6.05      66.8     0.43      1014.6     1.0     ENE    61   2.4      NE    39   9.66    266      -36.6
   04/05/2018 18:30      68.1      67.2       58     52.1      0.00      6.05      66.8     0.43      1014.6     1.2      NE    44   2.7      NE    50   9.66    265      -21.0
   04/05/2018 18:20      68.5      67.6       57     52.2      0.00      6.05      66.7     0.43      1014.4     1.4     NNE    30   3.2     ENE    57   9.66    265       -3.0
   04/05/2018 18:10      69.9      68.0       56     52.3      0.00      6.05      66.7     0.43      1014.3     2.3      NE    47   4.1     ENE    59   9.67    265       12.4
   04/05/2018 18:00      70.0      69.5       55     52.6      0.00      6.05      66.6     0.43      1014.2     1.8      NE    45   4.0     ENE    76   9.67    265       24.5
   04/05/2018 17:50      71.0      69.8       53     52.6      0.00      6.05      66.6     0.43      1014.2     2.4      NE    49   4.6      NE    44   9.67    265       42.4
   04/05/2018 17:40      71.3      70.5       53     52.7      0.00      6.05      66.6     0.43      1014.1     2.6     ENE    59   5.1      SE   125   9.67    265       77.9
   04/05/2018 17:30      72.5      70.9       52     53.0      0.00      6.05      66.5     0.42      1014.1     3.5      NE    55   5.1      NE    50   9.67    265       90.3
   04/05/2018 17:20      73.7      72.3       50     53.3      0.00      6.05      66.4     0.42      1014.2     3.0     ENE    59   5.5     ESE   121   9.68    265      116.9
   04/05/2018 17:10      74.6      73.5       49     53.6      0.00      6.05      66.4     0.42      1014.3     2.7     ENE    62   5.4      NE    51   9.68    264      175.0
   04/05/2018 17:00      75.8      74.3       48     54.0      0.00      6.05      66.3     0.42      1014.4     2.0      NE    40   4.8     ENE    57   9.68    264      189.3
   04/05/2018 16:50      75.9      75.1       44     52.2      0.00      6.05      66.3     0.42      1014.6     3.7       N   359   6.2      NE    37   9.68    265      251.8
   04/05/2018 16:40      75.8      74.5       47     53.9      0.00      6.05      66.3     0.42      1014.8     2.7     NNE    32   5.4       N     8   9.69    264      272.8
   04/05/2018 16:30      75.4      74.3       48     53.9      0.00      6.05      66.2     0.42      1014.9     3.0      NE    48   5.5      NE    49   9.69    265      265.1
   04/05/2018 16:20      76.8      75.2       47     54.1      0.00      6.05      66.2     0.42      1014.9     2.9      NE    52   5.9      NE    55   9.69    264      274.7
   04/05/2018 16:10      76.8      75.8       46     54.1      0.00      6.05      66.1     0.42      1014.9     2.3      NE    52   6.1     ENE    59   9.69    265      290.3
   04/05/2018 16:00      76.0      74.8       47     54.1      0.00      6.05      66.0     0.42      1014.8     1.6     ENE    75   3.7     ESE   119   9.70    265      334.8
   04/05/2018 15:50      75.8      74.7       48     54.0      0.00      6.05      66.0     0.42      1014.9     2.9     ENE    70   5.0      NE    51   9.70    265      347.7
   04/05/2018 15:40      75.4      74.7       48     54.0      0.00      6.05      65.9     0.42      1014.9     2.7     ENE    64   5.5      NE    39   9.70    265      298.3
   04/05/2018 15:30      75.7      74.3       48     54.1      0.00      6.05      65.8     0.42      1014.8     3.9     ENE    77   6.6       E    91   9.70    264      375.5
   04/05/2018 15:20      76.4      74.8       47     54.0      0.00      6.05      65.8     0.42      1014.9     3.3     ENE    77   6.8     ESE   110   9.70    264      400.9
   04/05/2018 15:10      76.5      75.5       47     54.2      0.00      6.05      65.8     0.42      1014.9     2.9     ENE    61   5.2      NE    50   9.71    264      412.7
   04/05/2018 15:00      76.2      75.3       47     54.0      0.00      6.05      65.7     0.42      1015.0     3.2     ENE    58   5.8     ENE    60   9.71    264      445.7
   04/05/2018 14:50      76.0      74.4       47     53.9      0.00      6.05      65.7     0.42      1015.1     3.5       E    80   6.4      NE    52   9.71    264      477.1
   04/05/2018 14:40      77.4      74.3       47     53.8      0.00      6.05      65.6     0.42      1015.2     3.1      SE   124   6.8       E    83   9.71    264      496.9
   04/05/2018 14:30      77.5      76.9       44     53.9      0.00      6.05      65.6     0.42      1015.0     2.4     NNE    31   5.8     ENE    59   9.71    264      506.7
   04/05/2018 14:20      77.1      75.9       45     53.8      0.00      6.05      65.6     0.42      1015.3     2.2     WNW   294   4.7       W   278   9.71    264      516.5
   04/05/2018 14:10      76.5      74.5       46     53.7      0.00      6.05      65.5     0.42      1015.5     1.6      NW   324   3.2     WNW   301   9.72    264      519.1
   04/05/2018 14:00      74.7      73.8       48     53.2      0.00      6.05      65.5     0.42      1015.8     2.5     NNW   328   4.5     NNW   331   9.72    264      539.9
   04/05/2018 13:50      74.3      73.0       50     53.8      0.00      6.05      65.5     0.42      1015.8     1.9      NE    48   4.7     NNE    19   9.72    265      481.1
   04/05/2018 13:40      74.2      72.8       50     53.9      0.00      6.05      65.5     0.42      1016.1     2.2     ENE    66   5.2     NNE    31   9.72    264      461.1
   04/05/2018 13:30      73.9      73.1       50     53.6      0.00      6.05      65.5     0.42      1016.4     2.2     NNW   345   4.6     NNE    24   9.72    264      486.0
   04/05/2018 13:20      73.6      72.3       51     53.7      0.00      6.05      65.4     0.42      1016.4     1.8     WNW   286   3.5     WNW   286   9.72    264      564.8
   04/05/2018 13:10      72.4      71.1       52     53.1      0.00      6.05      65.4     0.42      1016.6     1.5       E    87   3.6       E    95   9.72    265      550.2
   04/05/2018 13:00      72.0      70.3       53     53.1      0.00      6.05      65.4     0.42      1016.8     1.3      NW   305   2.9     WNW   298   9.72    264      558.9
   04/05/2018 12:50      70.3      69.6       54     52.6      0.00      6.05      65.4     0.42      1017.0     1.7     WNW   302   5.1       W   263   9.72    265      513.0
   04/05/2018 12:40      70.0      69.2       55     52.6      0.00      6.05      65.4     0.42      1016.9     2.9       N   356   5.0     NNW   328   9.72    265      502.3
   04/05/2018 12:30      69.2      68.4       56     52.7      0.00      6.05      65.4     0.42      1017.0     2.2     ENE    63   4.4     ESE   102   9.72    265      595.0
   04/05/2018 12:20      68.9      68.4       57     52.6      0.00      6.05      65.4     0.42      1017.2     1.9       N   356   5.1     WNW   295   9.72    265      545.9
   04/05/2018 12:10      68.5      66.8       59     52.6      0.00      6.05      65.4     0.42      1017.5     1.3      NE    46   3.1       E    86   9.72    265      527.6
   04/05/2018 12:00      67.0      66.3       61     52.6      0.00      6.05      65.4     0.42      1017.7     1.4     ENE    66   3.2      NE    49   9.72    265      434.9
   04/05/2018 11:50      66.6      65.7       62     52.7      0.00      6.05      65.3     0.42      1017.9     2.1     NNE    24   4.7     NNE    14   9.72    266      414.9
   04/05/2018 11:40      66.2      65.0       63     52.6      0.00      6.05      65.4     0.42      1018.0     2.0       N    10   4.7     NNW   339   9.72    266      507.5
   04/05/2018 11:30      66.0      64.2       65     52.7      0.00      6.05      65.4     0.42      1018.1     1.4     NNE    30   3.2      NE    46   9.72    266      500.2
   04/05/2018 11:20      64.2      62.9       67     52.3      0.00      6.05      65.4     0.42      1018.2     2.0      NE    54   4.8     NNE    23   9.72    266      521.0
   04/05/2018 11:10      63.1      61.6       70     52.1      0.00      6.05      65.5     0.42      1018.1     2.3     NNE    25   5.2      NE    45   9.72    266      502.6
   04/05/2018 11:00      62.1      60.8       71     51.9      0.00      6.05      65.5     0.43      1018.3     1.8     ENE    57   4.9       E    94   9.72    267      447.0
   04/05/2018 10:50      61.4      60.8       71     51.8      0.00      6.05      65.4     0.43      1018.3     1.7     NNE    15   3.2     NNE    30   9.71    267      171.2
   04/05/2018 10:40      61.0      60.4       73     51.9      0.00      6.05      65.5     0.43      1018.3     2.2     ENE    73   4.8      NE    46   9.72    267      365.3
   04/05/2018 10:30      61.0      58.8       77     52.2      0.00      6.05      65.5     0.43      1018.3     1.1       N   350   2.8       N   355   9.72    267      369.5
   04/05/2018 10:20      59.0      58.0       79     52.1      0.00      6.05      65.5     0.43      1018.4     1.8       N   358   4.5     NNW   343   9.72    268      211.5
   04/05/2018 10:10      58.0      57.0       82     52.0      0.00      6.05      65.6     0.43      1018.3     1.5     WSW   254   2.5       W   259   9.71    268      171.9
   04/05/2018 10:00      57.3      56.8       82     51.7      0.00      6.05      65.6     0.43      1018.3     1.7     SSW   202   4.1     SSW   192   9.71    268      137.4
   04/05/2018 09:50      57.0      56.5       84     52.0      0.00      6.05      65.6     0.43      1018.2     1.2     SSE   166   3.5      SE   146   9.71    268      157.9
   04/05/2018 09:40      56.6      55.5       86     51.8      0.00      6.05      65.6     0.43      1018.2     1.0     SSW   196   3.4      SE   146   9.71    268      138.2
   04/05/2018 09:30      55.8      54.8       88     51.6      0.00      6.05      65.6     0.43      1018.2     1.3       S   183   2.8     SSE   151   9.71    268      100.5
   04/05/2018 09:20      55.4      54.8       88     51.5      0.00      6.05      65.6     0.43      1018.1     2.2       S   178   4.1     SSW   198   9.71    268      100.7
   04/05/2018 09:10      55.3      54.5       89     51.7      0.00      6.05      65.7     0.43      1017.9     0.6     SSW   199   2.1       S   176   9.65    268       98.2
   04/05/2018 09:00      54.8      54.4       89     51.4      0.00      6.05      65.7     0.43      1017.9     1.6     ESE   110   3.5       E    83   8.46    269       80.5
   04/05/2018 08:50      54.9      54.5       90     51.7      0.00      6.05      65.7     0.43      1017.9     1.3       E    95   3.5      SE   145   8.46    269       87.5
   04/05/2018 08:40      54.8      54.4       91     51.9      0.00      6.05      65.7     0.43      1017.8     1.5     NNE    29   3.2      NE    35   8.46    269       52.2
   04/05/2018 08:30      54.9      54.4       91     52.1      0.00      6.05      65.7     0.43      1017.8     0.4     NNE    31   1.4      NE    42   8.46    269       23.0
   04/05/2018 08:20      54.7      53.7       92     51.9      0.00      6.05      65.8     0.43      1017.8     0.0     WNW   291   1.0       W   276   8.46    269       42.6
   04/05/2018 08:10      53.9      53.5       92     51.5      0.00      6.05      65.8     0.43      1017.8     1.1      NW   311   2.4     NNW   329   8.46    269       59.2
   04/05/2018 08:00      53.7      53.0       92     51.1      0.00      6.05      65.8     0.43      1017.8     0.8     NNW   331   2.5     NNW   347   8.46    269       38.3
   04/05/2018 07:50      53.3      52.9       92     50.9      0.00      6.05      65.8     0.43      1017.8     2.1     WSW   242   3.4     WSW   253   8.46    270       22.6
   04/05/2018 07:40      53.5      52.9       92     50.8      0.00      6.05      65.8     0.43      1017.7     1.4     SSW   205   2.6     SSW   211   8.46    270       15.9
   04/05/2018 07:30      53.4      53.0       92     51.0      0.00      6.05      65.8     0.43      1017.7     0.4     ESE   115   2.6     SSE   167   8.46    270       13.4
   04/05/2018 07:20      53.3      52.8       92     50.8      0.00      6.05      65.8     0.43      1017.6     0.9       E    84   2.7       E    84   8.46    270        6.9
   04/05/2018 07:10      53.2      52.6       92     50.7      0.00      6.05      65.9     0.43      1017.6     1.1     ESE   114   3.3      SE   146   8.46    270        2.2
   04/05/2018 07:00      53.1      52.6       92     50.4      0.00      6.05      65.9     0.43      1017.6     1.3     SSE   156   2.8      SE   126   8.46    270       -2.0
   04/05/2018 06:50      53.6      52.8       91     50.6      0.00      6.05      65.9     0.43      1017.6     1.1       E   101   3.0      SE   125   8.46    270       -5.2
   04/05/2018 06:40      53.7      53.1       91     50.7      0.00      6.05      65.9     0.43      1017.4     1.3     ENE    79   2.6     ESE   117   8.46    270       -7.2
   04/05/2018 06:30      53.9      53.3       91     50.9      0.00      6.05      65.9     0.43      1017.3     1.0     SSE   157   2.7     ESE   102   8.46    270       -8.8
   04/05/2018 06:20      53.9      53.5       91     51.2      0.00      6.05      65.9     0.43      1017.2     0.7     NNE    15   1.6     ESE   106   8.46    270       -9.5
   04/05/2018 06:10      53.7      53.3       91     51.0      0.00      6.05      66.0     0.43      1017.2     0.1      NE    50   1.1      NE    38   8.46    270       -9.7
   04/05/2018 06:00      53.4      53.2       91     50.9      0.00      6.05      66.0     0.43      1017.1     1.0     SSE   163   2.2      SE   139   8.46    270      -10.7
   04/05/2018 05:50      53.5      53.1       91     50.9      0.00      6.05      66.0     0.43      1017.0     1.0     SSE   165   2.0      SE   141   8.46    270      -10.1
   04/05/2018 05:40      53.4      53.1       91     50.8      0.00      6.05      66.0     0.43      1016.9     0.9      SE   143   2.7       S   178   8.46    270       -9.5
   04/05/2018 05:30      53.6      53.1       91     50.9      0.00      6.05      66.0     0.43      1016.8     1.3      SE   127   2.5      SE   134   8.46    269      -10.0
   04/05/2018 05:20      53.7      53.3       91     51.0      0.00      6.05      66.0     0.43      1016.8     0.8      SE   144   2.2      SE   144   8.46    269      -10.2
   04/05/2018 05:10      53.6      53.2       91     51.0      0.00      6.05      66.1     0.43      1016.9     0.9       S   185   3.1     SSW   197   8.46    270       -9.3
   04/05/2018 05:00      53.6      53.2       91     50.9      0.00      6.05      66.1     0.43      1016.9     0.5       S   170   2.2       S   180   8.46    269       -9.5
   04/05/2018 04:50      53.4      53.1       91     50.8      0.00      6.05      66.1     0.43      1016.9     1.4     SSW   195   2.7       S   187   8.46    270       -9.2
   04/05/2018 04:40      53.5      53.1       91     50.7      0.00      6.05      66.1     0.43      1016.9     1.5     SSE   162   2.8       S   181   8.46    270       -8.7
   04/05/2018 04:30      53.7      53.2       91     50.8      0.00      6.05      66.1     0.43      1016.9     2.2     SSW   206   3.9     WSW   240   8.46    270       -8.9
   04/05/2018 04:20      53.8      53.4       90     50.8      0.00      6.05      66.1     0.43      1017.0     2.1     SSW   207   3.4      SW   227   8.47    269       -9.3
   04/05/2018 04:10      53.7      53.4       90     50.8      0.00      6.05      66.2     0.43      1017.0     0.9     SSW   202   2.6      SW   217   8.47    269       -9.4
   04/05/2018 04:00      53.7      53.3       90     50.7      0.00      6.05      66.2     0.43      1016.9     1.0     SSE   161   2.2      SE   126   8.47    269       -9.4
   04/05/2018 03:50      53.8      53.3       90     50.7      0.00      6.05      66.2     0.43      1016.9     1.2     SSE   157   2.5      SE   141   8.47    269       -9.2
   04/05/2018 03:40      53.9      53.5       90     50.7      0.00      6.05      66.2     0.43      1016.9     1.4     SSE   157   2.5     SSW   193   8.47    269       -9.6
   04/05/2018 03:30      53.9      53.6       90     50.6      0.00      6.05      66.3     0.43      1016.9     0.6     SSE   168   2.6       S   182   8.47    269       -9.9
   04/05/2018 03:20      53.9      53.5       89     50.6      0.00      6.05      66.3     0.43      1016.9     1.0       E    91   2.0      SE   131   8.47    269       -9.8
   04/05/2018 03:10      54.0      53.6       89     50.4      0.00      6.05      66.3     0.43      1017.0     1.8     ESE   116   3.2     ESE   112   8.47    269       -9.8
   04/05/2018 03:00      54.2      53.8       88     50.5      0.00      6.05      66.3     0.43      1017.1     1.1     ENE    71   2.6     ESE   113   8.47    269      -10.3
   04/05/2018 02:50      54.4      53.9       88     50.6      0.00      6.05      66.3     0.43      1017.3     0.7     NNE    30   2.8      NE    43   8.47    269      -10.2
   04/05/2018 02:40      54.5      53.9       88     50.5      0.00      6.05      66.4     0.43      1017.3     1.9      NE    53   3.9      NE    49   8.47    269      -10.3
   04/05/2018 02:30      54.7      54.2       87     50.8      0.00      6.05      66.4     0.43      1017.3     1.3      NE    52   3.2      NE    44   8.47    269      -10.8
   04/05/2018 02:20      54.7      54.2       87     50.8      0.00      6.05      66.4     0.43      1017.3     1.5      NE    56   2.5       E    91   8.47    269      -10.8
   04/05/2018 02:10      54.7      54.2       87     50.7      0.00      6.05      66.4     0.43      1017.6     0.8     ENE    74   2.5       E    95   8.47    269      -10.7
   04/05/2018 02:00      54.8      54.3       87     50.8      0.00      6.05      66.4     0.43      1017.8     0.5     ENE    69   2.3       E    87   8.47    269      -13.3
   04/05/2018 01:50      54.6      54.2       87     50.7      0.00      6.05      66.5     0.43      1017.7     1.0     ENE    58   2.2      NE    49   8.47    269      -21.2
   04/05/2018 01:40      54.7      54.2       87     50.8      0.00      6.05      66.5     0.43      1017.5     1.6      NE    51   3.0      NE    53   8.47    269      -19.5
   04/05/2018 01:30      54.5      54.0       88     50.7      0.00      6.05      66.4     0.43      1017.4     0.9      NE    54   2.2      NE    34   8.47    269      -18.8
   04/05/2018 01:20      54.5      54.0       88     50.6      0.00      6.05      66.5     0.43      1017.4     1.2     ENE    64   2.7     ENE    63   8.47    269      -28.2
   04/05/2018 01:10      54.5      53.9       87     50.5      0.00      6.05      66.5     0.43      1017.5     1.7      NE    54   3.3      NE    44   8.47    269      -25.5
   04/05/2018 01:00      54.5      54.0       87     50.4      0.00      6.05      66.5     0.43      1017.6     1.2     ENE    61   2.8     ENE    67   8.47    269      -36.8
   04/05/2018 00:50      54.6      54.1       87     50.5      0.00      6.05      66.5     0.43      1017.4     1.1     ENE    58   2.7     NNE    32   8.47    269      -38.0
   04/05/2018 00:40      54.7      54.3       87     50.8      0.00      6.05      66.5     0.43      1017.6     0.8     ENE    64   1.9      NE    50   8.47    269      -37.5
   04/05/2018 00:30      54.7      54.2       87     50.7      0.00      6.05      66.5     0.43      1017.6     1.0     ENE    61   2.1     ENE    63   8.47    269      -39.3
   04/05/2018 00:20      54.8      54.4       87     50.7      0.00      6.05      66.6     0.43      1017.5     1.1     ENE    62   2.0     ENE    59   8.47    269      -38.7
   04/05/2018 00:10      54.8      54.4       87     50.7      0.00      6.05      66.6     0.43      1017.5     0.7     ENE    68   2.0     ENE    67   8.47    269      -45.3
   04/05/2018 00:00      54.9      54.4       87     50.7      0.00      6.05      66.6     0.43      1017.5     0.7     ENE    66   1.6       E    90   8.48    269      -40.4
   04/04/2018 23:50      55.0      54.5       87     50.7      0.00      6.05      66.6     0.43      1017.5     0.6      NE    48   2.0      NE    47   8.48    269      -40.1
   04/04/2018 23:40      55.0      54.5       86     50.6      0.00      6.05      66.6     0.43      1017.5     0.5     ENE    68   1.7     ENE    59   8.48    269      -45.4
   04/04/2018 23:30      55.1      54.6       86     50.6      0.00      6.05      66.6     0.43      1017.6     0.6       E    81   1.8     ENE    71   8.48    269      -49.5
   04/04/2018 23:20      55.4      54.9       85     50.7      0.00      6.05      66.6     0.43      1017.6     1.0     ENE    69   2.7      SE   144   8.48    269      -49.5
   04/04/2018 23:10      55.3      55.0       85     50.6      0.00      6.05      66.5     0.43      1017.4     1.3      NE    52   3.5      NE    47   8.48    268      -52.3
   04/04/2018 23:00      55.6      55.1       84     50.6      0.00      6.05      66.6     0.43      1017.4     1.5     ENE    62   2.8     ENE    72   8.48    268      -53.5
   04/04/2018 22:50      55.9      55.4       84     50.7      0.00      6.05      66.6     0.43      1017.5     1.2     ENE    58   3.1      NE    42   8.48    268      -57.4
   04/04/2018 22:40      56.3      55.5       83     50.6      0.00      6.05      66.6     0.43      1017.6     1.6     ENE    63   2.7      NE    38   8.48    268      -61.5
   04/04/2018 22:30      56.6      55.9       82     50.6      0.00      6.05      66.6     0.43      1017.7     1.2     ENE    60   2.9     ENE    79   8.48    268      -63.3
   04/04/2018 22:20      56.9      56.3       81     50.7      0.00      6.05      66.6     0.43      1017.7     1.3     ENE    64   2.9     NNE    15   8.48    268      -63.7
   04/04/2018 22:10      57.4      56.5       80     50.8      0.00      6.05      66.6     0.43      1017.8     1.0       E   100   2.7       E    91   8.48    268      -62.7
   04/04/2018 22:00      57.7      56.9       79     50.8      0.00      6.05      66.6     0.43      1017.7     0.9       E    95   3.0       E    99   8.49    268      -59.6
   04/04/2018 21:50      57.9      57.3       78     50.8      0.00      6.05      66.6     0.43      1017.7     0.6       E   100   2.2       E    80   8.49    268      -59.5
   04/04/2018 21:40      58.1      57.5       78     50.8      0.00      6.05      66.6     0.43      1017.7     1.0       E    90   2.0     ENE    69   8.49    268      -60.3
   04/04/2018 21:30      58.3      57.7       77     50.7      0.00      6.05      66.6     0.43      1017.5     0.5     ESE   110   2.0     ENE    69   8.49    267      -63.0
   04/04/2018 21:20      58.6      58.0       76     50.6      0.00      6.05      66.5     0.43      1017.5     0.7     ESE   108   1.9     ENE    73   8.49    267      -62.3
   04/04/2018 21:10      58.8      58.3       75     50.7      0.00      6.05      66.6     0.43      1017.5     0.0       E    93   0.5       E    90   8.49    267      -60.3
   04/04/2018 21:00      59.2      58.5       74     50.7      0.00      6.05      66.5     0.43      1017.3     0.0      SE   146   0.7      SE   146   8.49    267      -63.6
   04/04/2018 20:50      59.8      58.9       73     50.7      0.00      6.05      66.5     0.43      1017.0     0.2      SE   130   1.2     SSE   162   8.49    267      -66.4
   04/04/2018 20:40      60.5      59.5       72     50.7      0.00      6.05      66.5     0.43      1016.9     0.4     ESE   103   1.3       E    89   8.49    267      -67.4
   04/04/2018 20:30      61.1      60.2       70     50.8      0.00      6.05      66.5     0.43      1016.8     0.5     ENE    67   1.3     ENE    72   8.50    266      -69.3
   04/04/2018 20:20      62.0      60.7       69     51.0      0.00      6.05      66.5     0.43      1016.7     1.1     ENE    72   2.7       E    97   8.50    266      -71.2
   04/04/2018 20:10      62.7      61.8       66     50.5      0.00      6.05      66.4     0.43      1016.6     0.5       E    93   1.6       E    91   8.50    266      -72.1
   04/04/2018 20:00      63.3      62.3       63     49.9      0.00      6.05      66.4     0.43      1016.5     0.1      SE   145   1.4       S   171   8.50    266      -73.1
   04/04/2018 19:50      63.8      62.9       61     49.8      0.00      6.05      66.4     0.43      1016.4     0.4     SSE   153   2.1       S   179   8.50    266      -73.8
   04/04/2018 19:40      64.7      63.4       59     49.5      0.00      6.05      66.3     0.43      1016.2     1.0      SW   236   3.0     SSW   198   8.50    266      -74.9
   04/04/2018 19:30      65.3      64.4       58     49.7      0.00      6.05      66.3     0.43      1016.1     2.1       W   262   4.5       W   270   8.51    266      -76.4
   04/04/2018 19:20      65.5      64.8       57     49.8      0.00      6.05      66.2     0.43      1016.1     1.5       W   278   3.2     WNW   289   8.51    266      -75.6
   04/04/2018 19:10      66.1      65.0       57     49.7      0.00      6.05      66.3     0.43      1016.1     3.3       W   261   6.0     WSW   245   8.51    266      -73.0
   04/04/2018 19:00      67.5      65.8       55     49.7      0.00      6.05      66.2     0.43      1016.0     3.3       W   270   5.8       W   266   8.51    265      -71.1
   04/04/2018 18:50      68.1      67.1       53     49.9      0.00      6.05      66.1     0.43      1015.9     2.5     WNW   288   6.3      NW   322   8.52    265      -65.7
   04/04/2018 18:40      69.4      67.8       51     49.9      0.00      6.05      66.1     0.43      1015.8     3.2      NW   305   6.8      NW   310   8.52    265      -54.6
   04/04/2018 18:30      69.9      69.1       50     49.9      0.00      6.05      66.1     0.43      1015.8     3.1     WNW   298   6.8      NW   310   8.52    265      -22.5
   04/04/2018 18:20      70.8      69.8       48     49.8      0.00      6.05      66.0     0.43      1015.7     3.8     WNW   295   7.2     WSW   258   8.53    264       10.1
   04/04/2018 18:10      72.2      70.5       47     50.1      0.00      6.05      66.0     0.43      1015.5     3.9     WNW   301   7.5      NW   325   8.53    264       36.4
   04/04/2018 18:00      73.0      71.9       46     50.5      0.00      6.05      65.9     0.43      1015.4     3.0      NW   306   6.9     WNW   300   8.53    264       62.0
   04/04/2018 17:50      73.9      72.3       46     50.8      0.00      6.05      65.9     0.43      1015.4     4.3      NW   310   6.9      NW   326   8.54    264       91.5
   04/04/2018 17:40      74.0      72.8       46     51.3      0.00      6.05      65.8     0.43      1015.3     3.5     WNW   303   9.8     WNW   301   8.54    264      119.3
   04/04/2018 17:30      74.6      73.7       45     51.5      0.00      6.05      65.8     0.43      1015.2     3.3     WNW   288   6.4      SW   233   8.54    264      145.6
   04/04/2018 17:20      73.9      73.0       47     52.0      0.00      6.05      65.7     0.43      1015.2     3.5     WSW   238   6.6      SW   220   8.55    264      172.6
   04/04/2018 17:10      73.9      72.7       49     53.0      0.00      6.05      65.6     0.43      1015.3     4.8     SSW   194   7.9     SSW   194   8.55    265      198.3
   04/04/2018 17:00      74.9      73.8       48     53.5      0.00      6.05      65.6     0.43      1015.2     4.1       S   186   8.8       S   190   8.56    264      221.4
   04/04/2018 16:50      76.0      74.7       47     53.6      0.00      6.05      65.5     0.43      1015.1     3.6     SSE   154   7.1       S   172   8.56    264      248.3
   04/04/2018 16:40      76.7      75.7       44     52.7      0.00      6.05      65.5     0.43      1015.0     2.5      SE   144   7.5      SE   128   8.56    264      260.2
   04/04/2018 16:30      76.6      75.8       42     51.9      0.00      6.05      65.4     0.43      1015.1     2.1       E   101   6.0     SSE   162   8.56    264      276.4
   04/04/2018 16:20      76.2      75.2       42     51.4      0.00      6.05      65.4     0.43      1015.1     3.0     ENE    75   5.7     NNE    15   8.57    264      306.8
   04/04/2018 16:10      76.4      75.6       43     51.7      0.00      6.05      65.3     0.43      1015.2     2.6     ENE    63   6.7      NE    51   8.57    264      289.4
   04/04/2018 16:00      76.5      75.5       43     51.8      0.00      6.05      65.2     0.43      1015.4     2.3     ENE    77   4.3     ENE    71   8.57    264      337.3
   04/04/2018 15:50      76.3      75.6       43     51.8      0.00      6.05      65.1     0.43      1015.5     2.9      NE    50   5.3      NE    53   8.57    264      369.1
   04/04/2018 15:40      76.4      75.6       43     51.9      0.00      6.05      65.1     0.43      1015.6     2.7      NE    43   5.6     NNE    28   8.58    264      388.5
   04/04/2018 15:30      76.4      75.4       43     51.9      0.00      6.05      65.0     0.43      1015.7     2.7       E    86   6.5       E    95   8.58    264      406.7
   04/04/2018 15:20      76.4      74.6       43     51.9      0.00      6.05      65.0     0.43      1015.8     2.6     ENE    61   6.0      NE    56   8.58    264      425.0
   04/04/2018 15:10      75.7      74.6       44     51.8      0.00      6.05      64.9     0.43      1015.9     3.2     ENE    68   6.3      NE    51   8.58    264      435.4
   04/04/2018 15:00      76.1      75.3       43     51.9      0.00      6.05      64.8     0.43      1016.0     3.4      NE    39   6.2     ESE   103   8.59    263      448.9
   04/04/2018 14:50      76.4      75.5       43     51.9      0.00      6.05      64.8     0.43      1016.1     3.0      NE    36   6.5      NE    56   8.59    263      472.9
   04/04/2018 14:40      75.8      74.7       44     51.8      0.00      6.05      64.7     0.43      1016.2     3.1     NNE    28   6.1      NE    56   8.59    264      501.0
   04/04/2018 14:30      75.3      73.3       45     51.8      0.00      6.05      64.7     0.43      1016.3     2.7     ENE    69   5.9      NE    47   8.59    264      477.7
   04/04/2018 14:20      74.6      73.7       45     51.8      0.00      6.05      64.6     0.43      1016.5     3.7     ENE    71   6.7       S   173   8.60    264      487.0
   04/04/2018 14:10      75.0      73.8       45     51.7      0.00      6.05      64.6     0.43      1016.5     2.9       E    95   6.3     ENE    57   8.60    264      522.6
   04/04/2018 14:00      75.0      74.1       45     51.8      0.00      6.05      64.6     0.43      1016.7     2.7       E    82   4.9      SE   141   8.60    264      525.2
   04/04/2018 13:50      74.5      73.1       46     51.7      0.00      6.05      64.5     0.43      1016.8     2.4      NE    43   7.0     NNE    28   8.60    264      541.1
   04/04/2018 13:40      73.8      72.7       47     51.9      0.00      6.05      64.5     0.43      1017.1     2.6       E    90   5.0     SSE   167   8.60    264      551.1
   04/04/2018 13:30      73.8      72.3       47     51.9      0.00      6.05      64.5     0.42      1017.1     3.5     ENE    74   6.3     ESE   123   8.60    264      552.9
   04/04/2018 13:20      74.1      73.6       45     51.0      0.00      6.05      64.4     0.42      1017.3     2.4     NNW   339   5.2     NNW   338   8.60    264      543.9
   04/04/2018 13:10      73.8      73.0       46     51.1      0.00      6.05      64.4     0.42      1017.4     2.9       N   360   5.5       N   351   8.60    264      555.1
   04/04/2018 13:00      73.3      72.3       47     51.5      0.00      6.05      64.4     0.42      1017.5     1.8     ENE    67   3.9      NE    53   8.60    264      559.6
   04/04/2018 12:50      72.7      71.4       49     51.7      0.00      6.05      64.4     0.42      1017.6     2.2       E    79   4.1       E   101   8.60    264      559.5
   04/04/2018 12:40      72.3      71.1       50     51.6      0.00      6.05      64.4     0.42      1017.7     2.9       N     9   4.9     NNW   337   8.60    265      564.8
   04/04/2018 12:30      72.2      70.3       50     51.6      0.00      6.05      64.3     0.42      1017.7     2.4       N    10   4.8       N     5   8.61    265      556.0
   04/04/2018 12:20      71.1      69.6       50     51.1      0.00      6.05      64.3     0.42      1017.9     2.6     NNW   331   5.5      NW   326   8.61    264      544.2
   04/04/2018 12:10      71.1      69.8       50     51.1      0.00      6.05      64.4     0.43      1018.0     2.3      NE    47   5.7     NNW   343   8.61    265      532.9
   04/04/2018 12:00      70.6      69.6       51     50.9      0.00      6.05      64.4     0.43      1017.9     1.6     NNW   347   4.2       W   266   8.61    265      496.6
   04/04/2018 11:50      70.1      68.7       52     51.0      0.00      6.05      64.3     0.43      1017.9     1.9      NE    56   4.8     ENE    73   8.61    265      547.6
   04/04/2018 11:40      68.9      68.1       52     50.4      0.00      6.05      64.3     0.43      1017.9     2.3     NNE    29   4.6     NNE    20   8.61    265      537.6
   04/04/2018 11:30      68.3      67.3       53     50.1      0.00      6.05      64.4     0.43      1018.0     2.0      NE    40   4.4      NE    56   8.61    265      517.4
   04/04/2018 11:20      68.2      66.9       54     50.1      0.00      6.05      64.3     0.43      1018.0     2.6      NE    38   5.6     NNE    28   8.61    265      504.3
   04/04/2018 11:10      68.1      67.1       53     49.9      0.00      6.05      64.4     0.43      1018.0     2.0      NE    37   5.3       N     5   8.61    265      383.7
   04/04/2018 11:00      67.9      66.4       53     49.6      0.00      6.05      64.4     0.43      1017.8     1.6      NE    47   3.5     ENE    72   8.61    266      481.9
   04/04/2018 10:50      66.5      65.3       56     49.4      0.00      6.05      64.4     0.43      1017.7     1.7     ENE    72   3.4     ENE    78   8.61    266      304.4
   04/04/2018 10:40      66.3      65.4       56     49.6      0.00      6.05      64.5     0.43      1017.8     1.5     ESE   108   4.5      SE   141   8.61    266      337.9
   04/04/2018 10:30      66.4      65.8       56     49.9      0.00      6.05      64.5     0.43      1018.0     1.0     NNE    21   3.0       N   352   8.61    266      387.7
   04/04/2018 10:20      66.0      62.9       59     50.0      0.00      6.05      64.5     0.43      1018.0     0.7       N     6   2.4     NNE    11   8.61    266      446.4
   04/04/2018 10:10      62.9      61.9       63     49.6      0.00      6.05      64.5     0.43      1017.8     1.2     SSE   158   4.6     SSE   163   8.61    266      328.1
   04/04/2018 10:00      62.5      61.3       64     49.7      0.00      6.05      64.6     0.43      1017.8     0.9      SW   216   2.8     SSW   195   8.61    266      296.1
   04/04/2018 09:50      61.5      61.0       65     49.5      0.00      6.05      64.6     0.43      1017.9     1.2      NE    41   3.0     NNE    31   8.61    266      284.2
   04/04/2018 09:40      61.3      60.5       67     49.6      0.00      6.05      64.6     0.43      1017.8     0.9     ESE   104   2.8       E    91   8.61    267      273.2
   04/04/2018 09:30      61.1      59.0       70     50.1      0.00      6.05      64.7     0.43      1017.7     1.0       E    93   3.0     ESE   114   8.61    267      339.3
   04/04/2018 09:20      59.3      58.6       72     49.8      0.00      6.05      64.7     0.43      1017.7     2.0     NNE    25   3.2       N     0   8.61    267      292.7
   04/04/2018 09:10      59.7      58.2       73     50.4      0.00      6.05      64.7     0.43      1017.6     1.5      NE    47   4.0      NE    46   8.61    267      324.3
   04/04/2018 09:00      58.5      56.3       78     50.6      0.00      6.05      64.8     0.43      1017.5     1.1       E    87   2.8       E    83   8.61    268      313.2
   04/04/2018 08:50      56.3      55.2       81     49.9      0.00      6.05      64.8     0.43      1017.6     1.4     ENE    70   3.2     ENE    76   8.61    281      144.4
   04/04/2018 08:40      55.7      55.3       81     49.8      0.00      6.05      64.8     0.43      1017.6     1.8      NE    56   3.1     ENE    70   8.61    305       69.7
   04/04/2018 08:30      55.5      54.6       85     50.6      0.00      6.05      64.9     0.43      1017.6     1.5      NE    42   3.4      NE    54   8.61    341      157.9
   04/04/2018 08:20      54.7      53.6       88     50.5      0.00      6.05      64.9     0.43      1017.7     1.1      NE    53   2.2      NE    51   8.61    367      141.9
   04/04/2018 08:10      53.8      52.9       90     50.4      0.00      6.05      64.9     0.43      1017.7     0.5     ENE    58   1.9      NE    50   8.61    378      103.6
   04/04/2018 08:00      52.9      52.2       92     50.2      0.00      6.05      64.9     0.43      1017.7     0.0     ENE    64   0.7      NE    49   8.61    384       85.5
   04/04/2018 07:50      52.4      51.4       92     49.7      0.00      6.05      65.0     0.43      1017.7     0.1       E    89   1.1       E    91   8.61    388       73.6
   04/04/2018 07:40      51.5      50.6       93     48.9      0.00      6.05      65.0     0.43      1017.8     0.0       N     0   0.0     ESE   122   8.61    392       61.5
   04/04/2018 07:30      50.8      49.7       93     48.2      0.00      6.05      65.0     0.43      1017.7     0.0       N     0   0.0     SSE   149   8.61    394       49.2
   04/04/2018 07:20      49.9      48.9       93     47.5      0.00      6.05      65.1     0.43      1017.5     0.0       N     0   0.0     SSE   150   8.61    393       26.5
   04/04/2018 07:10      49.0      48.4       93     46.8      0.00      6.05      65.1     0.43      1017.3     0.0       N     0   0.0     SSE   150   8.61    392       14.6
   04/04/2018 07:00      48.7      47.8       93     46.0      0.00      6.05      65.1     0.43      1017.1     0.2     SSE   164   0.8       S   171   8.61    390        2.2
   04/04/2018 06:50      48.4      47.9       93     46.1      0.00      6.05      65.2     0.43      1017.1     0.0     SSE   163   0.5     SSE   158   8.61    388       -7.8
   04/04/2018 06:40      48.2      47.8       93     46.0      0.00      6.05      65.2     0.43      1017.0     0.2     SSE   160   1.0       S   172   8.61    386      -14.4
   04/04/2018 06:30      48.1      47.8       93     45.9      0.00      6.05      65.3     0.43      1017.0     0.3     SSE   146   1.2      SE   140   8.61    383      -16.9
   04/04/2018 06:20      48.1      47.5       92     45.6      0.00      6.05      65.3     0.43      1017.0     0.2       S   173   1.0       S   181   8.61    382      -18.1
   04/04/2018 06:10      48.6      47.8       92     45.9      0.00      6.05      65.3     0.43      1016.9     0.4     SSE   163   1.2      SE   141   8.61    378      -18.2
   04/04/2018 06:00      48.8      48.3       92     46.3      0.00      6.05      65.3     0.43      1016.9     0.6       S   181   1.4     SSW   203   8.61    374      -18.2
   04/04/2018 05:50      49.1      48.2       92     46.3      0.00      6.05      65.4     0.43      1016.7     0.0     SSE   160   0.6     SSE   160   8.61    374      -18.9
   04/04/2018 05:40      48.9      48.6       92     46.6      0.00      6.05      65.4     0.43      1016.7     0.8     SSW   194   1.7     SSW   194   8.61    370      -18.3
   04/04/2018 05:30      49.1      48.3       92     46.2      0.00      6.05      65.4     0.43      1016.7     0.0       S   171   0.8     SSE   151   8.61    367      -19.1
   04/04/2018 05:20      49.2      48.7       92     46.6      0.00      6.05      65.4     0.43      1016.8     0.0     SSE   156   0.5     SSE   156   8.61    367      -19.2
   04/04/2018 05:10      49.3      48.7       92     46.7      0.00      6.05      65.5     0.43      1016.8     0.2     SSE   156   0.8     SSE   155   8.61    364      -19.0
   04/04/2018 05:00      49.5      48.9       92     46.9      0.00      6.05      65.5     0.43      1016.8     0.0     SSE   168   0.6     SSE   165   8.61    360      -19.4
   04/04/2018 04:50      49.5      49.1       92     47.0      0.00      6.05      65.5     0.43      1016.7     0.0     SSE   164   0.5     SSE   155   8.62    358      -19.4
   04/04/2018 04:40      49.4      48.3       92     46.6      0.00      6.05      65.6     0.43      1016.6     0.3     SSE   169   0.8     SSW   193   8.62    354      -20.2
   04/04/2018 04:30      49.5      48.4       91     46.3      0.00      6.05      65.6     0.43      1016.5     0.1       S   173   0.9       S   171   8.62    352      -20.7
   04/04/2018 04:20      49.8      49.2       91     46.9      0.00      6.05      65.6     0.43      1016.5     0.5     SSE   166   1.3       S   190   8.62    350      -20.9
   04/04/2018 04:10      50.0      49.7       91     47.2      0.00      6.05      65.7     0.43      1016.5     0.3     SSE   160   0.8     SSE   167   8.62    345      -21.5
   04/04/2018 04:00      50.0      49.5       91     47.2      0.00      6.05      65.7     0.43      1016.5     0.2       S   185   0.8     SSW   195   8.62    341      -22.3
   04/04/2018 03:50      49.7      49.2       90     46.6      0.00      6.05      65.7     0.43      1016.4     0.3       S   174   0.9     SSW   195   8.62    338      -22.9
   04/04/2018 03:40      50.3      49.4       90     46.9      0.00      6.05      65.7     0.43      1016.5     0.0     SSE   151   0.6     SSE   149   8.62    332      -23.8
   04/04/2018 03:30      50.5      50.0       90     47.4      0.00      6.05      65.8     0.43      1016.6     0.1     SSE   151   0.9      SE   145   8.62    328      -24.0
   04/04/2018 03:20      50.5      49.9       90     47.2      0.00      6.05      65.8     0.43      1016.5     0.4       S   181   1.0     SSW   197   8.62    325      -24.5
   04/04/2018 03:10      50.6      50.2       90     47.4      0.00      6.05      65.8     0.43      1016.5     0.4       S   176   1.3       S   184   8.62    319      -24.8
   04/04/2018 03:00      51.0      50.3       90     47.6      0.00      6.05      65.9     0.43      1016.5     0.4       S   185   1.1     SSW   206   8.62    315      -25.5
   04/04/2018 02:50      51.0      50.6       90     47.8      0.00      6.05      65.9     0.43      1016.6     0.0     SSE   167   0.6     SSE   167   8.62    312      -26.9
   04/04/2018 02:40      51.0      50.3       89     47.5      0.00      6.05      65.9     0.43      1016.6     0.4     SSE   165   0.9       S   188   8.62    307      -27.7
   04/04/2018 02:30      51.0      50.6       89     47.7      0.00      6.05      65.9     0.43      1016.7     0.6     SSE   160   1.4      SE   146   8.62    304      -28.3
   04/04/2018 02:20      51.6      50.8       88     47.8      0.00      6.05      66.0     0.43      1016.7     0.2     SSE   162   0.7     SSE   163   8.62    300      -29.2
   04/04/2018 02:10      51.5      51.1       88     47.9      0.00      6.05      66.0     0.43      1016.9     0.0     SSE   166   0.6     SSE   165   8.62    296      -30.8
   04/04/2018 02:00      51.6      51.1       88     47.9      0.00      6.05      66.0     0.43      1016.9     0.3     SSE   162   1.1      SE   138   8.62    293      -32.5
   04/04/2018 01:50      51.4      51.0       87     47.5      0.00      6.05      66.0     0.43      1016.8     0.6     SSW   195   1.2     SSW   207   8.62    290      -34.5
   04/04/2018 01:40      51.8      51.2       87     47.7      0.00      6.05      66.0     0.43      1016.9     0.6     SSE   151   1.9      SE   141   8.62    287      -36.2
   04/04/2018 01:30      52.0      51.4       87     47.8      0.00      6.05      66.1     0.43      1017.0     0.9     SSW   193   2.0     SSW   205   8.62    285      -36.5
   04/04/2018 01:20      52.2      51.8       86     48.0      0.00      6.05      66.1     0.43      1017.0     0.3     SSE   168   1.0       S   178   8.63    283      -38.5
   04/04/2018 01:10      52.7      51.8       85     48.0      0.00      6.05      66.1     0.43      1017.0     0.3     SSE   152   1.1       S   174   8.63    281      -40.6
   04/04/2018 01:00      52.9      52.4       86     48.4      0.00      6.05      66.1     0.43      1017.0     0.4       S   190   1.2       S   174   8.63    279      -42.3
   04/04/2018 00:50      52.8      52.4       86     48.5      0.00      6.05      66.1     0.43      1017.0     0.2       S   175   0.8       S   176   8.63    277      -45.5
   04/04/2018 00:40      52.6      52.2       85     48.1      0.00      6.05      66.1     0.43      1017.0     0.4     SSE   159   1.0     SSE   148   8.63    276      -49.8
   04/04/2018 00:30      53.3      52.3       84     48.0      0.00      6.05      66.2     0.43      1016.8     0.4     SSE   165   0.9     SSE   162   8.63    275      -53.0
   04/04/2018 00:20      53.2      52.9       84     48.4      0.00      6.05      66.1     0.43      1016.7     0.0     SSE   166   0.1     SSE   166   8.63    274      -54.7
   04/04/2018 00:10      53.4      52.9       84     48.5      0.00      6.05      66.2     0.43      1016.6     0.4     SSE   168   0.9     SSE   169   8.63    272      -58.7
   04/04/2018 00:00      53.5      53.0       84     48.4      0.00      6.05      66.2     0.43      1016.6     0.4     SSE   149   1.1      SE   142   8.63    271      -61.8
   04/03/2018 23:50      54.0      53.1       82     48.3      0.00      6.05      66.2     0.43      1016.5     0.7     SSE   159   1.6      SE   143   8.63    270      -64.5
   04/03/2018 23:40      54.3      53.7       82     48.4      0.00      6.05      66.2     0.43      1016.6     1.0       S   174   1.6     SSW   205   8.63    269      -64.0
   04/03/2018 23:30      54.7      54.0       81     48.6      0.00      6.05      66.2     0.43      1016.5     0.6       S   171   1.1       S   181   8.63    269      -64.2
   04/03/2018 23:20      55.0      54.4       80     48.5      0.00      6.05      66.2     0.43      1016.6     0.3     SSE   166   0.9       S   177   8.63    269      -65.6
   04/03/2018 23:10      55.2      54.8       79     48.7      0.00      6.05      66.2     0.43      1016.6     0.6       S   184   1.5       S   176   8.63    268      -65.7
   04/03/2018 23:00      55.3      54.7       79     48.5      0.00      6.05      66.2     0.43      1016.7     0.9     SSW   193   1.8     SSW   201   8.63    268      -65.2
   04/03/2018 22:50      55.9      55.0       78     48.6      0.00      6.05      66.2     0.43      1016.8     0.6     SSW   194   1.8      SW   218   8.63    268      -66.0
   04/03/2018 22:40      56.6      55.5       77     48.5      0.00      6.05      66.2     0.44      1016.8     0.6       S   180   2.0     SSW   196   8.63    268      -66.1
   04/03/2018 22:30      56.9      56.3       75     48.8      0.00      6.05      66.2     0.44      1016.8     1.1       S   189   1.9     SSW   210   8.64    268      -65.9
   04/03/2018 22:20      57.0      56.5       75     48.9      0.00      6.05      66.2     0.44      1016.7     0.9      SW   220   2.2     SSW   213   8.64    268      -66.0
   04/03/2018 22:10      57.4      56.6       75     49.1      0.00      6.05      66.2     0.44      1016.6     0.2     SSE   162   1.0       S   188   8.64    268      -66.8
   04/03/2018 22:00      57.7      57.2       75     49.4      0.00      6.05      66.2     0.44      1016.6     0.0       N     0   0.0     SSE   161   8.64    268      -66.9
   04/03/2018 21:50      58.3      57.4       73     49.1      0.00      6.05      66.2     0.43      1016.4     0.0       N     0   0.0       S   185   8.64    267      -67.0
   04/03/2018 21:40      59.1      58.1       71     49.3      0.00      6.05      66.2     0.43      1016.3     0.5       E    88   1.2       E    96   8.64    267      -68.3
   04/03/2018 21:30      59.9      58.9       70     49.5      0.00      6.05      66.2     0.44      1016.1     0.3      SW   215   1.9       W   269   8.64    267      -69.7
   04/03/2018 21:20      59.9      59.4       69     49.6      0.00      6.05      66.2     0.44      1016.0     0.7     SSW   201   2.1      SW   226   8.64    267      -70.7
   04/03/2018 21:10      60.4      59.7       69     49.6      0.00      6.05      66.2     0.43      1015.7     1.2       S   188   2.1     SSW   193   8.65    267      -72.0
   04/03/2018 21:00      60.8      60.1       68     49.7      0.00      6.05      66.2     0.44      1015.6     1.0       S   186   2.0      SW   219   8.65    266      -73.2
   04/03/2018 20:50      61.2      60.5       67     49.9      0.00      6.05      66.1     0.43      1015.4     1.7     SSW   201   3.4     SSW   205   8.65    266      -74.1
   04/03/2018 20:40      61.6      60.8       67     50.0      0.00      6.05      66.1     0.43      1015.3     1.9     SSW   208   3.7     SSW   209   8.65    266      -74.3
   04/03/2018 20:30      62.2      61.3       66     50.0      0.00      6.05      66.1     0.43      1015.2     2.1      SW   214   4.6     WSW   258   8.65    266      -75.8
   04/03/2018 20:20      62.8      62.0       64     50.1      0.00      6.05      66.1     0.43      1015.1     2.7     WSW   238   4.9     WSW   250   8.65    266      -76.7
   04/03/2018 20:10      63.1      62.5       63     50.0      0.00      6.05      66.0     0.43      1014.9     3.0     WSW   238   5.3     WSW   246   8.65    266      -77.5
   04/03/2018 20:00      63.6      62.8       62     50.1      0.00      6.05      66.0     0.43      1014.8     2.4      SW   220   4.8      SW   222   8.66    266      -77.9
   04/03/2018 19:50      64.6      63.3       61     50.1      0.00      6.05      66.0     0.43      1014.6     2.0      SW   215   4.4      SW   222   8.66    266      -78.8
   04/03/2018 19:40      65.2      64.1       59     50.1      0.00      6.05      65.9     0.43      1014.4     3.0     WSW   237   4.4     WSW   247   8.66    266      -79.9
   04/03/2018 19:30      65.7      64.8       58     50.0      0.00      6.05      66.0     0.43      1014.3     2.8     WSW   240   4.6      SW   227   8.66    266      -80.0
   04/03/2018 19:20      66.5      65.3       57     50.0      0.00      6.05      65.9     0.43      1014.3     3.2      SW   236   5.2     WSW   242   8.66    266      -77.6
   04/03/2018 19:10      67.0      66.1       56     50.2      0.00      6.05      65.8     0.43      1014.2     2.7      SW   235   4.7     WSW   246   8.67    266      -73.3
   04/03/2018 19:00      67.4      66.6       55     50.1      0.00      6.05      65.8     0.43      1014.2     3.2     WSW   245   5.3     WSW   256   8.67    266      -68.5
   04/03/2018 18:50      68.3      67.1       53     50.0      0.00      6.05      65.8     0.43      1014.1     4.0      SW   234   6.3     WSW   251   8.68    265      -66.3
   04/03/2018 18:40      69.1      68.1       52     50.2      0.00      6.05      65.7     0.43      1014.2     4.0      SW   236   6.6     WSW   243   8.68    266      -41.0
   04/03/2018 18:30      69.9      68.9       51     50.3      0.00      6.05      65.7     0.43      1014.2     4.3     WSW   254   6.9     WSW   248   8.69    265      -15.6
   04/03/2018 18:20      70.9      69.4       50     50.2      0.00      6.05      65.6     0.43      1014.1     4.7     WSW   247   7.3       W   270   8.69    265        9.6
   04/03/2018 18:10      71.3      70.7       48     50.5      0.00      6.05      65.6     0.43      1014.2     4.2     WSW   244   7.5     SSW   200   8.69    265       35.5
   04/03/2018 18:00      72.0      71.0       48     50.4      0.00      6.05      65.5     0.43      1013.9     4.2     WSW   255   7.1     WSW   257   8.69    264       62.0
   04/03/2018 17:50      72.3      71.6       47     50.6      0.00      6.05      65.5     0.43      1013.7     2.9     WSW   254   6.8     WSW   247   8.70    264       88.3
   04/03/2018 17:40      72.3      71.4       47     50.6      0.00      6.05      65.4     0.43      1013.8     3.7     WSW   244   7.2     WSW   247   8.70    264      116.3
   04/03/2018 17:30      72.2      71.6       47     50.8      0.00      6.05      65.4     0.43      1013.9     4.3     WSW   250   7.5      SW   234   8.70    264      144.1
   04/03/2018 17:20      72.6      72.0       47     50.8      0.00      6.05      65.3     0.43      1013.9     4.6     WNW   301   8.2       W   269   8.71    264      167.5
   04/03/2018 17:10      72.7      72.0       47     51.0      0.00      6.05      65.3     0.43      1013.8     4.1     WNW   292   9.6     WNW   289   8.71    264      192.0
   04/03/2018 17:00      73.0      72.1       47     50.9      0.00      6.05      65.2     0.43      1013.8     4.8     WNW   289   8.7      NW   320   8.71    264      217.9
   04/03/2018 16:50      73.2      72.3       47     51.1      0.00      6.05      65.1     0.43      1013.9     4.5     WNW   300   9.9     WNW   299   8.71    264      243.4
   04/03/2018 16:40      73.5      72.7       46     51.3      0.00      6.05      65.1     0.43      1014.0     4.3       W   273  10.3     WSW   252   8.72    264      268.1
   04/03/2018 16:30      73.6      72.8       46     51.4      0.00      6.05      65.0     0.43      1014.0     5.0       W   274   9.6     WNW   282   8.72    264      292.2
   04/03/2018 16:20      73.9      73.2       47     51.9      0.00      6.05      64.9     0.43      1014.0     4.2       W   276   8.5      SW   225   8.72    264      313.5
   04/03/2018 16:10      73.8      73.0       47     52.1      0.00      6.05      64.8     0.43      1014.0     4.1       W   273   8.6     WNW   283   8.73    264      335.6
   04/03/2018 16:00      73.8      72.8       47     52.1      0.00      6.05      64.8     0.43      1014.1     4.5     WNW   287   8.1       W   260   8.73    264      354.6
   04/03/2018 15:50      74.1      73.2       47     52.3      0.00      6.05      64.8     0.43      1014.2     4.6      NW   309  12.1      NW   309   8.73    265      372.2
   04/03/2018 15:40      74.4      73.6       47     52.4      0.00      6.05      64.7     0.43      1014.2     5.1       W   273  10.8     WNW   287   8.73    264      388.7
   04/03/2018 15:30      74.3      73.0       46     51.9      0.00      6.05      64.6     0.43      1014.2     2.8       S   171   6.4     SSW   201   8.74    264      407.9
   04/03/2018 15:20      74.4      72.3       46     51.5      0.00      6.05      64.5     0.43      1014.3     3.9     SSE   147   7.9       S   170   8.74    265      428.6
   04/03/2018 15:10      74.3      72.8       46     51.6      0.00      6.05      64.5     0.43      1014.4     2.5     SSW   203   7.4     SSW   194   8.74    264      448.1
   04/03/2018 15:00      73.6      72.3       47     51.4      0.00      6.05      64.4     0.43      1014.4     3.6       S   171   6.7      SE   137   8.74    264      464.2
   04/03/2018 14:50      73.6      72.4       46     51.2      0.00      6.05      64.4     0.43      1014.5     3.0     SSE   162   7.7     SSE   155   8.74    264      478.9
   04/03/2018 14:40      73.0      72.0       47     50.9      0.00      6.05      64.3     0.43      1014.5     2.9      SE   124   7.8     SSE   150   8.74    264      494.0
   04/03/2018 14:30      72.7      71.3       48     50.9      0.00      6.05      64.3     0.43      1014.5     4.2     SSE   148   9.2       S   172   8.75    264      510.4
   04/03/2018 14:20      74.8      72.5       44     51.2      0.00      6.05      64.2     0.43      1014.6     3.2      SE   141   7.7       S   182   8.75    263      532.2
   04/03/2018 14:10      73.9      71.7       47     50.8      0.00      6.05      64.2     0.43      1014.7     3.0     SSW   194   6.9     SSW   200   8.75    264      484.7
   04/03/2018 14:00      74.2      72.2       45     50.6      0.00      6.05      64.0     0.43      1014.8     3.1     ESE   106   7.7      SE   131   8.75    264      518.0
   04/03/2018 13:50      73.4      72.2       46     50.4      0.00      6.05      64.1     0.43      1014.9     3.5      SE   144   6.1       S   175   8.75    264      480.3
   04/03/2018 13:40      74.0      72.8       44     50.4      0.00      6.05      64.0     0.43      1014.9     2.2     SSE   150   4.6     ESE   122   8.76    263      524.8
   04/03/2018 13:30      73.6      72.8       44     50.1      0.00      6.05      64.0     0.43      1014.9     1.9      NE    54   4.9      SE   135   8.76    264      491.3
   04/03/2018 13:20      73.0      71.9       45     49.7      0.00      6.05      64.0     0.43      1015.0     2.2      NE    56   5.0     NNE    15   8.76    264      577.4
   04/03/2018 13:10      72.5      71.4       46     49.8      0.00      6.05      64.0     0.43      1015.1     2.8     WNW   286   5.5       N     0   8.76    264      578.8
   04/03/2018 13:00      72.3      70.9       46     49.7      0.00      6.05      64.0     0.43      1015.2     1.6       W   264   4.8      SW   218   8.76    264      526.9
   04/03/2018 12:50      71.2      69.8       47     49.3      0.00      6.05      64.0     0.43      1015.3     2.3     NNW   340   4.6     NNW   332   8.76    264      509.2
   04/03/2018 12:40      71.1      69.7       47     49.5      0.00      6.05      63.9     0.43      1015.4     2.5       N   357   5.7      NE    36   8.76    264      535.3
   04/03/2018 12:30      69.8      68.7       49     49.5      0.00      6.05      63.9     0.43      1015.4     2.3      SW   214   5.3     SSE   159   8.76    265      562.1
   04/03/2018 12:20      69.2      67.9       50     49.4      0.00      6.05      63.9     0.43      1015.5     1.3     ESE   117   3.1       E    95   8.76    265      559.2
   04/03/2018 12:10      68.3      67.3       51     49.1      0.00      6.05      63.9     0.43      1015.6     1.8       N   358   5.0      SW   232   8.76    265      531.9
   04/03/2018 12:00      68.1      67.3       52     49.2      0.00      6.05      64.0     0.43      1015.7     2.3     WNW   290   4.4     WSW   253   8.76    265      514.5
   04/03/2018 11:50      67.7      66.8       52     49.2      0.00      6.05      64.0     0.43      1015.7     1.5      NW   312   3.0      NW   307   8.76    265      515.4
   04/03/2018 11:40      66.8      66.3       53     48.9      0.00      6.05      64.0     0.43      1015.8     1.5       N   353   4.1      NE    52   8.76    265      523.5
   04/03/2018 11:30      66.5      65.1       54     48.8      0.00      6.05      64.0     0.43      1015.9     1.3       N   351   3.2      NE    41   8.76    265      520.9
   04/03/2018 11:20      65.5      65.1       55     48.8      0.00      6.05      64.0     0.43      1016.0     2.7     NNE    27   3.9       N    11   8.76    265      511.6
   04/03/2018 11:10      65.3      64.4       56     48.9      0.00      6.05      64.0     0.43      1016.1     2.2     WNW   297   5.5     NNW   345   8.76    265      502.0
   04/03/2018 11:00      65.4      64.6       56     48.8      0.00      6.05      64.1     0.43      1016.1     1.9     SSE   151   4.6     WSW   257   8.76    266      488.8
   04/03/2018 10:50      65.1      64.5       56     48.7      0.00      6.05      64.1     0.43      1016.1     1.4      NE    47   3.9       E    86   8.76    266      470.7
   04/03/2018 10:40      64.6      63.6       57     48.6      0.00      6.05      64.1     0.43      1016.1     1.4      NE    37   3.1      NW   325   8.76    266      443.4
   04/03/2018 10:30      64.0      62.0       60     48.7      0.00      6.05      64.1     0.43      1016.1     1.1     ESE   115   3.4      NE    42   8.76    266      370.0
   04/03/2018 10:20      62.4      61.7       61     48.2      0.00      6.05      64.2     0.43      1016.1     1.6      NE    48   4.4      NE    36   8.76    266      337.9
   04/03/2018 10:10      62.5      61.4       61     48.3      0.00      6.05      64.2     0.43      1016.0     2.0      NE    52   4.0      NE    48   8.76    266      384.3
   04/03/2018 10:00      61.3      59.8       63     48.0      0.00      6.05      64.3     0.43      1016.0     1.6       E    96   3.8      SE   126   8.76    266      381.6
   04/03/2018 09:50      59.9      59.2       65     47.8      0.00      6.05      64.3     0.43      1015.9     2.8       N   357   5.5     NNE    12   8.76    266      359.1
   04/03/2018 09:40      60.5      59.5       64     47.7      0.00      6.05      64.3     0.43      1015.8     1.8     NNE    20   4.2     NNE    26   8.76    267      281.5
   04/03/2018 09:30      60.6      58.9       65     47.8      0.00      6.05      64.3     0.43      1015.8     0.7     NNE    29   2.1     NNE    16   8.76    267      318.9
   04/03/2018 09:20      59.6      58.8       66     47.9      0.00      6.05      64.4     0.43      1015.7     1.4      NE    51   3.4      NE    40   8.76    267      292.4
   04/03/2018 09:10      59.1      58.5       67     47.9      0.00      6.05      64.4     0.43      1015.6     1.2     NNE    32   2.6     NNE    24   8.76    267      257.2
   04/03/2018 09:00      58.8      57.9       68     48.0      0.00      6.05      64.5     0.43      1015.6     0.7       N   352   1.9       W   276   8.76    268      280.2
   04/03/2018 08:50      57.8      56.6       73     48.3      0.00      6.05      64.5     0.44      1015.5     0.7       N   359   2.1     NNW   340   8.76    298      263.5
   04/03/2018 08:40      56.6      54.6       78     48.7      0.00      6.05      64.5     0.44      1015.5     0.4     WNW   289   1.8     WNW   292   8.76    340      238.0
   04/03/2018 08:30      54.8      52.9       84     49.0      0.00      6.05      64.5     0.44      1015.5     0.7       N    11   1.8     NNE    14   8.76    367      216.1
   04/03/2018 08:20      52.9      51.1       88     48.4      0.00      6.05      64.6     0.44      1015.5     0.0       N   350   0.2     NNW   345   8.76    374      132.4
   04/03/2018 08:10      51.3      50.4       89     47.6      0.00      6.05      64.6     0.44      1015.4     0.0      SE   131   0.7      SE   132   8.76    378       67.6
   04/03/2018 08:00      50.6      49.8       90     47.4      0.00      6.05      64.7     0.44      1015.4     0.0       N     0   0.0      SE   142   8.76    378       44.0
   04/03/2018 07:50      50.1      49.6       91     47.3      0.00      6.05      64.7     0.44      1015.3     0.0       N     0   0.0      SE   142   8.76    376       37.9
   04/03/2018 07:40      49.9      47.9       92     47.0      0.00      6.05      64.7     0.44      1015.1     0.0       N     0   0.0      SE   141   8.76    374       37.5
   04/03/2018 07:30      48.1      47.3       92     45.4      0.00      6.05      64.8     0.44      1014.9     0.0       N     0   0.0     SSE   148   8.76    371       22.5
   04/03/2018 07:20      47.6      46.8       92     45.2      0.00      6.05      64.8     0.44      1014.8     0.5       S   181   1.7     SSW   201   8.76    368        9.5
   04/03/2018 07:10      47.0      46.1       92     44.2      0.00      6.05      64.8     0.44      1014.6     0.3       S   176   0.9     WSW   243   8.76    366        2.7
   04/03/2018 07:00      46.8      46.3       92     44.3      0.00      6.05      64.8     0.44      1014.4     0.3      SE   141   1.2      SE   134   8.76    363       -6.4
   04/03/2018 06:50      47.1      46.5       92     44.6      0.00      6.05      64.9     0.44      1014.4     0.6       S   174   1.2     SSW   206   8.76    360      -11.4
   04/03/2018 06:40      47.0      46.5       92     44.6      0.00      6.05      64.9     0.44      1014.3     0.2     SSW   194   1.1     SSW   206   8.76    356      -15.6
   04/03/2018 06:30      47.0      46.4       92     44.4      0.00      6.05      65.0     0.44      1014.2     0.3       S   171   1.0       S   180   8.76    356      -17.6
   04/03/2018 06:20      47.0      46.6       92     44.6      0.00      6.05      65.0     0.44      1014.1     0.8       S   180   1.8       S   187   8.76    353      -17.6
   04/03/2018 06:10      47.1      46.4       92     44.3      0.00      6.05      65.0     0.44      1014.0     0.3     SSE   161   0.8       S   175   8.76    352      -18.2
   04/03/2018 06:00      47.0      46.4       92     44.5      0.00      6.05      65.1     0.44      1014.0     0.3       S   170   0.7     SSE   169   8.76    350      -18.5
   04/03/2018 05:50      46.8      46.3       92     44.3      0.00      6.05      65.1     0.44      1013.9     1.1     SSW   209   2.2      SW   220   8.76    348      -18.2
   04/03/2018 05:40      47.1      46.4       91     44.1      0.00      6.05      65.1     0.44      1013.7     0.3     SSE   152   0.9     SSW   204   8.76    345      -18.8
   04/03/2018 05:30      47.1      46.5       91     44.4      0.00      6.05      65.2     0.44      1013.7     0.4     SSE   155   1.3     SSE   161   8.76    343      -19.1
   04/03/2018 05:20      47.2      46.7       91     44.5      0.00      6.05      65.2     0.44      1013.5     0.6       S   176   1.2       S   178   8.76    342      -19.3
   04/03/2018 05:10      47.3      46.8       91     44.6      0.00      6.05      65.3     0.44      1013.4     1.0     SSW   205   1.6     SSW   208   8.77    340      -19.1
   04/03/2018 05:00      47.3      46.7       91     44.3      0.00      6.05      65.2     0.44      1013.3     0.2     SSW   196   1.2     SSW   207   8.77    336      -20.5
   04/03/2018 04:50      47.6      47.0       91     44.8      0.00      6.05      65.3     0.44      1013.2     0.2       S   175   1.1       S   177   8.77    336      -20.6
   04/03/2018 04:40      47.6      47.0       91     44.8      0.00      6.05      65.3     0.44      1013.2     0.2       S   187   0.7       S   189   8.77    334      -20.8
   04/03/2018 04:30      48.0      47.1       91     44.9      0.00      6.05      65.4     0.44      1013.2     0.3     SSE   153   0.9     SSE   147   8.77    331      -21.3
   04/03/2018 04:20      48.0      47.5       91     45.1      0.00      6.05      65.4     0.44      1013.2     0.3     SSE   156   1.2     SSE   165   8.77    328      -21.5
   04/03/2018 04:10      47.8      47.3       90     44.7      0.00      6.05      65.4     0.44      1013.2     0.7     SSE   168   1.3     SSE   160   8.77    326      -21.8
   04/03/2018 04:00      48.1      47.4       90     45.1      0.00      6.05      65.5     0.44      1013.2     0.2     SSE   161   1.1     SSE   159   8.77    323      -22.6
   04/03/2018 03:50      48.2      47.8       90     45.2      0.00      6.05      65.5     0.44      1013.2     0.4     SSE   157   1.2     SSE   158   8.77    320      -23.1
   04/03/2018 03:40      47.9      47.6       90     44.9      0.00      6.05      65.5     0.44      1013.1     0.3       S   171   0.8       S   171   8.77    317      -24.0
   04/03/2018 03:30      48.1      47.6       89     44.9      0.00      6.05      65.5     0.44      1013.1     0.7     SSE   147   1.8      SE   142   8.77    313      -24.5
   04/03/2018 03:20      48.4      47.8       89     45.1      0.00      6.05      65.6     0.44      1012.9     1.5     SSW   203   2.1      SW   216   8.77    311      -23.5
   04/03/2018 03:10      48.6      47.8       89     45.2      0.00      6.05      65.6     0.44      1012.9     0.7       S   172   1.5     SSW   194   8.77    308      -24.7
   04/03/2018 03:00      48.7      48.3       89     45.3      0.00      6.05      65.6     0.44      1012.9     0.4     SSW   200   1.5       S   190   8.77    306      -25.3
   04/03/2018 02:50      49.0      48.3       89     45.5      0.00      6.05      65.7     0.44      1012.8     0.7       S   174   1.3      SW   229   8.77    303      -26.3
   04/03/2018 02:40      49.0      48.7       89     45.7      0.00      6.05      65.7     0.44      1012.8     0.4       S   171   1.4     SSW   195   8.77    300      -27.0
   04/03/2018 02:30      49.1      48.7       88     45.5      0.00      6.05      65.7     0.44      1012.9     0.2       S   182   0.7       S   179   8.77    297      -28.3
   04/03/2018 02:20      49.6      48.7       88     45.5      0.00      6.05      65.8     0.44      1012.9     0.2      SE   142   0.7     SSE   165   8.77    294      -29.7
   04/03/2018 02:10      49.7      49.3       88     46.0      0.00      6.05      65.8     0.44      1013.0     0.3     SSE   167   1.2       S   184   8.77    290      -29.9
   04/03/2018 02:00      49.8      49.4       88     46.0      0.00      6.05      65.8     0.44      1013.0     0.6       S   190   1.6     SSW   195   8.77    288      -31.3
   04/03/2018 01:50      49.9      49.2       87     46.0      0.00      6.05      65.8     0.44      1013.1     0.2     SSW   194   1.1     SSW   208   8.77    286      -33.8
   04/03/2018 01:40      49.7      49.3       87     45.6      0.00      6.05      65.9     0.44      1013.0     0.0     SSW   208   0.9     SSW   209   8.77    284      -36.8
   04/03/2018 01:30      50.0      49.2       86     45.6      0.00      6.05      65.9     0.44      1013.1     0.2       S   170   0.6     SSE   150   8.77    282      -38.9
   04/03/2018 01:20      50.0      49.5       86     45.8      0.00      6.05      65.9     0.44      1013.2     0.3     SSE   163   1.2       S   172   8.77    280      -40.9
   04/03/2018 01:10      50.5      49.5       86     45.9      0.00      6.05      65.9     0.44      1013.2     0.3     SSE   158   1.1     SSE   149   8.77    279      -43.1
   04/03/2018 01:00      50.5      49.8       87     46.3      0.00      6.05      66.0     0.44      1013.2     0.5       S   185   1.4     SSW   204   8.77    277      -43.7
   04/03/2018 00:50      50.3      49.7       86     45.8      0.00      6.05      66.0     0.44      1013.2     0.3     SSE   150   1.1      SE   143   8.77    275      -49.3
   04/03/2018 00:40      50.5      50.0       85     46.0      0.00      6.05      66.0     0.44      1013.2     0.6     SSE   162   1.8       S   183   8.77    273      -51.5
   04/03/2018 00:30      50.7      50.3       85     46.1      0.00      6.05      66.0     0.44      1013.2     0.7     SSE   163   1.5       S   190   8.77    273      -54.2
   04/03/2018 00:20      51.1      50.4       84     46.1      0.00      6.05      66.0     0.44      1013.1     0.4       S   170   0.9       S   175   8.78    270      -57.0
   04/03/2018 00:10      51.0      50.6       84     46.3      0.00      6.05      66.1     0.44      1013.1     0.5     SSE   165   1.2       S   181   8.78    270      -59.1
   04/03/2018 00:00      51.1      50.5       84     45.9      0.00      6.05      66.1     0.44      1013.0     0.5     SSW   203   1.9      SW   225   8.78    270      -61.7
   04/02/2018 23:50      51.4      50.8       83     46.2      0.00      6.05      66.1     0.44      1013.0     0.4       S   174   1.2     SSE   152   8.78    270      -62.8
   04/02/2018 23:40      52.0      51.0       82     46.0      0.00      6.05      66.1     0.44      1012.9     0.4       S   180   1.2     SSW   206   8.78    269      -64.0
   04/02/2018 23:30      52.7      51.8       81     46.4      0.00      6.05      66.1     0.44      1012.9     0.6     SSE   161   1.1       S   180   8.78    268      -64.7
   04/02/2018 23:20      52.7      52.2       80     46.5      0.00      6.05      66.2     0.44      1013.0     1.8     SSW   195   2.7     SSW   199   8.78    268      -63.6
   04/02/2018 23:10      52.8      52.3       80     46.5      0.00      6.05      66.2     0.44      1013.1     0.5       S   180   1.6       S   188   8.78    268      -63.8
   04/02/2018 23:00      53.0      52.5       79     46.4      0.00      6.05      66.2     0.44      1012.9     0.2       S   182   1.1       S   183   8.78    268      -64.3
   04/02/2018 22:50      53.3      52.7       78     46.4      0.00      6.05      66.2     0.44      1012.9     0.0       N     0   0.0       S   182   8.78    268      -64.7
   04/02/2018 22:40      53.7      53.0       78     46.4      0.00      6.05      66.2     0.44      1013.0     0.5       S   182   1.5       S   181   8.78    268      -64.8
   04/02/2018 22:30      54.0      53.4       77     46.5      0.00      6.05      66.2     0.44      1013.0     1.1       S   175   2.0       S   169   8.78    268      -65.3
   04/02/2018 22:20      54.9      53.6       75     46.4      0.00      6.05      66.2     0.44      1012.9     0.9     SSE   159   1.6       S   182   8.78    267      -67.1
   04/02/2018 22:10      55.4      54.7       73     46.5      0.00      6.05      66.2     0.44      1012.8     1.0     SSE   168   2.1       S   180   8.78    267      -67.8
   04/02/2018 22:00      55.9      55.1       72     46.5      0.00      6.05      66.2     0.44      1012.7     1.7       S   189   2.4     SSW   196   8.78    267      -68.3
   04/02/2018 21:50      55.9      55.5       71     46.5      0.00      6.05      66.2     0.44      1012.6     1.5     SSW   208   2.3      SW   232   8.78    267      -68.1
   04/02/2018 21:40      56.1      55.5       71     46.4      0.00      6.05      66.3     0.44      1012.5     1.2     SSW   211   2.0     SSW   201   8.78    267      -68.2
   04/02/2018 21:30      56.3      55.7       71     46.6      0.00      6.05      66.2     0.44      1012.5     1.6     SSW   198   3.1     WSW   245   8.79    267      -68.6
   04/02/2018 21:20      56.3      55.9       70     46.5      0.00      6.05      66.2     0.44      1012.4     1.6     SSW   209   2.1      SW   235   8.79    267      -68.1
   04/02/2018 21:10      56.5      56.0       70     46.3      0.00      6.05      66.2     0.44      1012.3     1.4     SSW   211   2.3     SSW   197   8.79    267      -68.2
   04/02/2018 21:00      56.9      56.1       69     46.3      0.00      6.05      66.2     0.44      1012.1     1.9     SSW   192   3.5     SSW   205   8.79    266      -70.0
   04/02/2018 20:50      56.8      56.2       69     46.3      0.00      6.05      66.2     0.44      1012.0     1.5     SSW   207   2.8       S   189   8.79    266      -69.8
   04/02/2018 20:40      57.2      56.4       68     46.3      0.00      6.05      66.2     0.44      1011.8     1.5     SSW   207   2.5     SSW   208   8.79    266      -71.2
   04/02/2018 20:30      57.3      56.9       67     46.2      0.00      6.05      66.2     0.44      1011.7     1.5      SW   214   2.8     SSW   200   8.79    266      -71.7
   04/02/2018 20:20      57.4      56.9       67     46.2      0.00      6.05      66.2     0.44      1011.7     1.7     SSW   201   2.5     SSW   204   8.79    266      -72.8
   04/02/2018 20:10      57.5      57.0       67     46.3      0.00      6.05      66.2     0.44      1011.6     2.1       S   187   3.4       S   171   8.79    266      -73.8
   04/02/2018 20:00      57.8      57.2       67     46.5      0.00      6.05      66.1     0.44      1011.5     2.6     SSW   195   3.9     SSW   212   8.80    266      -74.6
   04/02/2018 19:50      58.0      57.4       67     46.6      0.00      6.05      66.1     0.44      1011.3     2.8     SSW   193   4.3       S   174   8.80    266      -75.5
   04/02/2018 19:40      58.4      57.7       66     46.7      0.00      6.05      66.1     0.44      1011.3     2.6       S   181   5.8     SSW   200   8.80    266      -76.5
   04/02/2018 19:30      58.8      58.1       65     46.8      0.00      6.05      66.1     0.44      1011.3     3.0       S   178   5.3     SSE   149   8.80    266      -77.0
   04/02/2018 19:20      59.6      58.5       64     46.9      0.00      6.05      66.0     0.44      1011.2     4.0       S   180   6.8       S   170   8.80    266      -74.0
   04/02/2018 19:10      59.8      59.2       63     47.0      0.00      6.05      66.0     0.44      1011.1     3.3       S   177   7.8       S   189   8.81    266      -67.4
   04/02/2018 19:00      60.3      59.5       63     47.0      0.00      6.05      66.0     0.44      1011.0     3.0       S   188   6.0       S   178   8.81    266      -55.8
   04/02/2018 18:50      60.6      59.9       62     47.1      0.00      6.05      65.9     0.44      1010.9     3.6     SSE   166   5.8     SSE   155   8.81    266      -45.9
   04/02/2018 18:40      61.1      60.3       61     47.3      0.00      6.05      65.9     0.44      1010.9     4.0       S   174   6.9       S   191   8.81    266      -38.9
   04/02/2018 18:30      62.0      60.9       60     47.5      0.00      6.05      65.9     0.44      1010.9     3.7       S   188   7.4       S   185   8.81    266      -40.1
   04/02/2018 18:20      62.5      61.7       59     47.5      0.00      6.05      65.8     0.44      1010.8     3.6       S   182   6.6       S   186   8.82    265        1.8
   04/02/2018 18:10      62.8      61.9       58     47.5      0.00      6.05      65.8     0.44      1010.8     4.1       S   178   8.7       S   172   8.82    265       26.8
   04/02/2018 18:00      63.6      62.4       58     47.5      0.00      6.05      65.8     0.44      1010.9     4.4       S   179   8.0       S   178   8.82    265       75.4
   04/02/2018 17:50      63.6      62.5       57     47.6      0.00      6.05      65.7     0.44      1010.7     3.9       S   180   8.6      SE   139   8.82    265      109.2
   04/02/2018 17:40      63.7      62.5       57     47.5      0.00      6.05      65.7     0.44      1010.6     5.0     SSE   162   8.8      SE   144   8.82    265       53.0
   04/02/2018 17:30      64.0      63.5       56     47.6      0.00      6.05      65.7     0.44      1010.6     5.0     SSE   156   8.5     ESE   113   8.83    265      118.7
   04/02/2018 17:20      64.5      63.6       55     47.6      0.00      6.05      65.6     0.44      1010.5     5.0       S   173   8.3      SW   219   8.83    265      128.9
   04/02/2018 17:10      65.0      64.2       54     47.8      0.00      6.05      65.6     0.44      1010.5     4.6       S   173   8.3     SSW   203   8.83    265      144.8
   04/02/2018 17:00      65.9      64.5       53     47.7      0.00      6.05      65.5     0.44      1010.4     4.5     SSE   165   7.6     SSW   201   8.84    265      129.7
   04/02/2018 16:50      66.0      65.0       53     47.8      0.00      6.05      65.5     0.44      1010.4     3.8       S   184   8.7       S   180   8.84    264      173.2
   04/02/2018 16:40      67.2      65.5       51     47.7      0.00      6.05      65.4     0.44      1010.4     5.1       S   174   8.6       S   181   8.84    264      210.4
   04/02/2018 16:30      67.1      65.4       52     47.9      0.00      6.05      65.4     0.44      1010.4     4.0       S   171   8.7       S   170   8.84    264      278.6
   04/02/2018 16:20      66.7      65.6       51     47.7      0.00      6.05      65.3     0.44      1010.5     4.9     SSE   169   8.5     SSW   193   8.84    264      238.5
   04/02/2018 16:10      67.4      66.5       50     47.8      0.00      6.05      65.3     0.44      1010.4     5.2       S   169   9.7       S   181   8.83    264      317.3
   04/02/2018 16:00      67.5      66.5       50     47.8      0.00      6.05      65.2     0.44      1010.3     4.2      SE   135   8.1      SE   133   8.83    264      372.5
   04/02/2018 15:50      66.9      66.2       51     47.7      0.00      6.05      65.2     0.44      1010.4     5.0     SSE   156   9.2      SE   128   8.84    264      383.1
   04/02/2018 15:40      67.5      66.2       50     47.7      0.00      6.05      65.1     0.44      1010.4     5.5     SSE   158   9.9      SE   139   8.84    264      379.3
   04/02/2018 15:30      67.1      65.9       51     47.6      0.00      6.05      65.1     0.44      1010.5     5.2     SSE   162  10.1       S   179   8.84    264      346.4
   04/02/2018 15:20      67.7      66.7       50     47.8      0.00      6.05      65.0     0.44      1010.5     6.3     SSE   157  10.4     SSW   192   8.84    264      372.5
   04/02/2018 15:10      70.5      67.5       48     48.1      0.00      6.05      65.0     0.44      1010.5     5.1     SSE   154   9.7      SE   135   8.84    263      449.7
   04/02/2018 15:00      70.8      69.7       45     47.8      0.00      6.05      64.9     0.44      1010.5     2.0     ESE   108   5.2     SSW   192   8.84    263      470.0
   04/02/2018 14:50      70.2      69.5       45     47.7      0.00      6.05      64.9     0.44      1010.6     2.5      NE    46   5.3     ENE    60   8.78    263      418.0
   04/02/2018 14:40      69.8      69.0       46     47.7      0.00      6.05      64.9     0.44      1010.7     2.4     ENE    56   5.5     ESE   118   8.78    263      488.8
   04/02/2018 14:30      69.8      68.7       46     47.8      0.00      6.05      64.9     0.44      1010.8     2.5      NE    54   5.6     ENE    64   8.78    263      459.6
   04/02/2018 14:20      69.8      68.1       47     47.6      0.00      6.05      64.8     0.44      1011.0     1.7     ENE    65   4.7      NE    39   8.78    263      508.2
   04/02/2018 14:10      68.7      67.9       47     47.5      0.00      6.05      64.8     0.44      1011.1     2.6      NE    41   5.1       E    80   8.78    263      522.9
   04/02/2018 14:00      68.9      67.8       47     47.5      0.00      6.05      64.8     0.44      1011.2     2.8      NE    35   6.5     NNE    23   8.78    263      494.6
   04/02/2018 13:50      68.7      67.3       48     47.4      0.00      6.05      64.7     0.44      1011.3     2.7       N     6   5.8     NNE    24   8.78    264      561.9
   04/02/2018 13:40      68.8      68.4       47     47.5      0.00      6.05      64.7     0.44      1011.4     2.7      NE    43   5.8       N     5   8.78    263      527.2
   04/02/2018 13:30      68.6      67.5       48     47.5      0.00      6.05      64.8     0.44      1011.5     2.7      NE    55   6.6      NE    44   8.79    264      574.1
   04/02/2018 13:20      67.4      65.5       50     47.3      0.00      6.05      64.7     0.44      1011.6     2.4      NE    40   4.7      NE    51   8.79    264      568.6
   04/02/2018 13:10      66.4      65.3       51     47.1      0.00      6.05      64.7     0.44      1011.7     3.1       E    87   5.7      SE   137   8.79    264      560.5
   04/02/2018 13:00      66.1      64.7       52     46.9      0.00      6.05      64.7     0.44      1011.8     2.2      SW   232   5.0     WNW   282   8.79    264      578.4
   04/02/2018 12:50      65.0      63.9       52     46.4      0.00      6.05      64.7     0.44      1012.0     1.6     ESE   115   6.0     SSW   193   8.79    264      479.2
   04/02/2018 12:40      65.4      64.4       51     46.6      0.00      6.05      64.7     0.44      1012.1     2.7       E    93   6.2      NE    48   8.79    264      543.6
   04/02/2018 12:30      65.2      64.4       52     46.6      0.00      6.05      64.7     0.44      1012.2     2.8      NE    40   5.8      NE    41   8.79    264      585.3
   04/02/2018 12:20      64.9      63.7       53     46.6      0.00      6.05      64.7     0.44      1012.3     2.1       E    80   4.5     NNE    12   8.79    265      512.1
   04/02/2018 12:10      63.6      62.1       55     46.2      0.00      6.05      64.7     0.44      1012.4     2.2     SSE   147   4.8       S   185   8.79    264      458.5
   04/02/2018 12:00      63.6      62.6       54     46.1      0.00      6.05      64.7     0.44      1012.5     2.3      NE    35   5.5     NNE    19   8.79    264      487.2
   04/02/2018 11:50      62.7      61.2       56     45.9      0.00      6.05      64.7     0.44      1012.6     2.0       N     0   4.9       N     0   8.79    265      460.1
   04/02/2018 11:40      63.6      61.5       55     45.9      0.00      6.05      64.7     0.44      1012.7     1.7     ESE   110   4.1     NNE    25   8.80    265      210.9
   04/02/2018 11:30      63.5      62.5       53     45.9      0.00      6.05      64.8     0.44      1012.7     2.1      NE    42   5.4     ESE   108   8.80    265      370.0
   04/02/2018 11:20      63.1      61.9       54     45.7      0.00      6.05      64.8     0.44      1012.7     2.2     ENE    63   5.5     NNE    28   8.80    264      570.5
   04/02/2018 11:10      62.1      61.4       55     45.5      0.00      6.05      64.7     0.44      1012.7     2.0       N    11   5.2     NNE    28   8.80    264      507.2
   04/02/2018 11:00      61.8      59.4       59     45.7      0.00      6.05      64.8     0.44      1012.8     1.6       E    80   4.6     ESE   114   8.80    265      553.9
   04/02/2018 10:50      61.1      59.5       58     45.8      0.00      6.05      64.8     0.44      1012.9     1.8     ESE   123   4.7      SE   138   8.79    266      347.9
   04/02/2018 10:40      61.1      59.4       59     45.9      0.00      6.05      64.9     0.44      1012.9     1.4     ENE    71   3.7      SE   144   8.80    265      481.1
   04/02/2018 10:30      59.6      58.3       62     45.8      0.00      6.05      64.8     0.44      1013.0     1.0      NW   309   2.9     WNW   296   8.80    266      236.1
   04/02/2018 10:20      58.6      57.2       64     45.6      0.00      6.05      64.8     0.44      1013.0     1.3     WNW   284   3.7       N   353   8.80    266      204.5
   04/02/2018 10:10      57.7      57.2       64     45.4      0.00      6.05      64.9     0.44      1012.9     2.3     NNE    32   4.4     ESE   106   8.80    266      199.5
   04/02/2018 10:00      57.7      56.8       65     45.6      0.00      6.05      64.9     0.44      1012.9     1.9     ENE    72   4.2     ESE   113   8.80    266      199.1
   04/02/2018 09:50      57.1      56.4       66     45.5      0.00      6.05      65.0     0.44      1013.0     1.3       N   354   3.9      NE    56   8.80    266      164.7
   04/02/2018 09:40      56.9      56.3       66     45.4      0.00      6.05      64.9     0.44      1013.0     1.7       N   357   3.2       N    10   8.80    266      124.3
   04/02/2018 09:30      56.8      55.6       67     45.3      0.00      6.05      65.0     0.44      1013.0     0.7     NNW   327   3.3     NNW   343   8.80    266      101.9
   04/02/2018 09:20      55.9      55.5       68     45.3      0.00      6.05      65.0     0.44      1013.0     1.4       S   177   3.8     ESE   122   8.80    267       98.2
   04/02/2018 09:10      56.3      55.5       68     45.6      0.00      6.05      65.0     0.44      1012.9     1.4     ESE   103   4.8     ESE   106   8.80    267       81.8
   04/02/2018 09:00      56.1      55.5       69     45.8      0.00      6.05      65.0     0.44      1012.9     0.5     ENE    76   1.9       E    97   8.80    267       69.0
   04/02/2018 08:50      55.6      54.9       71     45.8      0.00      6.05      65.1     0.44      1012.9     0.9     ENE    73   3.3       E    89   8.80    267       68.8
   04/02/2018 08:40      55.1      54.5       71     45.6      0.00      6.05      65.1     0.44      1012.8     1.2     ESE   120   3.8     ENE    57   8.80    267       58.5
   04/02/2018 08:30      54.9      54.5       71     45.5      0.00      6.05      65.1     0.44      1012.7     1.5       E    84   4.2     ESE   112   8.80    267       50.2
   04/02/2018 08:20      54.8      54.0       72     45.6      0.00      6.05      65.1     0.44      1012.5     1.5     ENE    72   3.2       E    82   8.80    267       46.9
   04/02/2018 08:10      54.4      54.0       73     45.6      0.00      6.05      65.1     0.44      1012.5     2.3     ESE   120   4.8       E    92   8.80    267       39.0
   04/02/2018 08:00      54.4      53.9       74     45.8      0.00      6.05      65.2     0.44      1012.5     1.6     SSE   164   3.6       S   182   8.80    267       24.2
   04/02/2018 07:50      54.3      53.8       74     46.0      0.00      6.05      65.2     0.44      1012.5     1.6       S   180   2.7       S   184   8.80    268       15.8
   04/02/2018 07:40      54.0      53.6       74     45.8      0.00      6.05      65.2     0.44      1012.5     2.3      SW   222   4.2     SSW   192   8.80    268       11.7
   04/02/2018 07:30      54.1      53.7       74     45.9      0.00      6.05      65.2     0.45      1012.5     1.9     SSE   167   4.5       S   171   8.80    268        4.2
   04/02/2018 07:20      53.9      53.6       74     45.8      0.00      6.05      65.3     0.45      1012.5     1.6      SE   145   2.7       S   187   8.80    268       -1.0
   04/02/2018 07:10      53.9      53.6       75     45.8      0.00      6.05      65.3     0.45      1012.2     1.8      SE   142   3.8      SE   145   8.80    268       -4.2
   04/02/2018 07:00      54.0      53.5       75     46.0      0.00      6.05      65.3     0.45      1012.0     2.0     SSE   162   4.1     SSE   157   8.80    268       -8.0
   04/02/2018 06:50      53.9      53.5       75     46.0      0.00      6.05      65.3     0.45      1012.0     1.9      SE   133   4.2      SE   140   8.80    268      -10.7
   04/02/2018 06:40      53.8      53.5       76     46.2      0.00      6.05      65.3     0.45      1011.8     1.7      SE   137   5.2      SE   145   8.80    268      -12.3
   04/02/2018 06:30      53.9      53.5       76     46.3      0.00      6.05      65.4     0.45      1011.7     1.6     ESE   114   3.6     ESE   109   8.80    268      -12.9
   04/02/2018 06:20      54.0      53.6       76     46.3      0.00      6.05      65.4     0.45      1011.6     0.9      SE   136   2.9       E   101   8.80    268      -13.0
   04/02/2018 06:10      54.0      53.6       76     46.6      0.00      6.05      65.4     0.45      1011.5     1.1       E    94   2.5     ESE   113   8.81    268      -13.0
   04/02/2018 06:00      54.3      53.6       77     46.7      0.00      6.05      65.4     0.45      1011.6     1.4      SE   136   3.6      SE   126   8.80    268      -12.7
   04/02/2018 05:50      54.4      53.9       77     47.0      0.00      6.05      65.4     0.45      1011.6     0.9       E    89   3.3     ESE   117   8.81    268      -12.5
   04/02/2018 05:40      54.2      53.8       77     46.9      0.00      6.05      65.5     0.45      1011.5     1.2      SE   137   3.1      SE   125   8.81    268      -12.4
   04/02/2018 05:30      54.2      53.9       77     47.0      0.00      6.05      65.5     0.45      1011.4     2.0     SSE   147   4.6      SE   142   8.81    268      -12.8
   04/02/2018 05:20      54.4      53.9       78     47.3      0.00      6.05      65.5     0.45      1011.3     1.8      SE   132   4.0     ESE   122   8.81    268      -12.6
   04/02/2018 05:10      54.4      54.0       78     47.4      0.00      6.05      65.5     0.45      1011.2     1.3       E    96   3.9      SE   140   8.81    268      -12.6
   04/02/2018 05:00      54.5      54.1       78     47.4      0.00      6.05      65.6     0.45      1011.2     1.1     ESE   102   4.1       E    95   8.81    268      -12.9
   04/02/2018 04:50      54.5      54.2       77     47.3      0.00      6.05      65.5     0.45      1011.3     1.0       E    86   3.1     ENE    77   8.81    268      -12.4
   04/02/2018 04:50      54.5      54.2       77     47.3      0.00      6.05      65.5     0.45      1011.3     1.0       E    86   3.1     ENE    77   8.81    268      -12.4
   04/02/2018 04:40      54.9      54.1       78     47.5      0.00      6.05      65.7     0.45      1011.3     1.7       E    92   4.1     ESE   120   8.81    268      -13.7
   04/02/2018 04:30      54.8      54.4       79     48.0      0.00      6.05      65.7     0.45      1011.4     0.9       E    92   2.3       E    80   8.81    268      -11.6
   04/02/2018 04:20      54.9      54.4       79     48.2      0.00      6.05      65.7     0.45      1011.5     1.5       E    89   4.9       E    85   8.81    268      -10.9
   04/02/2018 04:10      54.7      54.3       81     48.6      0.00      6.05      65.7     0.45      1011.5     0.5     ENE    74   2.6     ESE   108   8.81    268      -11.0
   04/02/2018 04:00      54.5      54.0       82     48.7      0.00      6.05      65.7     0.45      1011.7     1.1     ESE   110   3.5      SE   133   8.81    268      -10.9
   04/02/2018 03:50      54.4      54.1       83     49.1      0.00      6.05      65.7     0.45      1011.7     0.1     ESE   110   1.1     ESE   110   8.81    268      -11.1
   04/02/2018 03:40      54.4      53.9       84     49.2      0.00      6.05      65.8     0.45      1011.9     0.2     ENE    63   1.6     ENE    72   8.81    268      -11.1
   04/02/2018 03:30      54.2      53.7       84     49.1      0.00      6.05      65.8     0.45      1012.0     0.0     ESE   107   0.8       E    98   8.81    268      -10.8
   04/02/2018 03:20      54.0      53.6       84     49.1      0.00      6.05      65.8     0.45      1012.1     0.2     SSW   214   1.1      SW   221   8.81    268      -10.6
   04/02/2018 03:10      53.9      53.5       85     49.2      0.00      6.05      65.9     0.45      1012.3     0.6     WNW   301   1.5     NNW   327   8.81    268      -10.9
   04/02/2018 03:00      53.8      53.3       85     49.3      0.00      6.05      65.9     0.45      1012.4     0.7       N     7   2.5      NE    36   8.81    268      -10.7
   04/02/2018 02:50      53.6      53.1       85     49.1      0.00      6.05      66.0     0.45      1012.4     0.4       W   267   1.4       W   264   8.81    268      -11.1
   04/02/2018 02:40      53.4      53.0       86     49.1      0.00      6.05      65.9     0.45      1012.6     0.0       N     0   0.0       E    79   8.81    268      -10.6
   04/02/2018 02:30      53.2      52.6       86     48.9      0.00      6.05      66.0     0.45      1012.6     0.0       N     0   0.0     SSW   207   8.81    268       -9.9
   04/02/2018 02:20      52.9      52.4       87     48.7      0.00      6.05      66.0     0.45      1012.6     0.6     SSW   195   2.3     SSW   196   8.81    268       -9.6
   04/02/2018 02:10      52.5      52.0       87     48.5      0.00      6.05      66.0     0.45      1012.6     0.7       S   179   1.5       S   185   8.81    268       -8.8
   04/02/2018 02:00      52.4      51.8       87     48.2      0.00      6.05      66.1     0.45      1012.8     0.8       S   177   2.5       S   172   8.81    268       -7.9
   04/02/2018 01:50      52.1      51.6       87     47.9      0.00      6.05      66.1     0.45      1012.8     1.4       S   185   2.7     SSW   196   8.81    268       -7.8
   04/02/2018 01:40      51.9      51.4       87     48.0      0.00      6.05      66.1     0.45      1012.9     1.5     SSE   160   2.8     SSE   151   8.81    268       -7.8
   04/02/2018 01:30      51.6      51.2       88     47.8      0.00      6.05      66.1     0.45      1012.9     2.1       S   171   3.4      SE   145   8.81    268       -7.0
   04/02/2018 01:20      51.5      50.8       88     47.7      0.00      6.05      66.2     0.45      1012.9     1.8       S   173   3.8       S   182   8.81    281       -8.7
   04/02/2018 01:10      51.4      50.6       89     47.7      0.00      6.05      66.2     0.45      1012.9     1.8       S   185   3.6       S   189   8.81    288      -14.6
   04/02/2018 01:00      51.8      51.0       88     48.0      0.00      6.05      66.3     0.45      1012.9     0.4       S   174   1.7     SSW   191   8.81    288      -26.4
   04/02/2018 00:50      51.9      51.3       88     48.2      0.00      6.05      66.2     0.45      1012.9     0.6     SSW   196   1.6       S   187   8.81    285      -32.8
   04/02/2018 00:40      51.9      51.3       87     47.8      0.00      6.05      66.3     0.45      1012.9     0.0     SSE   165   0.6     SSE   166   8.81    282      -36.8
   04/02/2018 00:30      51.8      51.4       87     47.7      0.00      6.05      66.3     0.45      1012.9     0.2      SE   144   0.8      SE   144   8.81    279      -39.7
   04/02/2018 00:20      52.1      51.5       86     47.7      0.00      6.05      66.3     0.45      1012.8     0.5     SSE   157   1.5      SE   140   8.82    277      -41.5
   04/02/2018 00:10      52.5      51.8       85     47.9      0.00      6.05      66.3     0.45      1012.7     0.2       S   177   0.9       S   181   8.82    275      -43.9
   04/02/2018 00:00      52.5      52.1       85     47.8      0.00      6.05      66.3     0.45      1012.7     0.0       S   182   0.7       S   179   8.82    273      -47.2
   04/01/2018 23:50      52.5      52.0       85     47.8      0.00      6.05      66.4     0.45      1012.6     0.2       S   173   0.8       S   176   8.82    273      -50.7
   04/01/2018 23:40      53.0      52.0       84     47.8      0.00      6.05      66.4     0.45      1012.6     0.3     SSE   169   0.7     SSE   169   8.82    272      -52.3
   04/01/2018 23:30      53.2      52.6       84     48.1      0.00      6.05      66.4     0.45      1012.6     0.1     SSE   165   0.7     SSE   159   8.82    271      -53.2
   04/01/2018 23:20      53.4      52.7       84     48.2      0.00      6.05      66.4     0.45      1012.6     0.1       S   188   0.8       S   189   8.82    270      -54.7
   04/01/2018 23:10      53.6      53.0       83     48.3      0.00      6.05      66.4     0.45      1012.6     0.0       N     0   0.0       S   173   8.82    270      -56.8
   04/01/2018 23:00      53.8      53.3       83     48.6      0.00      6.05      66.4     0.45      1012.7     0.2     SSE   161   0.8       S   173   8.82    270      -57.9
   04/01/2018 22:50      53.9      53.4       83     48.4      0.00      6.05      66.4     0.45      1012.7     0.1     SSE   153   1.2      SE   142   8.82    268      -61.2
   04/01/2018 22:40      54.4      53.6       81     48.4      0.00      6.05      66.4     0.45      1012.8     0.7       S   182   1.6       S   177   8.82    268      -62.2
   04/01/2018 22:30      54.7      54.2       81     48.5      0.00      6.05      66.4     0.45      1012.8     0.0       N     0   0.0     NNE    14   8.82    268      -63.2
   04/01/2018 22:20      54.9      54.4       80     48.4      0.00      6.05      66.4     0.45      1012.8     0.0       N     0   0.0     SSE   159   8.82    268      -65.0
   04/01/2018 22:10      55.3      54.7       79     48.5      0.00      6.05      66.4     0.45      1012.8     0.1     SSE   168   0.9       S   175   8.83    268      -67.4
   04/01/2018 22:00      55.8      55.0       77     48.1      0.00      6.05      66.4     0.45      1012.8     0.0     SSE   150   0.2     SSE   157   8.83    267      -68.0
   04/01/2018 21:50      56.5      55.4       76     48.1      0.00      6.05      66.4     0.45      1012.8     0.0       E    79   0.3     ENE    78   8.83    267      -70.0
   04/01/2018 21:40      56.4      56.0       75     48.4      0.00      6.05      66.4     0.45      1012.8     0.2       E    92   1.7       E    95   8.83    267      -71.4
   04/01/2018 21:30      56.6      56.1       74     48.2      0.00      6.05      66.4     0.45      1012.7     0.3       E    79   1.7     ESE   105   8.83    266      -72.1
   04/01/2018 21:20      57.0      56.1       72     47.7      0.00      6.05      66.3     0.45      1012.6     0.3     ENE    59   1.7     ENE    57   8.83    266      -71.8
   04/01/2018 21:10      57.7      56.6       71     47.7      0.00      6.05      66.4     0.45      1012.5     0.0       E    79   0.5       E    79   8.83    266      -74.1
   04/01/2018 21:00      58.2      57.4       70     48.1      0.00      6.05      66.4     0.45      1012.4     0.1     ENE    58   1.6     ENE    62   8.83    266      -76.5
   04/01/2018 20:50      58.7      58.0       69     48.3      0.00      6.05      66.4     0.45      1012.2     1.3      NE    54   2.6     ENE    57   8.83    266      -77.8
   04/01/2018 20:40      59.2      58.4       67     47.9      0.00      6.05      66.3     0.45      1012.1     1.7      NE    52   3.1      NE    49   8.84    266      -78.1
   04/01/2018 20:30      59.7      58.9       64     47.3      0.00      6.05      66.4     0.45      1012.0     1.6      NE    52   2.9     ENE    67   8.84    266      -78.2
   04/01/2018 20:20      60.3      59.4       62     46.6      0.00      6.05      66.3     0.45      1011.9     1.1     ENE    59   3.3     ENE    74   8.84    266      -77.6
   04/01/2018 20:10      60.6      59.8       61     46.5      0.00      6.05      66.3     0.45      1011.9     1.5     ENE    61   2.7      NE    56   8.84    266      -77.3
   04/01/2018 20:00      61.1      60.4       60     46.7      0.00      6.05      66.2     0.45      1011.8     1.7      NE    54   3.5     ENE    71   8.84    266      -76.3
   04/01/2018 19:50      61.7      60.9       60     47.1      0.00      6.05      66.2     0.45      1011.7     0.7     ENE    75   2.8     ENE    63   8.85    266      -74.3
   04/01/2018 19:40      62.4      61.4       58     46.9      0.00      6.05      66.1     0.45      1011.7     0.8     ENE    67   2.0      NE    45   8.85    266      -73.3
   04/01/2018 19:30      63.1      61.9       55     45.9      0.00      6.05      66.2     0.45      1011.6     1.1       E    82   2.8     ENE    60   8.85    265      -71.1
   04/01/2018 19:20      63.8      62.8       54     46.2      0.00      6.05      66.1     0.45      1011.5     1.0     ENE    76   2.2      NE    55   8.85    265      -70.1
   04/01/2018 19:10      64.2      63.5       55     47.1      0.00      6.05      66.1     0.45      1011.5     1.1       E    86   2.4      SE   130   8.85    265      -63.7
   04/01/2018 19:00      65.0      63.8       55     47.6      0.00      6.05      66.0     0.45      1011.5     1.6      SE   128   3.5      SE   130   8.86    265      -55.9
   04/01/2018 18:50      65.4      64.6       55     48.2      0.00      6.05      66.0     0.45      1011.5     1.7     ESE   114   4.8      SE   143   8.86    265      -43.9
   04/01/2018 18:40      65.9      65.1       53     47.7      0.00      6.05      66.0     0.45      1011.5     2.2     ENE    70   3.5       E    80   8.86    264      -31.2
   04/01/2018 18:30      66.8      65.7       51     47.3      0.00      6.05      66.0     0.45      1011.5     2.6     ENE    64   4.4     ENE    71   8.86    264      -18.2
   04/01/2018 18:20      67.6      66.4       49     46.9      0.00      6.05      65.9     0.45      1011.5     2.6     ENE    57   5.6     ENE    56   8.86    264       -0.9
   04/01/2018 18:10      68.1      67.3       46     46.0      0.00      6.05      65.9     0.45      1011.5     1.6       E    84   4.1     SSE   148   8.87    264       20.6
   04/01/2018 18:00      68.2      67.4       45     46.1      0.00      6.05      65.8     0.45      1011.4     0.6       E    93   2.5       E    93   8.87    264       25.0
   04/01/2018 17:50      68.2      67.2       46     45.8      0.00      6.05      65.8     0.45      1011.4     2.7      SE   144   5.7       S   173   8.87    264       53.7
   04/01/2018 17:40      68.4      67.9       45     46.1      0.00      6.05      65.8     0.45      1011.5     1.8      SE   145   4.9       S   171   8.87    264       93.5
   04/01/2018 17:30      68.4      67.4       47     46.7      0.00      6.05      65.7     0.45      1011.5     1.8      SE   143   3.9     SSE   166   8.87    263      128.6
   04/01/2018 17:20      68.1      67.6       46     46.5      0.00      6.05      65.7     0.45      1011.6     2.4     SSE   152   4.9     SSE   154   8.88    264      140.7
   04/01/2018 17:10      68.0      67.1       49     47.5      0.00      6.05      65.6     0.45      1011.6     3.6     SSE   166   7.1       S   180   8.88    264      147.3
   04/01/2018 17:00      68.0      67.2       49     47.7      0.00      6.05      65.5     0.45      1011.6     2.7     SSE   151   4.7       S   176   8.88    264      127.4
   04/01/2018 16:50      68.0      67.4       50     48.3      0.00      6.05      65.5     0.45      1011.6     3.1     SSE   162   6.2      SE   141   8.89    264      118.5
   04/01/2018 16:40      69.3      67.7       47     47.4      0.00      6.05      65.4     0.45      1011.6     3.1     SSE   159   5.2       S   185   8.89    264      110.2
   04/01/2018 16:30      69.5      68.7       43     45.8      0.00      6.05      65.4     0.45      1011.5     2.1      SE   131   5.6      SE   132   8.89    263      111.6
   04/01/2018 16:20      69.8      68.3       47     48.2      0.00      6.05      65.3     0.45      1011.4     2.7     SSE   166   6.5       S   180   8.89    264      121.3
   04/01/2018 16:10      70.5      69.5       45     47.8      0.00      6.05      65.3     0.45      1011.5     2.4      SE   124   5.2      NE    55   8.90    263      138.4
   04/01/2018 16:00      70.9      70.0       40     44.7      0.00      6.05      65.2     0.45      1011.5     3.0     ENE    60   5.6     ENE    69   8.90    263      171.5
   04/01/2018 15:50      71.5      70.6       38     44.3      0.00      6.05      65.2     0.45      1011.6     3.3     ENE    62   6.2     ENE    64   8.90    263      248.1
   04/01/2018 15:40      71.5      70.9       39     44.7      0.00      6.05      65.1     0.45      1011.6     3.3     ENE    63   5.9      NE    52   8.91    263      234.8
   04/01/2018 15:30      71.3      70.5       40     45.2      0.00      6.05      65.0     0.45      1011.6     3.6     ENE    58   6.3      NE    55   8.91    263      250.0
   04/01/2018 15:20      71.1      70.5       40     45.2      0.00      6.05      65.0     0.45      1011.6     3.6     ENE    68   6.2      NE    48   8.91    263      292.6
   04/01/2018 15:10      71.5      70.6       39     44.6      0.00      6.05      64.9     0.45      1011.7     3.7      NE    55   6.7      NE    53   8.91    263      250.6
   04/01/2018 15:00      72.8      71.0       36     43.5      0.00      6.05      64.9     0.45      1011.8     4.1      NE    45   7.0      NE    46   8.92    263      239.0
   04/01/2018 14:50      73.3      72.3       35     43.9      0.00      6.05      64.8     0.45      1011.9     3.3      NE    53   6.3     ENE    62   8.92    263      253.4
   04/01/2018 14:40      73.2      72.3       36     44.3      0.00      6.05      64.8     0.45      1011.9     2.9      NE    51   6.9     ENE    64   8.92    263      211.5
   04/01/2018 14:30      73.0      72.3       39     46.6      0.00      6.05      64.7     0.45      1011.9     2.9     ENE    74   5.4       E    81   8.92    263      204.3
   04/01/2018 14:20      75.3      72.3       39     47.3      0.00      6.05      64.7     0.45      1011.9     3.9     ENE    57   7.2      NE    47   8.93    263      298.8
   04/01/2018 14:10      75.1      73.5       40     48.5      0.00      6.05      64.6     0.45      1012.0     3.3     ENE    58   5.9     ENE    62   8.93    263      455.2
   04/01/2018 14:00      75.2      74.3       39     48.3      0.00      6.05      64.6     0.44      1012.1     4.0      NE    55   7.4     ENE    59   8.93    263      642.9
   04/01/2018 13:50      75.1      74.1       39     47.8      0.00      6.05      64.5     0.44      1012.1     3.3       E    88   6.9      SE   137   8.93    262      639.4
   04/01/2018 13:40      75.3      74.3       36     46.3      0.00      6.05      64.5     0.44      1012.2     2.3      NE    55   6.4       E    88   8.93    262      571.1
   04/01/2018 13:30      74.5      72.8       37     46.1      0.00      6.05      64.5     0.45      1012.3     2.0     ENE    72   4.3       E    92   8.93    263      521.5
   04/01/2018 13:20      74.0      72.8       38     46.3      0.00      6.05      64.4     0.44      1012.4     2.7      NE    47   7.3      NE    48   8.94    263      475.8
   04/01/2018 13:10      73.3      72.2       39     46.6      0.00      6.05      64.4     0.44      1012.5     3.2     NNE    20   6.8      NE    52   8.94    263      461.5
   04/01/2018 13:00      73.0      71.5       40     46.3      0.00      6.05      64.4     0.44      1012.6     2.3      NE    52   5.7      NE    41   8.94    263      398.4
   04/01/2018 12:50      73.3      72.7       38     46.2      0.00      6.05      64.4     0.44      1012.7     2.2     NNE    20   4.5      NE    54   8.94    263      414.8
   04/01/2018 12:40      73.0      71.9       40     46.7      0.00      6.05      64.4     0.44      1012.9     2.6      NE    42   6.0     ENE    78   8.94    263      562.3
   04/01/2018 12:30      72.8      71.8       40     46.9      0.00      6.05      64.3     0.44      1013.1     2.3     NNE    28   5.2       E    80   8.94    263      561.1
   04/01/2018 12:20      71.7      70.8       42     47.0      0.00      6.05      64.3     0.44      1013.3     1.9     ENE    74   3.9     NNE    15   8.94    263      554.5
   04/01/2018 12:10      71.1      70.0       44     47.7      0.00      6.05      64.3     0.44      1013.4     3.2     NNE    12   6.1      NW   324   8.95    263      557.1
   04/01/2018 12:00      70.9      70.2       46     48.5      0.00      6.05      64.4     0.44      1013.6     2.3     ENE    77   4.6      SE   131   8.95    263      552.9
   04/01/2018 11:50      70.3      69.2       48     49.1      0.00      6.05      64.3     0.44      1013.6     2.4      NE    41   5.0       E    92   8.95    264      565.4
   04/01/2018 11:40      69.0      67.9       51     49.4      0.00      6.05      64.3     0.44      1013.8     2.4     NNE    23   5.4     NNE    29   8.95    264      542.7
   04/01/2018 11:30      68.9      67.6       52     49.9      0.00      6.05      64.3     0.44      1013.9     2.1     NNE    25   5.1       N   351   8.95    264      480.4
   04/01/2018 11:20      67.7      67.2       53     49.8      0.00      6.05      64.4     0.45      1014.0     2.5      NE    36   5.3      NW   326   8.95    264      481.3
   04/01/2018 11:10      67.6      66.6       54     49.9      0.00      6.05      64.4     0.45      1014.1     2.8     NNE    27   5.2       N    11   8.95    265      506.7
   04/01/2018 11:00      67.5      65.9       54     49.5      0.00      6.05      64.4     0.45      1014.2     2.6      NE    46   5.7     ESE   101   8.95    265      487.1
   04/01/2018 10:50      67.1      65.5       54     49.0      0.00      6.05      64.4     0.45      1014.3     2.1      NE    37   6.7     NNW   344   8.95    265      471.1
   04/01/2018 10:40      65.7      64.4       56     48.8      0.00      6.05      64.4     0.45      1014.3     2.0     ENE    62   4.8      NE    55   8.95    265      456.7
   04/01/2018 10:30      64.5      63.9       57     48.7      0.00      6.05      64.5     0.45      1014.4     1.9      NE    45   4.5       E    92   8.95    265      439.7
   04/01/2018 10:20      64.0      63.2       59     48.8      0.00      6.05      64.5     0.45      1014.4     2.3     NNE    13   4.3      NE    35   8.95    266      420.4
   04/01/2018 10:10      63.5      62.0       61     49.0      0.00      6.05      64.5     0.45      1014.3     1.5     NNE    17   3.8     NNW   331   8.95    266      400.4
   04/01/2018 10:00      63.6      61.8       62     49.4      0.00      6.05      64.5     0.45      1014.3     1.9      NE    42   4.7      NE    52   8.95    266      382.1
   04/01/2018 09:50      62.4      61.1       65     50.0      0.00      6.05      64.6     0.45      1014.3     1.4     NNE    21   2.8      NE    35   8.95    266      347.2
   04/01/2018 09:40      61.3      60.0       68     50.1      0.00      6.05      64.6     0.45      1014.3     1.5       N   353   3.5     NNE    15   8.95    266      324.5
   04/01/2018 09:30      60.4      59.7       70     50.1      0.00      6.05      64.6     0.45      1014.5     1.9       N     8   4.0       N   355   8.95    266      307.3
   04/01/2018 09:20      60.3      58.6       72     50.4      0.00      6.05      64.7     0.45      1014.5     1.2       N   357   2.6       N   355   8.95    266      300.5
   04/01/2018 09:10      58.7      58.2       74     50.4      0.00      6.05      64.7     0.45      1014.5     1.4     NNE    25   3.6     NNE    28   8.95    266      265.4
   04/01/2018 09:00      58.1      56.4       79     50.4      0.00      6.05      64.7     0.45      1014.4     0.6     NNE    32   2.7      NE    53   8.95    267      232.2
   04/01/2018 08:50      56.6      55.0       82     50.2      0.00      6.05      64.7     0.45      1014.4     0.9     NNE    15   2.2     NNE    28   8.95    268      148.8
   04/01/2018 08:40      55.3      54.6       83     49.9      0.00      6.05      64.8     0.45      1014.2     1.6     NNE    31   3.2     ENE    56   8.95    268      115.8
   04/01/2018 08:30      54.7      54.0       84     49.8      0.00      6.05      64.8     0.45      1014.2     1.8      NE    39   3.5      NE    50   8.95    268       87.7
   04/01/2018 08:20      54.4      54.0       85     49.6      0.00      6.05      64.8     0.45      1014.1     1.9      NE    47   4.0      NE    42   8.95    268       64.5
   04/01/2018 08:10      54.3      53.9       85     49.6      0.00      6.05      64.8     0.45      1014.1     1.5     ENE    69   3.8       E    93   8.95    268       52.2
   04/01/2018 08:00      54.3      53.6       85     49.5      0.00      6.05      64.8     0.45      1014.2     1.5     ENE    60   2.9     ENE    66   8.96    268       36.1
   04/01/2018 07:50      54.3      53.6       85     49.4      0.00      6.05      64.9     0.45      1014.2     2.0      NE    46   3.6      NE    46   8.96    268       23.4
   04/01/2018 07:40      54.2      53.7       84     49.2      0.00      6.05      64.9     0.45      1014.1     1.6     ENE    60   3.1       N   352   8.96    268       10.6
   04/01/2018 07:30      54.0      53.5       84     49.0      0.00      6.05      64.9     0.45      1014.0     1.2      NE    49   2.6     ENE    60   8.96    268       -3.6
   04/01/2018 07:20      53.8      53.4       84     49.0      0.00      6.05      65.0     0.45      1014.0     1.6      NE    48   2.8      NE    51   8.96    268      -17.1
   04/01/2018 07:10      53.8      53.4       85     49.0      0.00      6.05      65.0     0.45      1014.0     0.9      NE    56   2.6     ENE    59   8.96    268      -27.0
   04/01/2018 07:00      53.8      53.3       85     49.0      0.00      6.05      65.0     0.45      1013.8     1.0     ENE    65   2.4      NE    51   8.96    268      -33.2
   04/01/2018 06:50      53.7      53.3       85     49.2      0.00      6.05      65.0     0.45      1013.7     1.0     ENE    72   3.7     ENE    73   8.96    268      -36.6
   04/01/2018 06:40      53.5      53.2       86     49.3      0.00      6.05      65.1     0.45      1013.7     0.8     ENE    78   3.5       E    90   8.96    268      -36.0
   04/01/2018 06:30      53.5      53.0       87     49.3      0.00      6.05      65.1     0.45      1013.7     0.2     ESE   115   1.1     SSE   158   8.96    269      -35.6
   04/01/2018 06:20      53.2      52.7       86     49.0      0.00      6.05      65.1     0.45      1013.7     0.1     SSE   147   1.0       S   183   8.96    269      -35.8
   04/01/2018 06:10      53.3      52.7       86     48.9      0.00      6.05      65.1     0.45      1013.7     0.0       S   179   0.4       S   180   8.96    269      -37.0
   04/01/2018 06:00      53.5      52.9       86     49.0      0.00      6.05      65.1     0.45      1013.7     0.1      SE   142   1.0      SE   145   8.96    269      -36.9
   04/01/2018 05:50      53.5      53.2       86     49.2      0.00      6.05      65.2     0.45      1013.7     0.1      SE   140   1.2      SE   141   8.96    269      -36.5
   04/01/2018 05:40      53.5      53.0       86     49.0      0.00      6.05      65.2     0.45      1013.7     0.0       N     0   0.0       S   178   8.96    269      -36.0
   04/01/2018 05:30      53.6      53.2       86     49.2      0.00      6.05      65.2     0.45      1013.7     0.0       N     0   0.0       S   178   8.96    269      -36.3
   04/01/2018 05:20      53.6      53.2       86     49.2      0.00      6.05      65.2     0.45      1013.7     0.0       N     0   0.0       S   171   8.96    269      -36.5
   04/01/2018 05:10      53.8      53.2       85     49.0      0.00      6.05      65.3     0.45      1013.7     0.3     SSE   153   1.0      SE   145   8.96    269      -37.1
   04/01/2018 05:00      54.0      53.5       85     49.2      0.00      6.05      65.3     0.45      1013.7     0.0     SSW   199   0.6     SSW   200   8.96    269      -37.0
   04/01/2018 04:50      54.0      53.6       85     49.2      0.00      6.05      65.3     0.45      1013.7     0.0     SSW   193   0.6     SSW   205   8.96    268      -36.7
   04/01/2018 04:40      54.0      53.5       85     49.1      0.00      6.05      65.3     0.45      1013.8     0.5       S   175   1.3       S   179   8.96    268      -37.1
   04/01/2018 04:30      54.1      53.6       84     49.1      0.00      6.05      65.3     0.45      1013.9     0.0     SSE   156   0.6     SSE   150   8.96    268      -37.2
   04/01/2018 04:20      54.1      53.6       84     49.2      0.00      6.05      65.4     0.45      1014.0     0.0       S   189   0.5       S   190   8.96    268      -37.2
   04/01/2018 04:10      54.0      53.6       84     49.1      0.00      6.05      65.4     0.45      1014.2     0.2     SSW   194   0.9       S   189   8.96    268      -36.6
   04/01/2018 04:00      54.0      53.5       84     49.0      0.00      6.05      65.4     0.45      1014.2     0.0       N     0   0.0     ESE   111   8.96    268      -36.6
   04/01/2018 03:50      53.8      53.5       84     49.1      0.00      6.05      65.5     0.45      1014.3     0.1      SE   141   1.1      SE   143   8.96    268      -36.3
   04/01/2018 03:40      53.9      53.3       84     48.8      0.00      6.05      65.5     0.45      1014.3     0.1       S   172   0.8     SSE   151   8.96    268      -36.4
   04/01/2018 03:30      54.0      53.5       84     49.0      0.00      6.05      65.4     0.45      1014.4     0.3     SSW   192   1.0       S   189   8.96    268      -37.4
   04/01/2018 03:20      53.9      53.5       84     48.9      0.00      6.05      65.5     0.45      1014.4     0.0       S   189   1.0       S   189   8.96    268      -39.3
   04/01/2018 03:10      53.9      53.5       83     48.7      0.00      6.05      65.5     0.45      1014.5     0.0       S   179   0.7       S   179   8.96    268      -41.6
   04/01/2018 03:00      54.2      53.5       83     48.6      0.00      6.05      65.5     0.45      1014.5     0.1       E   101   0.9       E   101   8.96    268      -44.9
   04/01/2018 02:50      54.4      53.8       82     48.7      0.00      6.05      65.5     0.45      1014.7     0.4      SE   146   1.6      SE   143   8.96    268      -48.0
   04/01/2018 02:40      54.4      54.0       82     48.9      0.00      6.05      65.5     0.45      1014.7     0.7      SE   124   1.7      SE   135   8.96    267      -51.5
   04/01/2018 02:30      54.6      54.1       81     48.8      0.00      6.05      65.5     0.45      1014.8     0.5      SE   131   2.1      SE   127   8.96    268      -53.3
   04/01/2018 02:20      54.9      54.2       81     48.8      0.00      6.05      65.6     0.45      1014.9     0.9      SE   133   1.9      SE   136   8.96    267      -54.1
   04/01/2018 02:10      55.0      54.5       80     48.8      0.00      6.05      65.6     0.45      1015.0     0.8      SE   135   1.5      SE   127   8.96    267      -55.6
   04/01/2018 02:00      55.0      54.6       80     48.7      0.00      6.05      65.6     0.45      1015.2     0.4     ENE    64   1.9     NNE    33   8.97    267      -54.3
   04/01/2018 01:50      55.3      54.7       79     48.7      0.00      6.05      65.6     0.45      1015.3     0.0      NE    56   0.8      NE    49   8.97    267      -54.1
   04/01/2018 01:40      55.8      55.1       79     48.8      0.00      6.05      65.6     0.45      1015.5     0.3     ESE   122   2.1      SE   134   8.97    267      -55.0
   04/01/2018 01:30      56.0      55.5       78     48.8      0.00      6.05      65.7     0.45      1015.5     0.7     ESE   105   2.4       E    98   8.97    266      -54.0
   04/01/2018 01:20      56.4      55.9       76     48.7      0.00      6.05      65.7     0.45      1015.6     0.6     ENE    74   1.8      NE    53   8.97    266      -53.0
   04/01/2018 01:10      56.8      56.0       75     48.6      0.00      6.05      65.7     0.45      1015.7     1.0     ENE    73   2.1     ESE   120   8.97    266      -52.7
   04/01/2018 01:00      57.4      56.5       73     48.3      0.00      6.05      65.7     0.46      1015.8     1.8     ENE    58   3.2     ENE    57   8.97    266      -53.7
   04/01/2018 00:50      57.8      57.0       70     47.9      0.00      6.05      65.7     0.46      1015.7     1.5      NE    46   2.9     NNE    28   8.97    266      -54.3
   04/01/2018 00:40      57.8      57.4       70     47.9      0.00      6.05      65.6     0.45      1015.8     1.4      NE    35   3.4     ENE    58   8.97    266      -50.6
   04/01/2018 00:30      57.8      57.4       71     48.2      0.00      6.05      65.7     0.45      1015.7     1.1      NE    49   2.4      NE    47   8.97    266      -46.8
   04/01/2018 00:20      57.7      57.4       71     48.3      0.00      6.05      65.7     0.45      1015.7     0.4      NE    53   1.4     ENE    60   8.97    266      -45.3
   04/01/2018 00:10      58.0      57.4       71     48.2      0.00      6.05      65.7     0.45      1015.7     0.5       E    91   2.2       E    83   8.97    266      -46.3
   04/01/2018 00:00      58.2      57.6       69     48.0      0.00      6.05      65.7     0.46      1015.7     1.1       E    83   2.6     ENE    66   8.97    266      -47.1


Back to data home page